<?xml version='1.0' encoding='UTF-8'?><gpx version="1.1" creator="JPX - https://github.com/jenetics/jpx" xmlns="http://www.topografix.com/GPX/1/1"><trk><trkseg><trkpt lat="41.0615736238417" lon="14.572309566913106"><ele>255.99999999999997</ele><time>2026-05-03T11:19:37Z</time></trkpt><trkpt lat="41.0615226378516" lon="14.572435297716432"><ele>256.0</ele><time>2026-05-03T11:19:39Z</time></trkpt><trkpt lat="41.06145294410315" lon="14.572398659670542"><ele>256.0</ele><time>2026-05-03T11:19:41Z</time></trkpt><trkpt lat="41.06138102145544" lon="14.572420997410383"><ele>256.0</ele><time>2026-05-03T11:19:46.999Z</time></trkpt><trkpt lat="41.06133995279781" lon="14.572484857798079"><ele>255.99999999999997</ele><time>2026-05-03T11:19:47.999Z</time></trkpt><trkpt lat="41.06128804020161" lon="14.572582676248187"><ele>256.0</ele><time>2026-05-03T11:19:48.999Z</time></trkpt><trkpt lat="41.0612331103901" lon="14.572685148472306"><ele>256.0</ele><time>2026-05-03T11:19:49.999Z</time></trkpt><trkpt lat="41.061168570649144" lon="14.572802232695196"><ele>256.0</ele><time>2026-05-03T11:19:50.999Z</time></trkpt><trkpt lat="41.06110757853293" lon="14.572921357501684"><ele>256.0</ele><time>2026-05-03T11:19:51.999Z</time></trkpt><trkpt lat="41.0610359818941" lon="14.573056933230575"><ele>256.0</ele><time>2026-05-03T11:19:52.999Z</time></trkpt><trkpt lat="41.06095887507973" lon="14.573198954308957"><ele>256.25</ele><time>2026-05-03T11:19:53.999Z</time></trkpt><trkpt lat="41.06088256739793" lon="14.573343438096348"><ele>256.5</ele><time>2026-05-03T11:19:54.999Z</time></trkpt><trkpt lat="41.06080526007049" lon="14.573493347683113"><ele>256.75</ele><time>2026-05-03T11:19:55.999Z</time></trkpt><trkpt lat="41.06072669379839" lon="14.573651770508866"><ele>257.0</ele><time>2026-05-03T11:19:56.999Z</time></trkpt><trkpt lat="41.060634860464035" lon="14.573817096353439"><ele>258.0</ele><time>2026-05-03T11:19:57.999Z</time></trkpt><trkpt lat="41.06054900087248" lon="14.573975334766569"><ele>259.0</ele><time>2026-05-03T11:19:58.999Z</time></trkpt><trkpt lat="41.060462215025865" lon="14.574144020087136"><ele>260.0</ele><time>2026-05-03T11:19:59.999Z</time></trkpt><trkpt lat="41.06036839514065" lon="14.574311616274683"><ele>260.0</ele><time>2026-05-03T11:20:00.999Z</time></trkpt><trkpt lat="41.0602693881397" lon="14.574457442554626"><ele>260.0</ele><time>2026-05-03T11:20:01.999Z</time></trkpt><trkpt lat="41.06015102645767" lon="14.57460375244398"><ele>260.0</ele><time>2026-05-03T11:20:02.999Z</time></trkpt><trkpt lat="41.06001290052996" lon="14.574727402421521"><ele>260.33333333333337</ele><time>2026-05-03T11:20:03.999Z</time></trkpt><trkpt lat="41.059858651354205" lon="14.57484255663262"><ele>260.6666666666667</ele><time>2026-05-03T11:20:04.999Z</time></trkpt><trkpt lat="41.05970780857797" lon="14.57495693234074"><ele>261.0</ele><time>2026-05-03T11:20:05.999Z</time></trkpt><trkpt lat="41.059553753328174" lon="14.575077166699982"><ele>261.0</ele><time>2026-05-03T11:20:06.999Z</time></trkpt><trkpt lat="41.05940589780407" lon="14.575202546214896"><ele>261.0</ele><time>2026-05-03T11:20:07.999Z</time></trkpt><trkpt lat="41.05926274951989" lon="14.575330702361834"><ele>261.0</ele><time>2026-05-03T11:20:08.999Z</time></trkpt><trkpt lat="41.05912332695231" lon="14.575457402909581"><ele>260.6666666666667</ele><time>2026-05-03T11:20:09.999Z</time></trkpt><trkpt lat="41.058978054818674" lon="14.575585407992698"><ele>260.33333333333337</ele><time>2026-05-03T11:20:10.999Z</time></trkpt><trkpt lat="41.058834635666386" lon="14.575709853402913"><ele>260.0</ele><time>2026-05-03T11:20:11.999Z</time></trkpt><trkpt lat="41.05870376600366" lon="14.575841611789373"><ele>260.0</ele><time>2026-05-03T11:20:12.999Z</time></trkpt><trkpt lat="41.05857466846378" lon="14.575993035362321"><ele>260.0</ele><time>2026-05-03T11:20:13.999Z</time></trkpt><trkpt lat="41.05844139973018" lon="14.576152103902208"><ele>260.0</ele><time>2026-05-03T11:20:14.999Z</time></trkpt><trkpt lat="41.0583070439323" lon="14.576296736394488"><ele>259.6666666666667</ele><time>2026-05-03T11:20:15.999Z</time></trkpt><trkpt lat="41.05817328799393" lon="14.576446668723912"><ele>259.3333333333333</ele><time>2026-05-03T11:20:16.999Z</time></trkpt><trkpt lat="41.05804423773807" lon="14.576591398973257"><ele>259.0</ele><time>2026-05-03T11:20:17.999Z</time></trkpt><trkpt lat="41.05790699528702" lon="14.576732237310647"><ele>259.0</ele><time>2026-05-03T11:20:18.999Z</time></trkpt><trkpt lat="41.057741809368714" lon="14.57684025881782"><ele>259.0</ele><time>2026-05-03T11:20:19.999Z</time></trkpt><trkpt lat="41.05757715756584" lon="14.576922870979743"><ele>259.0</ele><time>2026-05-03T11:20:20.999Z</time></trkpt><trkpt lat="41.05740944016181" lon="14.57701441199023"><ele>258.3333333333333</ele><time>2026-05-03T11:20:21.999Z</time></trkpt><trkpt lat="41.057232037874705" lon="14.577075555016949"><ele>257.6666666666667</ele><time>2026-05-03T11:20:22.999Z</time></trkpt><trkpt lat="41.05705653372085" lon="14.577132866426677"><ele>257.0</ele><time>2026-05-03T11:20:23.999Z</time></trkpt><trkpt lat="41.05688713863564" lon="14.577193469107298"><ele>257.0</ele><time>2026-05-03T11:20:24.998Z</time></trkpt><trkpt lat="41.05671813087052" lon="14.577251765969566"><ele>257.0</ele><time>2026-05-03T11:20:25.998Z</time></trkpt><trkpt lat="41.056553322105046" lon="14.577310012064698"><ele>257.0</ele><time>2026-05-03T11:20:26.998Z</time></trkpt><trkpt lat="41.05639102245115" lon="14.577382533069457"><ele>257.0</ele><time>2026-05-03T11:20:27.998Z</time></trkpt><trkpt lat="41.05623582148716" lon="14.577480194266746"><ele>257.0</ele><time>2026-05-03T11:20:28.998Z</time></trkpt><trkpt lat="41.056082314011924" lon="14.5776070015853"><ele>257.0</ele><time>2026-05-03T11:20:29.998Z</time></trkpt><trkpt lat="41.05593609065915" lon="14.577752531002501"><ele>257.33333333333337</ele><time>2026-05-03T11:20:30.998Z</time></trkpt><trkpt lat="41.055796167792266" lon="14.577907535038143"><ele>257.6666666666667</ele><time>2026-05-03T11:20:31.998Z</time></trkpt><trkpt lat="41.05566158832308" lon="14.57808137911474"><ele>258.0</ele><time>2026-05-03T11:20:32.998Z</time></trkpt><trkpt lat="41.05552590177458" lon="14.578251755073893"><ele>258.3333333333333</ele><time>2026-05-03T11:20:33.998Z</time></trkpt><trkpt lat="41.055391007482825" lon="14.578421132696297"><ele>258.66666666666663</ele><time>2026-05-03T11:20:34.998Z</time></trkpt><trkpt lat="41.055248024292595" lon="14.57859281693964"><ele>259.0</ele><time>2026-05-03T11:20:35.998Z</time></trkpt><trkpt lat="41.05510635712457" lon="14.57876341882044"><ele>259.0</ele><time>2026-05-03T11:20:36.998Z</time></trkpt><trkpt lat="41.05496424502779" lon="14.578919583862044"><ele>259.0</ele><time>2026-05-03T11:20:37.998Z</time></trkpt><trkpt lat="41.054815280051244" lon="14.579081608848666"><ele>259.0</ele><time>2026-05-03T11:20:38.998Z</time></trkpt><trkpt lat="41.05466212745906" lon="14.579239585173218"><ele>259.0</ele><time>2026-05-03T11:20:39.998Z</time></trkpt><trkpt lat="41.05450903234667" lon="14.579407482056288"><ele>259.0</ele><time>2026-05-03T11:20:40.998Z</time></trkpt><trkpt lat="41.0543591057311" lon="14.579576915103605"><ele>259.0</ele><time>2026-05-03T11:20:41.998Z</time></trkpt><trkpt lat="41.054208799763046" lon="14.579748599078913"><ele>259.0</ele><time>2026-05-03T11:20:42.998Z</time></trkpt><trkpt lat="41.054054207059636" lon="14.579914454344532"><ele>259.0</ele><time>2026-05-03T11:20:43.998Z</time></trkpt><trkpt lat="41.053900523767695" lon="14.580079627160156"><ele>259.0</ele><time>2026-05-03T11:20:44.998Z</time></trkpt><trkpt lat="41.05374911029087" lon="14.580249944642802"><ele>258.66666666666663</ele><time>2026-05-03T11:20:45.998Z</time></trkpt><trkpt lat="41.053611374807474" lon="14.580437961370867"><ele>258.3333333333333</ele><time>2026-05-03T11:20:46.998Z</time></trkpt><trkpt lat="41.05348716613913" lon="14.580647378330173"><ele>258.0</ele><time>2026-05-03T11:20:47.998Z</time></trkpt><trkpt lat="41.05338284359033" lon="14.580865991657369"><ele>257.0</ele><time>2026-05-03T11:20:48.998Z</time></trkpt><trkpt lat="41.053282204231415" lon="14.581095362489172"><ele>256.0</ele><time>2026-05-03T11:20:49.998Z</time></trkpt><trkpt lat="41.053187644007835" lon="14.581326887518257"><ele>255.0</ele><time>2026-05-03T11:20:50.998Z</time></trkpt><trkpt lat="41.05310878213566" lon="14.581567537786517"><ele>255.0</ele><time>2026-05-03T11:20:51.998Z</time></trkpt><trkpt lat="41.05305945378327" lon="14.581812870381487"><ele>255.0</ele><time>2026-05-03T11:20:52.998Z</time></trkpt><trkpt lat="41.053040388542776" lon="14.582039645344976"><ele>255.0</ele><time>2026-05-03T11:20:53.998Z</time></trkpt><trkpt lat="41.05302865720487" lon="14.58227642334653"><ele>256.0</ele><time>2026-05-03T11:20:54.998Z</time></trkpt><trkpt lat="41.05300962361416" lon="14.58250755924094"><ele>257.0</ele><time>2026-05-03T11:20:55.998Z</time></trkpt><trkpt lat="41.052992817605315" lon="14.58273599147328"><ele>258.0</ele><time>2026-05-03T11:20:56.998Z</time></trkpt><trkpt lat="41.05297058449322" lon="14.582966949627368"><ele>258.6666666666667</ele><time>2026-05-03T11:20:57.998Z</time></trkpt><trkpt lat="41.052948385844076" lon="14.583199900340357"><ele>259.33333333333337</ele><time>2026-05-03T11:20:58.998Z</time></trkpt><trkpt lat="41.05293322186984" lon="14.583429584195715"><ele>260.0</ele><time>2026-05-03T11:20:59.998Z</time></trkpt><trkpt lat="41.05291388164323" lon="14.583658908885052"><ele>260.0</ele><time>2026-05-03T11:21:00.998Z</time></trkpt><trkpt lat="41.05289329104822" lon="14.583891199992092"><ele>260.0</ele><time>2026-05-03T11:21:01.998Z</time></trkpt><trkpt lat="41.0528738032516" lon="14.584123737132874"><ele>260.0</ele><time>2026-05-03T11:21:02.998Z</time></trkpt><trkpt lat="41.05284676311363" lon="14.58436334011971"><ele>259.6666666666667</ele><time>2026-05-03T11:21:03.998Z</time></trkpt><trkpt lat="41.052829132412334" lon="14.584597205717763"><ele>259.3333333333333</ele><time>2026-05-03T11:21:04.998Z</time></trkpt><trkpt lat="41.05281179160521" lon="14.58483147251275"><ele>259.0</ele><time>2026-05-03T11:21:05.998Z</time></trkpt><trkpt lat="41.052793649873834" lon="14.585067710876324"><ele>259.0</ele><time>2026-05-03T11:21:06.998Z</time></trkpt><trkpt lat="41.052773732181336" lon="14.585300887644896"><ele>259.0</ele><time>2026-05-03T11:21:07.998Z</time></trkpt><trkpt lat="41.052748562879216" lon="14.585530830809684"><ele>259.0</ele><time>2026-05-03T11:21:08.998Z</time></trkpt><trkpt lat="41.052723249037" lon="14.585759286469289"><ele>259.0</ele><time>2026-05-03T11:21:09.999Z</time></trkpt><trkpt lat="41.05269263063866" lon="14.585984672051271"><ele>259.0</ele><time>2026-05-03T11:21:10.999Z</time></trkpt><trkpt lat="41.052639899715025" lon="14.586208127725941"><ele>259.0</ele><time>2026-05-03T11:21:11.999Z</time></trkpt><trkpt lat="41.05256826663082" lon="14.586421823960178"><ele>259.3333333333333</ele><time>2026-05-03T11:21:12.999Z</time></trkpt><trkpt lat="41.052478566924734" lon="14.586623398512137"><ele>259.6666666666667</ele><time>2026-05-03T11:21:13.999Z</time></trkpt><trkpt lat="41.052378407382704" lon="14.586833473935682"><ele>260.0</ele><time>2026-05-03T11:21:14.999Z</time></trkpt><trkpt lat="41.052269677900064" lon="14.587033568060622"><ele>260.0</ele><time>2026-05-03T11:21:15.999Z</time></trkpt><trkpt lat="41.052162664250396" lon="14.587234261321681"><ele>260.0</ele><time>2026-05-03T11:21:16.999Z</time></trkpt><trkpt lat="41.05206219740479" lon="14.58743694727933"><ele>260.0</ele><time>2026-05-03T11:21:17.999Z</time></trkpt><trkpt lat="41.051967103177994" lon="14.587647394772608"><ele>260.0</ele><time>2026-05-03T11:21:18.999Z</time></trkpt><trkpt lat="41.051862653055636" lon="14.587856532962242"><ele>260.0</ele><time>2026-05-03T11:21:19.999Z</time></trkpt><trkpt lat="41.05175588641885" lon="14.58806496864431"><ele>260.0</ele><time>2026-05-03T11:21:20.999Z</time></trkpt><trkpt lat="41.05165036692797" lon="14.588281662094024"><ele>260.33333333333337</ele><time>2026-05-03T11:21:21.999Z</time></trkpt><trkpt lat="41.05155995366246" lon="14.58849259871343"><ele>260.6666666666667</ele><time>2026-05-03T11:21:22.999Z</time></trkpt><trkpt lat="41.05147738659688" lon="14.58871945064975"><ele>261.0</ele><time>2026-05-03T11:21:23.999Z</time></trkpt><trkpt lat="41.05140446639575" lon="14.588953109600066"><ele>261.0</ele><time>2026-05-03T11:21:24.999Z</time></trkpt><trkpt lat="41.05133624711696" lon="14.58919156163836"><ele>261.0</ele><time>2026-05-03T11:21:25.999Z</time></trkpt><trkpt lat="41.0512715586456" lon="14.589430173141649"><ele>261.0</ele><time>2026-05-03T11:21:26.999Z</time></trkpt><trkpt lat="41.051200558461794" lon="14.589671486177123"><ele>261.0</ele><time>2026-05-03T11:21:27.999Z</time></trkpt><trkpt lat="41.05113001472926" lon="14.589915845580531"><ele>261.0</ele><time>2026-05-03T11:21:28.999Z</time></trkpt><trkpt lat="41.05106385384421" lon="14.590158012228486"><ele>261.0</ele><time>2026-05-03T11:21:29.999Z</time></trkpt><trkpt lat="41.05099366967026" lon="14.590402962939795"><ele>261.3333333333333</ele><time>2026-05-03T11:21:30.999Z</time></trkpt><trkpt lat="41.0509223802988" lon="14.590644323823987"><ele>261.66666666666663</ele><time>2026-05-03T11:21:31.999Z</time></trkpt><trkpt lat="41.05085674606977" lon="14.590887642111188"><ele>262.0</ele><time>2026-05-03T11:21:32.999Z</time></trkpt><trkpt lat="41.05078972115075" lon="14.591126611479766"><ele>262.3333333333333</ele><time>2026-05-03T11:21:33.999Z</time></trkpt><trkpt lat="41.050720848080495" lon="14.591368909790377"><ele>262.6666666666667</ele><time>2026-05-03T11:21:34.999Z</time></trkpt><trkpt lat="41.05065411963328" lon="14.591612629456076"><ele>263.0</ele><time>2026-05-03T11:21:35.999Z</time></trkpt><trkpt lat="41.05058362534942" lon="14.59185501258907"><ele>263.33333333333337</ele><time>2026-05-03T11:21:36.999Z</time></trkpt><trkpt lat="41.05050886944681" lon="14.592097235024426"><ele>263.6666666666667</ele><time>2026-05-03T11:21:37.999Z</time></trkpt><trkpt lat="41.05044266397375" lon="14.592343974808012"><ele>264.0</ele><time>2026-05-03T11:21:38.999Z</time></trkpt><trkpt lat="41.050373448755856" lon="14.592589670149657"><ele>263.6666666666667</ele><time>2026-05-03T11:21:39.999Z</time></trkpt><trkpt lat="41.05030816586114" lon="14.592839926675795"><ele>263.33333333333337</ele><time>2026-05-03T11:21:40.999Z</time></trkpt><trkpt lat="41.05023744799266" lon="14.593091865310436"><ele>263.0</ele><time>2026-05-03T11:21:41.999Z</time></trkpt><trkpt lat="41.05016402853847" lon="14.593339077942405"><ele>263.0</ele><time>2026-05-03T11:21:42.999Z</time></trkpt><trkpt lat="41.05009664623135" lon="14.593589868446955"><ele>263.0</ele><time>2026-05-03T11:21:43.999Z</time></trkpt><trkpt lat="41.050023552069426" lon="14.593834382499994"><ele>263.0</ele><time>2026-05-03T11:21:44.999Z</time></trkpt><trkpt lat="41.04996044836393" lon="14.594083130319117"><ele>263.0</ele><time>2026-05-03T11:21:45.999Z</time></trkpt><trkpt lat="41.04991468887228" lon="14.594339771595784"><ele>263.0</ele><time>2026-05-03T11:21:46.999Z</time></trkpt><trkpt lat="41.04988118855013" lon="14.59459554046529"><ele>263.0</ele><time>2026-05-03T11:21:47.999Z</time></trkpt><trkpt lat="41.04984874787636" lon="14.594855515801443"><ele>263.6666666666667</ele><time>2026-05-03T11:21:48.999Z</time></trkpt><trkpt lat="41.04982326724776" lon="14.595110218015527"><ele>264.3333333333333</ele><time>2026-05-03T11:21:49.999Z</time></trkpt><trkpt lat="41.049796776981346" lon="14.595350077527577"><ele>265.0</ele><time>2026-05-03T11:21:50.999Z</time></trkpt><trkpt lat="41.04976630619342" lon="14.595563026689518"><ele>265.0</ele><time>2026-05-03T11:21:51.999Z</time></trkpt><trkpt lat="41.04973328685402" lon="14.595754558421712"><ele>265.0</ele><time>2026-05-03T11:21:52.999Z</time></trkpt><trkpt lat="41.04968532843894" lon="14.595935633849368"><ele>265.0</ele><time>2026-05-03T11:21:53.999Z</time></trkpt><trkpt lat="41.04962402113066" lon="14.596094418860677"><ele>265.0</ele><time>2026-05-03T11:21:54.999Z</time></trkpt><trkpt lat="41.049541913151366" lon="14.596224965507691"><ele>265.0</ele><time>2026-05-03T11:21:55.999Z</time></trkpt><trkpt lat="41.0494595408939" lon="14.596322013500828"><ele>265.0</ele><time>2026-05-03T11:21:56.999Z</time></trkpt><trkpt lat="41.04938107227566" lon="14.596401437446637"><ele>265.0</ele><time>2026-05-03T11:21:57.999Z</time></trkpt><trkpt lat="41.04930836337689" lon="14.596464928980124"><ele>265.0</ele><time>2026-05-03T11:21:58.999Z</time></trkpt><trkpt lat="41.049250578492384" lon="14.596511214211064"><ele>265.0</ele><time>2026-05-03T11:21:59.999Z</time></trkpt><trkpt lat="41.049172517699695" lon="14.596560015148969"><ele>265.0</ele><time>2026-05-03T11:22:01.999Z</time></trkpt><trkpt lat="41.0491026104052" lon="14.596621724752078"><ele>265.0</ele><time>2026-05-03T11:22:11.999Z</time></trkpt><trkpt lat="41.04902517667202" lon="14.596700758646076"><ele>265.0</ele><time>2026-05-03T11:22:14.999Z</time></trkpt><trkpt lat="41.0490929997361" lon="14.596898122844559"><ele>265.0</ele><time>2026-05-03T11:22:15.999Z</time></trkpt><trkpt lat="41.04911893436362" lon="14.597021132298977"><ele>265.0</ele><time>2026-05-03T11:22:16.999Z</time></trkpt><trkpt lat="41.04914833208854" lon="14.597148407413199"><ele>265.0</ele><time>2026-05-03T11:22:17.999Z</time></trkpt><trkpt lat="41.04918083389827" lon="14.597293532477245"><ele>265.0</ele><time>2026-05-03T11:22:18.999Z</time></trkpt><trkpt lat="41.049216842733905" lon="14.597459632544624"><ele>265.0</ele><time>2026-05-03T11:22:19.999Z</time></trkpt><trkpt lat="41.04925709855454" lon="14.597630296970332"><ele>265.0</ele><time>2026-05-03T11:22:20.999Z</time></trkpt><trkpt lat="41.04929979448703" lon="14.597805321825993"><ele>264.75</ele><time>2026-05-03T11:22:21.999Z</time></trkpt><trkpt lat="41.04934321588382" lon="14.597986168955323"><ele>264.5</ele><time>2026-05-03T11:22:22.999Z</time></trkpt><trkpt lat="41.04938298504862" lon="14.598148941989676"><ele>264.25</ele><time>2026-05-03T11:22:23.999Z</time></trkpt><trkpt lat="41.04943391744919" lon="14.598343801882427"><ele>264.0</ele><time>2026-05-03T11:22:24.999Z</time></trkpt><trkpt lat="41.04948534288089" lon="14.598551875171385"><ele>263.6666666666667</ele><time>2026-05-03T11:22:25.999Z</time></trkpt><trkpt lat="41.04953748147567" lon="14.598775795564237"><ele>263.33333333333337</ele><time>2026-05-03T11:22:26.998Z</time></trkpt><trkpt lat="41.049595287090206" lon="14.599009364531394"><ele>263.0</ele><time>2026-05-03T11:22:27.998Z</time></trkpt><trkpt lat="41.049651864788245" lon="14.599241331847113"><ele>263.0</ele><time>2026-05-03T11:22:28.998Z</time></trkpt><trkpt lat="41.04971308042527" lon="14.599481743293"><ele>263.0</ele><time>2026-05-03T11:22:29.998Z</time></trkpt><trkpt lat="41.049780176086614" lon="14.599733011934815"><ele>263.0</ele><time>2026-05-03T11:22:30.998Z</time></trkpt><trkpt lat="41.04984579278454" lon="14.599986179223556"><ele>263.33333333333337</ele><time>2026-05-03T11:22:31.998Z</time></trkpt><trkpt lat="41.04990911898259" lon="14.600245258034699"><ele>263.6666666666667</ele><time>2026-05-03T11:22:32.998Z</time></trkpt><trkpt lat="41.049971918872785" lon="14.600505262289703"><ele>264.0</ele><time>2026-05-03T11:22:33.998Z</time></trkpt><trkpt lat="41.05003468756085" lon="14.600761631654043"><ele>264.3333333333333</ele><time>2026-05-03T11:22:34.998Z</time></trkpt><trkpt lat="41.05009689106857" lon="14.601023826772993"><ele>264.66666666666663</ele><time>2026-05-03T11:22:35.998Z</time></trkpt><trkpt lat="41.050161623269574" lon="14.6012819385796"><ele>265.0</ele><time>2026-05-03T11:22:36.998Z</time></trkpt><trkpt lat="41.05022469455857" lon="14.601530725789775"><ele>265.3333333333333</ele><time>2026-05-03T11:22:37.998Z</time></trkpt><trkpt lat="41.050288813979805" lon="14.601771112645041"><ele>265.6666666666667</ele><time>2026-05-03T11:22:38.998Z</time></trkpt><trkpt lat="41.05035200844555" lon="14.60200997621727"><ele>266.0</ele><time>2026-05-03T11:22:39.998Z</time></trkpt><trkpt lat="41.05041511919813" lon="14.602226830526465"><ele>266.0</ele><time>2026-05-03T11:22:40.998Z</time></trkpt><trkpt lat="41.050480192143645" lon="14.602457142097654"><ele>266.0</ele><time>2026-05-03T11:22:41.998Z</time></trkpt><trkpt lat="41.05054517539768" lon="14.60269277562357"><ele>266.0</ele><time>2026-05-03T11:22:42.998Z</time></trkpt><trkpt lat="41.050597572698294" lon="14.602945141126458"><ele>266.33333333333337</ele><time>2026-05-03T11:22:43.998Z</time></trkpt><trkpt lat="41.05065801251732" lon="14.603200804896803"><ele>266.6666666666667</ele><time>2026-05-03T11:22:44.998Z</time></trkpt><trkpt lat="41.05072937879005" lon="14.603467151648257"><ele>267.0</ele><time>2026-05-03T11:22:45.998Z</time></trkpt><trkpt lat="41.050799070309004" lon="14.60376977293603"><ele>267.0</ele><time>2026-05-03T11:22:46.998Z</time></trkpt><trkpt lat="41.050867567003344" lon="14.60405622250803"><ele>267.0</ele><time>2026-05-03T11:22:47.998Z</time></trkpt><trkpt lat="41.05093779033359" lon="14.604334577375974"><ele>267.0</ele><time>2026-05-03T11:22:48.998Z</time></trkpt><trkpt lat="41.051002989812396" lon="14.604595577518035"><ele>267.0</ele><time>2026-05-03T11:22:49.998Z</time></trkpt><trkpt lat="41.05106609547725" lon="14.604848325483587"><ele>267.0</ele><time>2026-05-03T11:22:50.998Z</time></trkpt><trkpt lat="41.05113022123553" lon="14.60510202719719"><ele>267.0</ele><time>2026-05-03T11:22:51.998Z</time></trkpt><trkpt lat="41.05119313102005" lon="14.60536180299774"><ele>266.6666666666667</ele><time>2026-05-03T11:22:52.998Z</time></trkpt><trkpt lat="41.05125770195979" lon="14.605626858711348"><ele>266.33333333333337</ele><time>2026-05-03T11:22:53.998Z</time></trkpt><trkpt lat="41.05132466016542" lon="14.605890076364599"><ele>266.0</ele><time>2026-05-03T11:22:54.998Z</time></trkpt><trkpt lat="41.051393665710904" lon="14.60616162153266"><ele>265.6666666666667</ele><time>2026-05-03T11:22:55.998Z</time></trkpt><trkpt lat="41.05146442525922" lon="14.606438813443535"><ele>265.3333333333333</ele><time>2026-05-03T11:22:56.998Z</time></trkpt><trkpt lat="41.05153135818851" lon="14.606712154722102"><ele>265.0</ele><time>2026-05-03T11:22:57.998Z</time></trkpt><trkpt lat="41.0516006113717" lon="14.606987401627263"><ele>266.0</ele><time>2026-05-03T11:22:58.998Z</time></trkpt><trkpt lat="41.05167242478218" lon="14.60725993319718"><ele>267.0</ele><time>2026-05-03T11:22:59.998Z</time></trkpt><trkpt lat="41.05174716052847" lon="14.6075358130315"><ele>268.0</ele><time>2026-05-03T11:23:00.998Z</time></trkpt><trkpt lat="41.05181667409737" lon="14.607811677759237"><ele>267.66666666666663</ele><time>2026-05-03T11:23:01.998Z</time></trkpt><trkpt lat="41.05188779487025" lon="14.608084388891033"><ele>267.3333333333333</ele><time>2026-05-03T11:23:02.998Z</time></trkpt><trkpt lat="41.051958921729536" lon="14.608359138376123"><ele>267.0</ele><time>2026-05-03T11:23:03.998Z</time></trkpt><trkpt lat="41.05202832498312" lon="14.60863337655566"><ele>267.3333333333333</ele><time>2026-05-03T11:23:04.998Z</time></trkpt><trkpt lat="41.052103265413926" lon="14.608909367715844"><ele>267.66666666666663</ele><time>2026-05-03T11:23:05.998Z</time></trkpt><trkpt lat="41.0521697977265" lon="14.609174474996449"><ele>268.0</ele><time>2026-05-03T11:23:06.998Z</time></trkpt><trkpt lat="41.052245503724684" lon="14.609444212893907"><ele>268.3333333333333</ele><time>2026-05-03T11:23:07.998Z</time></trkpt><trkpt lat="41.052309268742555" lon="14.60972433082301"><ele>268.6666666666667</ele><time>2026-05-03T11:23:08.998Z</time></trkpt><trkpt lat="41.05237478064955" lon="14.609997911649883"><ele>269.0</ele><time>2026-05-03T11:23:09.998Z</time></trkpt><trkpt lat="41.05244028663963" lon="14.610261618448835"><ele>269.0</ele><time>2026-05-03T11:23:10.998Z</time></trkpt><trkpt lat="41.052504314310276" lon="14.610517046475076"><ele>269.0</ele><time>2026-05-03T11:23:11.998Z</time></trkpt><trkpt lat="41.05256474836027" lon="14.61076671631287"><ele>269.0</ele><time>2026-05-03T11:23:12.998Z</time></trkpt><trkpt lat="41.05261825131779" lon="14.610995694619644"><ele>269.6666666666667</ele><time>2026-05-03T11:23:13.998Z</time></trkpt><trkpt lat="41.05267540061236" lon="14.611224987604949"><ele>270.3333333333333</ele><time>2026-05-03T11:23:14.998Z</time></trkpt><trkpt lat="41.05272986382532" lon="14.61144157529145"><ele>271.0</ele><time>2026-05-03T11:23:15.999Z</time></trkpt><trkpt lat="41.05278144176973" lon="14.611640339639944"><ele>271.0</ele><time>2026-05-03T11:23:16.999Z</time></trkpt><trkpt lat="41.052833000237" lon="14.611849483859135"><ele>271.0</ele><time>2026-05-03T11:23:17.999Z</time></trkpt><trkpt lat="41.052882152466985" lon="14.612063325772871"><ele>271.0</ele><time>2026-05-03T11:23:18.999Z</time></trkpt><trkpt lat="41.05292311951445" lon="14.612236844112374"><ele>271.0</ele><time>2026-05-03T11:23:19.999Z</time></trkpt><trkpt lat="41.05296035167848" lon="14.612387008294718"><ele>271.0</ele><time>2026-05-03T11:23:20.999Z</time></trkpt><trkpt lat="41.0530098812759" lon="14.612551202487337"><ele>271.0</ele><time>2026-05-03T11:23:21.999Z</time></trkpt><trkpt lat="41.05305730066393" lon="14.612731061315584"><ele>271.0</ele><time>2026-05-03T11:23:22.999Z</time></trkpt><trkpt lat="41.05310490872305" lon="14.612915235459084"><ele>271.3333333333333</ele><time>2026-05-03T11:23:23.999Z</time></trkpt><trkpt lat="41.05315749693567" lon="14.613112709344144"><ele>271.6666666666667</ele><time>2026-05-03T11:23:24.999Z</time></trkpt><trkpt lat="41.05322907192472" lon="14.613332221418368"><ele>272.0</ele><time>2026-05-03T11:23:25.999Z</time></trkpt><trkpt lat="41.0533038713062" lon="14.613611348850599"><ele>271.5</ele><time>2026-05-03T11:23:26.999Z</time></trkpt><trkpt lat="41.05337964432588" lon="14.613936371031816"><ele>271.0</ele><time>2026-05-03T11:23:27.999Z</time></trkpt><trkpt lat="41.05346017906134" lon="14.614268641523914"><ele>271.0</ele><time>2026-05-03T11:23:28.999Z</time></trkpt><trkpt lat="41.0535441236482" lon="14.61462111106821"><ele>271.0</ele><time>2026-05-03T11:23:29.999Z</time></trkpt><trkpt lat="41.053634294685544" lon="14.614986860908806"><ele>271.5</ele><time>2026-05-03T11:23:30.999Z</time></trkpt><trkpt lat="41.053731602032165" lon="14.615334224144691"><ele>272.0</ele><time>2026-05-03T11:23:31.999Z</time></trkpt><trkpt lat="41.05382469596277" lon="14.615705632467177"><ele>272.0</ele><time>2026-05-03T11:23:32.999Z</time></trkpt><trkpt lat="41.053910396073434" lon="14.616055587499329"><ele>272.0</ele><time>2026-05-03T11:23:33.999Z</time></trkpt><trkpt lat="41.053990786470344" lon="14.616365946418163"><ele>272.0</ele><time>2026-05-03T11:23:34.999Z</time></trkpt><trkpt lat="41.05407747176264" lon="14.616684852394146"><ele>272.0</ele><time>2026-05-03T11:23:35.999Z</time></trkpt><trkpt lat="41.05416308023491" lon="14.617007772126836"><ele>272.0</ele><time>2026-05-03T11:23:36.999Z</time></trkpt><trkpt lat="41.05424335884572" lon="14.617324479296059"><ele>272.0</ele><time>2026-05-03T11:23:37.999Z</time></trkpt><trkpt lat="41.05432325302623" lon="14.617642698706296"><ele>272.5</ele><time>2026-05-03T11:23:38.999Z</time></trkpt><trkpt lat="41.0544057783893" lon="14.61794731139027"><ele>273.0</ele><time>2026-05-03T11:23:39.999Z</time></trkpt><trkpt lat="41.05448501342336" lon="14.618250443914173"><ele>273.0</ele><time>2026-05-03T11:23:40.999Z</time></trkpt><trkpt lat="41.05456140779487" lon="14.61854095081265"><ele>273.0</ele><time>2026-05-03T11:23:41.999Z</time></trkpt><trkpt lat="41.054632042675536" lon="14.618819059734411"><ele>273.0</ele><time>2026-05-03T11:23:42.999Z</time></trkpt><trkpt lat="41.05470076489763" lon="14.61907528255798"><ele>273.0</ele><time>2026-05-03T11:23:43.999Z</time></trkpt><trkpt lat="41.05476608157033" lon="14.619315821945735"><ele>273.0</ele><time>2026-05-03T11:23:44.999Z</time></trkpt><trkpt lat="41.05482646891987" lon="14.61953997109146"><ele>273.6666666666667</ele><time>2026-05-03T11:23:45.999Z</time></trkpt><trkpt lat="41.05487964177231" lon="14.619753019434475"><ele>274.33333333333337</ele><time>2026-05-03T11:23:46.999Z</time></trkpt><trkpt lat="41.05492957357754" lon="14.619948610517252"><ele>275.0</ele><time>2026-05-03T11:23:47.999Z</time></trkpt><trkpt lat="41.05497459671378" lon="14.620137845555371"><ele>275.0</ele><time>2026-05-03T11:23:48.999Z</time></trkpt><trkpt lat="41.05502035920712" lon="14.620310445454207"><ele>275.0</ele><time>2026-05-03T11:23:49.999Z</time></trkpt><trkpt lat="41.05505759519159" lon="14.620491525262326"><ele>275.0</ele><time>2026-05-03T11:23:50.999Z</time></trkpt><trkpt lat="41.05505905848697" lon="14.620662363089822"><ele>275.0</ele><time>2026-05-03T11:23:51.999Z</time></trkpt><trkpt lat="41.05503417732359" lon="14.620822906961251"><ele>275.0</ele><time>2026-05-03T11:23:52.999Z</time></trkpt><trkpt lat="41.05499267366938" lon="14.62098316716365"><ele>275.0</ele><time>2026-05-03T11:23:53.999Z</time></trkpt><trkpt lat="41.05492759015827" lon="14.621140558931327"><ele>275.0</ele><time>2026-05-03T11:23:54.999Z</time></trkpt><trkpt lat="41.054833092882205" lon="14.621292821284616"><ele>275.0</ele><time>2026-05-03T11:23:55.999Z</time></trkpt><trkpt lat="41.054697370396525" lon="14.621427940707713"><ele>274.33333333333337</ele><time>2026-05-03T11:23:56.999Z</time></trkpt><trkpt lat="41.05456576055057" lon="14.621576083577036"><ele>273.6666666666667</ele><time>2026-05-03T11:23:57.999Z</time></trkpt><trkpt lat="41.0544239847483" lon="14.621737145413878"><ele>273.0</ele><time>2026-05-03T11:23:58.999Z</time></trkpt><trkpt lat="41.05428753328673" lon="14.621914492946326"><ele>273.3333333333333</ele><time>2026-05-03T11:23:59.999Z</time></trkpt><trkpt lat="41.05414341056218" lon="14.62210701498467"><ele>273.66666666666663</ele><time>2026-05-03T11:24:00.999Z</time></trkpt><trkpt lat="41.05400046374696" lon="14.62230165918524"><ele>274.0</ele><time>2026-05-03T11:24:01.999Z</time></trkpt><trkpt lat="41.05386027028518" lon="14.622485790157945"><ele>274.0</ele><time>2026-05-03T11:24:02.999Z</time></trkpt><trkpt lat="41.05373987633097" lon="14.622650525243907"><ele>274.0</ele><time>2026-05-03T11:24:03.999Z</time></trkpt><trkpt lat="41.05362940793507" lon="14.622807993462901"><ele>274.0</ele><time>2026-05-03T11:24:04.999Z</time></trkpt><trkpt lat="41.053526735945795" lon="14.622967869967894"><ele>274.0</ele><time>2026-05-03T11:24:05.999Z</time></trkpt><trkpt lat="41.05342836203416" lon="14.623138568951559"><ele>274.0</ele><time>2026-05-03T11:24:06.999Z</time></trkpt><trkpt lat="41.05335096096165" lon="14.623307639092223"><ele>274.0</ele><time>2026-05-03T11:24:07.999Z</time></trkpt><trkpt lat="41.053284070567045" lon="14.623469890142863"><ele>274.0</ele><time>2026-05-03T11:24:08.999Z</time></trkpt><trkpt lat="41.053229405122764" lon="14.623634953777591"><ele>274.0</ele><time>2026-05-03T11:24:09.999Z</time></trkpt><trkpt lat="41.05317683043606" lon="14.62382966560654"><ele>274.0</ele><time>2026-05-03T11:24:10.999Z</time></trkpt><trkpt lat="41.05312212340017" lon="14.624063229001585"><ele>273.66666666666663</ele><time>2026-05-03T11:24:11.999Z</time></trkpt><trkpt lat="41.053058720896615" lon="14.62431089116793"><ele>273.3333333333333</ele><time>2026-05-03T11:24:12.999Z</time></trkpt><trkpt lat="41.05299088139895" lon="14.624583585500798"><ele>273.0</ele><time>2026-05-03T11:24:13.999Z</time></trkpt><trkpt lat="41.05291660321746" lon="14.624900034776658"><ele>272.5</ele><time>2026-05-03T11:24:14.999Z</time></trkpt><trkpt lat="41.052847137673915" lon="14.625235089643835"><ele>272.0</ele><time>2026-05-03T11:24:15.999Z</time></trkpt><trkpt lat="41.05278504593028" lon="14.625596831473638"><ele>273.0</ele><time>2026-05-03T11:24:16.999Z</time></trkpt><trkpt lat="41.05273811321625" lon="14.625972763483883"><ele>274.0</ele><time>2026-05-03T11:24:17.999Z</time></trkpt><trkpt lat="41.05271861714537" lon="14.626363396021848"><ele>274.0</ele><time>2026-05-03T11:24:18.999Z</time></trkpt><trkpt lat="41.05273483192603" lon="14.626762490998303"><ele>274.0</ele><time>2026-05-03T11:24:19.999Z</time></trkpt><trkpt lat="41.052780947851886" lon="14.62715827461431"><ele>274.5</ele><time>2026-05-03T11:24:20.999Z</time></trkpt><trkpt lat="41.05285182583617" lon="14.627559604638684"><ele>275.0</ele><time>2026-05-03T11:24:21.999Z</time></trkpt><trkpt lat="41.052934724831225" lon="14.6279585913381"><ele>275.5</ele><time>2026-05-03T11:24:22.999Z</time></trkpt><trkpt lat="41.05302969394589" lon="14.628345759180103"><ele>276.0</ele><time>2026-05-03T11:24:23.999Z</time></trkpt><trkpt lat="41.05313489016033" lon="14.628734240504222"><ele>276.0</ele><time>2026-05-03T11:24:24.999Z</time></trkpt><trkpt lat="41.05325241055956" lon="14.629099403270683"><ele>276.0</ele><time>2026-05-03T11:24:25.999Z</time></trkpt><trkpt lat="41.05335707411671" lon="14.629436328303797"><ele>276.0</ele><time>2026-05-03T11:24:26.999Z</time></trkpt><trkpt lat="41.05345282885363" lon="14.6297642221112"><ele>276.0</ele><time>2026-05-03T11:24:27.999Z</time></trkpt><trkpt lat="41.05354711696438" lon="14.63008857622607"><ele>276.0</ele><time>2026-05-03T11:24:28.999Z</time></trkpt><trkpt lat="41.0536383559333" lon="14.630410358874625"><ele>276.0</ele><time>2026-05-03T11:24:29.999Z</time></trkpt><trkpt lat="41.053729120884526" lon="14.630728221054223"><ele>276.0</ele><time>2026-05-03T11:24:30.999Z</time></trkpt><trkpt lat="41.05381744267647" lon="14.63103996594867"><ele>276.0</ele><time>2026-05-03T11:24:31.999Z</time></trkpt><trkpt lat="41.05390462259388" lon="14.63135090549013"><ele>276.0</ele><time>2026-05-03T11:24:32.999Z</time></trkpt><trkpt lat="41.053987611765926" lon="14.631658833738639"><ele>276.0</ele><time>2026-05-03T11:24:33.999Z</time></trkpt><trkpt lat="41.05405699673549" lon="14.631963552319204"><ele>277.5</ele><time>2026-05-03T11:24:34.998Z</time></trkpt><trkpt lat="41.054124829917804" lon="14.632274443231973"><ele>279.0</ele><time>2026-05-03T11:24:35.998Z</time></trkpt><trkpt lat="41.05416849711058" lon="14.632578067758663"><ele>278.5</ele><time>2026-05-03T11:24:36.998Z</time></trkpt><trkpt lat="41.05418290529423" lon="14.63287531496391"><ele>278.0</ele><time>2026-05-03T11:24:37.998Z</time></trkpt><trkpt lat="41.05416428286413" lon="14.633178891195419"><ele>277.0</ele><time>2026-05-03T11:24:38.998Z</time></trkpt><trkpt lat="41.054119023076375" lon="14.63348693145063"><ele>276.0</ele><time>2026-05-03T11:24:39.998Z</time></trkpt><trkpt lat="41.05406428413625" lon="14.633781599643127"><ele>276.0</ele><time>2026-05-03T11:24:40.998Z</time></trkpt><trkpt lat="41.054000180215475" lon="14.634050759069837"><ele>276.0</ele><time>2026-05-03T11:24:41.998Z</time></trkpt><trkpt lat="41.05393241527343" lon="14.634300773217081"><ele>276.0</ele><time>2026-05-03T11:24:42.998Z</time></trkpt><trkpt lat="41.05387147694667" lon="14.634523949582604"><ele>276.0</ele><time>2026-05-03T11:24:43.998Z</time></trkpt><trkpt lat="41.05381877417249" lon="14.634742284639294"><ele>276.0</ele><time>2026-05-03T11:24:44.998Z</time></trkpt><trkpt lat="41.053769508783695" lon="14.634934418481558"><ele>276.0</ele><time>2026-05-03T11:24:45.998Z</time></trkpt><trkpt lat="41.05370738991613" lon="14.635097497403112"><ele>276.0</ele><time>2026-05-03T11:24:46.998Z</time></trkpt><trkpt lat="41.05365225911792" lon="14.635244714690192"><ele>276.0</ele><time>2026-05-03T11:24:47.998Z</time></trkpt><trkpt lat="41.05354383233741" lon="14.635382601846912"><ele>276.0</ele><time>2026-05-03T11:24:48.998Z</time></trkpt><trkpt lat="41.05351108914572" lon="14.635568547090461"><ele>276.0</ele><time>2026-05-03T11:24:49.998Z</time></trkpt><trkpt lat="41.05351158427549" lon="14.635789836500088"><ele>276.0</ele><time>2026-05-03T11:24:50.998Z</time></trkpt><trkpt lat="41.0534765449215" lon="14.636030325971205"><ele>276.0</ele><time>2026-05-03T11:24:51.998Z</time></trkpt><trkpt lat="41.05340311725182" lon="14.636293918178318"><ele>276.0</ele><time>2026-05-03T11:24:52.998Z</time></trkpt><trkpt lat="41.05331881017634" lon="14.636597777236954"><ele>276.5</ele><time>2026-05-03T11:24:53.998Z</time></trkpt><trkpt lat="41.0532421996662" lon="14.636898571142554"><ele>277.0</ele><time>2026-05-03T11:24:54.998Z</time></trkpt><trkpt lat="41.05316023504483" lon="14.637218994184675"><ele>278.0</ele><time>2026-05-03T11:24:55.998Z</time></trkpt><trkpt lat="41.05310207545012" lon="14.637521542635833"><ele>279.0</ele><time>2026-05-03T11:24:56.998Z</time></trkpt><trkpt lat="41.05301960440755" lon="14.637871878479196"><ele>279.5</ele><time>2026-05-03T11:24:57.998Z</time></trkpt><trkpt lat="41.05293304712664" lon="14.638220889425021"><ele>280.0</ele><time>2026-05-03T11:24:58.998Z</time></trkpt><trkpt lat="41.052851394129966" lon="14.638556332626496"><ele>280.5</ele><time>2026-05-03T11:24:59.998Z</time></trkpt><trkpt lat="41.05278075563742" lon="14.638865739475035"><ele>281.0</ele><time>2026-05-03T11:25:00.998Z</time></trkpt><trkpt lat="41.05271158096455" lon="14.639178271938736"><ele>281.5</ele><time>2026-05-03T11:25:01.998Z</time></trkpt><trkpt lat="41.052641602046144" lon="14.639485513141187"><ele>282.0</ele><time>2026-05-03T11:25:02.998Z</time></trkpt><trkpt lat="41.05257717695898" lon="14.639759513160733"><ele>282.0</ele><time>2026-05-03T11:25:03.998Z</time></trkpt><trkpt lat="41.05251862857285" lon="14.640016921605472"><ele>282.0</ele><time>2026-05-03T11:25:04.998Z</time></trkpt><trkpt lat="41.05246280606721" lon="14.640258629816623"><ele>282.0</ele><time>2026-05-03T11:25:05.998Z</time></trkpt><trkpt lat="41.05241080366956" lon="14.64047959587859"><ele>281.0</ele><time>2026-05-03T11:25:06.998Z</time></trkpt><trkpt lat="41.052362872953594" lon="14.640690837310006"><ele>280.0</ele><time>2026-05-03T11:25:07.998Z</time></trkpt><trkpt lat="41.052314888866206" lon="14.640896391697959"><ele>279.0</ele><time>2026-05-03T11:25:08.998Z</time></trkpt><trkpt lat="41.05226027837392" lon="14.641107614353142"><ele>279.6666666666667</ele><time>2026-05-03T11:25:09.998Z</time></trkpt><trkpt lat="41.05220313801529" lon="14.64132922319082"><ele>280.33333333333337</ele><time>2026-05-03T11:25:10.998Z</time></trkpt><trkpt lat="41.05214989351882" lon="14.641555455496446"><ele>281.0</ele><time>2026-05-03T11:25:11.998Z</time></trkpt><trkpt lat="41.05210245078212" lon="14.641790463712315"><ele>280.33333333333337</ele><time>2026-05-03T11:25:12.998Z</time></trkpt><trkpt lat="41.052050552851746" lon="14.642041073772425"><ele>279.6666666666667</ele><time>2026-05-03T11:25:13.998Z</time></trkpt><trkpt lat="41.05200076343231" lon="14.642306032912916"><ele>279.0</ele><time>2026-05-03T11:25:14.998Z</time></trkpt><trkpt lat="41.0519398380188" lon="14.64258115449014"><ele>279.0</ele><time>2026-05-03T11:25:15.998Z</time></trkpt><trkpt lat="41.05186962943251" lon="14.642859112203418"><ele>279.0</ele><time>2026-05-03T11:25:16.998Z</time></trkpt><trkpt lat="41.05179467660049" lon="14.643129507420982"><ele>279.0</ele><time>2026-05-03T11:25:17.998Z</time></trkpt><trkpt lat="41.05171889167276" lon="14.643395142791539"><ele>279.0</ele><time>2026-05-03T11:25:18.998Z</time></trkpt><trkpt lat="41.051643516698824" lon="14.64365233181072"><ele>279.0</ele><time>2026-05-03T11:25:19.998Z</time></trkpt><trkpt lat="41.051570089141016" lon="14.643904344600493"><ele>279.0</ele><time>2026-05-03T11:25:20.998Z</time></trkpt><trkpt lat="41.05149963753771" lon="14.64415665147636"><ele>279.3333333333333</ele><time>2026-05-03T11:25:21.999Z</time></trkpt><trkpt lat="41.051418693604084" lon="14.644403988934737"><ele>279.66666666666663</ele><time>2026-05-03T11:25:22.999Z</time></trkpt><trkpt lat="41.05134549018906" lon="14.64464791075872"><ele>280.0</ele><time>2026-05-03T11:25:23.999Z</time></trkpt><trkpt lat="41.05127851658474" lon="14.644880412746629"><ele>280.0</ele><time>2026-05-03T11:25:24.999Z</time></trkpt><trkpt lat="41.05120700957017" lon="14.645093874476876"><ele>280.0</ele><time>2026-05-03T11:25:25.999Z</time></trkpt><trkpt lat="41.051147228037905" lon="14.645309232624442"><ele>280.0</ele><time>2026-05-03T11:25:26.999Z</time></trkpt><trkpt lat="41.05109282150821" lon="14.64550256577501"><ele>279.75</ele><time>2026-05-03T11:25:27.999Z</time></trkpt><trkpt lat="41.05104110039835" lon="14.645681736981157"><ele>279.5</ele><time>2026-05-03T11:25:28.999Z</time></trkpt><trkpt lat="41.0509879104937" lon="14.64586035305161"><ele>279.25</ele><time>2026-05-03T11:25:29.999Z</time></trkpt><trkpt lat="41.050931255771054" lon="14.64603913954436"><ele>279.0</ele><time>2026-05-03T11:25:30.999Z</time></trkpt><trkpt lat="41.05087804531698" lon="14.646203074870217"><ele>278.75</ele><time>2026-05-03T11:25:31.999Z</time></trkpt><trkpt lat="41.05083012305935" lon="14.64635339465326"><ele>278.5</ele><time>2026-05-03T11:25:32.999Z</time></trkpt><trkpt lat="41.050787973671476" lon="14.64649712420349"><ele>278.25</ele><time>2026-05-03T11:25:33.999Z</time></trkpt><trkpt lat="41.05073934918992" lon="14.646641651043362"><ele>278.0</ele><time>2026-05-03T11:25:34.999Z</time></trkpt><trkpt lat="41.050685983504145" lon="14.646771402479734"><ele>278.0</ele><time>2026-05-03T11:25:35.999Z</time></trkpt><trkpt lat="41.05062288330061" lon="14.64689098052071"><ele>278.0</ele><time>2026-05-03T11:25:36.999Z</time></trkpt><trkpt lat="41.050569012936585" lon="14.647015754668308"><ele>278.0</ele><time>2026-05-03T11:25:37.999Z</time></trkpt><trkpt lat="41.05049696342442" lon="14.647130336855096"><ele>278.0</ele><time>2026-05-03T11:25:38.999Z</time></trkpt><trkpt lat="41.050413750853636" lon="14.647250856400508"><ele>278.25</ele><time>2026-05-03T11:25:39.999Z</time></trkpt><trkpt lat="41.0503262019155" lon="14.647373197082246"><ele>278.5</ele><time>2026-05-03T11:25:40.999Z</time></trkpt><trkpt lat="41.050228723604796" lon="14.647493800831967"><ele>278.75</ele><time>2026-05-03T11:25:41.999Z</time></trkpt><trkpt lat="41.05012244940533" lon="14.647616280239092"><ele>279.0</ele><time>2026-05-03T11:25:42.999Z</time></trkpt><trkpt lat="41.04999724110257" lon="14.6477350573307"><ele>279.0</ele><time>2026-05-03T11:25:43.999Z</time></trkpt><trkpt lat="41.04985836963497" lon="14.647840021751986"><ele>279.0</ele><time>2026-05-03T11:25:44.999Z</time></trkpt><trkpt lat="41.04970363419507" lon="14.647932125999313"><ele>279.0</ele><time>2026-05-03T11:25:45.999Z</time></trkpt><trkpt lat="41.04953728755153" lon="14.648015760134388"><ele>279.0</ele><time>2026-05-03T11:25:46.999Z</time></trkpt><trkpt lat="41.04935483257687" lon="14.64809706126205"><ele>279.0</ele><time>2026-05-03T11:25:47.999Z</time></trkpt><trkpt lat="41.049165295640464" lon="14.648188532224161"><ele>279.0</ele><time>2026-05-03T11:25:48.999Z</time></trkpt><trkpt lat="41.04896905992993" lon="14.64829966200744"><ele>279.3333333333333</ele><time>2026-05-03T11:25:49.999Z</time></trkpt><trkpt lat="41.048774045154865" lon="14.648411463994336"><ele>279.66666666666663</ele><time>2026-05-03T11:25:50.999Z</time></trkpt><trkpt lat="41.04857440678375" lon="14.648518867200803"><ele>280.0</ele><time>2026-05-03T11:25:51.999Z</time></trkpt><trkpt lat="41.04836562175206" lon="14.64862636778627"><ele>280.5</ele><time>2026-05-03T11:25:52.999Z</time></trkpt><trkpt lat="41.04815436611759" lon="14.648739325476503"><ele>281.0</ele><time>2026-05-03T11:25:53.999Z</time></trkpt><trkpt lat="41.04794325691606" lon="14.648851162516436"><ele>281.0</ele><time>2026-05-03T11:25:54.999Z</time></trkpt><trkpt lat="41.047733544845975" lon="14.648956265795958"><ele>281.0</ele><time>2026-05-03T11:25:55.999Z</time></trkpt><trkpt lat="41.04752228625176" lon="14.649073654940912"><ele>281.0</ele><time>2026-05-03T11:25:56.999Z</time></trkpt><trkpt lat="41.047307528358616" lon="14.649187733245018"><ele>281.0</ele><time>2026-05-03T11:25:57.999Z</time></trkpt><trkpt lat="41.04709255024358" lon="14.649299876514988"><ele>281.0</ele><time>2026-05-03T11:25:58.999Z</time></trkpt><trkpt lat="41.04688078385468" lon="14.6494116473949"><ele>281.0</ele><time>2026-05-03T11:25:59.999Z</time></trkpt><trkpt lat="41.046674104169306" lon="14.649525174015452"><ele>280.0</ele><time>2026-05-03T11:26:00.999Z</time></trkpt><trkpt lat="41.046482330727414" lon="14.649623636063485"><ele>279.0</ele><time>2026-05-03T11:26:01.999Z</time></trkpt><trkpt lat="41.046289400896015" lon="14.64972567597797"><ele>278.0</ele><time>2026-05-03T11:26:02.999Z</time></trkpt><trkpt lat="41.0460889131768" lon="14.649830538566622"><ele>278.0</ele><time>2026-05-03T11:26:03.999Z</time></trkpt><trkpt lat="41.04590701973733" lon="14.649923305840716"><ele>278.0</ele><time>2026-05-03T11:26:04.999Z</time></trkpt><trkpt lat="41.04575823641279" lon="14.650000344253044"><ele>278.0</ele><time>2026-05-03T11:26:05.999Z</time></trkpt><trkpt lat="41.04562701855825" lon="14.650069808666302"><ele>278.0</ele><time>2026-05-03T11:26:06.999Z</time></trkpt><trkpt lat="41.045503854720764" lon="14.650137320169938"><ele>278.0</ele><time>2026-05-03T11:26:07.999Z</time></trkpt><trkpt lat="41.045358983371194" lon="14.650204962848257"><ele>278.0</ele><time>2026-05-03T11:26:08.999Z</time></trkpt><trkpt lat="41.045211017368025" lon="14.650283894253574"><ele>278.0</ele><time>2026-05-03T11:26:09.999Z</time></trkpt><trkpt lat="41.04506048401386" lon="14.65037791211411"><ele>277.6666666666667</ele><time>2026-05-03T11:26:10.999Z</time></trkpt><trkpt lat="41.04490258707205" lon="14.65045957992828"><ele>277.3333333333333</ele><time>2026-05-03T11:26:11.999Z</time></trkpt><trkpt lat="41.04473931747644" lon="14.650544699571663"><ele>277.0</ele><time>2026-05-03T11:26:12.999Z</time></trkpt><trkpt lat="41.044570180494624" lon="14.650633259607325"><ele>277.0</ele><time>2026-05-03T11:26:13.999Z</time></trkpt><trkpt lat="41.04440258349354" lon="14.6507279999024"><ele>277.0</ele><time>2026-05-03T11:26:14.999Z</time></trkpt><trkpt lat="41.04422739680865" lon="14.650820589934355"><ele>277.0</ele><time>2026-05-03T11:26:15.999Z</time></trkpt><trkpt lat="41.044048809245254" lon="14.650915211212414"><ele>277.0</ele><time>2026-05-03T11:26:16.999Z</time></trkpt><trkpt lat="41.043873533015145" lon="14.651003513533501"><ele>277.0</ele><time>2026-05-03T11:26:17.999Z</time></trkpt><trkpt lat="41.043692787437486" lon="14.651095942842668"><ele>277.0</ele><time>2026-05-03T11:26:18.999Z</time></trkpt><trkpt lat="41.04351267935986" lon="14.651194016630175"><ele>277.0</ele><time>2026-05-03T11:26:19.999Z</time></trkpt><trkpt lat="41.04334564312543" lon="14.651294197658084"><ele>277.0</ele><time>2026-05-03T11:26:20.999Z</time></trkpt><trkpt lat="41.04318159886684" lon="14.651384392555363"><ele>277.0</ele><time>2026-05-03T11:26:21.999Z</time></trkpt><trkpt lat="41.04302791720263" lon="14.651478580672936"><ele>275.66666666666663</ele><time>2026-05-03T11:26:22.999Z</time></trkpt><trkpt lat="41.042868628922704" lon="14.651564453073973"><ele>274.3333333333333</ele><time>2026-05-03T11:26:23.999Z</time></trkpt><trkpt lat="41.04272863870235" lon="14.651654505651786"><ele>273.0</ele><time>2026-05-03T11:26:24.999Z</time></trkpt><trkpt lat="41.04259690438683" lon="14.651739869355058"><ele>273.0</ele><time>2026-05-03T11:26:25.999Z</time></trkpt><trkpt lat="41.0424687343736" lon="14.651824175864773"><ele>273.0</ele><time>2026-05-03T11:26:26.999Z</time></trkpt><trkpt lat="41.04235701134976" lon="14.65190480345067"><ele>273.0</ele><time>2026-05-03T11:26:27.999Z</time></trkpt><trkpt lat="41.042242643398424" lon="14.65197899276389"><ele>273.0</ele><time>2026-05-03T11:26:28.999Z</time></trkpt><trkpt lat="41.042146250184565" lon="14.65201149757756"><ele>273.0</ele><time>2026-05-03T11:26:29.999Z</time></trkpt><trkpt lat="41.04205253892225" lon="14.652019565051901"><ele>273.0</ele><time>2026-05-03T11:26:30.999Z</time></trkpt><trkpt lat="41.04195636136656" lon="14.652006663974664"><ele>273.0</ele><time>2026-05-03T11:26:31.999Z</time></trkpt><trkpt lat="41.041853873589204" lon="14.652009938534064"><ele>273.0</ele><time>2026-05-03T11:26:32.999Z</time></trkpt><trkpt lat="41.04175397415905" lon="14.652048564872308"><ele>273.0</ele><time>2026-05-03T11:26:33.999Z</time></trkpt><trkpt lat="41.041664846091265" lon="14.65211281212162"><ele>273.0</ele><time>2026-05-03T11:26:34.999Z</time></trkpt><trkpt lat="41.04158631480072" lon="14.652206887212703"><ele>273.0</ele><time>2026-05-03T11:26:35.999Z</time></trkpt><trkpt lat="41.04154504635344" lon="14.652333501556265"><ele>273.0</ele><time>2026-05-03T11:26:36.999Z</time></trkpt><trkpt lat="41.04154643406303" lon="14.652495817974263"><ele>273.0</ele><time>2026-05-03T11:26:37.999Z</time></trkpt><trkpt lat="41.041594290018914" lon="14.652654754015698"><ele>272.3333333333333</ele><time>2026-05-03T11:26:38.999Z</time></trkpt><trkpt lat="41.04167147924158" lon="14.65283003428416"><ele>271.66666666666663</ele><time>2026-05-03T11:26:39.999Z</time></trkpt><trkpt lat="41.04174050030424" lon="14.65302696382013"><ele>271.0</ele><time>2026-05-03T11:26:40.999Z</time></trkpt><trkpt lat="41.04176608959462" lon="14.653253997087509"><ele>271.0</ele><time>2026-05-03T11:26:41.999Z</time></trkpt><trkpt lat="41.04177842469031" lon="14.653496768137707"><ele>271.0</ele><time>2026-05-03T11:26:42.999Z</time></trkpt><trkpt lat="41.04178898358423" lon="14.65376182352814"><ele>271.0</ele><time>2026-05-03T11:26:43.999Z</time></trkpt><trkpt lat="41.04180104020105" lon="14.654055736045098"><ele>271.3333333333333</ele><time>2026-05-03T11:26:44.999Z</time></trkpt><trkpt lat="41.04181883755271" lon="14.654349313908366"><ele>271.6666666666667</ele><time>2026-05-03T11:26:45.999Z</time></trkpt><trkpt lat="41.04183696771168" lon="14.654644872868596"><ele>272.0</ele><time>2026-05-03T11:26:46.999Z</time></trkpt><trkpt lat="41.04185616666355" lon="14.654959573419868"><ele>273.0</ele><time>2026-05-03T11:26:47.999Z</time></trkpt><trkpt lat="41.041867266671034" lon="14.655273628993042"><ele>274.0</ele><time>2026-05-03T11:26:48.999Z</time></trkpt><trkpt lat="41.04188817543141" lon="14.655607943692077"><ele>274.0</ele><time>2026-05-03T11:26:49.999Z</time></trkpt><trkpt lat="41.04190962771912" lon="14.655950305999513"><ele>274.0</ele><time>2026-05-03T11:26:50.999Z</time></trkpt><trkpt lat="41.04191494368372" lon="14.65630513742391"><ele>274.0</ele><time>2026-05-03T11:26:51.999Z</time></trkpt><trkpt lat="41.04188526254665" lon="14.656657629714978"><ele>274.0</ele><time>2026-05-03T11:26:52.999Z</time></trkpt><trkpt lat="41.041822929305184" lon="14.657030061349992"><ele>274.0</ele><time>2026-05-03T11:26:53.999Z</time></trkpt><trkpt lat="41.041732906152376" lon="14.657373133392063"><ele>274.0</ele><time>2026-05-03T11:26:54.999Z</time></trkpt><trkpt lat="41.041607038953195" lon="14.65771980760051"><ele>275.0</ele><time>2026-05-03T11:26:55.999Z</time></trkpt><trkpt lat="41.04144661281429" lon="14.658046703726566"><ele>276.0</ele><time>2026-05-03T11:26:56.999Z</time></trkpt><trkpt lat="41.041257437188406" lon="14.658324320780572"><ele>276.0</ele><time>2026-05-03T11:26:57.999Z</time></trkpt><trkpt lat="41.04105144462254" lon="14.658574084075134"><ele>276.0</ele><time>2026-05-03T11:26:58.999Z</time></trkpt><trkpt lat="41.04082161622596" lon="14.658799159742681"><ele>276.5</ele><time>2026-05-03T11:26:59.998Z</time></trkpt><trkpt lat="41.04058014013247" lon="14.659021401365397"><ele>277.0</ele><time>2026-05-03T11:27:00.998Z</time></trkpt><trkpt lat="41.040347518522196" lon="14.65923983642632"><ele>278.5</ele><time>2026-05-03T11:27:01.998Z</time></trkpt><trkpt lat="41.04012490847819" lon="14.659466336258577"><ele>280.0</ele><time>2026-05-03T11:27:02.998Z</time></trkpt><trkpt lat="41.03990559262249" lon="14.65969358796991"><ele>280.0</ele><time>2026-05-03T11:27:03.998Z</time></trkpt><trkpt lat="41.03970108950285" lon="14.65992179597682"><ele>280.0</ele><time>2026-05-03T11:27:04.998Z</time></trkpt><trkpt lat="41.03951385302725" lon="14.660165467552401"><ele>280.5</ele><time>2026-05-03T11:27:05.998Z</time></trkpt><trkpt lat="41.03933929742065" lon="14.66043162511295"><ele>281.0</ele><time>2026-05-03T11:27:06.998Z</time></trkpt><trkpt lat="41.03919882139916" lon="14.660736500670922"><ele>281.0</ele><time>2026-05-03T11:27:07.998Z</time></trkpt><trkpt lat="41.03907408787737" lon="14.661059764158123"><ele>281.0</ele><time>2026-05-03T11:27:08.998Z</time></trkpt><trkpt lat="41.039005524001226" lon="14.661391253458957"><ele>281.0</ele><time>2026-05-03T11:27:09.998Z</time></trkpt><trkpt lat="41.038945461745904" lon="14.661723094022804"><ele>281.0</ele><time>2026-05-03T11:27:10.998Z</time></trkpt><trkpt lat="41.03891385638527" lon="14.662073086633132"><ele>281.5</ele><time>2026-05-03T11:27:11.998Z</time></trkpt><trkpt lat="41.03890545460957" lon="14.662424904582341"><ele>282.0</ele><time>2026-05-03T11:27:12.998Z</time></trkpt><trkpt lat="41.038923150223084" lon="14.662769623579461"><ele>282.5</ele><time>2026-05-03T11:27:13.998Z</time></trkpt><trkpt lat="41.03894771255274" lon="14.663126811078072"><ele>283.0</ele><time>2026-05-03T11:27:14.998Z</time></trkpt><trkpt lat="41.03897326547926" lon="14.663478273278475"><ele>283.5</ele><time>2026-05-03T11:27:15.998Z</time></trkpt><trkpt lat="41.03900444252332" lon="14.663828117914225"><ele>284.0</ele><time>2026-05-03T11:27:16.998Z</time></trkpt><trkpt lat="41.03902159382192" lon="14.664185655148177"><ele>284.0</ele><time>2026-05-03T11:27:17.998Z</time></trkpt><trkpt lat="41.0390451807239" lon="14.664541940419985"><ele>284.0</ele><time>2026-05-03T11:27:18.998Z</time></trkpt><trkpt lat="41.03907824223643" lon="14.664895793733939"><ele>284.0</ele><time>2026-05-03T11:27:19.998Z</time></trkpt><trkpt lat="41.03910919902959" lon="14.665251785922543"><ele>284.0</ele><time>2026-05-03T11:27:20.998Z</time></trkpt><trkpt lat="41.039136210977574" lon="14.665606579330909"><ele>283.0</ele><time>2026-05-03T11:27:21.998Z</time></trkpt><trkpt lat="41.03916053721811" lon="14.665963527602335"><ele>282.0</ele><time>2026-05-03T11:27:22.998Z</time></trkpt><trkpt lat="41.03918442565101" lon="14.666314796794797"><ele>281.0</ele><time>2026-05-03T11:27:23.998Z</time></trkpt><trkpt lat="41.039203255854794" lon="14.666665654919656"><ele>280.0</ele><time>2026-05-03T11:27:24.998Z</time></trkpt><trkpt lat="41.03921673133555" lon="14.667018627792224"><ele>279.5</ele><time>2026-05-03T11:27:25.998Z</time></trkpt><trkpt lat="41.03922417107258" lon="14.667368292747998"><ele>279.0</ele><time>2026-05-03T11:27:26.998Z</time></trkpt><trkpt lat="41.03922030601995" lon="14.667720607874454"><ele>281.0</ele><time>2026-05-03T11:27:27.999Z</time></trkpt><trkpt lat="41.039206741149926" lon="14.668068819352861"><ele>283.0</ele><time>2026-05-03T11:27:28.999Z</time></trkpt><trkpt lat="41.0391802991457" lon="14.668417712196586"><ele>282.5</ele><time>2026-05-03T11:27:29.999Z</time></trkpt><trkpt lat="41.03914022019234" lon="14.668764765109868"><ele>282.0</ele><time>2026-05-03T11:27:30.999Z</time></trkpt><trkpt lat="41.03908722042349" lon="14.669104174636049"><ele>284.0</ele><time>2026-05-03T11:27:31.999Z</time></trkpt><trkpt lat="41.03902078723339" lon="14.669448555628678"><ele>286.0</ele><time>2026-05-03T11:27:32.999Z</time></trkpt><trkpt lat="41.03893425339871" lon="14.669784843603862"><ele>286.0</ele><time>2026-05-03T11:27:33.999Z</time></trkpt><trkpt lat="41.038835910896914" lon="14.670115191849549"><ele>286.0</ele><time>2026-05-03T11:27:34.999Z</time></trkpt><trkpt lat="41.03871392965555" lon="14.670441907343482"><ele>287.5</ele><time>2026-05-03T11:27:35.999Z</time></trkpt><trkpt lat="41.03858297050695" lon="14.670756656179089"><ele>289.0</ele><time>2026-05-03T11:27:36.999Z</time></trkpt><trkpt lat="41.03843135646266" lon="14.671054012759226"><ele>291.5</ele><time>2026-05-03T11:27:37.999Z</time></trkpt><trkpt lat="41.03827204842226" lon="14.671345077236117"><ele>294.0</ele><time>2026-05-03T11:27:38.999Z</time></trkpt><trkpt lat="41.03810171445506" lon="14.671619746358187"><ele>294.0</ele><time>2026-05-03T11:27:39.999Z</time></trkpt><trkpt lat="41.0379208847532" lon="14.671882298800128"><ele>294.0</ele><time>2026-05-03T11:27:40.999Z</time></trkpt><trkpt lat="41.03772468739451" lon="14.67211956107657"><ele>293.5</ele><time>2026-05-03T11:27:41.999Z</time></trkpt><trkpt lat="41.03752066850263" lon="14.672349447380684"><ele>293.0</ele><time>2026-05-03T11:27:42.999Z</time></trkpt><trkpt lat="41.03731056777237" lon="14.672568357041383"><ele>295.0</ele><time>2026-05-03T11:27:43.999Z</time></trkpt><trkpt lat="41.03710037827356" lon="14.672777898086816"><ele>297.0</ele><time>2026-05-03T11:27:44.999Z</time></trkpt><trkpt lat="41.036891540849005" lon="14.67297487750999"><ele>297.0</ele><time>2026-05-03T11:27:45.999Z</time></trkpt><trkpt lat="41.036684342703225" lon="14.673159674291146"><ele>297.0</ele><time>2026-05-03T11:27:46.999Z</time></trkpt><trkpt lat="41.03647458287217" lon="14.673357361483832"><ele>295.0</ele><time>2026-05-03T11:27:47.999Z</time></trkpt><trkpt lat="41.03626851389242" lon="14.673555735605753"><ele>293.0</ele><time>2026-05-03T11:27:48.999Z</time></trkpt><trkpt lat="41.03606529402065" lon="14.673766748834613"><ele>293.0</ele><time>2026-05-03T11:27:49.999Z</time></trkpt><trkpt lat="41.03586741109893" lon="14.67397869976857"><ele>293.0</ele><time>2026-05-03T11:27:50.999Z</time></trkpt><trkpt lat="41.035679678713066" lon="14.674201363296714"><ele>295.0</ele><time>2026-05-03T11:27:51.999Z</time></trkpt><trkpt lat="41.03550480032476" lon="14.674427912740859"><ele>297.0</ele><time>2026-05-03T11:27:52.999Z</time></trkpt><trkpt lat="41.03533434630122" lon="14.674672590259751"><ele>298.0</ele><time>2026-05-03T11:27:53.999Z</time></trkpt><trkpt lat="41.03518134281094" lon="14.674905030139286"><ele>299.0</ele><time>2026-05-03T11:27:54.999Z</time></trkpt><trkpt lat="41.035050325615856" lon="14.675144042741048"><ele>300.6666666666667</ele><time>2026-05-03T11:27:55.999Z</time></trkpt><trkpt lat="41.034920393340336" lon="14.675394188795169"><ele>302.3333333333333</ele><time>2026-05-03T11:27:56.999Z</time></trkpt><trkpt lat="41.034807007060785" lon="14.675636346965492"><ele>304.0</ele><time>2026-05-03T11:27:57.999Z</time></trkpt><trkpt lat="41.034718110062585" lon="14.675875705503785"><ele>304.0</ele><time>2026-05-03T11:27:58.999Z</time></trkpt><trkpt lat="41.03463953624603" lon="14.676101932243483"><ele>304.0</ele><time>2026-05-03T11:27:59.999Z</time></trkpt><trkpt lat="41.03457086525396" lon="14.676326959445147"><ele>304.0</ele><time>2026-05-03T11:28:00.999Z</time></trkpt><trkpt lat="41.03451438356251" lon="14.676527821286028"><ele>305.25</ele><time>2026-05-03T11:28:01.999Z</time></trkpt><trkpt lat="41.03446782083377" lon="14.676706039995326"><ele>306.5</ele><time>2026-05-03T11:28:02.999Z</time></trkpt><trkpt lat="41.03443345907814" lon="14.676853777559181"><ele>307.75</ele><time>2026-05-03T11:28:03.999Z</time></trkpt><trkpt lat="41.03440188565147" lon="14.6770191455942"><ele>309.0</ele><time>2026-05-03T11:28:04.999Z</time></trkpt><trkpt lat="41.03435425638179" lon="14.677200403177684"><ele>309.3333333333333</ele><time>2026-05-03T11:28:05.999Z</time></trkpt><trkpt lat="41.0343026771912" lon="14.67740414992025"><ele>309.66666666666663</ele><time>2026-05-03T11:28:06.999Z</time></trkpt><trkpt lat="41.034260900416065" lon="14.677584655876425"><ele>310.0</ele><time>2026-05-03T11:28:07.999Z</time></trkpt><trkpt lat="41.034211596535876" lon="14.677780360181288"><ele>309.0</ele><time>2026-05-03T11:28:08.999Z</time></trkpt><trkpt lat="41.03416853180054" lon="14.677960622278237"><ele>308.0</ele><time>2026-05-03T11:28:09.999Z</time></trkpt><trkpt lat="41.034135640480685" lon="14.678138158816177"><ele>307.0</ele><time>2026-05-03T11:28:10.999Z</time></trkpt><trkpt lat="41.03410048240444" lon="14.678310261851152"><ele>306.0</ele><time>2026-05-03T11:28:11.999Z</time></trkpt><trkpt lat="41.03404977661162" lon="14.6784715001809"><ele>299.6666666666667</ele><time>2026-05-03T11:28:12.999Z</time></trkpt><trkpt lat="41.03400123961988" lon="14.678639679806134"><ele>293.33333333333337</ele><time>2026-05-03T11:28:13.999Z</time></trkpt><trkpt lat="41.03396067537902" lon="14.67882816730265"><ele>287.0</ele><time>2026-05-03T11:28:14.999Z</time></trkpt><trkpt lat="41.033926301543644" lon="14.67905329132507"><ele>287.0</ele><time>2026-05-03T11:28:15.999Z</time></trkpt><trkpt lat="41.03387338911472" lon="14.679349982491571"><ele>287.0</ele><time>2026-05-03T11:28:16.999Z</time></trkpt><trkpt lat="41.03378766226155" lon="14.679675518522776"><ele>288.5</ele><time>2026-05-03T11:28:17.999Z</time></trkpt><trkpt lat="41.033705530575105" lon="14.679994807072351"><ele>290.0</ele><time>2026-05-03T11:28:18.999Z</time></trkpt><trkpt lat="41.033624626126" lon="14.680355207366858"><ele>290.0</ele><time>2026-05-03T11:28:19.999Z</time></trkpt><trkpt lat="41.033546380641496" lon="14.680728678096933"><ele>290.0</ele><time>2026-05-03T11:28:20.999Z</time></trkpt><trkpt lat="41.0334689535882" lon="14.681096603433579"><ele>292.0</ele><time>2026-05-03T11:28:21.999Z</time></trkpt><trkpt lat="41.03339010255815" lon="14.681479531003504"><ele>294.0</ele><time>2026-05-03T11:28:22.999Z</time></trkpt><trkpt lat="41.03331931889688" lon="14.681868501281484"><ele>297.5</ele><time>2026-05-03T11:28:23.999Z</time></trkpt><trkpt lat="41.03325447093675" lon="14.682251821389318"><ele>301.0</ele><time>2026-05-03T11:28:24.999Z</time></trkpt><trkpt lat="41.03320405572294" lon="14.682617818429513"><ele>297.5</ele><time>2026-05-03T11:28:25.999Z</time></trkpt><trkpt lat="41.03316430648608" lon="14.682954853580963"><ele>294.0</ele><time>2026-05-03T11:28:26.999Z</time></trkpt><trkpt lat="41.03313789792478" lon="14.683273958631123"><ele>294.0</ele><time>2026-05-03T11:28:27.999Z</time></trkpt><trkpt lat="41.03311982263103" lon="14.683570159033447"><ele>294.0</ele><time>2026-05-03T11:28:28.999Z</time></trkpt><trkpt lat="41.03311568722007" lon="14.68383293182037"><ele>294.0</ele><time>2026-05-03T11:28:29.999Z</time></trkpt><trkpt lat="41.03311357443298" lon="14.684078304488944"><ele>291.25</ele><time>2026-05-03T11:28:30.999Z</time></trkpt><trkpt lat="41.03311093101897" lon="14.68429392086154"><ele>288.5</ele><time>2026-05-03T11:28:31.999Z</time></trkpt><trkpt lat="41.03311359703444" lon="14.684489813350861"><ele>285.75</ele><time>2026-05-03T11:28:32.999Z</time></trkpt><trkpt lat="41.03311218963348" lon="14.684656451771557"><ele>283.0</ele><time>2026-05-03T11:28:33.999Z</time></trkpt><trkpt lat="41.03310595532566" lon="14.68479869662927"><ele>282.0</ele><time>2026-05-03T11:28:34.999Z</time></trkpt><trkpt lat="41.033102834584795" lon="14.684894307501176"><ele>281.0</ele><time>2026-05-03T11:28:35.999Z</time></trkpt><trkpt lat="41.03309099896029" lon="14.685027778921828"><ele>280.0</ele><time>2026-05-03T11:28:37.999Z</time></trkpt><trkpt lat="41.03309521579955" lon="14.685154213600207"><ele>279.0</ele><time>2026-05-03T11:28:46.999Z</time></trkpt><trkpt lat="41.033103758976125" lon="14.68530238559764"><ele>278.0</ele><time>2026-05-03T11:28:47.999Z</time></trkpt><trkpt lat="41.03311014768885" lon="14.685476744214865"><ele>278.0</ele><time>2026-05-03T11:28:48.999Z</time></trkpt><trkpt lat="41.033116410130624" lon="14.685672132366122"><ele>278.0</ele><time>2026-05-03T11:28:49.999Z</time></trkpt><trkpt lat="41.03311324659377" lon="14.685906659706594"><ele>278.0</ele><time>2026-05-03T11:28:50.999Z</time></trkpt><trkpt lat="41.03312367615097" lon="14.686153561407567"><ele>279.33333333333337</ele><time>2026-05-03T11:28:51.999Z</time></trkpt><trkpt lat="41.033129692975365" lon="14.686431407716281"><ele>280.6666666666667</ele><time>2026-05-03T11:28:52.999Z</time></trkpt><trkpt lat="41.03313502869459" lon="14.686720617327808"><ele>282.0</ele><time>2026-05-03T11:28:53.999Z</time></trkpt><trkpt lat="41.033125422600136" lon="14.686987284457853"><ele>282.0</ele><time>2026-05-03T11:28:54.999Z</time></trkpt><trkpt lat="41.03311898162879" lon="14.687236123195841"><ele>282.0</ele><time>2026-05-03T11:28:55.999Z</time></trkpt><trkpt lat="41.03311370148459" lon="14.687407543336233"><ele>282.0</ele><time>2026-05-03T11:28:56.999Z</time></trkpt><trkpt lat="41.03309891416435" lon="14.687653393007173"><ele>278.75</ele><time>2026-05-03T11:28:57.999Z</time></trkpt><trkpt lat="41.033072417661465" lon="14.68786888960942"><ele>275.5</ele><time>2026-05-03T11:28:58.999Z</time></trkpt><trkpt lat="41.03304402150112" lon="14.688057980594245"><ele>272.25</ele><time>2026-05-03T11:28:59.999Z</time></trkpt><trkpt lat="41.03300953918574" lon="14.688236525742475"><ele>269.0</ele><time>2026-05-03T11:29:00.999Z</time></trkpt><trkpt lat="41.033013907834324" lon="14.688605604548185"><ele>265.33333333333337</ele><time>2026-05-03T11:29:01.999Z</time></trkpt><trkpt lat="41.03297089588822" lon="14.68884803474515"><ele>261.6666666666667</ele><time>2026-05-03T11:29:02.999Z</time></trkpt><trkpt lat="41.03292316051688" lon="14.68909068416383"><ele>258.0</ele><time>2026-05-03T11:29:03.999Z</time></trkpt><trkpt lat="41.03287264382025" lon="14.689314481889529"><ele>258.0</ele><time>2026-05-03T11:29:04.999Z</time></trkpt><trkpt lat="41.03281949161482" lon="14.689539784512226"><ele>258.0</ele><time>2026-05-03T11:29:05.999Z</time></trkpt><trkpt lat="41.03276169619637" lon="14.68976865267552"><ele>258.0</ele><time>2026-05-03T11:29:06.999Z</time></trkpt><trkpt lat="41.0327014737177" lon="14.689999312854171"><ele>258.0</ele><time>2026-05-03T11:29:07.999Z</time></trkpt><trkpt lat="41.032639477248495" lon="14.690212628892185"><ele>258.0</ele><time>2026-05-03T11:29:08.999Z</time></trkpt><trkpt lat="41.03258173568315" lon="14.690416267231912"><ele>258.0</ele><time>2026-05-03T11:29:09.999Z</time></trkpt><trkpt lat="41.03251025674659" lon="14.690654626495432"><ele>254.0</ele><time>2026-05-03T11:29:10.999Z</time></trkpt><trkpt lat="41.03244444992442" lon="14.690910593233923"><ele>250.0</ele><time>2026-05-03T11:29:11.999Z</time></trkpt><trkpt lat="41.032382223398464" lon="14.691171724705264"><ele>246.0</ele><time>2026-05-03T11:29:12.999Z</time></trkpt><trkpt lat="41.03231315130757" lon="14.691436767915324"><ele>246.0</ele><time>2026-05-03T11:29:13.999Z</time></trkpt><trkpt lat="41.03225243305881" lon="14.691709503153994"><ele>246.0</ele><time>2026-05-03T11:29:14.999Z</time></trkpt><trkpt lat="41.032196567045496" lon="14.691988181663646"><ele>246.0</ele><time>2026-05-03T11:29:15.999Z</time></trkpt><trkpt lat="41.03215802219092" lon="14.692272014329095"><ele>245.33333333333331</ele><time>2026-05-03T11:29:16.999Z</time></trkpt><trkpt lat="41.032130176951675" lon="14.69255719249413"><ele>244.66666666666666</ele><time>2026-05-03T11:29:17.999Z</time></trkpt><trkpt lat="41.0321145668354" lon="14.69284519976854"><ele>244.0</ele><time>2026-05-03T11:29:18.999Z</time></trkpt><trkpt lat="41.03211300186237" lon="14.693138273236544"><ele>244.0</ele><time>2026-05-03T11:29:19.999Z</time></trkpt><trkpt lat="41.032116587137246" lon="14.693451712900295"><ele>244.0</ele><time>2026-05-03T11:29:20.999Z</time></trkpt><trkpt lat="41.03213754524062" lon="14.693764010038203"><ele>239.5</ele><time>2026-05-03T11:29:21.999Z</time></trkpt><trkpt lat="41.03217171496011" lon="14.694085511474062"><ele>235.0</ele><time>2026-05-03T11:29:22.999Z</time></trkpt><trkpt lat="41.03222359526474" lon="14.694420240472947"><ele>233.5</ele><time>2026-05-03T11:29:23.999Z</time></trkpt><trkpt lat="41.032306583006545" lon="14.694792017467126"><ele>232.0</ele><time>2026-05-03T11:29:24.999Z</time></trkpt><trkpt lat="41.03236570360848" lon="14.695124578914598"><ele>232.0</ele><time>2026-05-03T11:29:25.999Z</time></trkpt><trkpt lat="41.03242258837971" lon="14.695463404597227"><ele>232.0</ele><time>2026-05-03T11:29:26.999Z</time></trkpt><trkpt lat="41.032475102607016" lon="14.69581056892979"><ele>229.0</ele><time>2026-05-03T11:29:27.999Z</time></trkpt><trkpt lat="41.03252545316373" lon="14.696155699077654"><ele>226.0</ele><time>2026-05-03T11:29:28.999Z</time></trkpt><trkpt lat="41.03257378754988" lon="14.696496315190869"><ele>226.0</ele><time>2026-05-03T11:29:29.999Z</time></trkpt><trkpt lat="41.03261827088288" lon="14.696836148593553"><ele>226.0</ele><time>2026-05-03T11:29:30.999Z</time></trkpt><trkpt lat="41.032655876488064" lon="14.697177423940488"><ele>226.5</ele><time>2026-05-03T11:29:31.999Z</time></trkpt><trkpt lat="41.03267482750223" lon="14.697515129031036"><ele>227.0</ele><time>2026-05-03T11:29:32.999Z</time></trkpt><trkpt lat="41.03269371394828" lon="14.697861553329734"><ele>227.5</ele><time>2026-05-03T11:29:34Z</time></trkpt><trkpt lat="41.032693405721865" lon="14.698201530068111"><ele>228.0</ele><time>2026-05-03T11:29:35Z</time></trkpt><trkpt lat="41.03268217042076" lon="14.698541134279415"><ele>229.5</ele><time>2026-05-03T11:29:36Z</time></trkpt><trkpt lat="41.03265459210799" lon="14.6988811386071"><ele>231.0</ele><time>2026-05-03T11:29:37Z</time></trkpt><trkpt lat="41.03260415812208" lon="14.699213968973254"><ele>233.5</ele><time>2026-05-03T11:29:38Z</time></trkpt><trkpt lat="41.03253279357388" lon="14.699537910332333"><ele>236.0</ele><time>2026-05-03T11:29:39Z</time></trkpt><trkpt lat="41.0325073149615" lon="14.699870242924941"><ele>237.0</ele><time>2026-05-03T11:29:40Z</time></trkpt><trkpt lat="41.03235624495807" lon="14.700178563643801"><ele>238.0</ele><time>2026-05-03T11:29:41Z</time></trkpt><trkpt lat="41.03224981003819" lon="14.700486625766766"><ele>238.0</ele><time>2026-05-03T11:29:42Z</time></trkpt><trkpt lat="41.032127877589595" lon="14.700792864431625"><ele>238.0</ele><time>2026-05-03T11:29:43Z</time></trkpt><trkpt lat="41.03199051951547" lon="14.701080021053905"><ele>242.5</ele><time>2026-05-03T11:29:44Z</time></trkpt><trkpt lat="41.031826363570424" lon="14.70134834094095"><ele>247.0</ele><time>2026-05-03T11:29:45Z</time></trkpt><trkpt lat="41.03164615524558" lon="14.701611065053463"><ele>248.0</ele><time>2026-05-03T11:29:46Z</time></trkpt><trkpt lat="41.031462386422454" lon="14.70186322267072"><ele>249.0</ele><time>2026-05-03T11:29:47Z</time></trkpt><trkpt lat="41.0312704649408" lon="14.70208625483546"><ele>249.0</ele><time>2026-05-03T11:29:48Z</time></trkpt><trkpt lat="41.031069947271426" lon="14.702296080073943"><ele>249.0</ele><time>2026-05-03T11:29:49Z</time></trkpt><trkpt lat="41.03085304648302" lon="14.70248408441267"><ele>251.5</ele><time>2026-05-03T11:29:50Z</time></trkpt><trkpt lat="41.03063334748473" lon="14.702656818312466"><ele>254.0</ele><time>2026-05-03T11:29:51Z</time></trkpt><trkpt lat="41.030408249933096" lon="14.702810436788086"><ele>263.0</ele><time>2026-05-03T11:29:52Z</time></trkpt><trkpt lat="41.030178276759074" lon="14.702948766638333"><ele>272.0</ele><time>2026-05-03T11:29:53Z</time></trkpt><trkpt lat="41.029930757355196" lon="14.703057004496715"><ele>275.0</ele><time>2026-05-03T11:29:54Z</time></trkpt><trkpt lat="41.02968759552682" lon="14.703159224104455"><ele>278.0</ele><time>2026-05-03T11:29:55Z</time></trkpt><trkpt lat="41.02944558196269" lon="14.703245892460684"><ele>278.0</ele><time>2026-05-03T11:29:56Z</time></trkpt><trkpt lat="41.029200811654476" lon="14.703342403482512"><ele>278.0</ele><time>2026-05-03T11:29:57Z</time></trkpt><trkpt lat="41.02895901272095" lon="14.703426705876275"><ele>280.0</ele><time>2026-05-03T11:29:58Z</time></trkpt><trkpt lat="41.02871346511411" lon="14.703515817788011"><ele>282.0</ele><time>2026-05-03T11:29:59.015Z</time></trkpt><trkpt lat="41.02847436744757" lon="14.703611228487002"><ele>284.0</ele><time>2026-05-03T11:30:00.017Z</time></trkpt><trkpt lat="41.028232226642956" lon="14.703697669866823"><ele>286.0</ele><time>2026-05-03T11:30:01.019Z</time></trkpt><trkpt lat="41.02799459045308" lon="14.703788134666285"><ele>275.0</ele><time>2026-05-03T11:30:02.015Z</time></trkpt><trkpt lat="41.026849402152955" lon="14.703962188227758"><ele>275.0</ele><time>2026-05-03T11:30:06Z</time></trkpt><trkpt lat="41.0268412432262" lon="14.704082843217446"><ele>275.0</ele><time>2026-05-03T11:30:07Z</time></trkpt><trkpt lat="41.02649194341582" lon="14.704148769156818"><ele>275.0</ele><time>2026-05-03T11:30:08Z</time></trkpt><trkpt lat="41.026234523582545" lon="14.704237583391613"><ele>266.0</ele><time>2026-05-03T11:30:09Z</time></trkpt><trkpt lat="41.02598605792504" lon="14.704325757842858"><ele>257.0</ele><time>2026-05-03T11:30:10Z</time></trkpt><trkpt lat="41.025749686449856" lon="14.70441927786871"><ele>255.5</ele><time>2026-05-03T11:30:11Z</time></trkpt><trkpt lat="41.02551587729192" lon="14.704533986975445"><ele>254.0</ele><time>2026-05-03T11:30:12Z</time></trkpt><trkpt lat="41.025288296981344" lon="14.704666300306766"><ele>254.0</ele><time>2026-05-03T11:30:13Z</time></trkpt><trkpt lat="41.02507778948076" lon="14.704822286851822"><ele>254.0</ele><time>2026-05-03T11:30:14Z</time></trkpt><trkpt lat="41.02487880177447" lon="14.70499394053789"><ele>256.5</ele><time>2026-05-03T11:30:15Z</time></trkpt><trkpt lat="41.02469025200325" lon="14.705185821397073"><ele>259.0</ele><time>2026-05-03T11:30:16Z</time></trkpt><trkpt lat="41.02451506414253" lon="14.70538853886179"><ele>262.5</ele><time>2026-05-03T11:30:17Z</time></trkpt><trkpt lat="41.02435397380847" lon="14.705615137875293"><ele>266.0</ele><time>2026-05-03T11:30:18Z</time></trkpt><trkpt lat="41.024206792005124" lon="14.705853818522982"><ele>276.0</ele><time>2026-05-03T11:30:19Z</time></trkpt><trkpt lat="41.02407111445606" lon="14.70611551945622"><ele>286.0</ele><time>2026-05-03T11:30:20Z</time></trkpt><trkpt lat="41.023958747806425" lon="14.706391384836945"><ele>286.0</ele><time>2026-05-03T11:30:21Z</time></trkpt><trkpt lat="41.02385551328279" lon="14.706680247085423"><ele>286.0</ele><time>2026-05-03T11:30:22Z</time></trkpt><trkpt lat="41.02377154501245" lon="14.706986449299073"><ele>288.5</ele><time>2026-05-03T11:30:23Z</time></trkpt><trkpt lat="41.02370220858399" lon="14.707300234383155"><ele>291.0</ele><time>2026-05-03T11:30:24Z</time></trkpt><trkpt lat="41.023667349559425" lon="14.707631086258454"><ele>293.5</ele><time>2026-05-03T11:30:25Z</time></trkpt><trkpt lat="41.02363724957547" lon="14.707960085106796"><ele>296.0</ele><time>2026-05-03T11:30:26Z</time></trkpt><trkpt lat="41.02363266674029" lon="14.70831042880786"><ele>295.5</ele><time>2026-05-03T11:30:27Z</time></trkpt><trkpt lat="41.02364190071817" lon="14.708656876225845"><ele>295.0</ele><time>2026-05-03T11:30:28Z</time></trkpt><trkpt lat="41.02367094925419" lon="14.709001801430194"><ele>295.0</ele><time>2026-05-03T11:30:29Z</time></trkpt><trkpt lat="41.02370967988318" lon="14.709353713733611"><ele>295.0</ele><time>2026-05-03T11:30:30Z</time></trkpt><trkpt lat="41.02374574150701" lon="14.709696483886264"><ele>297.0</ele><time>2026-05-03T11:30:31Z</time></trkpt><trkpt lat="41.02378136358431" lon="14.710045106932409"><ele>299.0</ele><time>2026-05-03T11:30:32Z</time></trkpt><trkpt lat="41.023826467845936" lon="14.710388637994294"><ele>303.0</ele><time>2026-05-03T11:30:33Z</time></trkpt><trkpt lat="41.023862635534435" lon="14.710733021078237"><ele>307.0</ele><time>2026-05-03T11:30:34Z</time></trkpt><trkpt lat="41.0238998553385" lon="14.711076940794493"><ele>308.0</ele><time>2026-05-03T11:30:35Z</time></trkpt><trkpt lat="41.023936447889795" lon="14.71142154803236"><ele>309.0</ele><time>2026-05-03T11:30:36Z</time></trkpt><trkpt lat="41.02396695420822" lon="14.71175711101281"><ele>310.0</ele><time>2026-05-03T11:30:37Z</time></trkpt><trkpt lat="41.02401303594394" lon="14.712090279291916"><ele>311.0</ele><time>2026-05-03T11:30:38Z</time></trkpt><trkpt lat="41.02405461277465" lon="14.712423539919136"><ele>314.5</ele><time>2026-05-03T11:30:39Z</time></trkpt><trkpt lat="41.02409107583264" lon="14.712751343069254"><ele>318.0</ele><time>2026-05-03T11:30:40Z</time></trkpt><trkpt lat="41.02412176319574" lon="14.71307744479863"><ele>318.0</ele><time>2026-05-03T11:30:41Z</time></trkpt><trkpt lat="41.02415434691027" lon="14.713401921542893"><ele>318.0</ele><time>2026-05-03T11:30:42Z</time></trkpt><trkpt lat="41.02418461732064" lon="14.713718948263564"><ele>318.0</ele><time>2026-05-03T11:30:43Z</time></trkpt><trkpt lat="41.02420920844048" lon="14.714040039492616"><ele>318.0</ele><time>2026-05-03T11:30:44Z</time></trkpt><trkpt lat="41.02421211390078" lon="14.714323422787894"><ele>319.3333333333333</ele><time>2026-05-03T11:30:45Z</time></trkpt><trkpt lat="41.02420311314895" lon="14.714570103382956"><ele>320.66666666666663</ele><time>2026-05-03T11:30:45.999Z</time></trkpt><trkpt lat="41.024127156987696" lon="14.71477756742624"><ele>322.0</ele><time>2026-05-03T11:30:46.999Z</time></trkpt><trkpt lat="41.02406185078689" lon="14.714965023244558"><ele>324.0</ele><time>2026-05-03T11:30:47.999Z</time></trkpt><trkpt lat="41.02400409609038" lon="14.715141862732443"><ele>326.0</ele><time>2026-05-03T11:30:48.999Z</time></trkpt><trkpt lat="41.023941860503534" lon="14.715272527864721"><ele>328.0</ele><time>2026-05-03T11:30:49.999Z</time></trkpt><trkpt lat="41.02388313412497" lon="14.715367107229591"><ele>330.0</ele><time>2026-05-03T11:30:50.999Z</time></trkpt><trkpt lat="41.02380768649659" lon="14.715436956084261"><ele>332.0</ele><time>2026-05-03T11:30:52.999Z</time></trkpt><trkpt lat="41.02383502409903" lon="14.715703728029627"><ele>333.5</ele><time>2026-05-03T11:30:55.999Z</time></trkpt><trkpt lat="41.02388157477166" lon="14.715868147707463"><ele>335.0</ele><time>2026-05-03T11:30:56.999Z</time></trkpt><trkpt lat="41.0239047497563" lon="14.716054320836864"><ele>336.5</ele><time>2026-05-03T11:30:57.999Z</time></trkpt><trkpt lat="41.02394070804872" lon="14.716229952920083"><ele>338.0</ele><time>2026-05-03T11:30:58.999Z</time></trkpt><trkpt lat="41.02396181209074" lon="14.716407305432773"><ele>337.79999999999995</ele><time>2026-05-03T11:30:59.999Z</time></trkpt><trkpt lat="41.02397083875607" lon="14.716558850094945"><ele>337.6</ele><time>2026-05-03T11:31:00.999Z</time></trkpt><trkpt lat="41.02397785283574" lon="14.71668718754972"><ele>337.4</ele><time>2026-05-03T11:31:01.999Z</time></trkpt><trkpt lat="41.02392125651833" lon="14.716827974292677"><ele>337.20000000000005</ele><time>2026-05-03T11:31:02.999Z</time></trkpt><trkpt lat="41.02387355707504" lon="14.716966456287407"><ele>337.0</ele><time>2026-05-03T11:31:03.999Z</time></trkpt><trkpt lat="41.02381084586464" lon="14.717112904652868"><ele>337.0</ele><time>2026-05-03T11:31:04.999Z</time></trkpt><trkpt lat="41.02374624607398" lon="14.71724194803502"><ele>337.0</ele><time>2026-05-03T11:31:05.999Z</time></trkpt><trkpt lat="41.023683619106784" lon="14.717341493699609"><ele>337.0</ele><time>2026-05-03T11:31:06.999Z</time></trkpt><trkpt lat="41.023613907768464" lon="14.717405015469788"><ele>337.0</ele><time>2026-05-03T11:31:07.999Z</time></trkpt><trkpt lat="41.02352900525752" lon="14.717445738577855"><ele>337.0</ele><time>2026-05-03T11:31:08.999Z</time></trkpt><trkpt lat="41.02342409515226" lon="14.717479251844717"><ele>339.0</ele><time>2026-05-03T11:31:09.999Z</time></trkpt><trkpt lat="41.02329368922869" lon="14.717496229124968"><ele>341.0</ele><time>2026-05-03T11:31:10.999Z</time></trkpt><trkpt lat="41.02316036955368" lon="14.717530023667285"><ele>343.0</ele><time>2026-05-03T11:31:11.999Z</time></trkpt><trkpt lat="41.02299241801438" lon="14.717563961018223"><ele>345.0</ele><time>2026-05-03T11:31:12.999Z</time></trkpt><trkpt lat="41.02283652160359" lon="14.717612267593028"><ele>345.0</ele><time>2026-05-03T11:31:13.999Z</time></trkpt><trkpt lat="41.02266971460189" lon="14.717648300437238"><ele>345.0</ele><time>2026-05-03T11:31:14.999Z</time></trkpt><trkpt lat="41.022483200198984" lon="14.717692042743096"><ele>345.0</ele><time>2026-05-03T11:31:15.999Z</time></trkpt><trkpt lat="41.02228174291328" lon="14.717738576672243"><ele>348.25</ele><time>2026-05-03T11:31:16.999Z</time></trkpt><trkpt lat="41.02212978770209" lon="14.717771994926759"><ele>351.5</ele><time>2026-05-03T11:31:17.999Z</time></trkpt><trkpt lat="41.02199582185037" lon="14.717802981396035"><ele>354.75</ele><time>2026-05-03T11:31:18.999Z</time></trkpt><trkpt lat="41.02187714254385" lon="14.717826632436093"><ele>358.0</ele><time>2026-05-03T11:31:19.999Z</time></trkpt><trkpt lat="41.021788168871275" lon="14.71783897505218"><ele>358.0</ele><time>2026-05-03T11:31:20.999Z</time></trkpt><trkpt lat="41.021702932189164" lon="14.717857793406848"><ele>358.0</ele><time>2026-05-03T11:31:21.999Z</time></trkpt><trkpt lat="41.021607532088915" lon="14.7178700584116"><ele>358.0</ele><time>2026-05-03T11:31:22.999Z</time></trkpt><trkpt lat="41.02152764636581" lon="14.71787860409153"><ele>358.0</ele><time>2026-05-03T11:31:23.999Z</time></trkpt><trkpt lat="41.02145101839732" lon="14.71787396862943"><ele>358.0</ele><time>2026-05-03T11:31:24.999Z</time></trkpt><trkpt lat="41.02134713168315" lon="14.71785354256958"><ele>358.0</ele><time>2026-05-03T11:31:26.999Z</time></trkpt><trkpt lat="41.02127893426518" lon="14.717870759016263"><ele>360.75</ele><time>2026-05-03T11:31:27.999Z</time></trkpt><trkpt lat="41.02120128939431" lon="14.717923587993594"><ele>363.5</ele><time>2026-05-03T11:31:28.999Z</time></trkpt><trkpt lat="41.02110868505319" lon="14.718002892358841"><ele>366.25</ele><time>2026-05-03T11:31:29.999Z</time></trkpt><trkpt lat="41.02100049894287" lon="14.718089084871144"><ele>369.0</ele><time>2026-05-03T11:31:30.999Z</time></trkpt><trkpt lat="41.02087639500649" lon="14.718164921647592"><ele>374.0</ele><time>2026-05-03T11:31:31.999Z</time></trkpt><trkpt lat="41.0207370307109" lon="14.718236421360514"><ele>379.0</ele><time>2026-05-03T11:31:32.999Z</time></trkpt><trkpt lat="41.02060065116212" lon="14.718304431132339"><ele>384.0</ele><time>2026-05-03T11:31:33.999Z</time></trkpt><trkpt lat="41.020455922344944" lon="14.718385020368263"><ele>384.0</ele><time>2026-05-03T11:31:34.999Z</time></trkpt><trkpt lat="41.02030189792202" lon="14.718463653866813"><ele>384.0</ele><time>2026-05-03T11:31:35.999Z</time></trkpt><trkpt lat="41.02015013132281" lon="14.718541995588547"><ele>384.0</ele><time>2026-05-03T11:31:36.999Z</time></trkpt><trkpt lat="41.020011571280335" lon="14.71861171869195"><ele>387.6</ele><time>2026-05-03T11:31:37.999Z</time></trkpt><trkpt lat="41.01989576168051" lon="14.718672691470974"><ele>391.2</ele><time>2026-05-03T11:31:38.999Z</time></trkpt><trkpt lat="41.01980774841157" lon="14.718717875454413"><ele>394.8</ele><time>2026-05-03T11:31:40Z</time></trkpt><trkpt lat="41.01971867535986" lon="14.718751365973294"><ele>398.40000000000003</ele><time>2026-05-03T11:31:41Z</time></trkpt><trkpt lat="41.01963090813396" lon="14.718807654604769"><ele>402.0</ele><time>2026-05-03T11:31:42Z</time></trkpt><trkpt lat="41.01952437902301" lon="14.71875326887776"><ele>402.0</ele><time>2026-05-03T11:31:43Z</time></trkpt><trkpt lat="41.019430179306404" lon="14.718713111343718"><ele>402.0</ele><time>2026-05-03T11:31:44Z</time></trkpt><trkpt lat="41.019329057113644" lon="14.718669333667371"><ele>402.0</ele><time>2026-05-03T11:31:45Z</time></trkpt><trkpt lat="41.01924582795515" lon="14.718532424747163"><ele>402.0</ele><time>2026-05-03T11:31:46Z</time></trkpt><trkpt lat="41.01915359717071" lon="14.71842037659994"><ele>404.40000000000003</ele><time>2026-05-03T11:31:47Z</time></trkpt><trkpt lat="41.01908413264596" lon="14.718320889260815"><ele>406.8</ele><time>2026-05-03T11:31:48Z</time></trkpt><trkpt lat="41.01902578899841" lon="14.71825407946055"><ele>409.2</ele><time>2026-05-03T11:31:49Z</time></trkpt><trkpt lat="41.01894523192367" lon="14.718172301644444"><ele>411.6</ele><time>2026-05-03T11:31:51Z</time></trkpt><trkpt lat="41.018875744844976" lon="14.718332299528004"><ele>414.0</ele><time>2026-05-03T11:31:55Z</time></trkpt><trkpt lat="41.01890296407466" lon="14.718497354459867"><ele>414.25</ele><time>2026-05-03T11:31:56Z</time></trkpt><trkpt lat="41.01893307731406" lon="14.71866418790615"><ele>414.5</ele><time>2026-05-03T11:31:57Z</time></trkpt><trkpt lat="41.01892555467054" lon="14.718834621368016"><ele>414.75</ele><time>2026-05-03T11:31:58Z</time></trkpt><trkpt lat="41.018878847223824" lon="14.719013201692363"><ele>415.0</ele><time>2026-05-03T11:31:59Z</time></trkpt><trkpt lat="41.018832391840036" lon="14.719163635954034"><ele>415.0</ele><time>2026-05-03T11:32:00Z</time></trkpt><trkpt lat="41.01879463615085" lon="14.719268890280938"><ele>415.0</ele><time>2026-05-03T11:32:01Z</time></trkpt><trkpt lat="41.01872059961532" lon="14.719300513053087"><ele>415.0</ele><time>2026-05-03T11:32:02Z</time></trkpt><trkpt lat="41.018630470289516" lon="14.719233776248918"><ele>415.0</ele><time>2026-05-03T11:32:03Z</time></trkpt><trkpt lat="41.01861182648813" lon="14.71909381847931"><ele>415.0</ele><time>2026-05-03T11:32:04Z</time></trkpt><trkpt lat="41.018576139720096" lon="14.718935156189323"><ele>415.0</ele><time>2026-05-03T11:32:05Z</time></trkpt><trkpt lat="41.01849883213193" lon="14.718753374482432"><ele>415.0</ele><time>2026-05-03T11:32:06Z</time></trkpt><trkpt lat="41.01844092392397" lon="14.718549723826312"><ele>415.0</ele><time>2026-05-03T11:32:07Z</time></trkpt><trkpt lat="41.01837325115841" lon="14.718356736699185"><ele>419.6666666666667</ele><time>2026-05-03T11:32:08Z</time></trkpt><trkpt lat="41.01830075136194" lon="14.71814335485269"><ele>424.33333333333337</ele><time>2026-05-03T11:32:09Z</time></trkpt><trkpt lat="41.018237679463574" lon="14.717925763490953"><ele>429.0</ele><time>2026-05-03T11:32:10Z</time></trkpt><trkpt lat="41.0181721515922" lon="14.71774675076562"><ele>428.0</ele><time>2026-05-03T11:32:11Z</time></trkpt><trkpt lat="41.01811497733027" lon="14.717594931142662"><ele>427.0</ele><time>2026-05-03T11:32:12Z</time></trkpt><trkpt lat="41.01806368093667" lon="14.717456130762967"><ele>426.0</ele><time>2026-05-03T11:32:13Z</time></trkpt><trkpt lat="41.01802526230534" lon="14.717335788890589"><ele>425.0</ele><time>2026-05-03T11:32:14Z</time></trkpt><trkpt lat="41.017973373616535" lon="14.717257717571574"><ele>424.0</ele><time>2026-05-03T11:32:15Z</time></trkpt><trkpt lat="41.017903695573594" lon="14.717215179952177"><ele>424.0</ele><time>2026-05-03T11:32:16Z</time></trkpt><trkpt lat="41.01780505052719" lon="14.71723843064942"><ele>424.0</ele><time>2026-05-03T11:32:17Z</time></trkpt><trkpt lat="41.0176808962375" lon="14.717297791261249"><ele>424.0</ele><time>2026-05-03T11:32:18Z</time></trkpt><trkpt lat="41.017530945518786" lon="14.717319523762477"><ele>424.0</ele><time>2026-05-03T11:32:19Z</time></trkpt><trkpt lat="41.017364463824514" lon="14.717367079516626"><ele>424.6666666666667</ele><time>2026-05-03T11:32:20Z</time></trkpt><trkpt lat="41.01720384458853" lon="14.717425329527646"><ele>425.33333333333337</ele><time>2026-05-03T11:32:21Z</time></trkpt><trkpt lat="41.01703891202794" lon="14.717472556402033"><ele>426.0</ele><time>2026-05-03T11:32:22Z</time></trkpt><trkpt lat="41.016854023636625" lon="14.717529171187463"><ele>426.0</ele><time>2026-05-03T11:32:23Z</time></trkpt><trkpt lat="41.01667313163635" lon="14.71760252459076"><ele>426.0</ele><time>2026-05-03T11:32:24Z</time></trkpt><trkpt lat="41.016474416922065" lon="14.717675085708922"><ele>426.0</ele><time>2026-05-03T11:32:25Z</time></trkpt><trkpt lat="41.01627892404612" lon="14.71774871061107"><ele>429.0</ele><time>2026-05-03T11:32:26Z</time></trkpt><trkpt lat="41.016107328354536" lon="14.717787798182146"><ele>432.0</ele><time>2026-05-03T11:32:27Z</time></trkpt><trkpt lat="41.01595641438325" lon="14.717846345514861"><ele>435.0</ele><time>2026-05-03T11:32:28Z</time></trkpt><trkpt lat="41.01580074178837" lon="14.717917978030451"><ele>436.0</ele><time>2026-05-03T11:32:29Z</time></trkpt><trkpt lat="41.01563818997173" lon="14.71789432145973"><ele>437.0</ele><time>2026-05-03T11:32:30Z</time></trkpt><trkpt lat="41.01546313875479" lon="14.717860248799457"><ele>438.0</ele><time>2026-05-03T11:32:31Z</time></trkpt><trkpt lat="41.015282660095885" lon="14.71786718877535"><ele>438.0</ele><time>2026-05-03T11:32:32Z</time></trkpt><trkpt lat="41.01509846163661" lon="14.717850450366871"><ele>438.0</ele><time>2026-05-03T11:32:33Z</time></trkpt><trkpt lat="41.014917338959464" lon="14.717832115024557"><ele>438.0</ele><time>2026-05-03T11:32:34Z</time></trkpt><trkpt lat="41.01475795749727" lon="14.71779594288125"><ele>439.66666666666663</ele><time>2026-05-03T11:32:35Z</time></trkpt><trkpt lat="41.01461402317389" lon="14.717708280599961"><ele>441.3333333333333</ele><time>2026-05-03T11:32:36Z</time></trkpt><trkpt lat="41.014488915478466" lon="14.717587122715033"><ele>443.0</ele><time>2026-05-03T11:32:37Z</time></trkpt><trkpt lat="41.014383195362974" lon="14.717447054286257"><ele>443.0</ele><time>2026-05-03T11:32:38Z</time></trkpt><trkpt lat="41.014342364939885" lon="14.717296315014021"><ele>443.0</ele><time>2026-05-03T11:32:39Z</time></trkpt><trkpt lat="41.01434029379444" lon="14.717116353282968"><ele>443.0</ele><time>2026-05-03T11:32:40Z</time></trkpt><trkpt lat="41.01434525122632" lon="14.716902597037723"><ele>443.0</ele><time>2026-05-03T11:32:41Z</time></trkpt><trkpt lat="41.014321797219445" lon="14.71671219885738"><ele>442.5</ele><time>2026-05-03T11:32:42Z</time></trkpt><trkpt lat="41.01428167886924" lon="14.71656058158304"><ele>442.0</ele><time>2026-05-03T11:32:43Z</time></trkpt><trkpt lat="41.01418254338273" lon="14.716426215413259"><ele>441.5</ele><time>2026-05-03T11:32:44Z</time></trkpt><trkpt lat="41.01404908624245" lon="14.716310706111194"><ele>441.0</ele><time>2026-05-03T11:32:45Z</time></trkpt><trkpt lat="41.01391377078757" lon="14.716159302166544"><ele>445.0</ele><time>2026-05-03T11:32:46Z</time></trkpt><trkpt lat="41.013795247980745" lon="14.715960708961612"><ele>449.0</ele><time>2026-05-03T11:32:47Z</time></trkpt><trkpt lat="41.01369353666223" lon="14.715756326500763"><ele>453.0</ele><time>2026-05-03T11:32:48Z</time></trkpt><trkpt lat="41.013569356425066" lon="14.715535896787815"><ele>453.0</ele><time>2026-05-03T11:32:49Z</time></trkpt><trkpt lat="41.01345016637982" lon="14.715327984504528"><ele>453.0</ele><time>2026-05-03T11:32:50Z</time></trkpt><trkpt lat="41.01331275547741" lon="14.715185245557445"><ele>453.0</ele><time>2026-05-03T11:32:51Z</time></trkpt><trkpt lat="41.01315682691101" lon="14.715076297951404"><ele>453.0</ele><time>2026-05-03T11:32:52Z</time></trkpt><trkpt lat="41.012976275035115" lon="14.714980870004597"><ele>453.0</ele><time>2026-05-03T11:32:53Z</time></trkpt><trkpt lat="41.01277290244276" lon="14.714904242177617"><ele>453.0</ele><time>2026-05-03T11:32:54Z</time></trkpt><trkpt lat="41.01258262291026" lon="14.714781163254589"><ele>456.66666666666663</ele><time>2026-05-03T11:32:55Z</time></trkpt><trkpt lat="41.01239073133776" lon="14.714656622132518"><ele>460.3333333333333</ele><time>2026-05-03T11:32:56Z</time></trkpt><trkpt lat="41.01222561522505" lon="14.714557107944373"><ele>464.0</ele><time>2026-05-03T11:32:57Z</time></trkpt><trkpt lat="41.01208986620571" lon="14.714455154355912"><ele>467.0</ele><time>2026-05-03T11:32:58Z</time></trkpt><trkpt lat="41.011952225365334" lon="14.714389112386177"><ele>470.0</ele><time>2026-05-03T11:32:59Z</time></trkpt><trkpt lat="41.01179620758926" lon="14.714392488023405"><ele>473.0</ele><time>2026-05-03T11:33:00Z</time></trkpt><trkpt lat="41.01162463721919" lon="14.714439286500689"><ele>473.0</ele><time>2026-05-03T11:33:01Z</time></trkpt><trkpt lat="41.01146724051827" lon="14.714465343957468"><ele>473.0</ele><time>2026-05-03T11:33:02Z</time></trkpt><trkpt lat="41.01134448594309" lon="14.714406510183892"><ele>473.0</ele><time>2026-05-03T11:33:03Z</time></trkpt><trkpt lat="41.011269092851926" lon="14.714295699123726"><ele>473.0</ele><time>2026-05-03T11:33:04Z</time></trkpt><trkpt lat="41.011212005804985" lon="14.714148327219355"><ele>469.75</ele><time>2026-05-03T11:33:05Z</time></trkpt><trkpt lat="41.011123504936826" lon="14.714009717652278"><ele>466.5</ele><time>2026-05-03T11:33:06Z</time></trkpt><trkpt lat="41.011032983993765" lon="14.713938048950995"><ele>463.25</ele><time>2026-05-03T11:33:07Z</time></trkpt><trkpt lat="41.01091906119768" lon="14.713946555308489"><ele>460.0</ele><time>2026-05-03T11:33:08Z</time></trkpt><trkpt lat="41.010805612472346" lon="14.71404105858123"><ele>459.5</ele><time>2026-05-03T11:33:08.999Z</time></trkpt><trkpt lat="41.010693697847934" lon="14.714176068780954"><ele>459.0</ele><time>2026-05-03T11:33:09.999Z</time></trkpt><trkpt lat="41.01056540871881" lon="14.7142240203109"><ele>458.5</ele><time>2026-05-03T11:33:10.999Z</time></trkpt><trkpt lat="41.010428950334166" lon="14.714199263551516"><ele>458.0</ele><time>2026-05-03T11:33:11.999Z</time></trkpt><trkpt lat="41.01024895050859" lon="14.714187855353925"><ele>458.0</ele><time>2026-05-03T11:33:12.999Z</time></trkpt><trkpt lat="41.0100946053282" lon="14.71423124954663"><ele>458.0</ele><time>2026-05-03T11:33:13.999Z</time></trkpt><trkpt lat="41.009950601187924" lon="14.714329306449029"><ele>458.0</ele><time>2026-05-03T11:33:14.999Z</time></trkpt><trkpt lat="41.0098101297459" lon="14.714495150389496"><ele>456.3333333333333</ele><time>2026-05-03T11:33:15.999Z</time></trkpt><trkpt lat="41.009659509174284" lon="14.71469696515725"><ele>454.66666666666663</ele><time>2026-05-03T11:33:16.999Z</time></trkpt><trkpt lat="41.00953363100703" lon="14.714917759121391"><ele>453.0</ele><time>2026-05-03T11:33:17.999Z</time></trkpt><trkpt lat="41.009402749182634" lon="14.715123285012838"><ele>458.0</ele><time>2026-05-03T11:33:18.999Z</time></trkpt><trkpt lat="41.009295890659004" lon="14.71531781734922"><ele>463.0</ele><time>2026-05-03T11:33:19.999Z</time></trkpt><trkpt lat="41.009210539163625" lon="14.715508443420857"><ele>468.0</ele><time>2026-05-03T11:33:20.999Z</time></trkpt><trkpt lat="41.009193212911335" lon="14.71569921318541"><ele>468.0</ele><time>2026-05-03T11:33:21.999Z</time></trkpt><trkpt lat="41.00923270160331" lon="14.715911059941302"><ele>468.0</ele><time>2026-05-03T11:33:22.999Z</time></trkpt><trkpt lat="41.00931897922485" lon="14.716134641988821"><ele>468.0</ele><time>2026-05-03T11:33:23.999Z</time></trkpt><trkpt lat="41.00940781969098" lon="14.716350069322681"><ele>470.33333333333337</ele><time>2026-05-03T11:33:24.999Z</time></trkpt><trkpt lat="41.00946010149126" lon="14.716567713895568"><ele>472.6666666666667</ele><time>2026-05-03T11:33:25.999Z</time></trkpt><trkpt lat="41.009461515480005" lon="14.716802324531574"><ele>475.0</ele><time>2026-05-03T11:33:26.999Z</time></trkpt><trkpt lat="41.00940905211728" lon="14.71702327227644"><ele>476.0</ele><time>2026-05-03T11:33:27.999Z</time></trkpt><trkpt lat="41.00936457813496" lon="14.717213039798144"><ele>477.0</ele><time>2026-05-03T11:33:28.999Z</time></trkpt><trkpt lat="41.00924210472522" lon="14.717299496026719"><ele>478.0</ele><time>2026-05-03T11:33:29.999Z</time></trkpt><trkpt lat="41.00911375320091" lon="14.717410719847425"><ele>479.0</ele><time>2026-05-03T11:33:30.999Z</time></trkpt><trkpt lat="41.00900788067357" lon="14.717561516549658"><ele>482.25</ele><time>2026-05-03T11:33:31.999Z</time></trkpt><trkpt lat="41.00891627312871" lon="14.717738777476395"><ele>485.5</ele><time>2026-05-03T11:33:32.999Z</time></trkpt><trkpt lat="41.00885968511775" lon="14.717931253857527"><ele>488.75</ele><time>2026-05-03T11:33:33.999Z</time></trkpt><trkpt lat="41.008776214517326" lon="14.718053540665027"><ele>492.0</ele><time>2026-05-03T11:33:34.999Z</time></trkpt><trkpt lat="41.008669738811825" lon="14.718116291448892"><ele>492.0</ele><time>2026-05-03T11:33:35.999Z</time></trkpt><trkpt lat="41.00855083560308" lon="14.718167656972307"><ele>492.0</ele><time>2026-05-03T11:33:36.999Z</time></trkpt><trkpt lat="41.00840896088166" lon="14.718102736313323"><ele>492.0</ele><time>2026-05-03T11:33:37.999Z</time></trkpt><trkpt lat="41.00829623001362" lon="14.71804093074381"><ele>492.0</ele><time>2026-05-03T11:33:38.999Z</time></trkpt><trkpt lat="41.00819762386275" lon="14.71799801237141"><ele>490.75</ele><time>2026-05-03T11:33:39.999Z</time></trkpt><trkpt lat="41.00812118267628" lon="14.71800539517702"><ele>489.5</ele><time>2026-05-03T11:33:40.999Z</time></trkpt><trkpt lat="41.00805554438362" lon="14.718103752905458"><ele>488.25</ele><time>2026-05-03T11:33:41.999Z</time></trkpt><trkpt lat="41.00803912369758" lon="14.718264925501092"><ele>487.0</ele><time>2026-05-03T11:33:42.999Z</time></trkpt><trkpt lat="41.0080110807302" lon="14.71848000938492"><ele>490.25</ele><time>2026-05-03T11:33:43.999Z</time></trkpt><trkpt lat="41.00795614194575" lon="14.718658011311213"><ele>493.5</ele><time>2026-05-03T11:33:44.999Z</time></trkpt><trkpt lat="41.007861464972486" lon="14.718782402030499"><ele>496.75</ele><time>2026-05-03T11:33:46Z</time></trkpt><trkpt lat="41.00773182190454" lon="14.718868045689485"><ele>500.0</ele><time>2026-05-03T11:33:47Z</time></trkpt><trkpt lat="41.00756673315864" lon="14.718895000530406"><ele>498.0</ele><time>2026-05-03T11:33:48Z</time></trkpt><trkpt lat="41.00740503320869" lon="14.71901795379914"><ele>496.0</ele><time>2026-05-03T11:33:49Z</time></trkpt><trkpt lat="41.00724696592896" lon="14.719131121253328"><ele>494.0</ele><time>2026-05-03T11:33:50Z</time></trkpt><trkpt lat="41.007092226881255" lon="14.719298896030452"><ele>498.66666666666663</ele><time>2026-05-03T11:33:51Z</time></trkpt><trkpt lat="41.00692796841638" lon="14.719464663654632"><ele>503.33333333333337</ele><time>2026-05-03T11:33:52Z</time></trkpt><trkpt lat="41.00679301480371" lon="14.719614274131319"><ele>508.0</ele><time>2026-05-03T11:33:53Z</time></trkpt><trkpt lat="41.0066654630723" lon="14.719747807086764"><ele>509.25</ele><time>2026-05-03T11:33:54Z</time></trkpt><trkpt lat="41.00655684052647" lon="14.719845410262812"><ele>510.5</ele><time>2026-05-03T11:33:55Z</time></trkpt><trkpt lat="41.00644687509881" lon="14.719912978530765"><ele>511.75</ele><time>2026-05-03T11:33:56Z</time></trkpt><trkpt lat="41.00632622752501" lon="14.71991671016833"><ele>513.0</ele><time>2026-05-03T11:33:57Z</time></trkpt><trkpt lat="41.00618767800041" lon="14.719865971503294"><ele>513.0</ele><time>2026-05-03T11:33:58Z</time></trkpt><trkpt lat="41.00603564852976" lon="14.719785580222613"><ele>513.0</ele><time>2026-05-03T11:33:59Z</time></trkpt><trkpt lat="41.0058837816619" lon="14.719669400233531"><ele>513.0</ele><time>2026-05-03T11:34:00Z</time></trkpt><trkpt lat="41.00573299334231" lon="14.719522592379224"><ele>517.0</ele><time>2026-05-03T11:34:01Z</time></trkpt><trkpt lat="41.005590521382324" lon="14.719384998596066"><ele>521.0</ele><time>2026-05-03T11:34:02Z</time></trkpt><trkpt lat="41.005463908331464" lon="14.719280038122939"><ele>525.0</ele><time>2026-05-03T11:34:03Z</time></trkpt><trkpt lat="41.0053639056917" lon="14.719124961543967"><ele>525.0</ele><time>2026-05-03T11:34:04Z</time></trkpt><trkpt lat="41.00528215673357" lon="14.718987325088976"><ele>525.0</ele><time>2026-05-03T11:34:05Z</time></trkpt><trkpt lat="41.00521740453482" lon="14.718803270083171"><ele>525.0</ele><time>2026-05-03T11:34:06Z</time></trkpt><trkpt lat="41.005138172747465" lon="14.718627678065264"><ele>525.0</ele><time>2026-05-03T11:34:07Z</time></trkpt><trkpt lat="41.00507440420642" lon="14.718479519166102"><ele>522.25</ele><time>2026-05-03T11:34:08Z</time></trkpt><trkpt lat="41.004980302717314" lon="14.718372715483246"><ele>519.5</ele><time>2026-05-03T11:34:09Z</time></trkpt><trkpt lat="41.00484600928763" lon="14.718320740656646"><ele>516.75</ele><time>2026-05-03T11:34:10Z</time></trkpt><trkpt lat="41.00468216364044" lon="14.718345719935305"><ele>514.0</ele><time>2026-05-03T11:34:11Z</time></trkpt><trkpt lat="41.00455127819721" lon="14.718395157177687"><ele>514.0</ele><time>2026-05-03T11:34:12Z</time></trkpt><trkpt lat="41.00442755768901" lon="14.718434766189345"><ele>514.0</ele><time>2026-05-03T11:34:13Z</time></trkpt><trkpt lat="41.004295566803414" lon="14.718457027634757"><ele>514.0</ele><time>2026-05-03T11:34:14Z</time></trkpt><trkpt lat="41.00415946622837" lon="14.71846955522007"><ele>514.0</ele><time>2026-05-03T11:34:15Z</time></trkpt><trkpt lat="41.00403018806981" lon="14.718488773326577"><ele>513.0</ele><time>2026-05-03T11:34:16Z</time></trkpt><trkpt lat="41.003899788483935" lon="14.718532669129347"><ele>512.0</ele><time>2026-05-03T11:34:17Z</time></trkpt><trkpt lat="41.00376667041238" lon="14.718588489688962"><ele>511.0</ele><time>2026-05-03T11:34:18Z</time></trkpt><trkpt lat="41.003639137990234" lon="14.718662062085103"><ele>510.0</ele><time>2026-05-03T11:34:19Z</time></trkpt><trkpt lat="41.00351787828103" lon="14.71875009628461"><ele>511.25</ele><time>2026-05-03T11:34:20Z</time></trkpt><trkpt lat="41.003389651270744" lon="14.718839732580438"><ele>512.5</ele><time>2026-05-03T11:34:21Z</time></trkpt><trkpt lat="41.003265259231725" lon="14.718928208554983"><ele>513.75</ele><time>2026-05-03T11:34:22Z</time></trkpt><trkpt lat="41.003136471790256" lon="14.718997538709376"><ele>515.0</ele><time>2026-05-03T11:34:23Z</time></trkpt><trkpt lat="41.00302061019398" lon="14.7191247046257"><ele>515.0</ele><time>2026-05-03T11:34:24Z</time></trkpt><trkpt lat="41.002893079060016" lon="14.719267109420402"><ele>515.0</ele><time>2026-05-03T11:34:25Z</time></trkpt><trkpt lat="41.00279309569724" lon="14.719408221905182"><ele>515.0</ele><time>2026-05-03T11:34:26Z</time></trkpt><trkpt lat="41.00269970900076" lon="14.719553423647337"><ele>519.25</ele><time>2026-05-03T11:34:27Z</time></trkpt><trkpt lat="41.002619489185754" lon="14.71970655100121"><ele>523.5</ele><time>2026-05-03T11:34:28Z</time></trkpt><trkpt lat="41.00253637961734" lon="14.719857625055333"><ele>527.75</ele><time>2026-05-03T11:34:29Z</time></trkpt><trkpt lat="41.00245365181768" lon="14.720005561475848"><ele>532.0</ele><time>2026-05-03T11:34:30Z</time></trkpt><trkpt lat="41.00236668785538" lon="14.720146431952745"><ele>533.0</ele><time>2026-05-03T11:34:31Z</time></trkpt><trkpt lat="41.00226364693276" lon="14.72024440654182"><ele>534.0</ele><time>2026-05-03T11:34:32Z</time></trkpt><trkpt lat="41.00213681042573" lon="14.720337607975878"><ele>535.0</ele><time>2026-05-03T11:34:33Z</time></trkpt><trkpt lat="41.00200753204007" lon="14.720429528164257"><ele>536.0</ele><time>2026-05-03T11:34:34Z</time></trkpt><trkpt lat="41.00186978726073" lon="14.720547241483885"><ele>536.0</ele><time>2026-05-03T11:34:35Z</time></trkpt><trkpt lat="41.001740850674736" lon="14.720644005956771"><ele>536.0</ele><time>2026-05-03T11:34:36Z</time></trkpt><trkpt lat="41.00161182570053" lon="14.720750693856298"><ele>536.0</ele><time>2026-05-03T11:34:37Z</time></trkpt><trkpt lat="41.00150209461407" lon="14.72085553758415"><ele>536.0</ele><time>2026-05-03T11:34:38Z</time></trkpt><trkpt lat="41.00139922934363" lon="14.720928888384782"><ele>538.6</ele><time>2026-05-03T11:34:39Z</time></trkpt><trkpt lat="41.001321345181864" lon="14.721007169067278"><ele>541.2</ele><time>2026-05-03T11:34:40Z</time></trkpt><trkpt lat="41.00124534924281" lon="14.721093481867435"><ele>543.8</ele><time>2026-05-03T11:34:41Z</time></trkpt><trkpt lat="41.00117958807899" lon="14.7211760065003"><ele>546.4</ele><time>2026-05-03T11:34:42Z</time></trkpt><trkpt lat="41.00110635488013" lon="14.721271815289303"><ele>549.0</ele><time>2026-05-03T11:34:43Z</time></trkpt><trkpt lat="41.0010322485331" lon="14.72137192221931"><ele>549.0</ele><time>2026-05-03T11:34:44Z</time></trkpt><trkpt lat="41.0009589554419" lon="14.721498978634642"><ele>549.0</ele><time>2026-05-03T11:34:45Z</time></trkpt><trkpt lat="41.00087630329364" lon="14.72162659177678"><ele>549.0</ele><time>2026-05-03T11:34:46Z</time></trkpt><trkpt lat="41.00080798674993" lon="14.72176390870777"><ele>549.0</ele><time>2026-05-03T11:34:47Z</time></trkpt><trkpt lat="41.000762968471186" lon="14.721912675486328"><ele>545.6</ele><time>2026-05-03T11:34:48Z</time></trkpt><trkpt lat="41.00074885464039" lon="14.722089604105266"><ele>542.2</ele><time>2026-05-03T11:34:49Z</time></trkpt><trkpt lat="41.00072618567563" lon="14.722239563914085"><ele>538.8000000000001</ele><time>2026-05-03T11:34:50Z</time></trkpt><trkpt lat="41.000712012585545" lon="14.722372112211994"><ele>535.4</ele><time>2026-05-03T11:34:51Z</time></trkpt><trkpt lat="41.00069379823549" lon="14.72247586547562"><ele>532.0</ele><time>2026-05-03T11:34:52Z</time></trkpt><trkpt lat="41.000653278643384" lon="14.72255487089737"><ele>532.0</ele><time>2026-05-03T11:34:53Z</time></trkpt><trkpt lat="41.000524751076256" lon="14.722530901722765"><ele>532.0</ele><time>2026-05-03T11:34:55Z</time></trkpt><trkpt lat="41.00046065069041" lon="14.722443203750768"><ele>532.0</ele><time>2026-05-03T11:34:56Z</time></trkpt><trkpt lat="41.000410463574525" lon="14.722320911721022"><ele>532.0</ele><time>2026-05-03T11:34:57Z</time></trkpt><trkpt lat="41.00037551348987" lon="14.722207879969197"><ele>532.0</ele><time>2026-05-03T11:34:58Z</time></trkpt><trkpt lat="41.00036631947659" lon="14.722061814738082"><ele>532.0</ele><time>2026-05-03T11:34:59Z</time></trkpt><trkpt lat="41.000335592781084" lon="14.721910584288015"><ele>532.0</ele><time>2026-05-03T11:35:00Z</time></trkpt><trkpt lat="41.00032878154282" lon="14.72175578933093"><ele>532.0</ele><time>2026-05-03T11:35:01Z</time></trkpt><trkpt lat="41.00031442037382" lon="14.72159845579989"><ele>532.0</ele><time>2026-05-03T11:35:02Z</time></trkpt><trkpt lat="41.00030481876669" lon="14.721429079623782"><ele>534.2</ele><time>2026-05-03T11:35:03Z</time></trkpt><trkpt lat="41.00029633501465" lon="14.721281591299102"><ele>536.4000000000001</ele><time>2026-05-03T11:35:04Z</time></trkpt><trkpt lat="41.0002741444984" lon="14.721136377864115"><ele>538.5999999999999</ele><time>2026-05-03T11:35:05Z</time></trkpt><trkpt lat="41.00023418192915" lon="14.721000341464936"><ele>540.8</ele><time>2026-05-03T11:35:06Z</time></trkpt><trkpt lat="41.000194081016325" lon="14.720860151998481"><ele>543.0</ele><time>2026-05-03T11:35:07Z</time></trkpt><trkpt lat="41.00013500094302" lon="14.720754416898647"><ele>544.8</ele><time>2026-05-03T11:35:08Z</time></trkpt><trkpt lat="41.00006768642165" lon="14.720656346206416"><ele>546.5999999999999</ele><time>2026-05-03T11:35:09Z</time></trkpt><trkpt lat="40.999993853700204" lon="14.720561007278256"><ele>548.4000000000001</ele><time>2026-05-03T11:35:10Z</time></trkpt><trkpt lat="40.999902732706566" lon="14.720465136445714"><ele>550.2</ele><time>2026-05-03T11:35:11Z</time></trkpt><trkpt lat="40.999800403803306" lon="14.720382657953705"><ele>552.0</ele><time>2026-05-03T11:35:12Z</time></trkpt><trkpt lat="40.99970874812265" lon="14.720283543560464"><ele>553.2</ele><time>2026-05-03T11:35:13Z</time></trkpt><trkpt lat="40.99962388069629" lon="14.720196663479689"><ele>554.4000000000001</ele><time>2026-05-03T11:35:13.999Z</time></trkpt><trkpt lat="40.99954546352008" lon="14.720121785527681"><ele>555.5999999999999</ele><time>2026-05-03T11:35:14.999Z</time></trkpt><trkpt lat="40.99947352793028" lon="14.720021730398976"><ele>556.8</ele><time>2026-05-03T11:35:15.999Z</time></trkpt><trkpt lat="40.99935733239547" lon="14.71994869325983"><ele>558.0</ele><time>2026-05-03T11:35:16.999Z</time></trkpt><trkpt lat="40.99922984492525" lon="14.71987099543764"><ele>557.0</ele><time>2026-05-03T11:35:17.999Z</time></trkpt><trkpt lat="40.999084172040256" lon="14.719830422323104"><ele>556.0</ele><time>2026-05-03T11:35:18.999Z</time></trkpt><trkpt lat="40.99891466484991" lon="14.719832709936084"><ele>555.0</ele><time>2026-05-03T11:35:19.999Z</time></trkpt><trkpt lat="40.99871640027073" lon="14.719906097354215"><ele>555.0</ele><time>2026-05-03T11:35:20.999Z</time></trkpt><trkpt lat="40.99854981745587" lon="14.720004334188827"><ele>555.0</ele><time>2026-05-03T11:35:21.999Z</time></trkpt><trkpt lat="40.99843307792663" lon="14.72013845745468"><ele>555.0</ele><time>2026-05-03T11:35:23.999Z</time></trkpt><trkpt lat="40.99831209551284" lon="14.720331216676588"><ele>553.75</ele><time>2026-05-03T11:35:24.999Z</time></trkpt><trkpt lat="40.99821794144143" lon="14.720517087329513"><ele>552.5</ele><time>2026-05-03T11:35:25.999Z</time></trkpt><trkpt lat="40.99813665628918" lon="14.720672642071825"><ele>551.25</ele><time>2026-05-03T11:35:26.999Z</time></trkpt><trkpt lat="40.998043210612465" lon="14.720802173879283"><ele>550.0</ele><time>2026-05-03T11:35:27.999Z</time></trkpt><trkpt lat="40.99793827460836" lon="14.720923019070039"><ele>550.0</ele><time>2026-05-03T11:35:28.999Z</time></trkpt><trkpt lat="40.99782169941696" lon="14.720981725165235"><ele>550.0</ele><time>2026-05-03T11:35:29.999Z</time></trkpt><trkpt lat="40.99771415371706" lon="14.721012726273107"><ele>550.0</ele><time>2026-05-03T11:35:30.999Z</time></trkpt><trkpt lat="40.99761661231213" lon="14.720959789772984"><ele>550.0</ele><time>2026-05-03T11:35:31.999Z</time></trkpt><trkpt lat="40.997529163255315" lon="14.720867090536615"><ele>550.5</ele><time>2026-05-03T11:35:32.999Z</time></trkpt><trkpt lat="40.99748862318567" lon="14.720733949424725"><ele>551.0</ele><time>2026-05-03T11:35:33.999Z</time></trkpt><trkpt lat="40.99742422310364" lon="14.720589584624145"><ele>551.5</ele><time>2026-05-03T11:35:34.999Z</time></trkpt><trkpt lat="40.99736200710305" lon="14.720446317258565"><ele>552.0</ele><time>2026-05-03T11:35:35.999Z</time></trkpt><trkpt lat="40.997313501411085" lon="14.720331693699903"><ele>556.5</ele><time>2026-05-03T11:35:36.999Z</time></trkpt><trkpt lat="40.99724361602644" lon="14.72017543493824"><ele>561.0</ele><time>2026-05-03T11:35:37.999Z</time></trkpt><trkpt lat="40.99717191307941" lon="14.720035096649788"><ele>565.5</ele><time>2026-05-03T11:35:38.999Z</time></trkpt><trkpt lat="40.99707414595947" lon="14.719912958176835"><ele>570.0</ele><time>2026-05-03T11:35:39.999Z</time></trkpt><trkpt lat="40.996958570400274" lon="14.719815683471275"><ele>570.0</ele><time>2026-05-03T11:35:40.999Z</time></trkpt><trkpt lat="40.99684510161597" lon="14.719737202176704"><ele>570.0</ele><time>2026-05-03T11:35:41.999Z</time></trkpt><trkpt lat="40.99671112337532" lon="14.719673447891616"><ele>570.0</ele><time>2026-05-03T11:35:42.999Z</time></trkpt><trkpt lat="40.996573309626456" lon="14.719634442838807"><ele>570.0</ele><time>2026-05-03T11:35:43.999Z</time></trkpt><trkpt lat="40.996420572418174" lon="14.719600032233023"><ele>565.5</ele><time>2026-05-03T11:35:44.999Z</time></trkpt><trkpt lat="40.99628248549582" lon="14.719566391533627"><ele>561.0</ele><time>2026-05-03T11:35:45.999Z</time></trkpt><trkpt lat="40.99614225184057" lon="14.719543998381223"><ele>556.5</ele><time>2026-05-03T11:35:46.999Z</time></trkpt><trkpt lat="40.99600244477036" lon="14.719547423916456"><ele>552.0</ele><time>2026-05-03T11:35:47.999Z</time></trkpt><trkpt lat="40.99585901885495" lon="14.71956581187283"><ele>550.25</ele><time>2026-05-03T11:35:48.999Z</time></trkpt><trkpt lat="40.995718040162814" lon="14.719583883312433"><ele>548.5</ele><time>2026-05-03T11:35:49.999Z</time></trkpt><trkpt lat="40.995572709687046" lon="14.719599117794399"><ele>546.75</ele><time>2026-05-03T11:35:50.999Z</time></trkpt><trkpt lat="40.995427894049016" lon="14.71961697678709"><ele>545.0</ele><time>2026-05-03T11:35:52Z</time></trkpt><trkpt lat="40.99528419485031" lon="14.719638198336188"><ele>545.0</ele><time>2026-05-03T11:35:53.001Z</time></trkpt><trkpt lat="40.99513854621193" lon="14.719676557503044"><ele>545.0</ele><time>2026-05-03T11:35:54Z</time></trkpt><trkpt lat="40.99500192054923" lon="14.719714778843892"><ele>545.0</ele><time>2026-05-03T11:35:55.001Z</time></trkpt><trkpt lat="40.99486599822714" lon="14.719731561003778"><ele>545.0</ele><time>2026-05-03T11:35:56Z</time></trkpt><trkpt lat="40.994748012858956" lon="14.719757010151554"><ele>545.25</ele><time>2026-05-03T11:35:57Z</time></trkpt><trkpt lat="40.99465836493887" lon="14.719795725039084"><ele>545.5</ele><time>2026-05-03T11:35:58Z</time></trkpt><trkpt lat="40.99458199888242" lon="14.719881536055235"><ele>545.75</ele><time>2026-05-03T11:35:59Z</time></trkpt><trkpt lat="40.99453480664601" lon="14.72001778650439"><ele>546.0</ele><time>2026-05-03T11:36:00Z</time></trkpt><trkpt lat="40.99450727211432" lon="14.72021673115325"><ele>541.3333333333334</ele><time>2026-05-03T11:36:01Z</time></trkpt><trkpt lat="40.9944463252829" lon="14.720454161371826"><ele>536.6666666666667</ele><time>2026-05-03T11:36:02Z</time></trkpt><trkpt lat="40.994359894311835" lon="14.720738814996082"><ele>532.0</ele><time>2026-05-03T11:36:03Z</time></trkpt><trkpt lat="40.994277260731096" lon="14.721012768292535"><ele>534.6666666666667</ele><time>2026-05-03T11:36:04Z</time></trkpt><trkpt lat="40.99419188667674" lon="14.721249621504557"><ele>537.3333333333334</ele><time>2026-05-03T11:36:05Z</time></trkpt><trkpt lat="40.994079956072575" lon="14.7215121367517"><ele>540.0</ele><time>2026-05-03T11:36:06Z</time></trkpt><trkpt lat="40.99396126516886" lon="14.721740550565265"><ele>537.0</ele><time>2026-05-03T11:36:07Z</time></trkpt><trkpt lat="40.99385413912881" lon="14.72195523019134"><ele>534.0</ele><time>2026-05-03T11:36:08Z</time></trkpt><trkpt lat="40.993762464480696" lon="14.722153748892056"><ele>531.0</ele><time>2026-05-03T11:36:09Z</time></trkpt><trkpt lat="40.99369554901673" lon="14.722370518275543"><ele>531.0</ele><time>2026-05-03T11:36:10Z</time></trkpt><trkpt lat="40.99362216629139" lon="14.722577767583417"><ele>531.0</ele><time>2026-05-03T11:36:11Z</time></trkpt><trkpt lat="40.993573839602846" lon="14.722781008782489"><ele>531.0</ele><time>2026-05-03T11:36:12Z</time></trkpt><trkpt lat="40.99353109565797" lon="14.722954910972994"><ele>529.5</ele><time>2026-05-03T11:36:13Z</time></trkpt><trkpt lat="40.99351000108311" lon="14.723147228568779"><ele>528.0</ele><time>2026-05-03T11:36:14Z</time></trkpt><trkpt lat="40.993496065912815" lon="14.723333469626203"><ele>526.5</ele><time>2026-05-03T11:36:15Z</time></trkpt><trkpt lat="40.993458715984" lon="14.723468711232703"><ele>525.0</ele><time>2026-05-03T11:36:16Z</time></trkpt><trkpt lat="40.99343292203938" lon="14.723624219910779"><ele>523.4</ele><time>2026-05-03T11:36:17Z</time></trkpt><trkpt lat="40.99338604917693" lon="14.723765505125076"><ele>521.8</ele><time>2026-05-03T11:36:18Z</time></trkpt><trkpt lat="40.9933370338068" lon="14.7239047785921"><ele>520.2</ele><time>2026-05-03T11:36:19Z</time></trkpt><trkpt lat="40.99328555382587" lon="14.72402283259204"><ele>518.6</ele><time>2026-05-03T11:36:20Z</time></trkpt><trkpt lat="40.99322362793731" lon="14.724132819808435"><ele>517.0</ele><time>2026-05-03T11:36:21Z</time></trkpt><trkpt lat="40.99311238240399" lon="14.724238501438865"><ele>516.3333333333334</ele><time>2026-05-03T11:36:22Z</time></trkpt><trkpt lat="40.99298366036337" lon="14.724340126401053"><ele>515.6666666666666</ele><time>2026-05-03T11:36:23Z</time></trkpt><trkpt lat="40.99285624151675" lon="14.724474341290978"><ele>515.0</ele><time>2026-05-03T11:36:24Z</time></trkpt><trkpt lat="40.99273508585982" lon="14.724629300253591"><ele>515.0</ele><time>2026-05-03T11:36:25Z</time></trkpt><trkpt lat="40.99262042119098" lon="14.724783558354078"><ele>515.0</ele><time>2026-05-03T11:36:26Z</time></trkpt><trkpt lat="40.992513510066296" lon="14.724931330595977"><ele>515.0</ele><time>2026-05-03T11:36:27Z</time></trkpt><trkpt lat="40.99241609625296" lon="14.725073182814873"><ele>516.6</ele><time>2026-05-03T11:36:28Z</time></trkpt><trkpt lat="40.992328520691366" lon="14.725204839941235"><ele>518.2</ele><time>2026-05-03T11:36:29Z</time></trkpt><trkpt lat="40.99225286774948" lon="14.725312708815766"><ele>519.8</ele><time>2026-05-03T11:36:30Z</time></trkpt><trkpt lat="40.99217867361492" lon="14.725409207085796"><ele>521.4</ele><time>2026-05-03T11:36:31Z</time></trkpt><trkpt lat="40.99213983581359" lon="14.725531286843477"><ele>523.0</ele><time>2026-05-03T11:36:32Z</time></trkpt><trkpt lat="40.99210174373222" lon="14.725678845375922"><ele>523.0</ele><time>2026-05-03T11:36:33Z</time></trkpt><trkpt lat="40.99209828292287" lon="14.725860760595614"><ele>523.0</ele><time>2026-05-03T11:36:34Z</time></trkpt><trkpt lat="40.99209252187521" lon="14.726004792450457"><ele>523.0</ele><time>2026-05-03T11:36:35Z</time></trkpt><trkpt lat="40.99209353644154" lon="14.726140257085012"><ele>523.0</ele><time>2026-05-03T11:36:36Z</time></trkpt><trkpt lat="40.99207296554728" lon="14.726255684428393"><ele>523.0</ele><time>2026-05-03T11:36:37Z</time></trkpt><trkpt lat="40.992035057440795" lon="14.726346668996833"><ele>522.1999999999999</ele><time>2026-05-03T11:36:38Z</time></trkpt><trkpt lat="40.991962496232325" lon="14.726406292407182"><ele>521.4</ele><time>2026-05-03T11:36:39Z</time></trkpt><trkpt lat="40.99186930278746" lon="14.726388292176093"><ele>520.5999999999999</ele><time>2026-05-03T11:36:40Z</time></trkpt><trkpt lat="40.99178451449835" lon="14.726355098978445"><ele>519.8</ele><time>2026-05-03T11:36:41Z</time></trkpt><trkpt lat="40.99170722252846" lon="14.726399694278614"><ele>519.0</ele><time>2026-05-03T11:36:42Z</time></trkpt><trkpt lat="40.99161322772478" lon="14.726454030429116"><ele>519.0</ele><time>2026-05-03T11:36:43Z</time></trkpt><trkpt lat="40.99155558587934" lon="14.726561940074664"><ele>519.0</ele><time>2026-05-03T11:36:44Z</time></trkpt><trkpt lat="40.99151671665376" lon="14.726660462998973"><ele>519.0</ele><time>2026-05-03T11:36:45Z</time></trkpt><trkpt lat="40.99152329431853" lon="14.726768271077912"><ele>519.0</ele><time>2026-05-03T11:36:46Z</time></trkpt><trkpt lat="40.991555688954136" lon="14.72685630405301"><ele>519.0</ele><time>2026-05-03T11:36:47Z</time></trkpt><trkpt lat="40.991592400101986" lon="14.72695336416227"><ele>519.0</ele><time>2026-05-03T11:36:48Z</time></trkpt><trkpt lat="40.99159075191327" lon="14.727086050252677"><ele>519.0</ele><time>2026-05-03T11:36:49Z</time></trkpt><trkpt lat="40.99159109584912" lon="14.727202991909103"><ele>519.0</ele><time>2026-05-03T11:36:50Z</time></trkpt><trkpt lat="40.991589802396476" lon="14.727330102611134"><ele>519.0</ele><time>2026-05-03T11:36:51Z</time></trkpt><trkpt lat="40.99155490525655" lon="14.72745341291034"><ele>519.0</ele><time>2026-05-03T11:36:52Z</time></trkpt><trkpt lat="40.99152766813015" lon="14.727567673667982"><ele>519.0</ele><time>2026-05-03T11:36:53Z</time></trkpt><trkpt lat="40.991505454813506" lon="14.727683353398627"><ele>518.6666666666666</ele><time>2026-05-03T11:36:54Z</time></trkpt><trkpt lat="40.991499318972" lon="14.72779575145794"><ele>518.3333333333334</ele><time>2026-05-03T11:36:55Z</time></trkpt><trkpt lat="40.991501508476766" lon="14.727899671641275"><ele>518.0</ele><time>2026-05-03T11:36:56Z</time></trkpt><trkpt lat="40.991514489484764" lon="14.728019070468962"><ele>517.6666666666667</ele><time>2026-05-03T11:36:57Z</time></trkpt><trkpt lat="40.99153665810846" lon="14.728141982432954"><ele>517.3333333333334</ele><time>2026-05-03T11:36:58Z</time></trkpt><trkpt lat="40.99154949333474" lon="14.728245807063674"><ele>517.0</ele><time>2026-05-03T11:36:59Z</time></trkpt><trkpt lat="40.991588821697285" lon="14.728404973341656"><ele>517.0</ele><time>2026-05-03T11:37:00Z</time></trkpt><trkpt lat="40.99162773774914" lon="14.728560515214786"><ele>517.0</ele><time>2026-05-03T11:37:01Z</time></trkpt><trkpt lat="40.99165887942357" lon="14.728713014970731"><ele>517.0</ele><time>2026-05-03T11:37:02Z</time></trkpt><trkpt lat="40.991690312816615" lon="14.72887735940022"><ele>517.0</ele><time>2026-05-03T11:37:03Z</time></trkpt><trkpt lat="40.99170625052499" lon="14.72904279712151"><ele>512.5</ele><time>2026-05-03T11:37:04Z</time></trkpt><trkpt lat="40.99173889299428" lon="14.729204076694609"><ele>508.0</ele><time>2026-05-03T11:37:05Z</time></trkpt><trkpt lat="40.99176140293681" lon="14.729365966603568"><ele>503.5</ele><time>2026-05-03T11:37:06Z</time></trkpt><trkpt lat="40.991788185814464" lon="14.729526304278487"><ele>499.0</ele><time>2026-05-03T11:37:07Z</time></trkpt><trkpt lat="40.99181284335323" lon="14.72967359785611"><ele>499.0</ele><time>2026-05-03T11:37:08Z</time></trkpt><trkpt lat="40.99184285631929" lon="14.729818592928892"><ele>499.0</ele><time>2026-05-03T11:37:09Z</time></trkpt><trkpt lat="40.99187246335548" lon="14.729965745639767"><ele>499.0</ele><time>2026-05-03T11:37:10Z</time></trkpt><trkpt lat="40.99190265128057" lon="14.73010718404641"><ele>499.0</ele><time>2026-05-03T11:37:11Z</time></trkpt><trkpt lat="40.99195404061187" lon="14.730265572700512"><ele>502.25</ele><time>2026-05-03T11:37:12Z</time></trkpt><trkpt lat="40.99201932579011" lon="14.730399197905104"><ele>505.5</ele><time>2026-05-03T11:37:13Z</time></trkpt><trkpt lat="40.992103922477895" lon="14.730525860937838"><ele>508.75</ele><time>2026-05-03T11:37:14Z</time></trkpt><trkpt lat="40.99220831419783" lon="14.730644341478795"><ele>512.0</ele><time>2026-05-03T11:37:15Z</time></trkpt><trkpt lat="40.9923168388681" lon="14.730726178199133"><ele>512.0</ele><time>2026-05-03T11:37:16Z</time></trkpt><trkpt lat="40.99237954837206" lon="14.730839331505587"><ele>512.0</ele><time>2026-05-03T11:37:17Z</time></trkpt><trkpt lat="40.99242913217215" lon="14.730954633900238"><ele>512.0</ele><time>2026-05-03T11:37:18Z</time></trkpt><trkpt lat="40.99245810495237" lon="14.731108235857947"><ele>512.0</ele><time>2026-05-03T11:37:19Z</time></trkpt><trkpt lat="40.99248341070503" lon="14.731272249191425"><ele>512.75</ele><time>2026-05-03T11:37:20Z</time></trkpt><trkpt lat="40.992483283897926" lon="14.731438371458008"><ele>513.5</ele><time>2026-05-03T11:37:21Z</time></trkpt><trkpt lat="40.99244952243788" lon="14.731592241956664"><ele>514.25</ele><time>2026-05-03T11:37:22Z</time></trkpt><trkpt lat="40.99239506819235" lon="14.731719433528259"><ele>515.0</ele><time>2026-05-03T11:37:23Z</time></trkpt><trkpt lat="40.992328933772534" lon="14.731878237784114"><ele>513.6666666666666</ele><time>2026-05-03T11:37:24Z</time></trkpt><trkpt lat="40.99225818973277" lon="14.732050780581327"><ele>512.3333333333334</ele><time>2026-05-03T11:37:25Z</time></trkpt><trkpt lat="40.99220223965055" lon="14.732233097615536"><ele>511.0</ele><time>2026-05-03T11:37:26Z</time></trkpt><trkpt lat="40.99212456934598" lon="14.732414629274693"><ele>511.0</ele><time>2026-05-03T11:37:26.999Z</time></trkpt><trkpt lat="40.992071566988905" lon="14.73260656373278"><ele>511.0</ele><time>2026-05-03T11:37:27.999Z</time></trkpt><trkpt lat="40.99199650716877" lon="14.732797248968062"><ele>511.0</ele><time>2026-05-03T11:37:28.999Z</time></trkpt><trkpt lat="40.99192921988086" lon="14.73296503767199"><ele>509.8</ele><time>2026-05-03T11:37:29.999Z</time></trkpt><trkpt lat="40.99184551393158" lon="14.733091603275419"><ele>508.6</ele><time>2026-05-03T11:37:30.999Z</time></trkpt><trkpt lat="40.991815440824475" lon="14.733240609845057"><ele>507.4</ele><time>2026-05-03T11:37:31.999Z</time></trkpt><trkpt lat="40.991773617217994" lon="14.733334692089874"><ele>506.2</ele><time>2026-05-03T11:37:32.999Z</time></trkpt><trkpt lat="40.991698355166236" lon="14.733376922500973"><ele>505.0</ele><time>2026-05-03T11:37:33.999Z</time></trkpt><trkpt lat="40.9915922841532" lon="14.733332613443677"><ele>509.5</ele><time>2026-05-03T11:37:34.999Z</time></trkpt><trkpt lat="40.991533852039154" lon="14.733196129122843"><ele>514.0</ele><time>2026-05-03T11:37:35.999Z</time></trkpt><trkpt lat="40.99142306612818" lon="14.733064694896502"><ele>518.5</ele><time>2026-05-03T11:37:36.999Z</time></trkpt><trkpt lat="40.991308246337084" lon="14.732968350459972"><ele>523.0</ele><time>2026-05-03T11:37:37.999Z</time></trkpt><trkpt lat="40.99117288045701" lon="14.732906436727578"><ele>523.0</ele><time>2026-05-03T11:37:38.999Z</time></trkpt><trkpt lat="40.99102870030568" lon="14.732877173592113"><ele>523.0</ele><time>2026-05-03T11:37:39.999Z</time></trkpt><trkpt lat="40.99090655313499" lon="14.732889717855782"><ele>523.0</ele><time>2026-05-03T11:37:40.999Z</time></trkpt><trkpt lat="40.990805093687584" lon="14.732947639278128"><ele>523.0</ele><time>2026-05-03T11:37:41.999Z</time></trkpt><trkpt lat="40.99073548278815" lon="14.733060093652954"><ele>524.25</ele><time>2026-05-03T11:37:42.999Z</time></trkpt><trkpt lat="40.99068169425412" lon="14.733200802018576"><ele>525.5</ele><time>2026-05-03T11:37:43.999Z</time></trkpt><trkpt lat="40.990609828964914" lon="14.733341581689258"><ele>526.75</ele><time>2026-05-03T11:37:44.999Z</time></trkpt><trkpt lat="40.990505860041374" lon="14.733410720917654"><ele>528.0</ele><time>2026-05-03T11:37:45.999Z</time></trkpt><trkpt lat="40.99039486996487" lon="14.733357225401573"><ele>528.0</ele><time>2026-05-03T11:37:46.999Z</time></trkpt><trkpt lat="40.99025664382984" lon="14.733326374639157"><ele>528.0</ele><time>2026-05-03T11:37:47.999Z</time></trkpt><trkpt lat="40.99012738168207" lon="14.733338429164801"><ele>528.0</ele><time>2026-05-03T11:37:48.999Z</time></trkpt><trkpt lat="40.98999435598225" lon="14.733399839714064"><ele>528.0</ele><time>2026-05-03T11:37:49.999Z</time></trkpt><trkpt lat="40.98986953017462" lon="14.733510888606997"><ele>527.3333333333334</ele><time>2026-05-03T11:37:50.999Z</time></trkpt><trkpt lat="40.98974672224134" lon="14.733617575790408"><ele>526.6666666666667</ele><time>2026-05-03T11:37:51.999Z</time></trkpt><trkpt lat="40.989591330479406" lon="14.733615557394346"><ele>526.0</ele><time>2026-05-03T11:37:52.999Z</time></trkpt><trkpt lat="40.989424988644565" lon="14.733613047876513"><ele>526.0</ele><time>2026-05-03T11:37:53.999Z</time></trkpt><trkpt lat="40.98927668403377" lon="14.733636953508418"><ele>526.0</ele><time>2026-05-03T11:37:54.999Z</time></trkpt><trkpt lat="40.98915322974803" lon="14.733723344868597"><ele>526.0</ele><time>2026-05-03T11:37:55.999Z</time></trkpt><trkpt lat="40.98905543320468" lon="14.733865680826952"><ele>526.0</ele><time>2026-05-03T11:37:56.999Z</time></trkpt><trkpt lat="40.98899819172267" lon="14.734062438490138"><ele>525.25</ele><time>2026-05-03T11:37:58.001Z</time></trkpt><trkpt lat="40.988977459597" lon="14.734268344749202"><ele>524.5</ele><time>2026-05-03T11:37:59.001Z</time></trkpt><trkpt lat="40.98900801419504" lon="14.73445709432315"><ele>523.75</ele><time>2026-05-03T11:38:00.001Z</time></trkpt><trkpt lat="40.989083399282336" lon="14.73460900669276"><ele>523.0</ele><time>2026-05-03T11:38:01.001Z</time></trkpt><trkpt lat="40.9891945358736" lon="14.734725100851781"><ele>523.0</ele><time>2026-05-03T11:38:02.001Z</time></trkpt><trkpt lat="40.98930028941377" lon="14.73481639948"><ele>523.0</ele><time>2026-05-03T11:38:03.001Z</time></trkpt><trkpt lat="40.98936364151156" lon="14.73495056924123"><ele>523.0</ele><time>2026-05-03T11:38:04.001Z</time></trkpt><trkpt lat="40.98939121172674" lon="14.735123166523298"><ele>523.0</ele><time>2026-05-03T11:38:05.001Z</time></trkpt><trkpt lat="40.989382167845775" lon="14.735272368345965"><ele>522.6</ele><time>2026-05-03T11:38:06.001Z</time></trkpt><trkpt lat="40.989328466962306" lon="14.735374894534655"><ele>522.1999999999999</ele><time>2026-05-03T11:38:07.001Z</time></trkpt><trkpt lat="40.98924812184215" lon="14.73541641531331"><ele>521.8</ele><time>2026-05-03T11:38:08.001Z</time></trkpt><trkpt lat="40.98913823468824" lon="14.735418864194763"><ele>521.4</ele><time>2026-05-03T11:38:09.001Z</time></trkpt><trkpt lat="40.988998382030935" lon="14.73541510272917"><ele>521.0</ele><time>2026-05-03T11:38:10.001Z</time></trkpt><trkpt lat="40.98886433173817" lon="14.73542977662462"><ele>525.0</ele><time>2026-05-03T11:38:11.001Z</time></trkpt><trkpt lat="40.98873686828857" lon="14.735468364961864"><ele>529.0</ele><time>2026-05-03T11:38:12.001Z</time></trkpt><trkpt lat="40.9886203340636" lon="14.735534808083429"><ele>533.0</ele><time>2026-05-03T11:38:13.001Z</time></trkpt><trkpt lat="40.98850744557961" lon="14.735656765211411"><ele>537.0</ele><time>2026-05-03T11:38:14Z</time></trkpt><trkpt lat="40.98842180111292" lon="14.735803265359367"><ele>539.0</ele><time>2026-05-03T11:38:15Z</time></trkpt><trkpt lat="40.98832304473143" lon="14.735945472193814"><ele>541.0</ele><time>2026-05-03T11:38:16Z</time></trkpt><trkpt lat="40.98820988287252" lon="14.736094298951562"><ele>543.0</ele><time>2026-05-03T11:38:17Z</time></trkpt><trkpt lat="40.98809787257111" lon="14.736242591472255"><ele>543.0</ele><time>2026-05-03T11:38:18Z</time></trkpt><trkpt lat="40.98798626119045" lon="14.736395137793311"><ele>543.0</ele><time>2026-05-03T11:38:19Z</time></trkpt><trkpt lat="40.98790764845522" lon="14.736539096316148"><ele>543.0</ele><time>2026-05-03T11:38:20Z</time></trkpt><trkpt lat="40.98787225994519" lon="14.736692037245861"><ele>543.0</ele><time>2026-05-03T11:38:21Z</time></trkpt><trkpt lat="40.987877334980105" lon="14.736848903643304"><ele>542.5</ele><time>2026-05-03T11:38:22Z</time></trkpt><trkpt lat="40.9878924483572" lon="14.73702894857922"><ele>542.0</ele><time>2026-05-03T11:38:23Z</time></trkpt><trkpt lat="40.98790064288919" lon="14.737205945535571"><ele>541.5</ele><time>2026-05-03T11:38:24Z</time></trkpt><trkpt lat="40.98788235593145" lon="14.737387963844673"><ele>541.0</ele><time>2026-05-03T11:38:25Z</time></trkpt><trkpt lat="40.987869701237386" lon="14.737481122654739"><ele>541.0</ele><time>2026-05-03T11:38:26Z</time></trkpt><trkpt lat="40.987815985227726" lon="14.737577404116635"><ele>541.0</ele><time>2026-05-03T11:38:27Z</time></trkpt><trkpt lat="40.98775327105256" lon="14.73763193663605"><ele>541.0</ele><time>2026-05-03T11:38:28Z</time></trkpt><trkpt lat="40.98767205529674" lon="14.73759307756426"><ele>541.0</ele><time>2026-05-03T11:38:29Z</time></trkpt><trkpt lat="40.98759019546285" lon="14.737518689815102"><ele>541.0</ele><time>2026-05-03T11:38:30Z</time></trkpt><trkpt lat="40.987545303048684" lon="14.73736484107897"><ele>543.5</ele><time>2026-05-03T11:38:31Z</time></trkpt><trkpt lat="40.98746420337197" lon="14.737236914319867"><ele>546.0</ele><time>2026-05-03T11:38:32Z</time></trkpt><trkpt lat="40.987363806903026" lon="14.737105252533729"><ele>548.5</ele><time>2026-05-03T11:38:33Z</time></trkpt><trkpt lat="40.98724907346368" lon="14.736993721623966"><ele>551.0</ele><time>2026-05-03T11:38:34Z</time></trkpt><trkpt lat="40.98709864661541" lon="14.736949795138651"><ele>551.0</ele><time>2026-05-03T11:38:35Z</time></trkpt><trkpt lat="40.98697046297337" lon="14.7368959144957"><ele>551.0</ele><time>2026-05-03T11:38:36Z</time></trkpt><trkpt lat="40.986844027818854" lon="14.736839883504684"><ele>551.0</ele><time>2026-05-03T11:38:37Z</time></trkpt><trkpt lat="40.98677011694711" lon="14.736784837251502"><ele>551.0</ele><time>2026-05-03T11:38:38Z</time></trkpt><trkpt lat="40.986743998600744" lon="14.736686992520829"><ele>551.0</ele><time>2026-05-03T11:38:39Z</time></trkpt><trkpt lat="40.98675231801324" lon="14.736581194609318"><ele>552.5</ele><time>2026-05-03T11:38:40Z</time></trkpt><trkpt lat="40.98673767319965" lon="14.736399098185277"><ele>554.0</ele><time>2026-05-03T11:38:41Z</time></trkpt><trkpt lat="40.9867031512034" lon="14.736203148496203"><ele>555.5</ele><time>2026-05-03T11:38:42Z</time></trkpt><trkpt lat="40.98666401669838" lon="14.73600845123456"><ele>557.0</ele><time>2026-05-03T11:38:43Z</time></trkpt><trkpt lat="40.9866096155331" lon="14.735813639514895"><ele>557.5</ele><time>2026-05-03T11:38:44Z</time></trkpt><trkpt lat="40.986540222501134" lon="14.735659257463322"><ele>558.0</ele><time>2026-05-03T11:38:45Z</time></trkpt><trkpt lat="40.98646321116873" lon="14.735542256821253"><ele>558.5</ele><time>2026-05-03T11:38:46Z</time></trkpt><trkpt lat="40.9863547519724" lon="14.735482717594959"><ele>559.0</ele><time>2026-05-03T11:38:47Z</time></trkpt><trkpt lat="40.9862147951037" lon="14.735523597568642"><ele>559.0</ele><time>2026-05-03T11:38:48Z</time></trkpt><trkpt lat="40.986074387993355" lon="14.735568397312008"><ele>559.0</ele><time>2026-05-03T11:38:49Z</time></trkpt><trkpt lat="40.985954852680365" lon="14.735552525570176"><ele>559.0</ele><time>2026-05-03T11:38:50Z</time></trkpt><trkpt lat="40.98583689864078" lon="14.735470933510012"><ele>559.0</ele><time>2026-05-03T11:38:51Z</time></trkpt><trkpt lat="40.9857103723585" lon="14.735356967597815"><ele>556.3333333333334</ele><time>2026-05-03T11:38:52Z</time></trkpt><trkpt lat="40.985579731183016" lon="14.735229372603076"><ele>553.6666666666666</ele><time>2026-05-03T11:38:53Z</time></trkpt><trkpt lat="40.985429799772575" lon="14.735080961309944"><ele>551.0</ele><time>2026-05-03T11:38:54Z</time></trkpt><trkpt lat="40.985248076688045" lon="14.734909869075189"><ele>553.3333333333333</ele><time>2026-05-03T11:38:55Z</time></trkpt><trkpt lat="40.98508891391473" lon="14.734755865268225"><ele>555.6666666666666</ele><time>2026-05-03T11:38:56Z</time></trkpt><trkpt lat="40.984980961777765" lon="14.734603642127176"><ele>558.0</ele><time>2026-05-03T11:38:57Z</time></trkpt><trkpt lat="40.984876859139234" lon="14.734487910420553"><ele>558.0</ele><time>2026-05-03T11:38:58Z</time></trkpt><trkpt lat="40.98476642796199" lon="14.734399674748266"><ele>558.0</ele><time>2026-05-03T11:38:59Z</time></trkpt><trkpt lat="40.984618367766544" lon="14.734361856359696"><ele>558.0</ele><time>2026-05-03T11:39:00Z</time></trkpt><trkpt lat="40.984471461065745" lon="14.73430930607572"><ele>558.0</ele><time>2026-05-03T11:39:01Z</time></trkpt><trkpt lat="40.98433218563372" lon="14.734272110767707"><ele>558.25</ele><time>2026-05-03T11:39:02Z</time></trkpt><trkpt lat="40.9842091720713" lon="14.734275370440427"><ele>558.5</ele><time>2026-05-03T11:39:03Z</time></trkpt><trkpt lat="40.98410122112996" lon="14.734320382786688"><ele>558.75</ele><time>2026-05-03T11:39:04Z</time></trkpt><trkpt lat="40.98400823074371" lon="14.734431907863929"><ele>559.0</ele><time>2026-05-03T11:39:05Z</time></trkpt><trkpt lat="40.9839476637662" lon="14.734579399812826"><ele>559.0</ele><time>2026-05-03T11:39:06Z</time></trkpt><trkpt lat="40.98389941979167" lon="14.734754222655134"><ele>559.0</ele><time>2026-05-03T11:39:07Z</time></trkpt><trkpt lat="40.98383603339397" lon="14.734926937132892"><ele>559.0</ele><time>2026-05-03T11:39:08Z</time></trkpt><trkpt lat="40.98374964205087" lon="14.735067639856542"><ele>559.0</ele><time>2026-05-03T11:39:09Z</time></trkpt><trkpt lat="40.983653692871336" lon="14.735169384892076"><ele>558.5</ele><time>2026-05-03T11:39:10Z</time></trkpt><trkpt lat="40.983533557212276" lon="14.73523403362308"><ele>558.0</ele><time>2026-05-03T11:39:11Z</time></trkpt><trkpt lat="40.983394118500016" lon="14.735241206951665"><ele>557.5</ele><time>2026-05-03T11:39:12Z</time></trkpt><trkpt lat="40.98325475741808" lon="14.735215064013179"><ele>557.0</ele><time>2026-05-03T11:39:13Z</time></trkpt><trkpt lat="40.98311419729005" lon="14.735223965182685"><ele>557.0</ele><time>2026-05-03T11:39:14Z</time></trkpt><trkpt lat="40.98297897648496" lon="14.73528006040088"><ele>557.0</ele><time>2026-05-03T11:39:15Z</time></trkpt><trkpt lat="40.98286107777897" lon="14.73532721249145"><ele>557.0</ele><time>2026-05-03T11:39:16Z</time></trkpt><trkpt lat="40.982732842620166" lon="14.735317788037904"><ele>557.0</ele><time>2026-05-03T11:39:17Z</time></trkpt><trkpt lat="40.98259923277233" lon="14.735277535029773"><ele>558.75</ele><time>2026-05-03T11:39:18Z</time></trkpt><trkpt lat="40.98245025670044" lon="14.735286149874868"><ele>560.5</ele><time>2026-05-03T11:39:19Z</time></trkpt><trkpt lat="40.982312026739855" lon="14.735359809502393"><ele>562.25</ele><time>2026-05-03T11:39:20Z</time></trkpt><trkpt lat="40.982205168562025" lon="14.735464970253398"><ele>564.0</ele><time>2026-05-03T11:39:21Z</time></trkpt><trkpt lat="40.98208791435818" lon="14.735590637533944"><ele>564.0</ele><time>2026-05-03T11:39:22Z</time></trkpt><trkpt lat="40.98198658185446" lon="14.73576034189516"><ele>564.0</ele><time>2026-05-03T11:39:23Z</time></trkpt><trkpt lat="40.98188243673738" lon="14.73594816385249"><ele>564.0</ele><time>2026-05-03T11:39:24Z</time></trkpt><trkpt lat="40.98177550537632" lon="14.736133983185248"><ele>566.0</ele><time>2026-05-03T11:39:25Z</time></trkpt><trkpt lat="40.98167429796935" lon="14.736303499796659"><ele>568.0</ele><time>2026-05-03T11:39:26Z</time></trkpt><trkpt lat="40.98158385885739" lon="14.73645160644344"><ele>570.0</ele><time>2026-05-03T11:39:27Z</time></trkpt><trkpt lat="40.98151851758777" lon="14.736554596992876"><ele>572.0</ele><time>2026-05-03T11:39:27.999Z</time></trkpt><trkpt lat="40.98142902093122" lon="14.73658219852368"><ele>572.0</ele><time>2026-05-03T11:39:28.999Z</time></trkpt><trkpt lat="40.98132547666503" lon="14.736543592063654"><ele>572.0</ele><time>2026-05-03T11:39:29.999Z</time></trkpt><trkpt lat="40.9812212222136" lon="14.736451811232858"><ele>572.0</ele><time>2026-05-03T11:39:30.999Z</time></trkpt><trkpt lat="40.9810998238223" lon="14.736352739314938"><ele>572.0</ele><time>2026-05-03T11:39:31.999Z</time></trkpt><trkpt lat="40.98095747462263" lon="14.736280738818913"><ele>571.0</ele><time>2026-05-03T11:39:32.999Z</time></trkpt><trkpt lat="40.980812081141664" lon="14.736211047741826"><ele>570.0</ele><time>2026-05-03T11:39:33.999Z</time></trkpt><trkpt lat="40.980683167466466" lon="14.73617890706845"><ele>569.0</ele><time>2026-05-03T11:39:34.999Z</time></trkpt><trkpt lat="40.98055768023279" lon="14.73618568074499"><ele>568.0</ele><time>2026-05-03T11:39:35.999Z</time></trkpt><trkpt lat="40.980438786579874" lon="14.736262897936847"><ele>568.0</ele><time>2026-05-03T11:39:36.999Z</time></trkpt><trkpt lat="40.980321311080225" lon="14.736377604840685"><ele>568.0</ele><time>2026-05-03T11:39:37.999Z</time></trkpt><trkpt lat="40.9801902604883" lon="14.73646004273251"><ele>568.0</ele><time>2026-05-03T11:39:38.999Z</time></trkpt><trkpt lat="40.980047776571354" lon="14.736475438591714"><ele>568.0</ele><time>2026-05-03T11:39:39.999Z</time></trkpt><trkpt lat="40.979876825445565" lon="14.73643036863427"><ele>568.5</ele><time>2026-05-03T11:39:40.999Z</time></trkpt><trkpt lat="40.97971917869883" lon="14.736404766653385"><ele>569.0</ele><time>2026-05-03T11:39:41.999Z</time></trkpt><trkpt lat="40.97957597942008" lon="14.736403955715424"><ele>569.5</ele><time>2026-05-03T11:39:42.999Z</time></trkpt><trkpt lat="40.97943491203225" lon="14.736455679468651"><ele>570.0</ele><time>2026-05-03T11:39:43.999Z</time></trkpt><trkpt lat="40.97931757276716" lon="14.736562060005571"><ele>570.0</ele><time>2026-05-03T11:39:44.999Z</time></trkpt><trkpt lat="40.9792182967472" lon="14.736713774912971"><ele>570.0</ele><time>2026-05-03T11:39:45.999Z</time></trkpt><trkpt lat="40.97914553515266" lon="14.736860994396894"><ele>570.0</ele><time>2026-05-03T11:39:46.999Z</time></trkpt><trkpt lat="40.97909426904829" lon="14.736995638486102"><ele>570.0</ele><time>2026-05-03T11:39:47.999Z</time></trkpt><trkpt lat="40.97909909887401" lon="14.737173303164335"><ele>570.5</ele><time>2026-05-03T11:39:48.999Z</time></trkpt><trkpt lat="40.97914479902553" lon="14.73736397545666"><ele>571.0</ele><time>2026-05-03T11:39:49.999Z</time></trkpt><trkpt lat="40.97919615606596" lon="14.737526994379229"><ele>571.5</ele><time>2026-05-03T11:39:50.999Z</time></trkpt><trkpt lat="40.979217026929234" lon="14.737683958050324"><ele>572.0</ele><time>2026-05-03T11:39:51.999Z</time></trkpt><trkpt lat="40.9791970571789" lon="14.737836849217132"><ele>570.6666666666666</ele><time>2026-05-03T11:39:52.999Z</time></trkpt><trkpt lat="40.97913595393509" lon="14.738018107659412"><ele>569.3333333333334</ele><time>2026-05-03T11:39:53.999Z</time></trkpt><trkpt lat="40.979059723394045" lon="14.738216802257769"><ele>568.0</ele><time>2026-05-03T11:39:54.999Z</time></trkpt><trkpt lat="40.97897060716747" lon="14.738429575130933"><ele>565.0</ele><time>2026-05-03T11:39:55.999Z</time></trkpt><trkpt lat="40.97887552302434" lon="14.738638365494236"><ele>562.0</ele><time>2026-05-03T11:39:56.999Z</time></trkpt><trkpt lat="40.97876136321304" lon="14.738860790307386"><ele>559.0</ele><time>2026-05-03T11:39:57.999Z</time></trkpt><trkpt lat="40.97863209588232" lon="14.739075641932915"><ele>559.0</ele><time>2026-05-03T11:39:58.999Z</time></trkpt><trkpt lat="40.97848800502645" lon="14.73926929497175"><ele>559.0</ele><time>2026-05-03T11:39:59.999Z</time></trkpt><trkpt lat="40.97834787196153" lon="14.739430162363593"><ele>559.0</ele><time>2026-05-03T11:40:00.999Z</time></trkpt><trkpt lat="40.97821289001597" lon="14.739574061342307"><ele>557.6</ele><time>2026-05-03T11:40:01.999Z</time></trkpt><trkpt lat="40.978113695513805" lon="14.739672017774106"><ele>556.2</ele><time>2026-05-03T11:40:02.999Z</time></trkpt><trkpt lat="40.97802217851516" lon="14.739701305469127"><ele>554.8000000000001</ele><time>2026-05-03T11:40:04.001Z</time></trkpt><trkpt lat="40.97792852807883" lon="14.739701648170044"><ele>553.4</ele><time>2026-05-03T11:40:05.001Z</time></trkpt><trkpt lat="40.97782949457316" lon="14.73962078290371"><ele>552.0</ele><time>2026-05-03T11:40:06.001Z</time></trkpt><trkpt lat="40.97775028556904" lon="14.739479702348191"><ele>555.3333333333334</ele><time>2026-05-03T11:40:07.001Z</time></trkpt><trkpt lat="40.977711400193954" lon="14.739348260441623"><ele>558.6666666666666</ele><time>2026-05-03T11:40:08.001Z</time></trkpt><trkpt lat="40.97769627566646" lon="14.739243386402489"><ele>562.0</ele><time>2026-05-03T11:40:10.001Z</time></trkpt><trkpt lat="40.97760574170165" lon="14.739193851075116"><ele>565.3333333333333</ele><time>2026-05-03T11:40:14.001Z</time></trkpt><trkpt lat="40.977548007326355" lon="14.739156357276684"><ele>568.6666666666666</ele><time>2026-05-03T11:40:15.001Z</time></trkpt><trkpt lat="40.97746291397051" lon="14.739134764967243"><ele>572.0</ele><time>2026-05-03T11:40:16.001Z</time></trkpt><trkpt lat="40.97738566615465" lon="14.739106366551816"><ele>572.0</ele><time>2026-05-03T11:40:17.001Z</time></trkpt><trkpt lat="40.977288431157284" lon="14.739115327458611"><ele>572.0</ele><time>2026-05-03T11:40:18.001Z</time></trkpt><trkpt lat="40.97719409964014" lon="14.739084788212002"><ele>572.0</ele><time>2026-05-03T11:40:19Z</time></trkpt><trkpt lat="40.97709581257597" lon="14.739075738250891"><ele>572.0</ele><time>2026-05-03T11:40:20Z</time></trkpt><trkpt lat="40.97700441310231" lon="14.739068444925232"><ele>572.0</ele><time>2026-05-03T11:40:21Z</time></trkpt><trkpt lat="40.9769159724152" lon="14.739070290628602"><ele>572.0</ele><time>2026-05-03T11:40:22Z</time></trkpt><trkpt lat="40.97680257861985" lon="14.739058554113"><ele>572.0</ele><time>2026-05-03T11:40:23Z</time></trkpt><trkpt lat="40.9767012805643" lon="14.739057095523716"><ele>572.0</ele><time>2026-05-03T11:40:24Z</time></trkpt><trkpt lat="40.97660980095143" lon="14.739036728506637"><ele>572.0</ele><time>2026-05-03T11:40:25Z</time></trkpt><trkpt lat="40.97652315138123" lon="14.739029713873911"><ele>572.0</ele><time>2026-05-03T11:40:26Z</time></trkpt><trkpt lat="40.97643981669358" lon="14.739024877440189"><ele>572.0</ele><time>2026-05-03T11:40:27Z</time></trkpt><trkpt lat="40.97635199597134" lon="14.739022971654869"><ele>572.0</ele><time>2026-05-03T11:40:28Z</time></trkpt><trkpt lat="40.97628134786916" lon="14.73904989548646"><ele>572.0</ele><time>2026-05-03T11:40:29Z</time></trkpt><trkpt lat="40.97620993946116" lon="14.739044245112579"><ele>572.0</ele><time>2026-05-03T11:40:30Z</time></trkpt><trkpt lat="40.97616580099943" lon="14.739129620000737"><ele>572.0</ele><time>2026-05-03T11:40:31Z</time></trkpt><trkpt lat="40.976116351669305" lon="14.739217628465642"><ele>572.0</ele><time>2026-05-03T11:40:32Z</time></trkpt><trkpt lat="40.97605210644634" lon="14.73931347589347"><ele>572.6</ele><time>2026-05-03T11:40:33Z</time></trkpt><trkpt lat="40.97598875331156" lon="14.739409059141545"><ele>573.2</ele><time>2026-05-03T11:40:34Z</time></trkpt><trkpt lat="40.975917129776846" lon="14.739512651217446"><ele>573.8</ele><time>2026-05-03T11:40:35Z</time></trkpt><trkpt lat="40.97585075043697" lon="14.73961768872319"><ele>574.4</ele><time>2026-05-03T11:40:36Z</time></trkpt><trkpt lat="40.97579977860871" lon="14.739703668111506"><ele>575.0</ele><time>2026-05-03T11:40:37Z</time></trkpt><trkpt lat="40.97574035484543" lon="14.739784738491911"><ele>575.0</ele><time>2026-05-03T11:40:38Z</time></trkpt><trkpt lat="40.97568513993027" lon="14.739888938147654"><ele>575.0</ele><time>2026-05-03T11:40:39Z</time></trkpt><trkpt lat="40.97563075755378" lon="14.739989543586498"><ele>575.0</ele><time>2026-05-03T11:40:40Z</time></trkpt><trkpt lat="40.97557418562247" lon="14.740100683761746"><ele>575.0</ele><time>2026-05-03T11:40:41Z</time></trkpt><trkpt lat="40.97551798112332" lon="14.74018567312751"><ele>575.0</ele><time>2026-05-03T11:40:42Z</time></trkpt><trkpt lat="40.97545803689333" lon="14.74025696243577"><ele>575.0</ele><time>2026-05-03T11:40:43Z</time></trkpt><trkpt lat="40.97531218852086" lon="14.740284161316655"><ele>575.0</ele><time>2026-05-03T11:40:45Z</time></trkpt><trkpt lat="40.97523989802946" lon="14.740214424712972"><ele>575.0</ele><time>2026-05-03T11:40:46Z</time></trkpt><trkpt lat="40.975157076247996" lon="14.740198871059148"><ele>575.0</ele><time>2026-05-03T11:40:47Z</time></trkpt><trkpt lat="40.974991256846195" lon="14.740219032727131"><ele>575.0</ele><time>2026-05-03T11:40:49Z</time></trkpt><trkpt lat="40.974906853676075" lon="14.740241913708383"><ele>575.0</ele><time>2026-05-03T11:40:50Z</time></trkpt><trkpt lat="40.974821901069035" lon="14.740202981952363"><ele>575.0</ele><time>2026-05-03T11:40:51Z</time></trkpt><trkpt lat="40.974732832322395" lon="14.740159059596289"><ele>575.0</ele><time>2026-05-03T11:40:52Z</time></trkpt><trkpt lat="40.97465446818307" lon="14.740139710222582"><ele>575.0</ele><time>2026-05-03T11:40:53Z</time></trkpt><trkpt lat="40.974572856471646" lon="14.740136709892438"><ele>575.0</ele><time>2026-05-03T11:40:54Z</time></trkpt><trkpt lat="40.974478784612586" lon="14.740172300692294"><ele>575.0</ele><time>2026-05-03T11:40:55Z</time></trkpt><trkpt lat="40.974380897262954" lon="14.740208868964947"><ele>575.0</ele><time>2026-05-03T11:40:56Z</time></trkpt><trkpt lat="40.9742771468157" lon="14.74024432279897"><ele>575.0</ele><time>2026-05-03T11:40:57Z</time></trkpt><trkpt lat="40.974175641403185" lon="14.74030052222036"><ele>575.0</ele><time>2026-05-03T11:40:58Z</time></trkpt><trkpt lat="40.97408165366328" lon="14.740332647926364"><ele>575.0</ele><time>2026-05-03T11:40:59Z</time></trkpt><trkpt lat="40.973989561522956" lon="14.740396053259845"><ele>576.4</ele><time>2026-05-03T11:41:00Z</time></trkpt><trkpt lat="40.97388413627955" lon="14.740450223534483"><ele>577.8</ele><time>2026-05-03T11:41:01Z</time></trkpt><trkpt lat="40.9738107214707" lon="14.740528253776448"><ele>579.2</ele><time>2026-05-03T11:41:02Z</time></trkpt><trkpt lat="40.97372746447823" lon="14.740601237229097"><ele>580.6</ele><time>2026-05-03T11:41:03Z</time></trkpt><trkpt lat="40.97363769602315" lon="14.740671187423374"><ele>582.0</ele><time>2026-05-03T11:41:04Z</time></trkpt><trkpt lat="40.97355436081754" lon="14.740737036869854"><ele>582.0</ele><time>2026-05-03T11:41:05Z</time></trkpt><trkpt lat="40.97346887773732" lon="14.74080533746816"><ele>582.0</ele><time>2026-05-03T11:41:06Z</time></trkpt><trkpt lat="40.973385467908024" lon="14.740872834129704"><ele>582.0</ele><time>2026-05-03T11:41:07Z</time></trkpt><trkpt lat="40.97330230577716" lon="14.740931548676729"><ele>582.0</ele><time>2026-05-03T11:41:08Z</time></trkpt><trkpt lat="40.973218351923286" lon="14.740965676404317"><ele>582.0</ele><time>2026-05-03T11:41:09Z</time></trkpt><trkpt lat="40.9731184459171" lon="14.740969316998909"><ele>583.8000000000001</ele><time>2026-05-03T11:41:10Z</time></trkpt><trkpt lat="40.97302186087847" lon="14.740941007074694"><ele>585.6</ele><time>2026-05-03T11:41:11Z</time></trkpt><trkpt lat="40.972923516196815" lon="14.74087991745591"><ele>587.4000000000001</ele><time>2026-05-03T11:41:12Z</time></trkpt><trkpt lat="40.972815609501296" lon="14.740847353639646"><ele>589.2</ele><time>2026-05-03T11:41:13Z</time></trkpt><trkpt lat="40.97271021682136" lon="14.74081887508707"><ele>591.0</ele><time>2026-05-03T11:41:14Z</time></trkpt><trkpt lat="40.9726050200092" lon="14.740844936186516"><ele>591.0</ele><time>2026-05-03T11:41:15Z</time></trkpt><trkpt lat="40.972506301754976" lon="14.740948227099006"><ele>591.0</ele><time>2026-05-03T11:41:16Z</time></trkpt><trkpt lat="40.972393442499076" lon="14.741055573335354"><ele>591.0</ele><time>2026-05-03T11:41:17Z</time></trkpt><trkpt lat="40.972284134773794" lon="14.741168348361567"><ele>591.0</ele><time>2026-05-03T11:41:18Z</time></trkpt><trkpt lat="40.972168371638766" lon="14.741276422174558"><ele>591.0</ele><time>2026-05-03T11:41:18.999Z</time></trkpt><trkpt lat="40.972061569956814" lon="14.741402628921362"><ele>591.0</ele><time>2026-05-03T11:41:19.999Z</time></trkpt><trkpt lat="40.971943207722255" lon="14.741530087310121"><ele>591.0</ele><time>2026-05-03T11:41:20.999Z</time></trkpt><trkpt lat="40.97181785551897" lon="14.741675892322213"><ele>594.0</ele><time>2026-05-03T11:41:21.999Z</time></trkpt><trkpt lat="40.97167306684298" lon="14.741833652593469"><ele>597.0</ele><time>2026-05-03T11:41:22.999Z</time></trkpt><trkpt lat="40.97152833603121" lon="14.742000761372973"><ele>600.0</ele><time>2026-05-03T11:41:23.999Z</time></trkpt><trkpt lat="40.97136333892812" lon="14.74217385883653"><ele>600.0</ele><time>2026-05-03T11:41:24.999Z</time></trkpt><trkpt lat="40.97117529414453" lon="14.742367306807727"><ele>600.0</ele><time>2026-05-03T11:41:25.999Z</time></trkpt><trkpt lat="40.971004686076704" lon="14.742560016085564"><ele>597.6666666666666</ele><time>2026-05-03T11:41:26.999Z</time></trkpt><trkpt lat="40.97086178781651" lon="14.742737152193502"><ele>595.3333333333333</ele><time>2026-05-03T11:41:27.999Z</time></trkpt><trkpt lat="40.970745485464846" lon="14.742914199755543"><ele>593.0</ele><time>2026-05-03T11:41:28.999Z</time></trkpt><trkpt lat="40.97066899991143" lon="14.743108998259991"><ele>596.0</ele><time>2026-05-03T11:41:29.999Z</time></trkpt><trkpt lat="40.970631132684204" lon="14.74331035377686"><ele>599.0</ele><time>2026-05-03T11:41:30.999Z</time></trkpt><trkpt lat="40.97063084628663" lon="14.743491558083603"><ele>602.0</ele><time>2026-05-03T11:41:31.999Z</time></trkpt><trkpt lat="40.970620844538914" lon="14.74364750531015"><ele>605.0</ele><time>2026-05-03T11:41:32.999Z</time></trkpt><trkpt lat="40.970568315920445" lon="14.74377249391314"><ele>605.0</ele><time>2026-05-03T11:41:33.999Z</time></trkpt><trkpt lat="40.97048128862095" lon="14.74384911386031"><ele>605.0</ele><time>2026-05-03T11:41:34.999Z</time></trkpt><trkpt lat="40.97036784241332" lon="14.74384833947486"><ele>605.0</ele><time>2026-05-03T11:41:35.999Z</time></trkpt><trkpt lat="40.97024245668276" lon="14.743792238381749"><ele>605.0</ele><time>2026-05-03T11:41:36.999Z</time></trkpt><trkpt lat="40.970107255875774" lon="14.743717511080819"><ele>608.0</ele><time>2026-05-03T11:41:37.999Z</time></trkpt><trkpt lat="40.969965651743074" lon="14.743676554732971"><ele>611.0</ele><time>2026-05-03T11:41:38.999Z</time></trkpt><trkpt lat="40.96982055661555" lon="14.743708896339818"><ele>614.0</ele><time>2026-05-03T11:41:39.999Z</time></trkpt><trkpt lat="40.969677347166716" lon="14.743810903751786"><ele>614.0</ele><time>2026-05-03T11:41:40.999Z</time></trkpt><trkpt lat="40.969518922653286" lon="14.743914839833073"><ele>614.0</ele><time>2026-05-03T11:41:41.999Z</time></trkpt><trkpt lat="40.969343378651516" lon="14.744027196339808"><ele>614.0</ele><time>2026-05-03T11:41:42.999Z</time></trkpt><trkpt lat="40.96916755155568" lon="14.744138797185885"><ele>615.0</ele><time>2026-05-03T11:41:43.999Z</time></trkpt><trkpt lat="40.96899708973958" lon="14.74427373812847"><ele>616.0</ele><time>2026-05-03T11:41:44.999Z</time></trkpt><trkpt lat="40.96883575663802" lon="14.744435000986522"><ele>617.0</ele><time>2026-05-03T11:41:45.999Z</time></trkpt><trkpt lat="40.96870082866406" lon="14.744580021948819"><ele>617.0</ele><time>2026-05-03T11:41:46.999Z</time></trkpt><trkpt lat="40.96856004437569" lon="14.744694500403476"><ele>617.0</ele><time>2026-05-03T11:41:47.999Z</time></trkpt><trkpt lat="40.968376934091715" lon="14.744774037996766"><ele>617.0</ele><time>2026-05-03T11:41:48.999Z</time></trkpt><trkpt lat="40.96819243442504" lon="14.744806689622338"><ele>623.5</ele><time>2026-05-03T11:41:49.999Z</time></trkpt><trkpt lat="40.96797331601564" lon="14.744833963070336"><ele>630.0</ele><time>2026-05-03T11:41:50.999Z</time></trkpt><trkpt lat="40.96773002640601" lon="14.744880822338244"><ele>634.0</ele><time>2026-05-03T11:41:51.999Z</time></trkpt><trkpt lat="40.96748386241713" lon="14.744947641291487"><ele>638.0</ele><time>2026-05-03T11:41:52.999Z</time></trkpt><trkpt lat="40.96724649477068" lon="14.745009165763284"><ele>638.0</ele><time>2026-05-03T11:41:53.999Z</time></trkpt><trkpt lat="40.96701187064977" lon="14.744993924015885"><ele>638.0</ele><time>2026-05-03T11:41:54.999Z</time></trkpt><trkpt lat="40.96678124744515" lon="14.744902624340106"><ele>639.5</ele><time>2026-05-03T11:41:55.999Z</time></trkpt><trkpt lat="40.966527364185474" lon="14.74481095512057"><ele>641.0</ele><time>2026-05-03T11:41:56.999Z</time></trkpt><trkpt lat="40.96628005909069" lon="14.744728071187641"><ele>641.0</ele><time>2026-05-03T11:41:57.999Z</time></trkpt><trkpt lat="40.96607086202338" lon="14.744694482943245"><ele>641.0</ele><time>2026-05-03T11:41:58.999Z</time></trkpt><trkpt lat="40.96593544723967" lon="14.74467920134736"><ele>641.0</ele><time>2026-05-03T11:41:59.999Z</time></trkpt><trkpt lat="40.965767899998255" lon="14.744709080629793"><ele>643.0</ele><time>2026-05-03T11:42:00.999Z</time></trkpt><trkpt lat="40.96560943105222" lon="14.74480328780886"><ele>645.0</ele><time>2026-05-03T11:42:01.999Z</time></trkpt><trkpt lat="40.96546176524136" lon="14.744949289606877"><ele>647.0</ele><time>2026-05-03T11:42:02.999Z</time></trkpt><trkpt lat="40.965301531941584" lon="14.745059249554066"><ele>647.0</ele><time>2026-05-03T11:42:03.999Z</time></trkpt><trkpt lat="40.9651061853168" lon="14.74519327072533"><ele>647.0</ele><time>2026-05-03T11:42:04.999Z</time></trkpt><trkpt lat="40.96489204946605" lon="14.7453556313021"><ele>648.0</ele><time>2026-05-03T11:42:05.999Z</time></trkpt><trkpt lat="40.964732196401435" lon="14.745503329126377"><ele>649.0</ele><time>2026-05-03T11:42:06.999Z</time></trkpt><trkpt lat="40.96458882489921" lon="14.745621691201876"><ele>650.0</ele><time>2026-05-03T11:42:07.999Z</time></trkpt><trkpt lat="40.964414853822" lon="14.74570612835368"><ele>650.0</ele><time>2026-05-03T11:42:08.999Z</time></trkpt><trkpt lat="40.96422960983005" lon="14.745749930198503"><ele>650.0</ele><time>2026-05-03T11:42:10Z</time></trkpt><trkpt lat="40.96401366092953" lon="14.745789386151447"><ele>650.0</ele><time>2026-05-03T11:42:11Z</time></trkpt><trkpt lat="40.963778641271695" lon="14.745835818232953"><ele>655.5</ele><time>2026-05-03T11:42:12Z</time></trkpt><trkpt lat="40.96354841162556" lon="14.74588945833596"><ele>661.0</ele><time>2026-05-03T11:42:13Z</time></trkpt><trkpt lat="40.96332701177183" lon="14.745940100594254"><ele>658.5</ele><time>2026-05-03T11:42:14Z</time></trkpt><trkpt lat="40.96310057609544" lon="14.745990756068261"><ele>656.0</ele><time>2026-05-03T11:42:15Z</time></trkpt><trkpt lat="40.96286371859859" lon="14.746071720434824"><ele>656.0</ele><time>2026-05-03T11:42:16Z</time></trkpt><trkpt lat="40.962636617044936" lon="14.746179179299643"><ele>656.0</ele><time>2026-05-03T11:42:17Z</time></trkpt><trkpt lat="40.9623939277162" lon="14.746298590484098"><ele>661.0</ele><time>2026-05-03T11:42:18Z</time></trkpt><trkpt lat="40.96214132770453" lon="14.74639581821236"><ele>666.0</ele><time>2026-05-03T11:42:19Z</time></trkpt><trkpt lat="40.961875779397545" lon="14.746484522157338"><ele>669.0</ele><time>2026-05-03T11:42:20Z</time></trkpt><trkpt lat="40.96161829012832" lon="14.746578889206397"><ele>672.0</ele><time>2026-05-03T11:42:21Z</time></trkpt><trkpt lat="40.96136045603703" lon="14.746670124072102"><ele>672.0</ele><time>2026-05-03T11:42:22Z</time></trkpt><trkpt lat="40.96112533449508" lon="14.746743801242975"><ele>672.0</ele><time>2026-05-03T11:42:23Z</time></trkpt><trkpt lat="40.9609098165382" lon="14.746802379569456"><ele>671.6666666666666</ele><time>2026-05-03T11:42:24Z</time></trkpt><trkpt lat="40.96070918166531" lon="14.746842229253595"><ele>671.3333333333333</ele><time>2026-05-03T11:42:25Z</time></trkpt><trkpt lat="40.96052931548695" lon="14.746855247833247"><ele>671.0</ele><time>2026-05-03T11:42:26Z</time></trkpt><trkpt lat="40.96034934136808" lon="14.746933435481072"><ele>671.0</ele><time>2026-05-03T11:42:27Z</time></trkpt><trkpt lat="40.96020024241495" lon="14.747021065337957"><ele>671.0</ele><time>2026-05-03T11:42:28Z</time></trkpt><trkpt lat="40.96006785862166" lon="14.747096884062659"><ele>671.0</ele><time>2026-05-03T11:42:29Z</time></trkpt><trkpt lat="40.95996930947423" lon="14.747229278023273"><ele>671.0</ele><time>2026-05-03T11:42:30Z</time></trkpt><trkpt lat="40.959896461217774" lon="14.74736948387323"><ele>673.75</ele><time>2026-05-03T11:42:31Z</time></trkpt><trkpt lat="40.959815498174684" lon="14.747543219861445"><ele>676.5</ele><time>2026-05-03T11:42:32Z</time></trkpt><trkpt lat="40.959717680560644" lon="14.747683618471921"><ele>679.25</ele><time>2026-05-03T11:42:33Z</time></trkpt><trkpt lat="40.95960433047947" lon="14.747758190629082"><ele>682.0</ele><time>2026-05-03T11:42:34Z</time></trkpt><trkpt lat="40.9592981511893" lon="14.747958756944959"><ele>685.6666666666667</ele><time>2026-05-03T11:42:35Z</time></trkpt><trkpt lat="40.959099561992694" lon="14.748103987135478"><ele>689.3333333333334</ele><time>2026-05-03T11:42:36Z</time></trkpt><trkpt lat="40.958900472841606" lon="14.748231832114799"><ele>693.0</ele><time>2026-05-03T11:42:37Z</time></trkpt><trkpt lat="40.95873587887043" lon="14.748353542782795"><ele>693.0</ele><time>2026-05-03T11:42:38Z</time></trkpt><trkpt lat="40.95858928372368" lon="14.74851126575716"><ele>693.0</ele><time>2026-05-03T11:42:39Z</time></trkpt><trkpt lat="40.95848184538972" lon="14.748714483351986"><ele>693.0</ele><time>2026-05-03T11:42:40Z</time></trkpt><trkpt lat="40.958388772957946" lon="14.748957969781111"><ele>692.6666666666666</ele><time>2026-05-03T11:42:41Z</time></trkpt><trkpt lat="40.95829785182961" lon="14.749162509203423"><ele>692.3333333333333</ele><time>2026-05-03T11:42:42Z</time></trkpt><trkpt lat="40.958197917280714" lon="14.749320302795558"><ele>692.0</ele><time>2026-05-03T11:42:43Z</time></trkpt><trkpt lat="40.958071315091885" lon="14.749429176983774"><ele>692.0</ele><time>2026-05-03T11:42:44Z</time></trkpt><trkpt lat="40.95794282906389" lon="14.749475233144711"><ele>692.0</ele><time>2026-05-03T11:42:45Z</time></trkpt><trkpt lat="40.95778916451444" lon="14.749445934412496"><ele>692.0</ele><time>2026-05-03T11:42:46Z</time></trkpt><trkpt lat="40.95764002361093" lon="14.749372402428369"><ele>692.0</ele><time>2026-05-03T11:42:47Z</time></trkpt><trkpt lat="40.95747756808949" lon="14.74923607491766"><ele>696.3333333333333</ele><time>2026-05-03T11:42:48Z</time></trkpt><trkpt lat="40.95731382205144" lon="14.74909305235392"><ele>700.6666666666666</ele><time>2026-05-03T11:42:49Z</time></trkpt><trkpt lat="40.95715314277903" lon="14.748920576969988"><ele>705.0</ele><time>2026-05-03T11:42:50Z</time></trkpt><trkpt lat="40.957027873307204" lon="14.74876036555447"><ele>705.0</ele><time>2026-05-03T11:42:51Z</time></trkpt><trkpt lat="40.95694695870649" lon="14.748570214732547"><ele>705.0</ele><time>2026-05-03T11:42:52Z</time></trkpt><trkpt lat="40.956847658992324" lon="14.748436723554471"><ele>705.0</ele><time>2026-05-03T11:42:53Z</time></trkpt><trkpt lat="40.95676574940051" lon="14.7483136244347"><ele>705.0</ele><time>2026-05-03T11:42:54Z</time></trkpt><trkpt lat="40.956925686671404" lon="14.74789691196819"><ele>706.25</ele><time>2026-05-03T11:42:55Z</time></trkpt><trkpt lat="40.95687477832664" lon="14.747795053195258"><ele>707.5</ele><time>2026-05-03T11:42:56Z</time></trkpt><trkpt lat="40.95681187669704" lon="14.747676981542572"><ele>708.75</ele><time>2026-05-03T11:42:57Z</time></trkpt><trkpt lat="40.9567416473617" lon="14.747607867677434"><ele>710.0</ele><time>2026-05-03T11:42:58Z</time></trkpt><trkpt lat="40.956694759336884" lon="14.747381910438694"><ele>710.0</ele><time>2026-05-03T11:42:59Z</time></trkpt><trkpt lat="40.95657894015964" lon="14.747381474315365"><ele>710.0</ele><time>2026-05-03T11:43:00Z</time></trkpt><trkpt lat="40.95644877689107" lon="14.747413669272973"><ele>710.0</ele><time>2026-05-03T11:43:01Z</time></trkpt><trkpt lat="40.9563277273873" lon="14.747527687157111"><ele>710.0</ele><time>2026-05-03T11:43:02Z</time></trkpt><trkpt lat="40.956217428665994" lon="14.74761614782165"><ele>710.0</ele><time>2026-05-03T11:43:03Z</time></trkpt><trkpt lat="40.95611630020806" lon="14.747697253840016"><ele>710.0</ele><time>2026-05-03T11:43:04Z</time></trkpt><trkpt lat="40.956001948168606" lon="14.747788965304691"><ele>710.0</ele><time>2026-05-03T11:43:05Z</time></trkpt><trkpt lat="40.955819268056246" lon="14.747725159966718"><ele>710.0</ele><time>2026-05-03T11:43:06Z</time></trkpt><trkpt lat="40.955672466198784" lon="14.747757068930946"><ele>706.5</ele><time>2026-05-03T11:43:07Z</time></trkpt><trkpt lat="40.95552421284913" lon="14.747784692438959"><ele>703.0</ele><time>2026-05-03T11:43:08Z</time></trkpt><trkpt lat="40.955387104573724" lon="14.747805990413715"><ele>699.5</ele><time>2026-05-03T11:43:09Z</time></trkpt><trkpt lat="40.95525576929655" lon="14.747809928033853"><ele>696.0</ele><time>2026-05-03T11:43:10Z</time></trkpt><trkpt lat="40.95515522473304" lon="14.747793422434011"><ele>696.0</ele><time>2026-05-03T11:43:11Z</time></trkpt><trkpt lat="40.955022759838066" lon="14.747787457054322"><ele>696.0</ele><time>2026-05-03T11:43:11.999Z</time></trkpt><trkpt lat="40.95488712375097" lon="14.747759801631377"><ele>696.0</ele><time>2026-05-03T11:43:12.999Z</time></trkpt><trkpt lat="40.954766902781124" lon="14.747707051319907"><ele>696.0</ele><time>2026-05-03T11:43:13.999Z</time></trkpt><trkpt lat="40.95465450218871" lon="14.747649026067466"><ele>696.0</ele><time>2026-05-03T11:43:14.999Z</time></trkpt><trkpt lat="40.95454681563524" lon="14.7476134209276"><ele>696.0</ele><time>2026-05-03T11:43:15.999Z</time></trkpt><trkpt lat="40.95447009785337" lon="14.74758597067861"><ele>696.0</ele><time>2026-05-03T11:43:16.999Z</time></trkpt><trkpt lat="40.95436705322779" lon="14.747626073163099"><ele>696.0</ele><time>2026-05-03T11:43:18.999Z</time></trkpt><trkpt lat="40.95437786644027" lon="14.747746005135385"><ele>696.0</ele><time>2026-05-03T11:43:20.999Z</time></trkpt><trkpt lat="40.954432129141004" lon="14.74783058147275"><ele>696.0</ele><time>2026-05-03T11:43:21.999Z</time></trkpt><trkpt lat="40.95452791416218" lon="14.747932090028767"><ele>696.0</ele><time>2026-05-03T11:43:22.999Z</time></trkpt><trkpt lat="40.95465782718033" lon="14.748041720281865"><ele>696.0</ele><time>2026-05-03T11:43:23.999Z</time></trkpt><trkpt lat="40.95479766098641" lon="14.748151975529844"><ele>696.0</ele><time>2026-05-03T11:43:24.999Z</time></trkpt><trkpt lat="40.95495333563534" lon="14.748256992994513"><ele>696.0</ele><time>2026-05-03T11:43:25.999Z</time></trkpt><trkpt lat="40.95512252311384" lon="14.748369225086224"><ele>696.0</ele><time>2026-05-03T11:43:26.999Z</time></trkpt><trkpt lat="40.95529508184841" lon="14.748483621117101"><ele>696.0</ele><time>2026-05-03T11:43:27.999Z</time></trkpt><trkpt lat="40.955486602879844" lon="14.748575833746123"><ele>695.0</ele><time>2026-05-03T11:43:28.999Z</time></trkpt><trkpt lat="40.955680044400914" lon="14.748657839052662"><ele>694.0</ele><time>2026-05-03T11:43:29.999Z</time></trkpt><trkpt lat="40.95586463217276" lon="14.74872550755103"><ele>693.0</ele><time>2026-05-03T11:43:30.999Z</time></trkpt><trkpt lat="40.956028919714214" lon="14.74881833262281"><ele>693.0</ele><time>2026-05-03T11:43:31.999Z</time></trkpt><trkpt lat="40.956173977942" lon="14.748945139462796"><ele>693.0</ele><time>2026-05-03T11:43:32.999Z</time></trkpt><trkpt lat="40.95628976830682" lon="14.749113945691397"><ele>693.0</ele><time>2026-05-03T11:43:33.999Z</time></trkpt><trkpt lat="40.95637035377825" lon="14.749335634806934"><ele>690.3333333333334</ele><time>2026-05-03T11:43:34.999Z</time></trkpt><trkpt lat="40.95642458584142" lon="14.749564776031425"><ele>687.6666666666667</ele><time>2026-05-03T11:43:35.999Z</time></trkpt><trkpt lat="40.95648767987893" lon="14.749793760750613"><ele>685.0</ele><time>2026-05-03T11:43:36.999Z</time></trkpt><trkpt lat="40.95660257021839" lon="14.7499977004533"><ele>684.6666666666667</ele><time>2026-05-03T11:43:37.999Z</time></trkpt><trkpt lat="40.95674329829991" lon="14.750192959667709"><ele>684.3333333333334</ele><time>2026-05-03T11:43:38.999Z</time></trkpt><trkpt lat="40.95689558192875" lon="14.75040607643768"><ele>684.0</ele><time>2026-05-03T11:43:39.999Z</time></trkpt><trkpt lat="40.95703971060677" lon="14.750621732048398"><ele>684.0</ele><time>2026-05-03T11:43:40.999Z</time></trkpt><trkpt lat="40.95716739405398" lon="14.750818177809688"><ele>684.0</ele><time>2026-05-03T11:43:41.999Z</time></trkpt><trkpt lat="40.95729586255359" lon="14.751005768404896"><ele>684.0</ele><time>2026-05-03T11:43:42.999Z</time></trkpt><trkpt lat="40.95739761154077" lon="14.751180648206018"><ele>682.3333333333334</ele><time>2026-05-03T11:43:43.999Z</time></trkpt><trkpt lat="40.95745163327294" lon="14.75138014971828"><ele>680.6666666666667</ele><time>2026-05-03T11:43:44.999Z</time></trkpt><trkpt lat="40.957450099558905" lon="14.751634369963202"><ele>679.0</ele><time>2026-05-03T11:43:45.999Z</time></trkpt><trkpt lat="40.95743115612253" lon="14.751902701684251"><ele>678.6666666666667</ele><time>2026-05-03T11:43:46.999Z</time></trkpt><trkpt lat="40.957374433353394" lon="14.752178781989263"><ele>678.3333333333334</ele><time>2026-05-03T11:43:47.999Z</time></trkpt><trkpt lat="40.95736243445115" lon="14.752475763925954"><ele>678.0</ele><time>2026-05-03T11:43:48.999Z</time></trkpt><trkpt lat="40.95733084676239" lon="14.752774565073347"><ele>676.6666666666666</ele><time>2026-05-03T11:43:49.999Z</time></trkpt><trkpt lat="40.95730386987727" lon="14.753073871637508"><ele>675.3333333333333</ele><time>2026-05-03T11:43:50.999Z</time></trkpt><trkpt lat="40.957254485402494" lon="14.753355527544391"><ele>674.0</ele><time>2026-05-03T11:43:51.999Z</time></trkpt><trkpt lat="40.9572396197616" lon="14.753627037215796"><ele>672.6666666666666</ele><time>2026-05-03T11:43:52.999Z</time></trkpt><trkpt lat="40.95719924429808" lon="14.753864678357676"><ele>671.3333333333334</ele><time>2026-05-03T11:43:53.999Z</time></trkpt><trkpt lat="40.95712575407085" lon="14.754099787775838"><ele>670.0</ele><time>2026-05-03T11:43:54.999Z</time></trkpt><trkpt lat="40.95704375406932" lon="14.754330729538847"><ele>669.3333333333334</ele><time>2026-05-03T11:43:55.999Z</time></trkpt><trkpt lat="40.956957963034206" lon="14.754546235943746"><ele>668.6666666666666</ele><time>2026-05-03T11:43:56.999Z</time></trkpt><trkpt lat="40.9568621934843" lon="14.75476853413631"><ele>668.0</ele><time>2026-05-03T11:43:57.999Z</time></trkpt><trkpt lat="40.95676747848796" lon="14.754983777360408"><ele>661.6666666666666</ele><time>2026-05-03T11:43:58.999Z</time></trkpt><trkpt lat="40.95667235003567" lon="14.755201221800816"><ele>655.3333333333334</ele><time>2026-05-03T11:43:59.999Z</time></trkpt><trkpt lat="40.95657386156839" lon="14.755413606130016"><ele>649.0</ele><time>2026-05-03T11:44:00.999Z</time></trkpt><trkpt lat="40.95649234017454" lon="14.755614850891542"><ele>649.0</ele><time>2026-05-03T11:44:01.999Z</time></trkpt><trkpt lat="40.95639779531988" lon="14.755817772993185"><ele>649.0</ele><time>2026-05-03T11:44:02.999Z</time></trkpt><trkpt lat="40.9563111859549" lon="14.756028380260704"><ele>649.0</ele><time>2026-05-03T11:44:03.999Z</time></trkpt><trkpt lat="40.95621951039186" lon="14.756243721584946"><ele>650.3333333333334</ele><time>2026-05-03T11:44:04.999Z</time></trkpt><trkpt lat="40.95612356238145" lon="14.75645564088624"><ele>651.6666666666666</ele><time>2026-05-03T11:44:05.999Z</time></trkpt><trkpt lat="40.956033858385766" lon="14.756674186173404"><ele>653.0</ele><time>2026-05-03T11:44:06.999Z</time></trkpt><trkpt lat="40.95596020845154" lon="14.75688531454208"><ele>656.0</ele><time>2026-05-03T11:44:07.999Z</time></trkpt><trkpt lat="40.95587441171618" lon="14.757076226319107"><ele>659.0</ele><time>2026-05-03T11:44:08.999Z</time></trkpt><trkpt lat="40.955806879338716" lon="14.757274041485061"><ele>662.0</ele><time>2026-05-03T11:44:09.999Z</time></trkpt><trkpt lat="40.955750996229625" lon="14.757472236502073"><ele>655.0</ele><time>2026-05-03T11:44:10.999Z</time></trkpt><trkpt lat="40.95568170135225" lon="14.75766061908227"><ele>648.0</ele><time>2026-05-03T11:44:11.999Z</time></trkpt><trkpt lat="40.95563366642415" lon="14.757879226436994"><ele>641.0</ele><time>2026-05-03T11:44:12.999Z</time></trkpt><trkpt lat="40.955582517702965" lon="14.758100352267691"><ele>641.0</ele><time>2026-05-03T11:44:13.999Z</time></trkpt><trkpt lat="40.95549931673465" lon="14.758273910299927"><ele>641.0</ele><time>2026-05-03T11:44:14.999Z</time></trkpt><trkpt lat="40.95539629302609" lon="14.758459755901487"><ele>641.0</ele><time>2026-05-03T11:44:16Z</time></trkpt><trkpt lat="40.955297827872826" lon="14.758609479150154"><ele>640.75</ele><time>2026-05-03T11:44:17Z</time></trkpt><trkpt lat="40.95521023815751" lon="14.758761728279312"><ele>640.5</ele><time>2026-05-03T11:44:18Z</time></trkpt><trkpt lat="40.95512105556314" lon="14.758900257162313"><ele>640.25</ele><time>2026-05-03T11:44:19Z</time></trkpt><trkpt lat="40.9550393293326" lon="14.759056014535847"><ele>640.0</ele><time>2026-05-03T11:44:20Z</time></trkpt><trkpt lat="40.954962689385475" lon="14.759229394945711"><ele>633.0</ele><time>2026-05-03T11:44:21Z</time></trkpt><trkpt lat="40.95487926369141" lon="14.759413803491263"><ele>626.0</ele><time>2026-05-03T11:44:22Z</time></trkpt><trkpt lat="40.95479424061455" lon="14.75960944409375"><ele>619.0</ele><time>2026-05-03T11:44:23Z</time></trkpt><trkpt lat="40.95471495969988" lon="14.759800957124005"><ele>619.0</ele><time>2026-05-03T11:44:24Z</time></trkpt><trkpt lat="40.954648668867634" lon="14.759974799880572"><ele>619.0</ele><time>2026-05-03T11:44:25Z</time></trkpt><trkpt lat="40.95459509010371" lon="14.76012698192696"><ele>619.0</ele><time>2026-05-03T11:44:26Z</time></trkpt><trkpt lat="40.95452971977111" lon="14.760247832630736"><ele>619.0</ele><time>2026-05-03T11:44:27Z</time></trkpt><trkpt lat="40.954412883633694" lon="14.760282365202102"><ele>617.0</ele><time>2026-05-03T11:44:28Z</time></trkpt><trkpt lat="40.95427601301171" lon="14.760335407832645"><ele>615.0</ele><time>2026-05-03T11:44:29Z</time></trkpt><trkpt lat="40.9541126410152" lon="14.760399048708912"><ele>613.0</ele><time>2026-05-03T11:44:30Z</time></trkpt><trkpt lat="40.953936375028036" lon="14.760488604719962"><ele>609.3333333333334</ele><time>2026-05-03T11:44:31Z</time></trkpt><trkpt lat="40.95374981904643" lon="14.760553737250666"><ele>605.6666666666666</ele><time>2026-05-03T11:44:32Z</time></trkpt><trkpt lat="40.95356728075648" lon="14.760632166613386"><ele>602.0</ele><time>2026-05-03T11:44:33Z</time></trkpt><trkpt lat="40.95339251287954" lon="14.760700186288693"><ele>600.6666666666666</ele><time>2026-05-03T11:44:34Z</time></trkpt><trkpt lat="40.9532297482394" lon="14.760764490025347"><ele>599.3333333333334</ele><time>2026-05-03T11:44:35Z</time></trkpt><trkpt lat="40.953064210985524" lon="14.760781990886683"><ele>598.0</ele><time>2026-05-03T11:44:36Z</time></trkpt><trkpt lat="40.95289172586479" lon="14.76077740189891"><ele>598.0</ele><time>2026-05-03T11:44:37Z</time></trkpt><trkpt lat="40.95272196089044" lon="14.760756650021346"><ele>598.0</ele><time>2026-05-03T11:44:38Z</time></trkpt><trkpt lat="40.952564319055504" lon="14.760746457819813"><ele>598.0</ele><time>2026-05-03T11:44:39Z</time></trkpt><trkpt lat="40.952414385166186" lon="14.760726141840614"><ele>596.25</ele><time>2026-05-03T11:44:40Z</time></trkpt><trkpt lat="40.952277035915124" lon="14.760736476803489"><ele>594.5</ele><time>2026-05-03T11:44:41Z</time></trkpt><trkpt lat="40.952149420178195" lon="14.760802007373288"><ele>592.75</ele><time>2026-05-03T11:44:42Z</time></trkpt><trkpt lat="40.952052224985735" lon="14.76091808101678"><ele>591.0</ele><time>2026-05-03T11:44:43Z</time></trkpt><trkpt lat="40.951998108851576" lon="14.761069754264298"><ele>588.75</ele><time>2026-05-03T11:44:44Z</time></trkpt><trkpt lat="40.95200145615935" lon="14.761216572898217"><ele>586.5</ele><time>2026-05-03T11:44:45Z</time></trkpt><trkpt lat="40.952052563300825" lon="14.761359894478906"><ele>584.25</ele><time>2026-05-03T11:44:46Z</time></trkpt><trkpt lat="40.95214064952409" lon="14.761484727346236"><ele>582.0</ele><time>2026-05-03T11:44:47Z</time></trkpt><trkpt lat="40.952260004406675" lon="14.76156245013165"><ele>582.0</ele><time>2026-05-03T11:44:48Z</time></trkpt><trkpt lat="40.95240625870259" lon="14.761607478962818"><ele>582.0</ele><time>2026-05-03T11:44:49Z</time></trkpt><trkpt lat="40.95256603170728" lon="14.761644766734756"><ele>582.0</ele><time>2026-05-03T11:44:50Z</time></trkpt><trkpt lat="40.95272281506736" lon="14.761713991352323"><ele>583.3333333333334</ele><time>2026-05-03T11:44:51Z</time></trkpt><trkpt lat="40.952883401656734" lon="14.761778761040546"><ele>584.6666666666667</ele><time>2026-05-03T11:44:52Z</time></trkpt><trkpt lat="40.95305164584118" lon="14.7618314135772"><ele>586.0</ele><time>2026-05-03T11:44:53Z</time></trkpt><trkpt lat="40.95322096477018" lon="14.761910278372275"><ele>584.0</ele><time>2026-05-03T11:44:54Z</time></trkpt><trkpt lat="40.95339087229182" lon="14.761998862626841"><ele>582.0</ele><time>2026-05-03T11:44:55Z</time></trkpt><trkpt lat="40.953549800882534" lon="14.762086822537128"><ele>580.0</ele><time>2026-05-03T11:44:56Z</time></trkpt><trkpt lat="40.95369520445808" lon="14.762167171467715"><ele>580.0</ele><time>2026-05-03T11:44:57Z</time></trkpt><trkpt lat="40.953832652765975" lon="14.762242149814238"><ele>580.0</ele><time>2026-05-03T11:44:58Z</time></trkpt><trkpt lat="40.95396695452582" lon="14.762324351181007"><ele>580.0</ele><time>2026-05-03T11:44:59Z</time></trkpt><trkpt lat="40.954088011718405" lon="14.7624389773132"><ele>580.0</ele><time>2026-05-03T11:45:00Z</time></trkpt><trkpt lat="40.95419556023288" lon="14.762597172848306"><ele>577.3333333333334</ele><time>2026-05-03T11:45:01Z</time></trkpt><trkpt lat="40.95431215826343" lon="14.76278251184538"><ele>574.6666666666666</ele><time>2026-05-03T11:45:02Z</time></trkpt><trkpt lat="40.95442556424489" lon="14.762964914905782"><ele>572.0</ele><time>2026-05-03T11:45:03Z</time></trkpt><trkpt lat="40.95454915570359" lon="14.763155675427244"><ele>572.0</ele><time>2026-05-03T11:45:04Z</time></trkpt><trkpt lat="40.95466937453675" lon="14.763338706256699"><ele>572.0</ele><time>2026-05-03T11:45:05Z</time></trkpt><trkpt lat="40.95478963171211" lon="14.763516823960307"><ele>572.0</ele><time>2026-05-03T11:45:06Z</time></trkpt><trkpt lat="40.95493116502775" lon="14.763663937132527"><ele>568.3333333333333</ele><time>2026-05-03T11:45:07Z</time></trkpt><trkpt lat="40.955055978825406" lon="14.763811945974545"><ele>564.6666666666666</ele><time>2026-05-03T11:45:08Z</time></trkpt><trkpt lat="40.95517370422402" lon="14.763954662385574"><ele>561.0</ele><time>2026-05-03T11:45:09Z</time></trkpt><trkpt lat="40.95528767756394" lon="14.764089362377826"><ele>561.0</ele><time>2026-05-03T11:45:10Z</time></trkpt><trkpt lat="40.95540730401573" lon="14.764213699487982"><ele>561.0</ele><time>2026-05-03T11:45:10.999Z</time></trkpt><trkpt lat="40.95553505033096" lon="14.764299145785476"><ele>561.0</ele><time>2026-05-03T11:45:11.999Z</time></trkpt><trkpt lat="40.955670756845905" lon="14.76432772247506"><ele>561.0</ele><time>2026-05-03T11:45:12.999Z</time></trkpt><trkpt lat="40.955828172895764" lon="14.764291235767969"><ele>561.6666666666666</ele><time>2026-05-03T11:45:13.999Z</time></trkpt><trkpt lat="40.955993931254696" lon="14.764251674644324"><ele>562.3333333333333</ele><time>2026-05-03T11:45:14.999Z</time></trkpt><trkpt lat="40.95614678398572" lon="14.764236433177961"><ele>563.0</ele><time>2026-05-03T11:45:15.999Z</time></trkpt><trkpt lat="40.956287657841635" lon="14.764256153064427"><ele>563.0</ele><time>2026-05-03T11:45:16.999Z</time></trkpt><trkpt lat="40.95640867883646" lon="14.764330900296429"><ele>563.0</ele><time>2026-05-03T11:45:17.999Z</time></trkpt><trkpt lat="40.956518323138205" lon="14.764432300333112"><ele>563.0</ele><time>2026-05-03T11:45:18.999Z</time></trkpt><trkpt lat="40.95662586429816" lon="14.764552524564156"><ele>563.0</ele><time>2026-05-03T11:45:19.999Z</time></trkpt><trkpt lat="40.956712590936874" lon="14.764680398002454"><ele>560.0</ele><time>2026-05-03T11:45:20.999Z</time></trkpt><trkpt lat="40.956800417477204" lon="14.764789996703989"><ele>557.0</ele><time>2026-05-03T11:45:21.999Z</time></trkpt><trkpt lat="40.95688395374389" lon="14.764880164889293"><ele>554.0</ele><time>2026-05-03T11:45:22.999Z</time></trkpt><trkpt lat="40.95696461532355" lon="14.764923800405136"><ele>551.0</ele><time>2026-05-03T11:45:23.999Z</time></trkpt><trkpt lat="40.95703069283893" lon="14.764946520761658"><ele>548.0</ele><time>2026-05-03T11:45:24.999Z</time></trkpt><trkpt lat="40.95709074705381" lon="14.764979668987086"><ele>545.0</ele><time>2026-05-03T11:45:26.999Z</time></trkpt><trkpt lat="40.95701646130858" lon="14.764966574630686"><ele>545.0</ele><time>2026-05-03T11:45:32.999Z</time></trkpt><trkpt lat="40.95698182435443" lon="14.76514513768568"><ele>545.0</ele><time>2026-05-03T11:45:34.999Z</time></trkpt><trkpt lat="40.95700586337881" lon="14.765222553387817"><ele>545.0</ele><time>2026-05-03T11:45:35.999Z</time></trkpt><trkpt lat="40.956982577482506" lon="14.765313158042447"><ele>545.0</ele><time>2026-05-03T11:45:36.999Z</time></trkpt><trkpt lat="40.957027231626505" lon="14.76543987937766"><ele>545.0</ele><time>2026-05-03T11:45:38.999Z</time></trkpt><trkpt lat="40.95712780947476" lon="14.76546554070028"><ele>541.2</ele><time>2026-05-03T11:45:40.999Z</time></trkpt><trkpt lat="40.95721884528346" lon="14.765501946893153"><ele>537.4</ele><time>2026-05-03T11:45:41.999Z</time></trkpt><trkpt lat="40.95729020627327" lon="14.765581130676628"><ele>533.6</ele><time>2026-05-03T11:45:42.999Z</time></trkpt><trkpt lat="40.95735736929649" lon="14.765684336909292"><ele>529.8</ele><time>2026-05-03T11:45:43.999Z</time></trkpt><trkpt lat="40.95743302138857" lon="14.765717558002398"><ele>526.0</ele><time>2026-05-03T11:45:45.999Z</time></trkpt><trkpt lat="40.95742666618945" lon="14.7658679365529"><ele>526.0</ele><time>2026-05-03T11:45:46.999Z</time></trkpt><trkpt lat="40.957415642460525" lon="14.765996555261346"><ele>526.0</ele><time>2026-05-03T11:45:47.999Z</time></trkpt><trkpt lat="40.95743352688893" lon="14.76611293376477"><ele>526.0</ele><time>2026-05-03T11:45:48.999Z</time></trkpt><trkpt lat="40.95747091963649" lon="14.76621664551118"><ele>526.0</ele><time>2026-05-03T11:45:49.999Z</time></trkpt><trkpt lat="40.95750926391655" lon="14.766325702504954"><ele>526.0</ele><time>2026-05-03T11:45:50.999Z</time></trkpt><trkpt lat="40.95752245851426" lon="14.766419875183965"><ele>526.0</ele><time>2026-05-03T11:45:51.999Z</time></trkpt><trkpt lat="40.957450781891005" lon="14.76660662745949"><ele>523.2</ele><time>2026-05-03T11:45:53.999Z</time></trkpt><trkpt lat="40.95739888460616" lon="14.766739306136731"><ele>520.4000000000001</ele><time>2026-05-03T11:45:54.999Z</time></trkpt><trkpt lat="40.95737136909483" lon="14.76687851759464"><ele>517.6</ele><time>2026-05-03T11:45:55.999Z</time></trkpt><trkpt lat="40.95735380169701" lon="14.767009241213925"><ele>514.8000000000001</ele><time>2026-05-03T11:45:56.999Z</time></trkpt><trkpt lat="40.957334420656196" lon="14.767126231342896"><ele>512.0</ele><time>2026-05-03T11:45:57.999Z</time></trkpt><trkpt lat="40.95730882138532" lon="14.767225454285576"><ele>511.0</ele><time>2026-05-03T11:45:58.999Z</time></trkpt><trkpt lat="40.95727782330211" lon="14.7673546312615"><ele>510.0</ele><time>2026-05-03T11:46:00.999Z</time></trkpt><trkpt lat="40.95731531074839" lon="14.767510952458085"><ele>509.0</ele><time>2026-05-03T11:46:03.999Z</time></trkpt><trkpt lat="40.95738834731342" lon="14.767652843245616"><ele>508.0</ele><time>2026-05-03T11:46:04.999Z</time></trkpt><trkpt lat="40.95746734202727" lon="14.767781746469819"><ele>507.33333333333337</ele><time>2026-05-03T11:46:05.999Z</time></trkpt><trkpt lat="40.95756949611458" lon="14.767943252535504"><ele>506.66666666666663</ele><time>2026-05-03T11:46:06.999Z</time></trkpt><trkpt lat="40.9576589510844" lon="14.768110422585602"><ele>506.0</ele><time>2026-05-03T11:46:07.999Z</time></trkpt><trkpt lat="40.95775809118864" lon="14.768283271060074"><ele>506.0</ele><time>2026-05-03T11:46:08.999Z</time></trkpt><trkpt lat="40.95786874707899" lon="14.768461973856645"><ele>506.0</ele><time>2026-05-03T11:46:09.999Z</time></trkpt><trkpt lat="40.95798769159225" lon="14.768659047927251"><ele>506.0</ele><time>2026-05-03T11:46:10.999Z</time></trkpt><trkpt lat="40.95811359670131" lon="14.768876438452674"><ele>505.0</ele><time>2026-05-03T11:46:11.999Z</time></trkpt><trkpt lat="40.95824321627989" lon="14.769100777656053"><ele>504.0</ele><time>2026-05-03T11:46:12.999Z</time></trkpt><trkpt lat="40.9583815041521" lon="14.76931301518631"><ele>503.0</ele><time>2026-05-03T11:46:13.999Z</time></trkpt><trkpt lat="40.958553558902636" lon="14.769524734580125"><ele>509.0</ele><time>2026-05-03T11:46:14.999Z</time></trkpt><trkpt lat="40.95876978678801" lon="14.769727195105974"><ele>515.0</ele><time>2026-05-03T11:46:15.999Z</time></trkpt><trkpt lat="40.95898328866065" lon="14.769892842075636"><ele>515.0</ele><time>2026-05-03T11:46:16.999Z</time></trkpt><trkpt lat="40.959159626099044" lon="14.770047312726835"><ele>515.0</ele><time>2026-05-03T11:46:17.999Z</time></trkpt><trkpt lat="40.959324967880235" lon="14.770196781666161"><ele>515.0</ele><time>2026-05-03T11:46:18.999Z</time></trkpt><trkpt lat="40.95948285746698" lon="14.770349652675847"><ele>516.3333333333333</ele><time>2026-05-03T11:46:19.999Z</time></trkpt><trkpt lat="40.95962156674602" lon="14.77051195360074"><ele>517.6666666666666</ele><time>2026-05-03T11:46:20.999Z</time></trkpt><trkpt lat="40.95972659079941" lon="14.77071361134557"><ele>519.0</ele><time>2026-05-03T11:46:22Z</time></trkpt><trkpt lat="40.95980239093731" lon="14.770916686424858"><ele>522.3333333333334</ele><time>2026-05-03T11:46:23Z</time></trkpt><trkpt lat="40.9598693621036" lon="14.771149146269703"><ele>525.6666666666667</ele><time>2026-05-03T11:46:24Z</time></trkpt><trkpt lat="40.959942744615255" lon="14.771396311270298"><ele>529.0</ele><time>2026-05-03T11:46:25Z</time></trkpt><trkpt lat="40.96002683423379" lon="14.771634411671798"><ele>528.0</ele><time>2026-05-03T11:46:26Z</time></trkpt><trkpt lat="40.96015852390366" lon="14.771836390551504"><ele>527.0</ele><time>2026-05-03T11:46:27Z</time></trkpt><trkpt lat="40.960319864150286" lon="14.772018491969238"><ele>526.0</ele><time>2026-05-03T11:46:28Z</time></trkpt><trkpt lat="40.96051377562371" lon="14.77218997390716"><ele>526.0</ele><time>2026-05-03T11:46:29Z</time></trkpt><trkpt lat="40.960679968790565" lon="14.772315634017547"><ele>526.0</ele><time>2026-05-03T11:46:30Z</time></trkpt><trkpt lat="40.96082920863556" lon="14.772454600931901"><ele>526.0</ele><time>2026-05-03T11:46:31Z</time></trkpt><trkpt lat="40.960948301818476" lon="14.7725551084773"><ele>524.8</ele><time>2026-05-03T11:46:32Z</time></trkpt><trkpt lat="40.96104851544162" lon="14.772661182876828"><ele>523.6</ele><time>2026-05-03T11:46:33Z</time></trkpt><trkpt lat="40.96111642125391" lon="14.772784089167057"><ele>522.4</ele><time>2026-05-03T11:46:34Z</time></trkpt><trkpt lat="40.9611692959875" lon="14.772892519841465"><ele>521.2</ele><time>2026-05-03T11:46:35Z</time></trkpt><trkpt lat="40.96121131407475" lon="14.772987925951067"><ele>520.0</ele><time>2026-05-03T11:46:36Z</time></trkpt><trkpt lat="40.96118513182871" lon="14.773105138877643"><ele>520.0</ele><time>2026-05-03T11:46:37Z</time></trkpt><trkpt lat="40.961148414994206" lon="14.77322531958294"><ele>520.0</ele><time>2026-05-03T11:46:38Z</time></trkpt><trkpt lat="40.961133463160465" lon="14.773316736279266"><ele>520.0</ele><time>2026-05-03T11:46:39Z</time></trkpt><trkpt lat="40.961073174169" lon="14.773435278526312"><ele>520.0</ele><time>2026-05-03T11:46:42Z</time></trkpt><trkpt lat="40.961055826850256" lon="14.773547557525069"><ele>520.0</ele><time>2026-05-03T11:46:44Z</time></trkpt><trkpt lat="40.961023595200125" lon="14.773682485855874"><ele>522.0</ele><time>2026-05-03T11:46:45Z</time></trkpt><trkpt lat="40.96099575181757" lon="14.773822839469524"><ele>524.0</ele><time>2026-05-03T11:46:46Z</time></trkpt><trkpt lat="40.96097226946834" lon="14.773952386348325"><ele>526.0</ele><time>2026-05-03T11:46:47Z</time></trkpt><trkpt lat="40.96097432023089" lon="14.774078829224594"><ele>528.0</ele><time>2026-05-03T11:46:48Z</time></trkpt><trkpt lat="40.96104121424499" lon="14.774176422548857"><ele>530.0</ele><time>2026-05-03T11:46:49Z</time></trkpt><trkpt lat="40.961126892669256" lon="14.774254528127708"><ele>532.4</ele><time>2026-05-03T11:46:50Z</time></trkpt><trkpt lat="40.96121591999874" lon="14.774358614865992"><ele>534.8</ele><time>2026-05-03T11:46:51Z</time></trkpt><trkpt lat="40.96130869649349" lon="14.774433374463637"><ele>537.2</ele><time>2026-05-03T11:46:52Z</time></trkpt><trkpt lat="40.96137597186975" lon="14.774491597083575"><ele>539.6</ele><time>2026-05-03T11:46:53Z</time></trkpt><trkpt lat="40.96143745270483" lon="14.774545970357172"><ele>542.0</ele><time>2026-05-03T11:46:54Z</time></trkpt><trkpt lat="40.961509732516134" lon="14.774596522623144"><ele>542.0</ele><time>2026-05-03T11:46:56Z</time></trkpt><trkpt lat="40.96139510728843" lon="14.774870741005959"><ele>542.0</ele><time>2026-05-03T11:46:59Z</time></trkpt><trkpt lat="40.9613217416711" lon="14.774840715887011"><ele>542.0</ele><time>2026-05-03T11:47:00Z</time></trkpt><trkpt lat="40.96122674801644" lon="14.774805549748597"><ele>542.0</ele><time>2026-05-03T11:47:01Z</time></trkpt><trkpt lat="40.96113038750859" lon="14.77476987711671"><ele>542.0</ele><time>2026-05-03T11:47:02Z</time></trkpt><trkpt lat="40.961023560776354" lon="14.774730330966026"><ele>542.0</ele><time>2026-05-03T11:47:03Z</time></trkpt><trkpt lat="40.96090088563415" lon="14.774665501068258"><ele>542.0</ele><time>2026-05-03T11:47:05Z</time></trkpt><trkpt lat="40.960919786304125" lon="14.773681916950144"><ele>539.6</ele><time>2026-05-03T11:47:07Z</time></trkpt><trkpt lat="40.960970625096316" lon="14.773577838590896"><ele>537.2</ele><time>2026-05-03T11:47:08Z</time></trkpt><trkpt lat="40.9610133137923" lon="14.773492956375758"><ele>534.8</ele><time>2026-05-03T11:47:08.999Z</time></trkpt><trkpt lat="40.961088651935626" lon="14.773431110499358"><ele>532.4</ele><time>2026-05-03T11:47:10.999Z</time></trkpt><trkpt lat="40.961016451496135" lon="14.77343073896366"><ele>530.0</ele><time>2026-05-03T11:47:12.999Z</time></trkpt><trkpt lat="40.96094601506225" lon="14.773557004037368"><ele>530.0</ele><time>2026-05-03T11:47:14.999Z</time></trkpt><trkpt lat="40.960901735426" lon="14.773643843333673"><ele>530.0</ele><time>2026-05-03T11:47:15.999Z</time></trkpt><trkpt lat="40.960852091659646" lon="14.77371790499837"><ele>530.0</ele><time>2026-05-03T11:47:16.999Z</time></trkpt><trkpt lat="40.96080538241065" lon="14.773797367602032"><ele>530.0</ele><time>2026-05-03T11:47:17.999Z</time></trkpt><trkpt lat="40.96075976729128" lon="14.773885976495762"><ele>530.0</ele><time>2026-05-03T11:47:18.999Z</time></trkpt><trkpt lat="40.96071080963858" lon="14.773972596975023"><ele>530.0</ele><time>2026-05-03T11:47:19.999Z</time></trkpt><trkpt lat="40.96065726944208" lon="14.774070296911942"><ele>532.0</ele><time>2026-05-03T11:47:20.999Z</time></trkpt><trkpt lat="40.96060089962748" lon="14.77417544457414"><ele>534.0</ele><time>2026-05-03T11:47:21.999Z</time></trkpt><trkpt lat="40.96054150665783" lon="14.77427506289668"><ele>536.0</ele><time>2026-05-03T11:47:22.999Z</time></trkpt><trkpt lat="40.96048791524121" lon="14.774373458646501"><ele>538.0</ele><time>2026-05-03T11:47:23.999Z</time></trkpt><trkpt lat="40.96043995370586" lon="14.77444969651239"><ele>540.0</ele><time>2026-05-03T11:47:24.999Z</time></trkpt><trkpt lat="40.960353004305844" lon="14.774452624429856"><ele>542.0</ele><time>2026-05-03T11:47:28.999Z</time></trkpt><trkpt lat="40.96027656384166" lon="14.774432729591618"><ele>543.4</ele><time>2026-05-03T11:47:30.999Z</time></trkpt><trkpt lat="40.96022464635163" lon="14.77454540072577"><ele>544.8000000000001</ele><time>2026-05-03T11:47:32.999Z</time></trkpt><trkpt lat="40.96022799233545" lon="14.774637619209665"><ele>546.2</ele><time>2026-05-03T11:47:33.999Z</time></trkpt><trkpt lat="40.960228035612936" lon="14.77474338117311"><ele>547.6</ele><time>2026-05-03T11:47:34.999Z</time></trkpt><trkpt lat="40.96020739154777" lon="14.774876693873292"><ele>549.0</ele><time>2026-05-03T11:47:36.999Z</time></trkpt><trkpt lat="40.960182781440444" lon="14.775025244732904"><ele>549.0</ele><time>2026-05-03T11:47:40.999Z</time></trkpt><trkpt lat="40.96012853121982" lon="14.775088612950867"><ele>549.0</ele><time>2026-05-03T11:47:41.999Z</time></trkpt><trkpt lat="40.96003930872897" lon="14.775138567086747"><ele>549.0</ele><time>2026-05-03T11:47:42.999Z</time></trkpt><trkpt lat="40.95992056325164" lon="14.77513054844204"><ele>549.0</ele><time>2026-05-03T11:47:43.999Z</time></trkpt><trkpt lat="40.95978453454016" lon="14.775172824448148"><ele>549.0</ele><time>2026-05-03T11:47:44.999Z</time></trkpt><trkpt lat="40.95964014812743" lon="14.775222737268008"><ele>547.6666666666666</ele><time>2026-05-03T11:47:45.999Z</time></trkpt><trkpt lat="40.959490032507034" lon="14.775278136501198"><ele>546.3333333333333</ele><time>2026-05-03T11:47:46.999Z</time></trkpt><trkpt lat="40.95933071269813" lon="14.775339598935496"><ele>545.0</ele><time>2026-05-03T11:47:47.999Z</time></trkpt><trkpt lat="40.95917363516073" lon="14.775431832057247"><ele>541.0</ele><time>2026-05-03T11:47:48.999Z</time></trkpt><trkpt lat="40.95901901872673" lon="14.77551226016968"><ele>537.0</ele><time>2026-05-03T11:47:49.999Z</time></trkpt><trkpt lat="40.9588711046256" lon="14.77560045651859"><ele>533.0</ele><time>2026-05-03T11:47:50.999Z</time></trkpt><trkpt lat="40.95872859628368" lon="14.7757084189351"><ele>533.0</ele><time>2026-05-03T11:47:51.999Z</time></trkpt><trkpt lat="40.95859216999954" lon="14.775825189057239"><ele>533.0</ele><time>2026-05-03T11:47:52.999Z</time></trkpt><trkpt lat="40.95845764944868" lon="14.775941761161208"><ele>533.0</ele><time>2026-05-03T11:47:53.999Z</time></trkpt><trkpt lat="40.95832918110182" lon="14.776081878864622"><ele>528.6666666666666</ele><time>2026-05-03T11:47:54.999Z</time></trkpt><trkpt lat="40.958199954779346" lon="14.776236269654499"><ele>524.3333333333334</ele><time>2026-05-03T11:47:55.999Z</time></trkpt><trkpt lat="40.958085532225894" lon="14.77641617920998"><ele>520.0</ele><time>2026-05-03T11:47:56.999Z</time></trkpt><trkpt lat="40.95797569506892" lon="14.776611495001223"><ele>520.0</ele><time>2026-05-03T11:47:57.999Z</time></trkpt><trkpt lat="40.95786160053673" lon="14.77680626126288"><ele>520.0</ele><time>2026-05-03T11:47:58.999Z</time></trkpt><trkpt lat="40.957736721822464" lon="14.776993512836272"><ele>520.0</ele><time>2026-05-03T11:47:59.999Z</time></trkpt><trkpt lat="40.95760998483561" lon="14.77717537823316"><ele>516.3333333333334</ele><time>2026-05-03T11:48:00.999Z</time></trkpt><trkpt lat="40.957487007934965" lon="14.77735508193322"><ele>512.6666666666666</ele><time>2026-05-03T11:48:01.999Z</time></trkpt><trkpt lat="40.95736779271461" lon="14.777520693176312"><ele>509.0</ele><time>2026-05-03T11:48:02.999Z</time></trkpt><trkpt lat="40.95725804135891" lon="14.777688384380305"><ele>506.3333333333333</ele><time>2026-05-03T11:48:03.999Z</time></trkpt><trkpt lat="40.95716696449477" lon="14.777859918641907"><ele>503.66666666666663</ele><time>2026-05-03T11:48:04.999Z</time></trkpt><trkpt lat="40.95710710949657" lon="14.778039143855716"><ele>501.0</ele><time>2026-05-03T11:48:05.999Z</time></trkpt><trkpt lat="40.95706339275019" lon="14.778228857332868"><ele>501.0</ele><time>2026-05-03T11:48:06.999Z</time></trkpt><trkpt lat="40.95703518285692" lon="14.77840572261372"><ele>501.0</ele><time>2026-05-03T11:48:07.999Z</time></trkpt><trkpt lat="40.956987757006544" lon="14.77855769380215"><ele>501.0</ele><time>2026-05-03T11:48:08.999Z</time></trkpt><trkpt lat="40.95693010625187" lon="14.77869002831439"><ele>501.0</ele><time>2026-05-03T11:48:09.999Z</time></trkpt><trkpt lat="40.95685895347032" lon="14.778799820975435"><ele>500.0</ele><time>2026-05-03T11:48:10.999Z</time></trkpt><trkpt lat="40.95678930300476" lon="14.778902002494375"><ele>499.0</ele><time>2026-05-03T11:48:11.999Z</time></trkpt><trkpt lat="40.95673920951116" lon="14.779020482628708"><ele>498.0</ele><time>2026-05-03T11:48:12.999Z</time></trkpt><trkpt lat="40.95671773167029" lon="14.779154376419449"><ele>497.0</ele><time>2026-05-03T11:48:13.999Z</time></trkpt><trkpt lat="40.95672457426524" lon="14.77930103455028"><ele>496.0</ele><time>2026-05-03T11:48:14.999Z</time></trkpt><trkpt lat="40.95674744612208" lon="14.779455162503751"><ele>495.75</ele><time>2026-05-03T11:48:15.999Z</time></trkpt><trkpt lat="40.95680218817949" lon="14.779612757112545"><ele>495.5</ele><time>2026-05-03T11:48:16.999Z</time></trkpt><trkpt lat="40.95686803551286" lon="14.779791226779297"><ele>495.25</ele><time>2026-05-03T11:48:17.999Z</time></trkpt><trkpt lat="40.95692217004356" lon="14.779973496729102"><ele>495.0</ele><time>2026-05-03T11:48:18.999Z</time></trkpt><trkpt lat="40.95694282697566" lon="14.780204003473116"><ele>494.33333333333337</ele><time>2026-05-03T11:48:19.999Z</time></trkpt><trkpt lat="40.9569326220607" lon="14.780404887405437"><ele>493.6666666666667</ele><time>2026-05-03T11:48:20.999Z</time></trkpt><trkpt lat="40.95689626569589" lon="14.780608238213063"><ele>493.0</ele><time>2026-05-03T11:48:21.999Z</time></trkpt><trkpt lat="40.95689984107397" lon="14.78080696905512"><ele>493.0</ele><time>2026-05-03T11:48:22.999Z</time></trkpt><trkpt lat="40.95694020813487" lon="14.78097928981255"><ele>493.0</ele><time>2026-05-03T11:48:23.999Z</time></trkpt><trkpt lat="40.957019908150556" lon="14.781142446366655"><ele>493.0</ele><time>2026-05-03T11:48:24.999Z</time></trkpt><trkpt lat="40.957131044682285" lon="14.78130738047661"><ele>492.0</ele><time>2026-05-03T11:48:25.999Z</time></trkpt><trkpt lat="40.95723968888127" lon="14.781463305352583"><ele>491.0</ele><time>2026-05-03T11:48:26.999Z</time></trkpt><trkpt lat="40.957303136184066" lon="14.781624804836763"><ele>490.0</ele><time>2026-05-03T11:48:27.999Z</time></trkpt><trkpt lat="40.95729068863274" lon="14.781820122542216"><ele>489.0</ele><time>2026-05-03T11:48:28.999Z</time></trkpt><trkpt lat="40.9572942594017" lon="14.782048408603357"><ele>489.25</ele><time>2026-05-03T11:48:29.999Z</time></trkpt><trkpt lat="40.95727477344159" lon="14.782257111796792"><ele>489.5</ele><time>2026-05-03T11:48:30.999Z</time></trkpt><trkpt lat="40.95725065817288" lon="14.78243731781842"><ele>489.75</ele><time>2026-05-03T11:48:31.999Z</time></trkpt><trkpt lat="40.95720533358968" lon="14.782595818039772"><ele>490.0</ele><time>2026-05-03T11:48:32.999Z</time></trkpt><trkpt lat="40.957104347759405" lon="14.782722269011668"><ele>490.0</ele><time>2026-05-03T11:48:33.999Z</time></trkpt><trkpt lat="40.956997496377724" lon="14.782867022461176"><ele>490.0</ele><time>2026-05-03T11:48:34.999Z</time></trkpt><trkpt lat="40.956896489025794" lon="14.783017745142995"><ele>490.0</ele><time>2026-05-03T11:48:35.999Z</time></trkpt><trkpt lat="40.956828034857274" lon="14.783213451278348"><ele>490.0</ele><time>2026-05-03T11:48:36.999Z</time></trkpt><trkpt lat="40.9567928503782" lon="14.783427914998965"><ele>490.0</ele><time>2026-05-03T11:48:37.999Z</time></trkpt><trkpt lat="40.95677634693398" lon="14.783663470465306"><ele>490.0</ele><time>2026-05-03T11:48:38.999Z</time></trkpt><trkpt lat="40.95676715837297" lon="14.783881840338514"><ele>490.2</ele><time>2026-05-03T11:48:39.999Z</time></trkpt><trkpt lat="40.9567619833012" lon="14.784043122655039"><ele>490.4</ele><time>2026-05-03T11:48:40.999Z</time></trkpt><trkpt lat="40.956746909943604" lon="14.784173080403384"><ele>490.6</ele><time>2026-05-03T11:48:41.999Z</time></trkpt><trkpt lat="40.95672570355922" lon="14.784270190960704"><ele>490.8</ele><time>2026-05-03T11:48:42.999Z</time></trkpt><trkpt lat="40.956683863937286" lon="14.784404145574667"><ele>491.0</ele><time>2026-05-03T11:48:44.999Z</time></trkpt><trkpt lat="40.95661428087634" lon="14.784481786855512"><ele>491.0</ele><time>2026-05-03T11:48:45.999Z</time></trkpt><trkpt lat="40.956498608580944" lon="14.784517332134737"><ele>491.0</ele><time>2026-05-03T11:48:46.999Z</time></trkpt><trkpt lat="40.956375601239294" lon="14.784599511138529"><ele>491.0</ele><time>2026-05-03T11:48:47.999Z</time></trkpt><trkpt lat="40.9562425391862" lon="14.784709067264222"><ele>491.0</ele><time>2026-05-03T11:48:48.999Z</time></trkpt><trkpt lat="40.956103763087675" lon="14.78483828481268"><ele>491.0</ele><time>2026-05-03T11:48:49.999Z</time></trkpt><trkpt lat="40.95596378055616" lon="14.784992149587774"><ele>491.0</ele><time>2026-05-03T11:48:50.999Z</time></trkpt><trkpt lat="40.95583206048576" lon="14.785105123748668"><ele>491.0</ele><time>2026-05-03T11:48:51.999Z</time></trkpt><trkpt lat="40.95570542705521" lon="14.78517746671911"><ele>493.3333333333333</ele><time>2026-05-03T11:48:52.999Z</time></trkpt><trkpt lat="40.955562753058885" lon="14.78521432175069"><ele>495.66666666666663</ele><time>2026-05-03T11:48:53.999Z</time></trkpt><trkpt lat="40.95537362193207" lon="14.785251393286496"><ele>498.0</ele><time>2026-05-03T11:48:54.999Z</time></trkpt><trkpt lat="40.9551841219817" lon="14.785313106533433"><ele>495.33333333333337</ele><time>2026-05-03T11:48:55.999Z</time></trkpt><trkpt lat="40.95499648711905" lon="14.785372478390592"><ele>492.6666666666667</ele><time>2026-05-03T11:48:56.999Z</time></trkpt><trkpt lat="40.95478922799483" lon="14.785446496739327"><ele>490.0</ele><time>2026-05-03T11:48:57.999Z</time></trkpt><trkpt lat="40.9545978194541" lon="14.785539226089092"><ele>490.0</ele><time>2026-05-03T11:48:58.999Z</time></trkpt><trkpt lat="40.95443984659271" lon="14.785645833247822"><ele>490.0</ele><time>2026-05-03T11:48:59.999Z</time></trkpt><trkpt lat="40.95427593443834" lon="14.785756864361343"><ele>490.0</ele><time>2026-05-03T11:49:00.999Z</time></trkpt><trkpt lat="40.954113321498276" lon="14.785880424546772"><ele>490.0</ele><time>2026-05-03T11:49:01.999Z</time></trkpt><trkpt lat="40.95395389639225" lon="14.786022879827845"><ele>490.0</ele><time>2026-05-03T11:49:02.999Z</time></trkpt><trkpt lat="40.953798228949275" lon="14.786180200591065"><ele>490.0</ele><time>2026-05-03T11:49:03.999Z</time></trkpt><trkpt lat="40.953634517210176" lon="14.786344045479847"><ele>490.0</ele><time>2026-05-03T11:49:04.999Z</time></trkpt><trkpt lat="40.95346138404947" lon="14.786506814093835"><ele>490.0</ele><time>2026-05-03T11:49:05.999Z</time></trkpt><trkpt lat="40.95328786421937" lon="14.78665775059482"><ele>490.0</ele><time>2026-05-03T11:49:06.999Z</time></trkpt><trkpt lat="40.9531232450577" lon="14.786799530173731"><ele>492.0</ele><time>2026-05-03T11:49:07.999Z</time></trkpt><trkpt lat="40.95297294080488" lon="14.786902473132796"><ele>494.0</ele><time>2026-05-03T11:49:08.999Z</time></trkpt><trkpt lat="40.95283813244057" lon="14.786986788989841"><ele>496.0</ele><time>2026-05-03T11:49:09.999Z</time></trkpt><trkpt lat="40.95270380885582" lon="14.787058384806803"><ele>496.0</ele><time>2026-05-03T11:49:10.999Z</time></trkpt><trkpt lat="40.9525773672196" lon="14.78714359422517"><ele>496.0</ele><time>2026-05-03T11:49:11.999Z</time></trkpt><trkpt lat="40.9524404470212" lon="14.787219129902565"><ele>496.0</ele><time>2026-05-03T11:49:12.999Z</time></trkpt><trkpt lat="40.952288300780516" lon="14.787299046776113"><ele>495.0</ele><time>2026-05-03T11:49:13.999Z</time></trkpt><trkpt lat="40.95214185853423" lon="14.787390988651735"><ele>494.0</ele><time>2026-05-03T11:49:14.999Z</time></trkpt><trkpt lat="40.95199251978862" lon="14.787484342869897"><ele>493.0</ele><time>2026-05-03T11:49:15.999Z</time></trkpt><trkpt lat="40.95185418246408" lon="14.787599139348615"><ele>493.0</ele><time>2026-05-03T11:49:16.999Z</time></trkpt><trkpt lat="40.95174117178192" lon="14.787708829672177"><ele>493.0</ele><time>2026-05-03T11:49:17.999Z</time></trkpt><trkpt lat="40.95164686791575" lon="14.787852273760413"><ele>493.0</ele><time>2026-05-03T11:49:18.999Z</time></trkpt><trkpt lat="40.9515745593579" lon="14.788009861054336"><ele>493.0</ele><time>2026-05-03T11:49:19.999Z</time></trkpt><trkpt lat="40.95153127661792" lon="14.78816708344283"><ele>491.75</ele><time>2026-05-03T11:49:20.999Z</time></trkpt><trkpt lat="40.951512164246324" lon="14.788298760077094"><ele>490.5</ele><time>2026-05-03T11:49:21.999Z</time></trkpt><trkpt lat="40.9514552749985" lon="14.788452303581986"><ele>489.25</ele><time>2026-05-03T11:49:23.999Z</time></trkpt><trkpt lat="40.951335760679065" lon="14.788487729455808"><ele>488.0</ele><time>2026-05-03T11:49:26.999Z</time></trkpt><trkpt lat="40.9512368604295" lon="14.788508481262133"><ele>487.49999999999994</ele><time>2026-05-03T11:49:27.999Z</time></trkpt><trkpt lat="40.95112455378482" lon="14.788510110004419"><ele>487.0</ele><time>2026-05-03T11:49:28.999Z</time></trkpt><trkpt lat="40.95101807769218" lon="14.788521029046807"><ele>486.5</ele><time>2026-05-03T11:49:29.999Z</time></trkpt><trkpt lat="40.950946708612975" lon="14.788559524666292"><ele>486.0</ele><time>2026-05-03T11:49:30.999Z</time></trkpt><trkpt lat="40.95089146114536" lon="14.788608706546334"><ele>485.49999999999994</ele><time>2026-05-03T11:49:31.999Z</time></trkpt><trkpt lat="40.95085283130075" lon="14.788709439130567"><ele>485.0</ele><time>2026-05-03T11:49:32.999Z</time></trkpt><trkpt lat="40.950843667374144" lon="14.788854086062658"><ele>483.6</ele><time>2026-05-03T11:49:33.999Z</time></trkpt><trkpt lat="40.95083291494174" lon="14.78900129881817"><ele>482.2</ele><time>2026-05-03T11:49:34.999Z</time></trkpt><trkpt lat="40.95082008271359" lon="14.78914482245775"><ele>480.79999999999995</ele><time>2026-05-03T11:49:35.999Z</time></trkpt><trkpt lat="40.95081302376427" lon="14.789242621087991"><ele>479.4</ele><time>2026-05-03T11:49:37.999Z</time></trkpt><trkpt lat="40.95081891710483" lon="14.7893813318828"><ele>478.0</ele><time>2026-05-03T11:49:40.999Z</time></trkpt><trkpt lat="40.95083926369725" lon="14.789522300972797"><ele>477.5</ele><time>2026-05-03T11:49:41.999Z</time></trkpt><trkpt lat="40.9508255830986" lon="14.789671113295574"><ele>477.0</ele><time>2026-05-03T11:49:42.999Z</time></trkpt><trkpt lat="40.950787178642706" lon="14.789832542614448"><ele>476.5</ele><time>2026-05-03T11:49:43.999Z</time></trkpt><trkpt lat="40.9507106171082" lon="14.78996782427021"><ele>476.0</ele><time>2026-05-03T11:49:44.999Z</time></trkpt><trkpt lat="40.95065086275491" lon="14.790156932510095"><ele>474.25</ele><time>2026-05-03T11:49:45.999Z</time></trkpt><trkpt lat="40.95058449290426" lon="14.790324980716226"><ele>472.5</ele><time>2026-05-03T11:49:46.999Z</time></trkpt><trkpt lat="40.95053286608357" lon="14.790502933253954"><ele>470.75</ele><time>2026-05-03T11:49:47.999Z</time></trkpt><trkpt lat="40.950493370179046" lon="14.790682140626592"><ele>469.0</ele><time>2026-05-03T11:49:48.999Z</time></trkpt><trkpt lat="40.95044664451406" lon="14.790850769417485"><ele>465.75</ele><time>2026-05-03T11:49:49.999Z</time></trkpt><trkpt lat="40.950391157599796" lon="14.79100906862632"><ele>462.5</ele><time>2026-05-03T11:49:50.999Z</time></trkpt><trkpt lat="40.95032755442943" lon="14.791157456126667"><ele>459.25</ele><time>2026-05-03T11:49:51.999Z</time></trkpt><trkpt lat="40.95026468448516" lon="14.791286191105518"><ele>456.0</ele><time>2026-05-03T11:49:52.999Z</time></trkpt><trkpt lat="40.95022233632508" lon="14.791380480935974"><ele>456.0</ele><time>2026-05-03T11:49:53.999Z</time></trkpt><trkpt lat="40.95016568485701" lon="14.791457009178941"><ele>456.0</ele><time>2026-05-03T11:49:54.999Z</time></trkpt><trkpt lat="40.95008053021738" lon="14.791495187314668"><ele>456.0</ele><time>2026-05-03T11:49:55.999Z</time></trkpt><trkpt lat="40.9500204761394" lon="14.791584524153267"><ele>456.0</ele><time>2026-05-03T11:49:56.999Z</time></trkpt><trkpt lat="40.94996695839403" lon="14.791696147431376"><ele>456.0</ele><time>2026-05-03T11:49:57.999Z</time></trkpt><trkpt lat="40.9499369087453" lon="14.791866358464945"><ele>453.25</ele><time>2026-05-03T11:49:58.999Z</time></trkpt><trkpt lat="40.94991754411847" lon="14.79203500629238"><ele>450.5</ele><time>2026-05-03T11:49:59.999Z</time></trkpt><trkpt lat="40.94989605526244" lon="14.79220265160775"><ele>447.75</ele><time>2026-05-03T11:50:00.999Z</time></trkpt><trkpt lat="40.94986373964603" lon="14.792364572455899"><ele>445.0</ele><time>2026-05-03T11:50:01.999Z</time></trkpt><trkpt lat="40.949835088097615" lon="14.792518623486577"><ele>441.75</ele><time>2026-05-03T11:50:02.999Z</time></trkpt><trkpt lat="40.94981350534626" lon="14.792674325318679"><ele>438.5</ele><time>2026-05-03T11:50:03.999Z</time></trkpt><trkpt lat="40.9497791233408" lon="14.792841167286342"><ele>435.25</ele><time>2026-05-03T11:50:04.999Z</time></trkpt><trkpt lat="40.9497395465966" lon="14.793012106653773"><ele>432.0</ele><time>2026-05-03T11:50:05.999Z</time></trkpt><trkpt lat="40.94970311823699" lon="14.793177135205946"><ele>432.0</ele><time>2026-05-03T11:50:06.999Z</time></trkpt><trkpt lat="40.949658264761965" lon="14.793337846820885"><ele>432.0</ele><time>2026-05-03T11:50:07.999Z</time></trkpt><trkpt lat="40.94961475824279" lon="14.79350298710598"><ele>432.0</ele><time>2026-05-03T11:50:08.999Z</time></trkpt><trkpt lat="40.949564313261185" lon="14.793671250002317"><ele>432.0</ele><time>2026-05-03T11:50:09.999Z</time></trkpt><trkpt lat="40.949514066455585" lon="14.793844923959622"><ele>428.25</ele><time>2026-05-03T11:50:10.999Z</time></trkpt><trkpt lat="40.94946943203294" lon="14.794005606936729"><ele>424.5</ele><time>2026-05-03T11:50:11.999Z</time></trkpt><trkpt lat="40.94943677906091" lon="14.794149675869845"><ele>420.75</ele><time>2026-05-03T11:50:12.999Z</time></trkpt><trkpt lat="40.94939816894919" lon="14.794273479413292"><ele>417.0</ele><time>2026-05-03T11:50:13.999Z</time></trkpt><trkpt lat="40.94932574545403" lon="14.794385347462272"><ele>414.0</ele><time>2026-05-03T11:50:14.999Z</time></trkpt><trkpt lat="40.949206732194995" lon="14.79442697744351"><ele>411.0</ele><time>2026-05-03T11:50:15.999Z</time></trkpt><trkpt lat="40.94909401127048" lon="14.794492584581265"><ele>408.0</ele><time>2026-05-03T11:50:16.999Z</time></trkpt><trkpt lat="40.94900089230365" lon="14.794555605768743"><ele>405.0</ele><time>2026-05-03T11:50:17.999Z</time></trkpt><trkpt lat="40.94893273421505" lon="14.794663011712284"><ele>405.0</ele><time>2026-05-03T11:50:18.999Z</time></trkpt><trkpt lat="40.94888447437468" lon="14.794802149744902"><ele>405.0</ele><time>2026-05-03T11:50:19.999Z</time></trkpt><trkpt lat="40.94884428752981" lon="14.79496724172724"><ele>405.0</ele><time>2026-05-03T11:50:20.999Z</time></trkpt><trkpt lat="40.94879686016246" lon="14.795104003852053"><ele>405.0</ele><time>2026-05-03T11:50:21.999Z</time></trkpt><trkpt lat="40.9487549567153" lon="14.795234529009477"><ele>402.0</ele><time>2026-05-03T11:50:22.999Z</time></trkpt><trkpt lat="40.94875082115038" lon="14.79537165437007"><ele>399.0</ele><time>2026-05-03T11:50:23.999Z</time></trkpt><trkpt lat="40.94876655135118" lon="14.795532392202428"><ele>396.0</ele><time>2026-05-03T11:50:24.999Z</time></trkpt><trkpt lat="40.948753063673635" lon="14.795715437803896"><ele>393.0</ele><time>2026-05-03T11:50:25.999Z</time></trkpt><trkpt lat="40.94876832092317" lon="14.795963313554452"><ele>390.25</ele><time>2026-05-03T11:50:26.999Z</time></trkpt><trkpt lat="40.94876976135324" lon="14.796135297443785"><ele>387.5</ele><time>2026-05-03T11:50:27.999Z</time></trkpt><trkpt lat="40.94874374752916" lon="14.796335703545216"><ele>384.75</ele><time>2026-05-03T11:50:28.999Z</time></trkpt><trkpt lat="40.94870458537148" lon="14.796542536804019"><ele>382.0</ele><time>2026-05-03T11:50:29.999Z</time></trkpt><trkpt lat="40.94864481405947" lon="14.796770985747926"><ele>380.20000000000005</ele><time>2026-05-03T11:50:30.999Z</time></trkpt><trkpt lat="40.948576769586126" lon="14.796928541478565"><ele>378.4</ele><time>2026-05-03T11:50:32.998Z</time></trkpt><trkpt lat="40.94853027714673" lon="14.797054651203991"><ele>376.6</ele><time>2026-05-03T11:50:33.999Z</time></trkpt><trkpt lat="40.94847323978461" lon="14.797153988559085"><ele>374.79999999999995</ele><time>2026-05-03T11:50:34.999Z</time></trkpt><trkpt lat="40.94842122760035" lon="14.797258519447313"><ele>373.0</ele><time>2026-05-03T11:50:35.999Z</time></trkpt><trkpt lat="40.94838338531323" lon="14.797369732815246"><ele>373.75</ele><time>2026-05-03T11:50:36.999Z</time></trkpt><trkpt lat="40.94831661869895" lon="14.797442837545749"><ele>374.5</ele><time>2026-05-03T11:50:37.999Z</time></trkpt><trkpt lat="40.94825946457022" lon="14.797512753747649"><ele>375.25</ele><time>2026-05-03T11:50:38.999Z</time></trkpt><trkpt lat="40.94821079284713" lon="14.79756656767064"><ele>376.0</ele><time>2026-05-03T11:50:39.999Z</time></trkpt><trkpt lat="40.948335678327986" lon="14.79781561416191"><ele>372.5</ele><time>2026-05-03T11:50:46Z</time></trkpt><trkpt lat="40.94842833235202" lon="14.797907780915594"><ele>369.0</ele><time>2026-05-03T11:50:47Z</time></trkpt><trkpt lat="40.94856698765781" lon="14.797973046554834"><ele>365.5</ele><time>2026-05-03T11:50:48Z</time></trkpt><trkpt lat="40.9487149764904" lon="14.798003707139904"><ele>362.0</ele><time>2026-05-03T11:50:49Z</time></trkpt><trkpt lat="40.9488547285247" lon="14.79798697756392"><ele>362.0</ele><time>2026-05-03T11:50:50Z</time></trkpt><trkpt lat="40.94898439776864" lon="14.797916719687523"><ele>362.0</ele><time>2026-05-03T11:50:51Z</time></trkpt><trkpt lat="40.949125889108565" lon="14.79778239423874"><ele>362.0</ele><time>2026-05-03T11:50:52Z</time></trkpt><trkpt lat="40.94926489691683" lon="14.797589400269395"><ele>363.25</ele><time>2026-05-03T11:50:53Z</time></trkpt><trkpt lat="40.94939245669611" lon="14.797409226868684"><ele>364.5</ele><time>2026-05-03T11:50:54Z</time></trkpt><trkpt lat="40.949509544194505" lon="14.797324810447993"><ele>365.75</ele><time>2026-05-03T11:50:55Z</time></trkpt><trkpt lat="40.949631625372945" lon="14.79728495703455"><ele>367.0</ele><time>2026-05-03T11:50:56Z</time></trkpt><trkpt lat="40.94976175549997" lon="14.797334155275543"><ele>367.0</ele><time>2026-05-03T11:50:57Z</time></trkpt><trkpt lat="40.949911912290204" lon="14.79740882526662"><ele>367.0</ele><time>2026-05-03T11:50:58Z</time></trkpt><trkpt lat="40.950092080406286" lon="14.797498719648981"><ele>367.0</ele><time>2026-05-03T11:50:59Z</time></trkpt><trkpt lat="40.950254631588415" lon="14.79761708738108"><ele>366.25</ele><time>2026-05-03T11:51:00Z</time></trkpt><trkpt lat="40.950373748881404" lon="14.797722823586396"><ele>365.5</ele><time>2026-05-03T11:51:01Z</time></trkpt><trkpt lat="40.95045522207163" lon="14.797834304738027"><ele>364.75</ele><time>2026-05-03T11:51:02Z</time></trkpt><trkpt lat="40.95049795401231" lon="14.797985272055652"><ele>364.0</ele><time>2026-05-03T11:51:03Z</time></trkpt><trkpt lat="40.950469298930024" lon="14.798125624946909"><ele>364.0</ele><time>2026-05-03T11:51:04Z</time></trkpt><trkpt lat="40.95040812799927" lon="14.798260323960626"><ele>364.0</ele><time>2026-05-03T11:51:05Z</time></trkpt><trkpt lat="40.95030956710396" lon="14.798380908802864"><ele>364.0</ele><time>2026-05-03T11:51:06Z</time></trkpt><trkpt lat="40.95021394213194" lon="14.79853055550827"><ele>364.0</ele><time>2026-05-03T11:51:07Z</time></trkpt><trkpt lat="40.95008722306411" lon="14.798672276711898"><ele>364.3333333333333</ele><time>2026-05-03T11:51:08Z</time></trkpt><trkpt lat="40.94996384355153" lon="14.798824150700835"><ele>364.6666666666667</ele><time>2026-05-03T11:51:09Z</time></trkpt><trkpt lat="40.949812864132184" lon="14.798953960823521"><ele>365.0</ele><time>2026-05-03T11:51:10Z</time></trkpt><trkpt lat="40.94965603617319" lon="14.799094976803005"><ele>365.0</ele><time>2026-05-03T11:51:11Z</time></trkpt><trkpt lat="40.949491113583015" lon="14.799218334551028"><ele>365.0</ele><time>2026-05-03T11:51:12Z</time></trkpt><trkpt lat="40.94929196647134" lon="14.799356992619819"><ele>365.0</ele><time>2026-05-03T11:51:13Z</time></trkpt><trkpt lat="40.94910363821543" lon="14.799488620923146"><ele>366.33333333333337</ele><time>2026-05-03T11:51:14Z</time></trkpt><trkpt lat="40.9489276251082" lon="14.799615843016825"><ele>367.6666666666667</ele><time>2026-05-03T11:51:15Z</time></trkpt><trkpt lat="40.94875732235947" lon="14.799739766942423"><ele>369.0</ele><time>2026-05-03T11:51:16Z</time></trkpt><trkpt lat="40.94861541327227" lon="14.799857148368657"><ele>369.0</ele><time>2026-05-03T11:51:17Z</time></trkpt><trkpt lat="40.948494050862024" lon="14.799998662991408"><ele>369.0</ele><time>2026-05-03T11:51:18Z</time></trkpt><trkpt lat="40.94838324047033" lon="14.8001799264232"><ele>369.0</ele><time>2026-05-03T11:51:19Z</time></trkpt><trkpt lat="40.94827652231407" lon="14.800385662098318"><ele>367.3333333333333</ele><time>2026-05-03T11:51:20Z</time></trkpt><trkpt lat="40.948133746675516" lon="14.80058178855388"><ele>365.66666666666663</ele><time>2026-05-03T11:51:20.999Z</time></trkpt><trkpt lat="40.94799702390876" lon="14.800770397306216"><ele>364.0</ele><time>2026-05-03T11:51:21.999Z</time></trkpt><trkpt lat="40.947872640418666" lon="14.800938957733086"><ele>362.75</ele><time>2026-05-03T11:51:22.999Z</time></trkpt><trkpt lat="40.947776259990555" lon="14.801103159999887"><ele>361.5</ele><time>2026-05-03T11:51:23.999Z</time></trkpt><trkpt lat="40.94768300240156" lon="14.801254907685895"><ele>360.25</ele><time>2026-05-03T11:51:24.999Z</time></trkpt><trkpt lat="40.94760261579695" lon="14.801390697333693"><ele>359.0</ele><time>2026-05-03T11:51:25.999Z</time></trkpt><trkpt lat="40.94754627997396" lon="14.801529770955097"><ele>358.0</ele><time>2026-05-03T11:51:26.999Z</time></trkpt><trkpt lat="40.9475224286262" lon="14.80167226827926"><ele>357.0</ele><time>2026-05-03T11:51:27.999Z</time></trkpt><trkpt lat="40.947519822072344" lon="14.801834282319414"><ele>356.0</ele><time>2026-05-03T11:51:28.999Z</time></trkpt><trkpt lat="40.947527325117434" lon="14.801995175045493"><ele>355.0</ele><time>2026-05-03T11:51:29.999Z</time></trkpt><trkpt lat="40.94755772921484" lon="14.802257165866823"><ele>354.8</ele><time>2026-05-03T11:51:31.999Z</time></trkpt><trkpt lat="40.94756868998272" lon="14.802358718540084"><ele>354.6</ele><time>2026-05-03T11:51:32.999Z</time></trkpt><trkpt lat="40.94757862527105" lon="14.802455940360339"><ele>354.4</ele><time>2026-05-03T11:51:33.999Z</time></trkpt><trkpt lat="40.947456529752124" lon="14.80257155032499"><ele>354.2</ele><time>2026-05-03T11:51:34.999Z</time></trkpt><trkpt lat="40.94738536768229" lon="14.802676071181875"><ele>354.0</ele><time>2026-05-03T11:51:35.999Z</time></trkpt><trkpt lat="40.94729479626094" lon="14.802779663234883"><ele>351.3333333333333</ele><time>2026-05-03T11:51:36.999Z</time></trkpt><trkpt lat="40.947181131104315" lon="14.802892589141154"><ele>348.66666666666663</ele><time>2026-05-03T11:51:37.999Z</time></trkpt><trkpt lat="40.94705601766435" lon="14.80300869514651"><ele>346.0</ele><time>2026-05-03T11:51:38.999Z</time></trkpt><trkpt lat="40.94691497059479" lon="14.803113603272227"><ele>346.0</ele><time>2026-05-03T11:51:39.999Z</time></trkpt><trkpt lat="40.94676714777267" lon="14.803211330550397"><ele>346.0</ele><time>2026-05-03T11:51:40.999Z</time></trkpt><trkpt lat="40.94661176812894" lon="14.803316242146607"><ele>346.0</ele><time>2026-05-03T11:51:41.999Z</time></trkpt><trkpt lat="40.94647553148922" lon="14.803410583659257"><ele>343.0</ele><time>2026-05-03T11:51:42.999Z</time></trkpt><trkpt lat="40.94634057456809" lon="14.803498669062952"><ele>340.0</ele><time>2026-05-03T11:51:43.999Z</time></trkpt><trkpt lat="40.946212799037816" lon="14.803593964120845"><ele>337.0</ele><time>2026-05-03T11:51:44.999Z</time></trkpt><trkpt lat="40.94608706165816" lon="14.803720628552988"><ele>337.0</ele><time>2026-05-03T11:51:45.999Z</time></trkpt><trkpt lat="40.945968471988195" lon="14.803882870739887"><ele>337.0</ele><time>2026-05-03T11:51:46.999Z</time></trkpt><trkpt lat="40.9458663102207" lon="14.8040714668665"><ele>337.0</ele><time>2026-05-03T11:51:47.999Z</time></trkpt><trkpt lat="40.945769523146254" lon="14.804255679941404"><ele>334.0</ele><time>2026-05-03T11:51:48.999Z</time></trkpt><trkpt lat="40.94566809387281" lon="14.804427524875315"><ele>331.0</ele><time>2026-05-03T11:51:49.999Z</time></trkpt><trkpt lat="40.945573973481594" lon="14.804587912036707"><ele>328.0</ele><time>2026-05-03T11:51:50.999Z</time></trkpt><trkpt lat="40.94548498189441" lon="14.804745875358059"><ele>328.0</ele><time>2026-05-03T11:51:51.999Z</time></trkpt><trkpt lat="40.94540309977836" lon="14.804903494345083"><ele>328.0</ele><time>2026-05-03T11:51:52.999Z</time></trkpt><trkpt lat="40.94530822693705" lon="14.805024733342705"><ele>328.0</ele><time>2026-05-03T11:51:53.999Z</time></trkpt><trkpt lat="40.94518450944134" lon="14.80503517002176"><ele>328.0</ele><time>2026-05-03T11:51:54.999Z</time></trkpt><trkpt lat="40.945035841939394" lon="14.80503766208496"><ele>328.0</ele><time>2026-05-03T11:51:55.999Z</time></trkpt><trkpt lat="40.94486529274728" lon="14.805037629878234"><ele>328.0</ele><time>2026-05-03T11:51:56.999Z</time></trkpt><trkpt lat="40.94468378760305" lon="14.805013736319298"><ele>328.0</ele><time>2026-05-03T11:51:57.999Z</time></trkpt><trkpt lat="40.94452716048769" lon="14.805026275353862"><ele>328.0</ele><time>2026-05-03T11:51:58.999Z</time></trkpt><trkpt lat="40.944393446028876" lon="14.805043654770063"><ele>328.0</ele><time>2026-05-03T11:51:59.999Z</time></trkpt><trkpt lat="40.94428952813165" lon="14.805113016295149"><ele>328.0</ele><time>2026-05-03T11:52:00.999Z</time></trkpt><trkpt lat="40.94421625056832" lon="14.805250571541597"><ele>328.0</ele><time>2026-05-03T11:52:01.999Z</time></trkpt><trkpt lat="40.94417864444578" lon="14.805450720687114"><ele>326.3333333333333</ele><time>2026-05-03T11:52:02.999Z</time></trkpt><trkpt lat="40.94415472904721" lon="14.80567851293161"><ele>324.6666666666667</ele><time>2026-05-03T11:52:03.999Z</time></trkpt><trkpt lat="40.9441196762069" lon="14.805908514860134"><ele>323.0</ele><time>2026-05-03T11:52:04.999Z</time></trkpt><trkpt lat="40.94407653867453" lon="14.80610546325243"><ele>322.5</ele><time>2026-05-03T11:52:05.999Z</time></trkpt><trkpt lat="40.94403542116911" lon="14.806268895349353"><ele>322.0</ele><time>2026-05-03T11:52:06.999Z</time></trkpt><trkpt lat="40.9440062190235" lon="14.806398753148184"><ele>321.5</ele><time>2026-05-03T11:52:07.999Z</time></trkpt><trkpt lat="40.94394667225652" lon="14.806509641298511"><ele>321.0</ele><time>2026-05-03T11:52:08.999Z</time></trkpt><trkpt lat="40.94381137310397" lon="14.806535437108396"><ele>321.0</ele><time>2026-05-03T11:52:09.999Z</time></trkpt><trkpt lat="40.94367907720485" lon="14.806633487513922"><ele>321.0</ele><time>2026-05-03T11:52:10.999Z</time></trkpt><trkpt lat="40.943510746618564" lon="14.806668855148377"><ele>321.0</ele><time>2026-05-03T11:52:11.999Z</time></trkpt><trkpt lat="40.9433397557854" lon="14.806690303626127"><ele>319.3333333333333</ele><time>2026-05-03T11:52:12.999Z</time></trkpt><trkpt lat="40.94315512611479" lon="14.806701815697926"><ele>317.66666666666663</ele><time>2026-05-03T11:52:13.999Z</time></trkpt><trkpt lat="40.942963950592414" lon="14.806726061201534"><ele>316.0</ele><time>2026-05-03T11:52:14.999Z</time></trkpt><trkpt lat="40.94279614299552" lon="14.806737506731922"><ele>316.0</ele><time>2026-05-03T11:52:15.999Z</time></trkpt><trkpt lat="40.94264480228993" lon="14.806768057357031"><ele>316.0</ele><time>2026-05-03T11:52:16.999Z</time></trkpt><trkpt lat="40.94250133364476" lon="14.806854362712738"><ele>316.0</ele><time>2026-05-03T11:52:17.999Z</time></trkpt><trkpt lat="40.94235786066183" lon="14.80698147691367"><ele>315.66666666666663</ele><time>2026-05-03T11:52:18.999Z</time></trkpt><trkpt lat="40.942222858543666" lon="14.807136851184968"><ele>315.3333333333333</ele><time>2026-05-03T11:52:19.999Z</time></trkpt><trkpt lat="40.94212055891206" lon="14.80729580369244"><ele>315.0</ele><time>2026-05-03T11:52:20.999Z</time></trkpt><trkpt lat="40.942031363596065" lon="14.807481119829276"><ele>314.6666666666667</ele><time>2026-05-03T11:52:21.999Z</time></trkpt><trkpt lat="40.94197138464038" lon="14.807706941740845"><ele>314.33333333333337</ele><time>2026-05-03T11:52:22.999Z</time></trkpt><trkpt lat="40.94191990659374" lon="14.807960256904318"><ele>314.0</ele><time>2026-05-03T11:52:23.999Z</time></trkpt><trkpt lat="40.941889408047494" lon="14.808234245913793"><ele>314.0</ele><time>2026-05-03T11:52:24.999Z</time></trkpt><trkpt lat="40.94184181100982" lon="14.808469992061925"><ele>314.0</ele><time>2026-05-03T11:52:25.999Z</time></trkpt><trkpt lat="40.94177449825739" lon="14.808701763972241"><ele>314.0</ele><time>2026-05-03T11:52:26.999Z</time></trkpt><trkpt lat="40.941694236981235" lon="14.808933378066593"><ele>311.6666666666667</ele><time>2026-05-03T11:52:27.999Z</time></trkpt><trkpt lat="40.94161597072941" lon="14.809139425106908"><ele>309.3333333333333</ele><time>2026-05-03T11:52:28.999Z</time></trkpt><trkpt lat="40.94153964149171" lon="14.809335954113845"><ele>307.0</ele><time>2026-05-03T11:52:29.999Z</time></trkpt><trkpt lat="40.941470816089755" lon="14.809517364771935"><ele>306.6</ele><time>2026-05-03T11:52:30.999Z</time></trkpt><trkpt lat="40.94141029873004" lon="14.80967092940385"><ele>306.2</ele><time>2026-05-03T11:52:31.999Z</time></trkpt><trkpt lat="40.94133426216358" lon="14.809761642709045"><ele>305.8</ele><time>2026-05-03T11:52:32.999Z</time></trkpt><trkpt lat="40.94124001444122" lon="14.809803669375196"><ele>305.4</ele><time>2026-05-03T11:52:33.999Z</time></trkpt><trkpt lat="40.94113371714068" lon="14.809812937065656"><ele>305.0</ele><time>2026-05-03T11:52:34.999Z</time></trkpt><trkpt lat="40.94100418898948" lon="14.809854874833006"><ele>304.6666666666667</ele><time>2026-05-03T11:52:35.999Z</time></trkpt><trkpt lat="40.940856360906835" lon="14.809926255342695"><ele>304.3333333333333</ele><time>2026-05-03T11:52:36.999Z</time></trkpt><trkpt lat="40.9406963092284" lon="14.810027413698682"><ele>304.0</ele><time>2026-05-03T11:52:37.999Z</time></trkpt><trkpt lat="40.9405274656127" lon="14.810186007804333"><ele>305.0</ele><time>2026-05-03T11:52:38.999Z</time></trkpt><trkpt lat="40.94035762666577" lon="14.81037012276311"><ele>306.0</ele><time>2026-05-03T11:52:40Z</time></trkpt><trkpt lat="40.94018630219" lon="14.81053776862924"><ele>307.0</ele><time>2026-05-03T11:52:41Z</time></trkpt><trkpt lat="40.93999797231904" lon="14.81068473587867"><ele>308.3333333333333</ele><time>2026-05-03T11:52:42Z</time></trkpt><trkpt lat="40.939838968973994" lon="14.81081511204104"><ele>309.6666666666667</ele><time>2026-05-03T11:52:43Z</time></trkpt><trkpt lat="40.939714853922396" lon="14.81095783940968"><ele>311.0</ele><time>2026-05-03T11:52:44Z</time></trkpt><trkpt lat="40.939617984137584" lon="14.811136973915316"><ele>311.0</ele><time>2026-05-03T11:52:45Z</time></trkpt><trkpt lat="40.93955425671762" lon="14.811360434224268"><ele>311.0</ele><time>2026-05-03T11:52:46Z</time></trkpt><trkpt lat="40.93951783212359" lon="14.811615645974321"><ele>311.0</ele><time>2026-05-03T11:52:47Z</time></trkpt><trkpt lat="40.93946477768021" lon="14.811900536497326"><ele>310.0</ele><time>2026-05-03T11:52:48Z</time></trkpt><trkpt lat="40.93939548534525" lon="14.812228256932746"><ele>309.0</ele><time>2026-05-03T11:52:49Z</time></trkpt><trkpt lat="40.93930363401379" lon="14.812562822880077"><ele>308.6666666666667</ele><time>2026-05-03T11:52:50Z</time></trkpt><trkpt lat="40.93924130262262" lon="14.812860638411149"><ele>308.33333333333337</ele><time>2026-05-03T11:52:51Z</time></trkpt><trkpt lat="40.939187286550194" lon="14.813129899098971"><ele>308.0</ele><time>2026-05-03T11:52:52Z</time></trkpt><trkpt lat="40.939131021302515" lon="14.813349396755259"><ele>310.0</ele><time>2026-05-03T11:52:53Z</time></trkpt><trkpt lat="40.93906481240231" lon="14.813540919734258"><ele>312.0</ele><time>2026-05-03T11:52:54Z</time></trkpt><trkpt lat="40.93898294597712" lon="14.81371882786568"><ele>314.0</ele><time>2026-05-03T11:52:55Z</time></trkpt><trkpt lat="40.938866356581336" lon="14.813857903258329"><ele>314.0</ele><time>2026-05-03T11:52:56Z</time></trkpt><trkpt lat="40.93874912072575" lon="14.813967325715288"><ele>314.0</ele><time>2026-05-03T11:52:57Z</time></trkpt><trkpt lat="40.93861865293089" lon="14.814040409625516"><ele>314.0</ele><time>2026-05-03T11:52:58Z</time></trkpt><trkpt lat="40.9385114548275" lon="14.814079554811928"><ele>314.0</ele><time>2026-05-03T11:52:59Z</time></trkpt><trkpt lat="40.93842595063023" lon="14.814126886962406"><ele>314.75</ele><time>2026-05-03T11:53:00Z</time></trkpt><trkpt lat="40.93834921888085" lon="14.814213861134798"><ele>315.5</ele><time>2026-05-03T11:53:01Z</time></trkpt><trkpt lat="40.93825523102264" lon="14.81434485358947"><ele>316.25</ele><time>2026-05-03T11:53:02Z</time></trkpt><trkpt lat="40.93813791267475" lon="14.814480859519836"><ele>317.0</ele><time>2026-05-03T11:53:03Z</time></trkpt><trkpt lat="40.93802018838993" lon="14.814582557816056"><ele>317.25</ele><time>2026-05-03T11:53:04Z</time></trkpt><trkpt lat="40.937911253152286" lon="14.814680206401222"><ele>317.5</ele><time>2026-05-03T11:53:05Z</time></trkpt><trkpt lat="40.93779462002737" lon="14.814797471764825"><ele>317.75</ele><time>2026-05-03T11:53:06Z</time></trkpt><trkpt lat="40.937663857509726" lon="14.814899864007925"><ele>318.0</ele><time>2026-05-03T11:53:07Z</time></trkpt><trkpt lat="40.9375196383422" lon="14.81499691197734"><ele>317.0</ele><time>2026-05-03T11:53:08Z</time></trkpt><trkpt lat="40.93735667984254" lon="14.81509169363687"><ele>316.0</ele><time>2026-05-03T11:53:09Z</time></trkpt><trkpt lat="40.93716329767535" lon="14.815196828468196"><ele>315.0</ele><time>2026-05-03T11:53:10Z</time></trkpt><trkpt lat="40.9369956583193" lon="14.815293351363682"><ele>315.0</ele><time>2026-05-03T11:53:11Z</time></trkpt><trkpt lat="40.93684159055065" lon="14.81538308715625"><ele>315.0</ele><time>2026-05-03T11:53:12Z</time></trkpt><trkpt lat="40.93668574781196" lon="14.815465335889565"><ele>315.0</ele><time>2026-05-03T11:53:13Z</time></trkpt><trkpt lat="40.93653977358623" lon="14.815548705184478"><ele>312.8</ele><time>2026-05-03T11:53:14Z</time></trkpt><trkpt lat="40.93640958123473" lon="14.815612959607634"><ele>310.6</ele><time>2026-05-03T11:53:15Z</time></trkpt><trkpt lat="40.936296635950164" lon="14.815671842401953"><ele>308.4</ele><time>2026-05-03T11:53:16Z</time></trkpt><trkpt lat="40.93620215146498" lon="14.81572783314523"><ele>306.2</ele><time>2026-05-03T11:53:17Z</time></trkpt><trkpt lat="40.936144209711316" lon="14.815787421584123"><ele>304.0</ele><time>2026-05-03T11:53:18Z</time></trkpt><trkpt lat="40.93618945629231" lon="14.816090993462986"><ele>303.5</ele><time>2026-05-03T11:53:21Z</time></trkpt><trkpt lat="40.93626769224159" lon="14.816227037715906"><ele>303.0</ele><time>2026-05-03T11:53:22Z</time></trkpt><trkpt lat="40.93635544905338" lon="14.816403713546768"><ele>302.5</ele><time>2026-05-03T11:53:23Z</time></trkpt><trkpt lat="40.93644069262343" lon="14.816580908698302"><ele>302.0</ele><time>2026-05-03T11:53:24Z</time></trkpt><trkpt lat="40.93652881057055" lon="14.816774451732826"><ele>301.6666666666667</ele><time>2026-05-03T11:53:25Z</time></trkpt><trkpt lat="40.936624297394154" lon="14.81698091146555"><ele>301.3333333333333</ele><time>2026-05-03T11:53:26Z</time></trkpt><trkpt lat="40.93672214648771" lon="14.817188628930596"><ele>301.0</ele><time>2026-05-03T11:53:27Z</time></trkpt><trkpt lat="40.9368289507761" lon="14.817424512011344"><ele>302.0</ele><time>2026-05-03T11:53:28Z</time></trkpt><trkpt lat="40.93693278440185" lon="14.817669415772707"><ele>303.0</ele><time>2026-05-03T11:53:29Z</time></trkpt><trkpt lat="40.93704196912956" lon="14.817917910196533"><ele>304.0</ele><time>2026-05-03T11:53:30Z</time></trkpt><trkpt lat="40.93715162418695" lon="14.81816704437664"><ele>304.0</ele><time>2026-05-03T11:53:31Z</time></trkpt><trkpt lat="40.937266164423974" lon="14.81842702204188"><ele>304.0</ele><time>2026-05-03T11:53:32Z</time></trkpt><trkpt lat="40.937376351650286" lon="14.818662944518112"><ele>304.0</ele><time>2026-05-03T11:53:33Z</time></trkpt><trkpt lat="40.937482437527464" lon="14.818875495604898"><ele>303.66666666666663</ele><time>2026-05-03T11:53:34Z</time></trkpt><trkpt lat="40.93760887377541" lon="14.819075105176402"><ele>303.3333333333333</ele><time>2026-05-03T11:53:35Z</time></trkpt><trkpt lat="40.93775601305199" lon="14.819263494956367"><ele>303.0</ele><time>2026-05-03T11:53:36Z</time></trkpt><trkpt lat="40.937915001872504" lon="14.819447002184525"><ele>302.3333333333333</ele><time>2026-05-03T11:53:37Z</time></trkpt><trkpt lat="40.93807151651115" lon="14.819603194098752"><ele>301.66666666666663</ele><time>2026-05-03T11:53:38Z</time></trkpt><trkpt lat="40.938218135806494" lon="14.81974199799824"><ele>301.0</ele><time>2026-05-03T11:53:39Z</time></trkpt><trkpt lat="40.9383372610023" lon="14.819879877300417"><ele>301.25</ele><time>2026-05-03T11:53:40Z</time></trkpt><trkpt lat="40.93842785648296" lon="14.820040474824054"><ele>301.5</ele><time>2026-05-03T11:53:41Z</time></trkpt><trkpt lat="40.93849576659229" lon="14.820206306426225"><ele>301.75</ele><time>2026-05-03T11:53:42Z</time></trkpt><trkpt lat="40.93853844030801" lon="14.820371478049726"><ele>302.0</ele><time>2026-05-03T11:53:43Z</time></trkpt><trkpt lat="40.93855960471028" lon="14.820521712326055"><ele>301.5</ele><time>2026-05-03T11:53:44Z</time></trkpt><trkpt lat="40.93854317270885" lon="14.820737751359205"><ele>301.0</ele><time>2026-05-03T11:53:46Z</time></trkpt><trkpt lat="40.93852439873309" lon="14.820824319125446"><ele>300.5</ele><time>2026-05-03T11:53:47Z</time></trkpt><trkpt lat="40.93854334809366" lon="14.820959397216324"><ele>300.0</ele><time>2026-05-03T11:53:48Z</time></trkpt><trkpt lat="40.93857878955236" lon="14.821149735390852"><ele>299.0</ele><time>2026-05-03T11:53:49Z</time></trkpt><trkpt lat="40.938589783830125" lon="14.821363398097818"><ele>298.0</ele><time>2026-05-03T11:53:50Z</time></trkpt><trkpt lat="40.93858532000627" lon="14.821592102913183"><ele>297.0</ele><time>2026-05-03T11:53:51Z</time></trkpt><trkpt lat="40.938582223230206" lon="14.821839832108415"><ele>296.3333333333333</ele><time>2026-05-03T11:53:52Z</time></trkpt><trkpt lat="40.93857822259366" lon="14.822098273163164"><ele>295.66666666666663</ele><time>2026-05-03T11:53:52.999Z</time></trkpt><trkpt lat="40.93857111314335" lon="14.822363292837057"><ele>295.0</ele><time>2026-05-03T11:53:53.999Z</time></trkpt><trkpt lat="40.93856395968319" lon="14.822632361859515"><ele>294.3333333333333</ele><time>2026-05-03T11:53:54.999Z</time></trkpt><trkpt lat="40.93855701664036" lon="14.822912827628317"><ele>293.6666666666667</ele><time>2026-05-03T11:53:55.999Z</time></trkpt><trkpt lat="40.9385564617682" lon="14.8231680220531"><ele>293.0</ele><time>2026-05-03T11:53:56.999Z</time></trkpt><trkpt lat="40.938561520768914" lon="14.823424984081674"><ele>292.6666666666667</ele><time>2026-05-03T11:53:57.999Z</time></trkpt><trkpt lat="40.938553025771" lon="14.82365496010541"><ele>292.3333333333333</ele><time>2026-05-03T11:53:58.999Z</time></trkpt><trkpt lat="40.93855191026574" lon="14.823885755082632"><ele>292.0</ele><time>2026-05-03T11:53:59.999Z</time></trkpt><trkpt lat="40.938549295335655" lon="14.824106968302267"><ele>291.66666666666663</ele><time>2026-05-03T11:54:00.999Z</time></trkpt><trkpt lat="40.9385485429257" lon="14.824314289686063"><ele>291.3333333333333</ele><time>2026-05-03T11:54:01.999Z</time></trkpt><trkpt lat="40.93854816224479" lon="14.824517689077098"><ele>291.0</ele><time>2026-05-03T11:54:02.999Z</time></trkpt><trkpt lat="40.93854537944863" lon="14.824727108286744"><ele>291.0</ele><time>2026-05-03T11:54:03.999Z</time></trkpt><trkpt lat="40.93853952649263" lon="14.824924175095237"><ele>291.0</ele><time>2026-05-03T11:54:04.999Z</time></trkpt><trkpt lat="40.93853423963718" lon="14.825103737482825"><ele>291.0</ele><time>2026-05-03T11:54:05.999Z</time></trkpt><trkpt lat="40.93853235777815" lon="14.825258811454063"><ele>291.0</ele><time>2026-05-03T11:54:06.999Z</time></trkpt><trkpt lat="40.93852979801063" lon="14.8253892822947"><ele>290.40000000000003</ele><time>2026-05-03T11:54:07.999Z</time></trkpt><trkpt lat="40.93852476215241" lon="14.82550896687458"><ele>289.8</ele><time>2026-05-03T11:54:08.999Z</time></trkpt><trkpt lat="40.938522780634294" lon="14.825598049599549"><ele>289.20000000000005</ele><time>2026-05-03T11:54:09.999Z</time></trkpt><trkpt lat="40.938514163955" lon="14.82574907869366"><ele>288.6</ele><time>2026-05-03T11:54:11.999Z</time></trkpt><trkpt lat="40.938501210169605" lon="14.825878246416018"><ele>288.0</ele><time>2026-05-03T11:54:13.999Z</time></trkpt><trkpt lat="40.9384949673018" lon="14.82600769500675"><ele>287.25</ele><time>2026-05-03T11:54:15.999Z</time></trkpt><trkpt lat="40.93851829110197" lon="14.826199620020626"><ele>286.5</ele><time>2026-05-03T11:54:17.999Z</time></trkpt><trkpt lat="40.938529684527325" lon="14.826335628219118"><ele>285.75</ele><time>2026-05-03T11:54:18.999Z</time></trkpt><trkpt lat="40.9385399753639" lon="14.826499448199757"><ele>285.0</ele><time>2026-05-03T11:54:19.999Z</time></trkpt><trkpt lat="40.93854866869739" lon="14.826664865415674"><ele>284.6666666666667</ele><time>2026-05-03T11:54:20.999Z</time></trkpt><trkpt lat="40.93854077100767" lon="14.82685417762607"><ele>284.33333333333337</ele><time>2026-05-03T11:54:21.999Z</time></trkpt><trkpt lat="40.93854335938909" lon="14.82707516763274"><ele>284.0</ele><time>2026-05-03T11:54:22.999Z</time></trkpt><trkpt lat="40.93852084684085" lon="14.82729846177912"><ele>284.0</ele><time>2026-05-03T11:54:23.999Z</time></trkpt><trkpt lat="40.93848229361611" lon="14.82753202769606"><ele>284.0</ele><time>2026-05-03T11:54:24.999Z</time></trkpt><trkpt lat="40.938441965480294" lon="14.827796195070384"><ele>284.0</ele><time>2026-05-03T11:54:25.999Z</time></trkpt><trkpt lat="40.93838526665849" lon="14.82806301189577"><ele>282.0</ele><time>2026-05-03T11:54:26.999Z</time></trkpt><trkpt lat="40.93831810558181" lon="14.82834728560234"><ele>280.0</ele><time>2026-05-03T11:54:27.999Z</time></trkpt><trkpt lat="40.938227635353414" lon="14.82862373849261"><ele>280.0</ele><time>2026-05-03T11:54:28.999Z</time></trkpt><trkpt lat="40.93812313127875" lon="14.828901212581696"><ele>280.0</ele><time>2026-05-03T11:54:29.999Z</time></trkpt><trkpt lat="40.93800545911162" lon="14.82916219310264"><ele>280.66666666666663</ele><time>2026-05-03T11:54:30.999Z</time></trkpt><trkpt lat="40.937881421921254" lon="14.829394948382209"><ele>281.3333333333333</ele><time>2026-05-03T11:54:31.999Z</time></trkpt><trkpt lat="40.9377468288229" lon="14.829602352647694"><ele>282.0</ele><time>2026-05-03T11:54:32.999Z</time></trkpt><trkpt lat="40.93761396462232" lon="14.82979388773433"><ele>282.6666666666667</ele><time>2026-05-03T11:54:33.999Z</time></trkpt><trkpt lat="40.937468556043946" lon="14.82998107380908"><ele>283.33333333333337</ele><time>2026-05-03T11:54:34.999Z</time></trkpt><trkpt lat="40.93730939613855" lon="14.8301691719258"><ele>284.0</ele><time>2026-05-03T11:54:35.999Z</time></trkpt><trkpt lat="40.93713422981511" lon="14.830350434685016"><ele>286.0</ele><time>2026-05-03T11:54:36.999Z</time></trkpt><trkpt lat="40.93695876065299" lon="14.830527646445134"><ele>288.0</ele><time>2026-05-03T11:54:37.999Z</time></trkpt><trkpt lat="40.93677535128136" lon="14.830710212601568"><ele>289.5</ele><time>2026-05-03T11:54:38.999Z</time></trkpt><trkpt lat="40.93659084720069" lon="14.830889698766065"><ele>291.0</ele><time>2026-05-03T11:54:39.999Z</time></trkpt><trkpt lat="40.93640890344719" lon="14.831077796743314"><ele>292.0</ele><time>2026-05-03T11:54:40.999Z</time></trkpt><trkpt lat="40.936224772459305" lon="14.83126767131409"><ele>293.0</ele><time>2026-05-03T11:54:41.999Z</time></trkpt><trkpt lat="40.93603895560917" lon="14.831458012078715"><ele>294.0</ele><time>2026-05-03T11:54:42.999Z</time></trkpt><trkpt lat="40.935855278085434" lon="14.831642404458735"><ele>295.0</ele><time>2026-05-03T11:54:43.999Z</time></trkpt><trkpt lat="40.93568068678255" lon="14.831826374873515"><ele>297.3333333333333</ele><time>2026-05-03T11:54:44.999Z</time></trkpt><trkpt lat="40.93550931186896" lon="14.83198315091358"><ele>299.6666666666667</ele><time>2026-05-03T11:54:46Z</time></trkpt><trkpt lat="40.93532172730171" lon="14.832122032299035"><ele>302.0</ele><time>2026-05-03T11:54:47Z</time></trkpt><trkpt lat="40.93512611249816" lon="14.832226308435121"><ele>303.33333333333337</ele><time>2026-05-03T11:54:48Z</time></trkpt><trkpt lat="40.934919406256014" lon="14.832308590926655"><ele>304.6666666666667</ele><time>2026-05-03T11:54:49Z</time></trkpt><trkpt lat="40.93470428499319" lon="14.83235096568976"><ele>306.0</ele><time>2026-05-03T11:54:50Z</time></trkpt><trkpt lat="40.93447938388773" lon="14.832364778684939"><ele>306.0</ele><time>2026-05-03T11:54:51Z</time></trkpt><trkpt lat="40.93423690509663" lon="14.832334587768313"><ele>306.0</ele><time>2026-05-03T11:54:52Z</time></trkpt><trkpt lat="40.933993005687746" lon="14.832285286269872"><ele>305.5</ele><time>2026-05-03T11:54:53Z</time></trkpt><trkpt lat="40.933737139848404" lon="14.832216243768336"><ele>305.0</ele><time>2026-05-03T11:54:54Z</time></trkpt><trkpt lat="40.93347547944136" lon="14.832163801872763"><ele>306.0</ele><time>2026-05-03T11:54:55Z</time></trkpt><trkpt lat="40.933222424374335" lon="14.832135001279077"><ele>307.0</ele><time>2026-05-03T11:54:56Z</time></trkpt><trkpt lat="40.93296589127075" lon="14.832125410578522"><ele>307.0</ele><time>2026-05-03T11:54:57Z</time></trkpt><trkpt lat="40.93272129942515" lon="14.83215246426856"><ele>307.0</ele><time>2026-05-03T11:54:58Z</time></trkpt><trkpt lat="40.93248156133" lon="14.832191730700877"><ele>307.0</ele><time>2026-05-03T11:54:59Z</time></trkpt><trkpt lat="40.93224054998161" lon="14.832251059790892"><ele>307.0</ele><time>2026-05-03T11:55:00Z</time></trkpt><trkpt lat="40.93200094632964" lon="14.832334095661182"><ele>307.0</ele><time>2026-05-03T11:55:01Z</time></trkpt><trkpt lat="40.93176993300262" lon="14.832438750147933"><ele>307.0</ele><time>2026-05-03T11:55:02Z</time></trkpt><trkpt lat="40.93152246059518" lon="14.832567298126524"><ele>312.5</ele><time>2026-05-03T11:55:03Z</time></trkpt><trkpt lat="40.93129414964224" lon="14.832702724108186"><ele>318.0</ele><time>2026-05-03T11:55:04Z</time></trkpt><trkpt lat="40.93105749989218" lon="14.832833325283492"><ele>317.0</ele><time>2026-05-03T11:55:05Z</time></trkpt><trkpt lat="40.93081719458053" lon="14.832951894080411"><ele>316.0</ele><time>2026-05-03T11:55:06Z</time></trkpt><trkpt lat="40.930578419776786" lon="14.83308186572675"><ele>316.0</ele><time>2026-05-03T11:55:07Z</time></trkpt><trkpt lat="40.93034192546626" lon="14.833207886197505"><ele>316.0</ele><time>2026-05-03T11:55:08Z</time></trkpt><trkpt lat="40.93009985742557" lon="14.83333003590974"><ele>315.5</ele><time>2026-05-03T11:55:09Z</time></trkpt><trkpt lat="40.929863283645595" lon="14.833457448605987"><ele>315.0</ele><time>2026-05-03T11:55:10Z</time></trkpt><trkpt lat="40.92962943295425" lon="14.83358718950158"><ele>322.0</ele><time>2026-05-03T11:55:11Z</time></trkpt><trkpt lat="40.92939316737487" lon="14.833713691246402"><ele>329.0</ele><time>2026-05-03T11:55:12Z</time></trkpt><trkpt lat="40.92915533903808" lon="14.83383248161686"><ele>329.0</ele><time>2026-05-03T11:55:13Z</time></trkpt><trkpt lat="40.9289230764298" lon="14.833957126639962"><ele>329.0</ele><time>2026-05-03T11:55:14Z</time></trkpt><trkpt lat="40.92870080723795" lon="14.83407938961501"><ele>329.0</ele><time>2026-05-03T11:55:15Z</time></trkpt><trkpt lat="40.92848313649832" lon="14.834205604693956"><ele>329.0</ele><time>2026-05-03T11:55:16Z</time></trkpt><trkpt lat="40.92826738702311" lon="14.834375661156427"><ele>331.0</ele><time>2026-05-03T11:55:17Z</time></trkpt><trkpt lat="40.928059803096474" lon="14.834569213689361"><ele>333.0</ele><time>2026-05-03T11:55:18Z</time></trkpt><trkpt lat="40.92786758759319" lon="14.83479208681053"><ele>333.0</ele><time>2026-05-03T11:55:19Z</time></trkpt><trkpt lat="40.92769637843993" lon="14.835028153779458"><ele>333.0</ele><time>2026-05-03T11:55:20Z</time></trkpt><trkpt lat="40.927537293819064" lon="14.83528503812542"><ele>333.5</ele><time>2026-05-03T11:55:21Z</time></trkpt><trkpt lat="40.92740318421369" lon="14.835549399211297"><ele>334.0</ele><time>2026-05-03T11:55:22Z</time></trkpt><trkpt lat="40.927272552538085" lon="14.835829873837595"><ele>339.5</ele><time>2026-05-03T11:55:23Z</time></trkpt><trkpt lat="40.92714218260595" lon="14.83611049596859"><ele>345.0</ele><time>2026-05-03T11:55:24Z</time></trkpt><trkpt lat="40.927027410679564" lon="14.83640207439601"><ele>345.0</ele><time>2026-05-03T11:55:25Z</time></trkpt><trkpt lat="40.92694062565022" lon="14.836701376812293"><ele>345.0</ele><time>2026-05-03T11:55:26Z</time></trkpt><trkpt lat="40.9268800512741" lon="14.837014426340195"><ele>348.5</ele><time>2026-05-03T11:55:27Z</time></trkpt><trkpt lat="40.92683733921047" lon="14.83734281120857"><ele>352.0</ele><time>2026-05-03T11:55:28Z</time></trkpt><trkpt lat="40.92682947326807" lon="14.837669673090899"><ele>358.0</ele><time>2026-05-03T11:55:29Z</time></trkpt><trkpt lat="40.926846168230036" lon="14.837976318598464"><ele>364.0</ele><time>2026-05-03T11:55:30Z</time></trkpt><trkpt lat="40.926869178151996" lon="14.838285363196176"><ele>363.0</ele><time>2026-05-03T11:55:31Z</time></trkpt><trkpt lat="40.92689301131577" lon="14.838596486897742"><ele>362.0</ele><time>2026-05-03T11:55:32Z</time></trkpt><trkpt lat="40.92692484870077" lon="14.838914514271723"><ele>362.0</ele><time>2026-05-03T11:55:33Z</time></trkpt><trkpt lat="40.926983401114065" lon="14.839242278272605"><ele>362.0</ele><time>2026-05-03T11:55:34Z</time></trkpt><trkpt lat="40.92707514794838" lon="14.839551685836433"><ele>358.0</ele><time>2026-05-03T11:55:35Z</time></trkpt><trkpt lat="40.92727685860112" lon="14.839806860508947"><ele>354.0</ele><time>2026-05-03T11:55:36Z</time></trkpt><trkpt lat="40.92743453955757" lon="14.840088357663202"><ele>355.5</ele><time>2026-05-03T11:55:37Z</time></trkpt><trkpt lat="40.92759852669837" lon="14.840287395753602"><ele>357.0</ele><time>2026-05-03T11:55:38Z</time></trkpt><trkpt lat="40.927753601107106" lon="14.84055713825342"><ele>357.0</ele><time>2026-05-03T11:55:39Z</time></trkpt><trkpt lat="40.92791453846411" lon="14.840819670672614"><ele>357.0</ele><time>2026-05-03T11:55:40Z</time></trkpt><trkpt lat="40.92808316673449" lon="14.841064722964816"><ele>353.5</ele><time>2026-05-03T11:55:41Z</time></trkpt><trkpt lat="40.92826453916571" lon="14.841296148818497"><ele>350.0</ele><time>2026-05-03T11:55:42Z</time></trkpt><trkpt lat="40.928465419312" lon="14.841500608672732"><ele>350.0</ele><time>2026-05-03T11:55:43Z</time></trkpt><trkpt lat="40.928680156580086" lon="14.841672256593508"><ele>350.0</ele><time>2026-05-03T11:55:44Z</time></trkpt><trkpt lat="40.928904905386446" lon="14.841840043551189"><ele>347.0</ele><time>2026-05-03T11:55:45Z</time></trkpt><trkpt lat="40.9291231573559" lon="14.842009202264272"><ele>344.0</ele><time>2026-05-03T11:55:46Z</time></trkpt><trkpt lat="40.92933982033618" lon="14.84218837889216"><ele>344.0</ele><time>2026-05-03T11:55:47Z</time></trkpt><trkpt lat="40.92955196291341" lon="14.8423641619502"><ele>344.0</ele><time>2026-05-03T11:55:48Z</time></trkpt><trkpt lat="40.92976219575464" lon="14.842536446550353"><ele>347.0</ele><time>2026-05-03T11:55:49Z</time></trkpt><trkpt lat="40.92996949660421" lon="14.842709063967853"><ele>350.0</ele><time>2026-05-03T11:55:50Z</time></trkpt><trkpt lat="40.93017173994866" lon="14.842880477511324"><ele>358.5</ele><time>2026-05-03T11:55:51Z</time></trkpt><trkpt lat="40.93037847814936" lon="14.843050741257048"><ele>367.0</ele><time>2026-05-03T11:55:52Z</time></trkpt><trkpt lat="40.9305880236824" lon="14.843218584339388"><ele>367.0</ele><time>2026-05-03T11:55:53Z</time></trkpt><trkpt lat="40.93079816743345" lon="14.84339557272392"><ele>367.0</ele><time>2026-05-03T11:55:54Z</time></trkpt><trkpt lat="40.931004753160416" lon="14.843572612274798"><ele>372.0</ele><time>2026-05-03T11:55:55Z</time></trkpt><trkpt lat="40.93121485805192" lon="14.843758170016493"><ele>377.0</ele><time>2026-05-03T11:55:56Z</time></trkpt><trkpt lat="40.93142296514879" lon="14.84395027423077"><ele>377.0</ele><time>2026-05-03T11:55:57Z</time></trkpt><trkpt lat="40.93162878950508" lon="14.84415111594888"><ele>377.0</ele><time>2026-05-03T11:55:58Z</time></trkpt><trkpt lat="40.93183065548455" lon="14.844360988711065"><ele>378.0</ele><time>2026-05-03T11:55:59Z</time></trkpt><trkpt lat="40.93203030213462" lon="14.844571810960522"><ele>379.0</ele><time>2026-05-03T11:56:00Z</time></trkpt><trkpt lat="40.932239882288705" lon="14.844782302715322"><ele>379.0</ele><time>2026-05-03T11:56:01Z</time></trkpt><trkpt lat="40.93244521987419" lon="14.844986567980294"><ele>379.0</ele><time>2026-05-03T11:56:02Z</time></trkpt><trkpt lat="40.93264834400845" lon="14.845187058713819"><ele>381.5</ele><time>2026-05-03T11:56:02.999Z</time></trkpt><trkpt lat="40.93284656511328" lon="14.845398089613603"><ele>384.0</ele><time>2026-05-03T11:56:03.999Z</time></trkpt><trkpt lat="40.93302456391056" lon="14.845614110751717"><ele>384.0</ele><time>2026-05-03T11:56:04.999Z</time></trkpt><trkpt lat="40.933183729273644" lon="14.84583830483809"><ele>384.0</ele><time>2026-05-03T11:56:05.999Z</time></trkpt><trkpt lat="40.93333626577148" lon="14.846075213732489"><ele>389.5</ele><time>2026-05-03T11:56:06.999Z</time></trkpt><trkpt lat="40.93348655071906" lon="14.846321228476118"><ele>395.0</ele><time>2026-05-03T11:56:07.999Z</time></trkpt><trkpt lat="40.93362184083437" lon="14.84657197816061"><ele>397.0</ele><time>2026-05-03T11:56:08.999Z</time></trkpt><trkpt lat="40.93374303353234" lon="14.846825933453578"><ele>399.0</ele><time>2026-05-03T11:56:09.999Z</time></trkpt><trkpt lat="40.933841392397625" lon="14.847068069255384"><ele>401.0</ele><time>2026-05-03T11:56:10.999Z</time></trkpt><trkpt lat="40.93393225562551" lon="14.847295227953095"><ele>401.0</ele><time>2026-05-03T11:56:11.999Z</time></trkpt><trkpt lat="40.934020178555876" lon="14.847540260632405"><ele>401.0</ele><time>2026-05-03T11:56:12.999Z</time></trkpt><trkpt lat="40.93409362398343" lon="14.847787652346623"><ele>401.0</ele><time>2026-05-03T11:56:13.999Z</time></trkpt><trkpt lat="40.93416216467308" lon="14.848035046233045"><ele>404.3333333333333</ele><time>2026-05-03T11:56:14.999Z</time></trkpt><trkpt lat="40.93423195319964" lon="14.84828687657156"><ele>407.66666666666663</ele><time>2026-05-03T11:56:15.999Z</time></trkpt><trkpt lat="40.934257351537006" lon="14.848559098864607"><ele>411.0</ele><time>2026-05-03T11:56:17.021Z</time></trkpt><trkpt lat="40.93429666018385" lon="14.848814513504689"><ele>411.0</ele><time>2026-05-03T11:56:18.021Z</time></trkpt><trkpt lat="40.93432470743155" lon="14.849062969712122"><ele>411.0</ele><time>2026-05-03T11:56:18.999Z</time></trkpt><trkpt lat="40.93434677811493" lon="14.849304851915887"><ele>411.0</ele><time>2026-05-03T11:56:19.999Z</time></trkpt><trkpt lat="40.93436023654038" lon="14.849592081583042"><ele>411.33333333333337</ele><time>2026-05-03T11:56:20.999Z</time></trkpt><trkpt lat="40.93437486110801" lon="14.849850429865219"><ele>411.6666666666667</ele><time>2026-05-03T11:56:21.999Z</time></trkpt><trkpt lat="40.93437205615955" lon="14.850113343207422"><ele>412.0</ele><time>2026-05-03T11:56:22.999Z</time></trkpt><trkpt lat="40.93435737715889" lon="14.8503855210979"><ele>412.0</ele><time>2026-05-03T11:56:23.999Z</time></trkpt><trkpt lat="40.93432413065251" lon="14.850650104338303"><ele>412.0</ele><time>2026-05-03T11:56:24.999Z</time></trkpt><trkpt lat="40.93431012861873" lon="14.850914904645396"><ele>412.0</ele><time>2026-05-03T11:56:25.999Z</time></trkpt><trkpt lat="40.93427374775529" lon="14.851170932206173"><ele>411.33333333333337</ele><time>2026-05-03T11:56:26.999Z</time></trkpt><trkpt lat="40.93423321211663" lon="14.851435014867377"><ele>410.66666666666663</ele><time>2026-05-03T11:56:27.999Z</time></trkpt><trkpt lat="40.93419301450362" lon="14.851697397472114"><ele>410.0</ele><time>2026-05-03T11:56:28.999Z</time></trkpt><trkpt lat="40.93414172351443" lon="14.851937844281741"><ele>411.3333333333333</ele><time>2026-05-03T11:56:29.999Z</time></trkpt><trkpt lat="40.93405654910108" lon="14.852156904766058"><ele>412.66666666666663</ele><time>2026-05-03T11:56:30.999Z</time></trkpt><trkpt lat="40.93400241647541" lon="14.852380026773327"><ele>414.0</ele><time>2026-05-03T11:56:31.999Z</time></trkpt><trkpt lat="40.93394744651292" lon="14.852604738128564"><ele>414.66666666666663</ele><time>2026-05-03T11:56:32.999Z</time></trkpt><trkpt lat="40.93390388852394" lon="14.852841635882164"><ele>415.3333333333333</ele><time>2026-05-03T11:56:33.999Z</time></trkpt><trkpt lat="40.933832666832" lon="14.853073457801676"><ele>416.0</ele><time>2026-05-03T11:56:34.999Z</time></trkpt><trkpt lat="40.93377444859096" lon="14.853311200627253"><ele>419.0</ele><time>2026-05-03T11:56:35.999Z</time></trkpt><trkpt lat="40.93371534239933" lon="14.853552581602447"><ele>422.0</ele><time>2026-05-03T11:56:36.999Z</time></trkpt><trkpt lat="40.933657216589786" lon="14.853790140111554"><ele>425.0</ele><time>2026-05-03T11:56:37.999Z</time></trkpt><trkpt lat="40.933609065902" lon="14.854042231154773"><ele>431.0</ele><time>2026-05-03T11:56:38.999Z</time></trkpt><trkpt lat="40.93352548917401" lon="14.854329741902244"><ele>437.0</ele><time>2026-05-03T11:56:39.999Z</time></trkpt><trkpt lat="40.93344426068108" lon="14.854661704174614"><ele>436.0</ele><time>2026-05-03T11:56:40.999Z</time></trkpt><trkpt lat="40.93335328026275" lon="14.85502744802882"><ele>435.0</ele><time>2026-05-03T11:56:41.999Z</time></trkpt><trkpt lat="40.933263158275416" lon="14.855399494775474"><ele>435.0</ele><time>2026-05-03T11:56:42.999Z</time></trkpt><trkpt lat="40.933170033622396" lon="14.855773790601692"><ele>435.0</ele><time>2026-05-03T11:56:43.999Z</time></trkpt><trkpt lat="40.93305948512989" lon="14.856120277601194"><ele>435.0</ele><time>2026-05-03T11:56:44.999Z</time></trkpt><trkpt lat="40.93291293385913" lon="14.856495817389838"><ele>435.0</ele><time>2026-05-03T11:56:45.999Z</time></trkpt><trkpt lat="40.93275247243273" lon="14.856837531126443"><ele>437.5</ele><time>2026-05-03T11:56:46.999Z</time></trkpt><trkpt lat="40.93258933540035" lon="14.857177312517136"><ele>440.0</ele><time>2026-05-03T11:56:47.999Z</time></trkpt><trkpt lat="40.93244646453575" lon="14.857503760608791"><ele>438.0</ele><time>2026-05-03T11:56:48.999Z</time></trkpt><trkpt lat="40.93230170288355" lon="14.857796498825262"><ele>436.0</ele><time>2026-05-03T11:56:49.999Z</time></trkpt><trkpt lat="40.932163195937044" lon="14.858077080736793"><ele>436.0</ele><time>2026-05-03T11:56:50.999Z</time></trkpt><trkpt lat="40.931997498966915" lon="14.85833045792563"><ele>436.0</ele><time>2026-05-03T11:56:52Z</time></trkpt><trkpt lat="40.93182358379984" lon="14.858584727424944"><ele>442.0</ele><time>2026-05-03T11:56:53Z</time></trkpt><trkpt lat="40.93164121605428" lon="14.858844612002317"><ele>448.0</ele><time>2026-05-03T11:56:54Z</time></trkpt><trkpt lat="40.9314326330729" lon="14.8590656648996"><ele>448.0</ele><time>2026-05-03T11:56:55Z</time></trkpt><trkpt lat="40.93120544164345" lon="14.859259605805152"><ele>448.0</ele><time>2026-05-03T11:56:56Z</time></trkpt><trkpt lat="40.930980394858885" lon="14.859458457926388"><ele>454.5</ele><time>2026-05-03T11:56:57Z</time></trkpt><trkpt lat="40.930735933514775" lon="14.85961329201163"><ele>461.0</ele><time>2026-05-03T11:56:58Z</time></trkpt><trkpt lat="40.93049076031445" lon="14.859768158722494"><ele>461.0</ele><time>2026-05-03T11:56:59Z</time></trkpt><trkpt lat="40.930245434728654" lon="14.859933571297342"><ele>461.0</ele><time>2026-05-03T11:57:00.015Z</time></trkpt><trkpt lat="40.93000001187406" lon="14.86009584639291"><ele>462.5</ele><time>2026-05-03T11:57:01.02Z</time></trkpt><trkpt lat="40.929753284099625" lon="14.860241775221798"><ele>464.0</ele><time>2026-05-03T11:57:02Z</time></trkpt><trkpt lat="40.92960718801823" lon="14.860513499173816"><ele>464.0</ele><time>2026-05-03T11:57:03Z</time></trkpt><trkpt lat="40.92943525259832" lon="14.860886484483563"><ele>464.0</ele><time>2026-05-03T11:57:04Z</time></trkpt><trkpt lat="40.92928257392585" lon="14.861189114809711"><ele>465.0</ele><time>2026-05-03T11:57:05Z</time></trkpt><trkpt lat="40.92912021806728" lon="14.861477216139127"><ele>466.0</ele><time>2026-05-03T11:57:06Z</time></trkpt><trkpt lat="40.928979213413974" lon="14.861760827861636"><ele>467.5</ele><time>2026-05-03T11:57:07Z</time></trkpt><trkpt lat="40.92896950915669" lon="14.862173639331992"><ele>469.0</ele><time>2026-05-03T11:57:08Z</time></trkpt><trkpt lat="40.92892066985571" lon="14.862510505702673"><ele>470.5</ele><time>2026-05-03T11:57:09Z</time></trkpt><trkpt lat="40.92889154277259" lon="14.862854915601233"><ele>472.0</ele><time>2026-05-03T11:57:10Z</time></trkpt><trkpt lat="40.92889228786353" lon="14.863194451221649"><ele>473.0</ele><time>2026-05-03T11:57:11Z</time></trkpt><trkpt lat="40.92891948980932" lon="14.86353149997096"><ele>474.0</ele><time>2026-05-03T11:57:12Z</time></trkpt><trkpt lat="40.92896590974072" lon="14.863856547796708"><ele>474.0</ele><time>2026-05-03T11:57:13Z</time></trkpt><trkpt lat="40.92904142322814" lon="14.864145586729794"><ele>474.0</ele><time>2026-05-03T11:57:14Z</time></trkpt><trkpt lat="40.929115971239966" lon="14.864400629707845"><ele>474.0</ele><time>2026-05-03T11:57:15Z</time></trkpt><trkpt lat="40.92919055275687" lon="14.864649030273375"><ele>476.66666666666663</ele><time>2026-05-03T11:57:16Z</time></trkpt><trkpt lat="40.92925729395294" lon="14.864888348594397"><ele>479.3333333333333</ele><time>2026-05-03T11:57:17Z</time></trkpt><trkpt lat="40.92932296084732" lon="14.865118983453849"><ele>482.0</ele><time>2026-05-03T11:57:18Z</time></trkpt><trkpt lat="40.92937805023055" lon="14.865348760671909"><ele>482.0</ele><time>2026-05-03T11:57:19Z</time></trkpt><trkpt lat="40.929439233330584" lon="14.865571841019547"><ele>482.0</ele><time>2026-05-03T11:57:20Z</time></trkpt><trkpt lat="40.929488979202794" lon="14.865787137219378"><ele>482.0</ele><time>2026-05-03T11:57:21Z</time></trkpt><trkpt lat="40.929550968654446" lon="14.86598792691997"><ele>482.0</ele><time>2026-05-03T11:57:22Z</time></trkpt><trkpt lat="40.92960562157941" lon="14.866179150866657"><ele>482.0</ele><time>2026-05-03T11:57:23Z</time></trkpt><trkpt lat="40.92965333831305" lon="14.866363788039777"><ele>482.0</ele><time>2026-05-03T11:57:24Z</time></trkpt><trkpt lat="40.92969375612867" lon="14.866524192322833"><ele>482.0</ele><time>2026-05-03T11:57:25Z</time></trkpt><trkpt lat="40.92973807182626" lon="14.866685551161893"><ele>482.75</ele><time>2026-05-03T11:57:26Z</time></trkpt><trkpt lat="40.92978601198444" lon="14.866859630587097"><ele>483.5</ele><time>2026-05-03T11:57:27Z</time></trkpt><trkpt lat="40.929835149606554" lon="14.867052080683186"><ele>484.25</ele><time>2026-05-03T11:57:28Z</time></trkpt><trkpt lat="40.92988859946215" lon="14.8672445634114"><ele>485.0</ele><time>2026-05-03T11:57:29Z</time></trkpt><trkpt lat="40.929944949173645" lon="14.867442909775992"><ele>486.66666666666663</ele><time>2026-05-03T11:57:30Z</time></trkpt><trkpt lat="40.929999231221906" lon="14.867643417726638"><ele>488.33333333333337</ele><time>2026-05-03T11:57:31Z</time></trkpt><trkpt lat="40.930050518732976" lon="14.86784943723372"><ele>490.0</ele><time>2026-05-03T11:57:32Z</time></trkpt><trkpt lat="40.930107596621234" lon="14.868058139574996"><ele>491.33333333333337</ele><time>2026-05-03T11:57:33Z</time></trkpt><trkpt lat="40.9301733446496" lon="14.868281360372036"><ele>492.66666666666663</ele><time>2026-05-03T11:57:34Z</time></trkpt><trkpt lat="40.93024105916476" lon="14.86851554852628"><ele>494.0</ele><time>2026-05-03T11:57:35Z</time></trkpt><trkpt lat="40.930310970885884" lon="14.868762244967307"><ele>496.5</ele><time>2026-05-03T11:57:36Z</time></trkpt><trkpt lat="40.930392238811095" lon="14.869026965539758"><ele>499.0</ele><time>2026-05-03T11:57:37Z</time></trkpt><trkpt lat="40.93047328572174" lon="14.869323961990546"><ele>499.5</ele><time>2026-05-03T11:57:38Z</time></trkpt><trkpt lat="40.930561252037435" lon="14.869662306431282"><ele>500.0</ele><time>2026-05-03T11:57:39Z</time></trkpt><trkpt lat="40.93065835953603" lon="14.870030404362781"><ele>499.0</ele><time>2026-05-03T11:57:40Z</time></trkpt><trkpt lat="40.93075944419962" lon="14.870393668258377"><ele>498.0</ele><time>2026-05-03T11:57:41Z</time></trkpt><trkpt lat="40.930857560690235" lon="14.870768682500456"><ele>499.5</ele><time>2026-05-03T11:57:42Z</time></trkpt><trkpt lat="40.93094436725963" lon="14.871101604433012"><ele>501.0</ele><time>2026-05-03T11:57:43Z</time></trkpt><trkpt lat="40.93102963256906" lon="14.871419994082256"><ele>501.0</ele><time>2026-05-03T11:57:44Z</time></trkpt><trkpt lat="40.93111933804159" lon="14.87174987357989"><ele>501.0</ele><time>2026-05-03T11:57:45Z</time></trkpt><trkpt lat="40.93122149305238" lon="14.87207755748725"><ele>502.5</ele><time>2026-05-03T11:57:46Z</time></trkpt><trkpt lat="40.931338374455095" lon="14.872390079343509"><ele>504.0</ele><time>2026-05-03T11:57:47Z</time></trkpt><trkpt lat="40.93146829101052" lon="14.872691701284076"><ele>505.0</ele><time>2026-05-03T11:57:48Z</time></trkpt><trkpt lat="40.931611515293824" lon="14.872976328505509"><ele>506.0</ele><time>2026-05-03T11:57:49Z</time></trkpt><trkpt lat="40.93176655918083" lon="14.873261783035888"><ele>511.5</ele><time>2026-05-03T11:57:50Z</time></trkpt><trkpt lat="40.931922164498566" lon="14.873548031061377"><ele>517.0</ele><time>2026-05-03T11:57:51Z</time></trkpt><trkpt lat="40.93208493950383" lon="14.873834269814603"><ele>517.0</ele><time>2026-05-03T11:57:52Z</time></trkpt><trkpt lat="40.93225578850308" lon="14.874105326794473"><ele>517.0</ele><time>2026-05-03T11:57:53Z</time></trkpt><trkpt lat="40.93240630047628" lon="14.8743931471804"><ele>518.0</ele><time>2026-05-03T11:57:54Z</time></trkpt><trkpt lat="40.932557439076575" lon="14.874683510332515"><ele>519.0</ele><time>2026-05-03T11:57:55Z</time></trkpt><trkpt lat="40.93271358875541" lon="14.874962143988345"><ele>524.0</ele><time>2026-05-03T11:57:56Z</time></trkpt><trkpt lat="40.93286945498597" lon="14.875239830478709"><ele>529.0</ele><time>2026-05-03T11:57:57Z</time></trkpt><trkpt lat="40.93301305744692" lon="14.875511807923983"><ele>529.0</ele><time>2026-05-03T11:57:58Z</time></trkpt><trkpt lat="40.93314957540028" lon="14.875783893245913"><ele>529.0</ele><time>2026-05-03T11:57:59Z</time></trkpt><trkpt lat="40.93326522840691" lon="14.87605118846348"><ele>531.5</ele><time>2026-05-03T11:57:59.999Z</time></trkpt><trkpt lat="40.933354248564115" lon="14.876334656634825"><ele>534.0</ele><time>2026-05-03T11:58:00.999Z</time></trkpt><trkpt lat="40.933424348696946" lon="14.876631226807891"><ele>534.3333333333334</ele><time>2026-05-03T11:58:01.999Z</time></trkpt><trkpt lat="40.933473905761126" lon="14.876919465508495"><ele>534.6666666666667</ele><time>2026-05-03T11:58:02.999Z</time></trkpt><trkpt lat="40.93350202375573" lon="14.87719500462353"><ele>535.0</ele><time>2026-05-03T11:58:03.999Z</time></trkpt><trkpt lat="40.933516059617084" lon="14.877487204570354"><ele>530.5</ele><time>2026-05-03T11:58:04.999Z</time></trkpt><trkpt lat="40.93355216406537" lon="14.877770421026645"><ele>526.0</ele><time>2026-05-03T11:58:05.999Z</time></trkpt><trkpt lat="40.93350957406327" lon="14.87807992014265"><ele>526.0</ele><time>2026-05-03T11:58:06.999Z</time></trkpt><trkpt lat="40.93345404438888" lon="14.878336198983797"><ele>526.0</ele><time>2026-05-03T11:58:07.999Z</time></trkpt><trkpt lat="40.93339184925838" lon="14.878610980400802"><ele>526.0</ele><time>2026-05-03T11:58:08.999Z</time></trkpt><trkpt lat="40.933319070068166" lon="14.878879837380799"><ele>530.6666666666667</ele><time>2026-05-03T11:58:09.999Z</time></trkpt><trkpt lat="40.93322433233956" lon="14.879135126131397"><ele>535.3333333333334</ele><time>2026-05-03T11:58:10.999Z</time></trkpt><trkpt lat="40.933116579609695" lon="14.87938015595544"><ele>540.0</ele><time>2026-05-03T11:58:11.999Z</time></trkpt><trkpt lat="40.933004357422874" lon="14.879622712294887"><ele>540.3333333333334</ele><time>2026-05-03T11:58:12.999Z</time></trkpt><trkpt lat="40.9328761825091" lon="14.879848263473995"><ele>540.6666666666667</ele><time>2026-05-03T11:58:13.999Z</time></trkpt><trkpt lat="40.93273328743255" lon="14.880058818581094"><ele>541.0</ele><time>2026-05-03T11:58:14.999Z</time></trkpt><trkpt lat="40.93257656946687" lon="14.88024343945627"><ele>541.6666666666667</ele><time>2026-05-03T11:58:15.999Z</time></trkpt><trkpt lat="40.932421753328185" lon="14.880424534642705"><ele>542.3333333333334</ele><time>2026-05-03T11:58:16.999Z</time></trkpt><trkpt lat="40.93227464972498" lon="14.880623145322522"><ele>543.0</ele><time>2026-05-03T11:58:17.999Z</time></trkpt><trkpt lat="40.932146712456024" lon="14.88084202741963"><ele>539.6666666666666</ele><time>2026-05-03T11:58:18.999Z</time></trkpt><trkpt lat="40.932039661592725" lon="14.881088667474325"><ele>536.3333333333333</ele><time>2026-05-03T11:58:19.999Z</time></trkpt><trkpt lat="40.93195154530925" lon="14.881331892520794"><ele>533.0</ele><time>2026-05-03T11:58:20.999Z</time></trkpt><trkpt lat="40.93187871263657" lon="14.881576968272261"><ele>531.6666666666666</ele><time>2026-05-03T11:58:21.999Z</time></trkpt><trkpt lat="40.931815131112685" lon="14.881816166302446"><ele>530.3333333333334</ele><time>2026-05-03T11:58:22.999Z</time></trkpt><trkpt lat="40.93176223693495" lon="14.882061095921246"><ele>529.0</ele><time>2026-05-03T11:58:23.999Z</time></trkpt><trkpt lat="40.9317237044347" lon="14.88232256190251"><ele>535.6666666666667</ele><time>2026-05-03T11:58:24.999Z</time></trkpt><trkpt lat="40.931702391157536" lon="14.882595551285682"><ele>542.3333333333334</ele><time>2026-05-03T11:58:25.999Z</time></trkpt><trkpt lat="40.93170014088228" lon="14.882884371128606"><ele>549.0</ele><time>2026-05-03T11:58:26.999Z</time></trkpt><trkpt lat="40.93171338354667" lon="14.883165554878614"><ele>545.0</ele><time>2026-05-03T11:58:27.999Z</time></trkpt><trkpt lat="40.93173092467216" lon="14.883444618969266"><ele>541.0</ele><time>2026-05-03T11:58:28.999Z</time></trkpt><trkpt lat="40.93175469551102" lon="14.883728515169338"><ele>537.0</ele><time>2026-05-03T11:58:29.999Z</time></trkpt><trkpt lat="40.93176441414856" lon="14.884000492019837"><ele>538.6666666666666</ele><time>2026-05-03T11:58:30.999Z</time></trkpt><trkpt lat="40.93174933029885" lon="14.884286534404072"><ele>540.3333333333333</ele><time>2026-05-03T11:58:31.999Z</time></trkpt><trkpt lat="40.93172261104529" lon="14.884563574927009"><ele>542.0</ele><time>2026-05-03T11:58:32.999Z</time></trkpt><trkpt lat="40.931674015818494" lon="14.884836106691312"><ele>545.0</ele><time>2026-05-03T11:58:33.999Z</time></trkpt><trkpt lat="40.93160867288561" lon="14.885111209666913"><ele>548.0</ele><time>2026-05-03T11:58:34.999Z</time></trkpt><trkpt lat="40.93152453045659" lon="14.885368821011122"><ele>551.0</ele><time>2026-05-03T11:58:35.999Z</time></trkpt><trkpt lat="40.93142685419659" lon="14.885625142577279"><ele>551.0</ele><time>2026-05-03T11:58:36.999Z</time></trkpt><trkpt lat="40.931322961201914" lon="14.885882243665403"><ele>551.0</ele><time>2026-05-03T11:58:37.999Z</time></trkpt><trkpt lat="40.931237226616105" lon="14.88614716595988"><ele>551.0</ele><time>2026-05-03T11:58:38.999Z</time></trkpt><trkpt lat="40.931169831995554" lon="14.88642559677649"><ele>552.3333333333333</ele><time>2026-05-03T11:58:39.999Z</time></trkpt><trkpt lat="40.931122134173144" lon="14.886704280830358"><ele>553.6666666666666</ele><time>2026-05-03T11:58:40.999Z</time></trkpt><trkpt lat="40.9310985431777" lon="14.8869954084612"><ele>555.0</ele><time>2026-05-03T11:58:41.999Z</time></trkpt><trkpt lat="40.93108940925947" lon="14.887282190704449"><ele>557.0</ele><time>2026-05-03T11:58:42.999Z</time></trkpt><trkpt lat="40.931092231288986" lon="14.887573127656507"><ele>559.0</ele><time>2026-05-03T11:58:43.999Z</time></trkpt><trkpt lat="40.931112136020175" lon="14.887857363744647"><ele>561.0</ele><time>2026-05-03T11:58:44.999Z</time></trkpt><trkpt lat="40.93113601368674" lon="14.888136800967283"><ele>564.0</ele><time>2026-05-03T11:58:45.999Z</time></trkpt><trkpt lat="40.931186465293884" lon="14.888417899373446"><ele>567.0</ele><time>2026-05-03T11:58:46.999Z</time></trkpt><trkpt lat="40.93125382445318" lon="14.888695710187283"><ele>570.0</ele><time>2026-05-03T11:58:47.999Z</time></trkpt><trkpt lat="40.93133241105337" lon="14.888971954355414"><ele>572.0</ele><time>2026-05-03T11:58:48.999Z</time></trkpt><trkpt lat="40.931421464902016" lon="14.889247804827304"><ele>574.0</ele><time>2026-05-03T11:58:49.999Z</time></trkpt><trkpt lat="40.931507928495314" lon="14.889518445581034"><ele>576.0</ele><time>2026-05-03T11:58:50.999Z</time></trkpt><trkpt lat="40.93158864731308" lon="14.889803923822596"><ele>582.5</ele><time>2026-05-03T11:58:51.999Z</time></trkpt><trkpt lat="40.93165441010761" lon="14.890098349963994"><ele>589.0</ele><time>2026-05-03T11:58:52.999Z</time></trkpt><trkpt lat="40.93170928582929" lon="14.890394684327294"><ele>580.5</ele><time>2026-05-03T11:58:53.999Z</time></trkpt><trkpt lat="40.93174980948368" lon="14.890693612760437"><ele>572.0</ele><time>2026-05-03T11:58:54.999Z</time></trkpt><trkpt lat="40.9317611089296" lon="14.89099249202417"><ele>572.0</ele><time>2026-05-03T11:58:55.999Z</time></trkpt><trkpt lat="40.9317331327002" lon="14.89126829687312"><ele>572.0</ele><time>2026-05-03T11:58:56.999Z</time></trkpt><trkpt lat="40.931662179956966" lon="14.89153258398067"><ele>572.0</ele><time>2026-05-03T11:58:58Z</time></trkpt><trkpt lat="40.93155671859921" lon="14.891785208067123"><ele>579.6666666666666</ele><time>2026-05-03T11:58:59Z</time></trkpt><trkpt lat="40.93141949398982" lon="14.892020155117033"><ele>587.3333333333334</ele><time>2026-05-03T11:59:00Z</time></trkpt><trkpt lat="40.93125827261285" lon="14.892220146718971"><ele>595.0</ele><time>2026-05-03T11:59:01Z</time></trkpt><trkpt lat="40.931073159237606" lon="14.892392090498305"><ele>595.0</ele><time>2026-05-03T11:59:02Z</time></trkpt><trkpt lat="40.930905918380304" lon="14.892554134934578"><ele>595.0</ele><time>2026-05-03T11:59:03Z</time></trkpt><trkpt lat="40.93075825270597" lon="14.892736217588505"><ele>595.0</ele><time>2026-05-03T11:59:04Z</time></trkpt><trkpt lat="40.93061677032663" lon="14.892895264818376"><ele>598.3333333333334</ele><time>2026-05-03T11:59:05Z</time></trkpt><trkpt lat="40.93047214156125" lon="14.893063368608656"><ele>601.6666666666666</ele><time>2026-05-03T11:59:06Z</time></trkpt><trkpt lat="40.930325438341875" lon="14.893234477582801"><ele>605.0</ele><time>2026-05-03T11:59:07Z</time></trkpt><trkpt lat="40.93018045437201" lon="14.893399869332418"><ele>609.0</ele><time>2026-05-03T11:59:08Z</time></trkpt><trkpt lat="40.93002847071226" lon="14.893561639716209"><ele>613.0</ele><time>2026-05-03T11:59:09Z</time></trkpt><trkpt lat="40.92988651967297" lon="14.893729140976088"><ele>617.0</ele><time>2026-05-03T11:59:10Z</time></trkpt><trkpt lat="40.92973357566699" lon="14.893871395639128"><ele>617.0</ele><time>2026-05-03T11:59:11Z</time></trkpt><trkpt lat="40.92958563121886" lon="14.894011469849591"><ele>617.0</ele><time>2026-05-03T11:59:12Z</time></trkpt><trkpt lat="40.92945043908769" lon="14.894140761396775"><ele>617.0</ele><time>2026-05-03T11:59:13Z</time></trkpt><trkpt lat="40.92932595674288" lon="14.894243935812618"><ele>618.2</ele><time>2026-05-03T11:59:14Z</time></trkpt><trkpt lat="40.929216273422966" lon="14.89431673824095"><ele>619.4000000000001</ele><time>2026-05-03T11:59:15Z</time></trkpt><trkpt lat="40.929132176807386" lon="14.89436022001015"><ele>620.5999999999999</ele><time>2026-05-03T11:59:16Z</time></trkpt><trkpt lat="40.929067753245626" lon="14.894414539944057"><ele>621.8</ele><time>2026-05-03T11:59:18Z</time></trkpt><trkpt lat="40.92914645520483" lon="14.894429908746025"><ele>623.0</ele><time>2026-05-03T11:59:22Z</time></trkpt><trkpt lat="40.92927928378559" lon="14.894384758038031"><ele>621.0</ele><time>2026-05-03T11:59:23Z</time></trkpt><trkpt lat="40.92939783831823" lon="14.894254518063196"><ele>619.0</ele><time>2026-05-03T11:59:24Z</time></trkpt><trkpt lat="40.92952035016154" lon="14.894135385238288"><ele>617.0</ele><time>2026-05-03T11:59:25Z</time></trkpt><trkpt lat="40.92965980417067" lon="14.893999955841915"><ele>617.0</ele><time>2026-05-03T11:59:26Z</time></trkpt><trkpt lat="40.929803076751" lon="14.893854791335004"><ele>617.0</ele><time>2026-05-03T11:59:27Z</time></trkpt><trkpt lat="40.929945990835435" lon="14.89370937691174"><ele>617.0</ele><time>2026-05-03T11:59:28Z</time></trkpt><trkpt lat="40.93006815555556" lon="14.893579804750221"><ele>615.0</ele><time>2026-05-03T11:59:29Z</time></trkpt><trkpt lat="40.93017660143548" lon="14.893470395348222"><ele>613.0</ele><time>2026-05-03T11:59:30Z</time></trkpt><trkpt lat="40.93028051876426" lon="14.89340388151175"><ele>611.0</ele><time>2026-05-03T11:59:31Z</time></trkpt><trkpt lat="40.93035389628145" lon="14.89332353050498"><ele>609.0</ele><time>2026-05-03T11:59:32Z</time></trkpt><trkpt lat="40.93047037729182" lon="14.893274711381155"><ele>608.0</ele><time>2026-05-03T11:59:34Z</time></trkpt><trkpt lat="40.93056353200002" lon="14.893241639268874"><ele>607.0</ele><time>2026-05-03T11:59:35Z</time></trkpt><trkpt lat="40.93068299139072" lon="14.893241713258028"><ele>606.0</ele><time>2026-05-03T11:59:36Z</time></trkpt><trkpt lat="40.93081765489425" lon="14.893276429012404"><ele>605.0</ele><time>2026-05-03T11:59:37Z</time></trkpt><trkpt lat="40.93095581383322" lon="14.893370547579062"><ele>603.25</ele><time>2026-05-03T11:59:38Z</time></trkpt><trkpt lat="40.93107035592937" lon="14.89347818047666"><ele>601.5</ele><time>2026-05-03T11:59:39Z</time></trkpt><trkpt lat="40.93117187019399" lon="14.893630485971917"><ele>599.75</ele><time>2026-05-03T11:59:40Z</time></trkpt><trkpt lat="40.93122220833662" lon="14.893803860112532"><ele>598.0</ele><time>2026-05-03T11:59:41Z</time></trkpt><trkpt lat="40.93124378623769" lon="14.893987088400099"><ele>598.6666666666667</ele><time>2026-05-03T11:59:42Z</time></trkpt><trkpt lat="40.93122925076314" lon="14.894378774161753"><ele>599.3333333333334</ele><time>2026-05-03T11:59:44Z</time></trkpt><trkpt lat="40.93119388507096" lon="14.894575782593591"><ele>600.0</ele><time>2026-05-03T11:59:45Z</time></trkpt><trkpt lat="40.93116540940475" lon="14.894800141859784"><ele>600.0</ele><time>2026-05-03T11:59:46Z</time></trkpt><trkpt lat="40.931092004295614" lon="14.89504410295033"><ele>600.0</ele><time>2026-05-03T11:59:47Z</time></trkpt><trkpt lat="40.93103839302697" lon="14.895321620271071"><ele>600.0</ele><time>2026-05-03T11:59:48Z</time></trkpt><trkpt lat="40.93099920311581" lon="14.895598045163508"><ele>600.3333333333334</ele><time>2026-05-03T11:59:49Z</time></trkpt><trkpt lat="40.93097232985435" lon="14.89587409430943"><ele>600.6666666666667</ele><time>2026-05-03T11:59:50Z</time></trkpt><trkpt lat="40.93095727706535" lon="14.896119459031524"><ele>601.0</ele><time>2026-05-03T11:59:51Z</time></trkpt><trkpt lat="40.930960670427716" lon="14.89635203560788"><ele>603.0</ele><time>2026-05-03T11:59:52Z</time></trkpt><trkpt lat="40.930980283638874" lon="14.896590692263253"><ele>605.0</ele><time>2026-05-03T11:59:53Z</time></trkpt><trkpt lat="40.931017364152275" lon="14.896838541189341"><ele>607.0</ele><time>2026-05-03T11:59:54Z</time></trkpt><trkpt lat="40.93106465862753" lon="14.89709531586033"><ele>610.3333333333334</ele><time>2026-05-03T11:59:55Z</time></trkpt><trkpt lat="40.93114359786947" lon="14.897332106792035"><ele>613.6666666666666</ele><time>2026-05-03T11:59:56Z</time></trkpt><trkpt lat="40.9312192841906" lon="14.8975835095907"><ele>617.0</ele><time>2026-05-03T11:59:56.999Z</time></trkpt><trkpt lat="40.931243721957564" lon="14.897867538197834"><ele>619.3333333333333</ele><time>2026-05-03T11:59:57.999Z</time></trkpt><trkpt lat="40.93133609807655" lon="14.89813620459352"><ele>621.6666666666666</ele><time>2026-05-03T11:59:58.999Z</time></trkpt><trkpt lat="40.93142914231858" lon="14.89839892083284"><ele>624.0</ele><time>2026-05-03T11:59:59.999Z</time></trkpt><trkpt lat="40.93150200176188" lon="14.89869135800773"><ele>624.0</ele><time>2026-05-03T12:00:00.999Z</time></trkpt><trkpt lat="40.93155695210739" lon="14.898993782515115"><ele>624.0</ele><time>2026-05-03T12:00:01.999Z</time></trkpt><trkpt lat="40.931604167534914" lon="14.899288865785874"><ele>620.0</ele><time>2026-05-03T12:00:02.999Z</time></trkpt><trkpt lat="40.93161859027448" lon="14.899590196312447"><ele>616.0</ele><time>2026-05-03T12:00:03.999Z</time></trkpt><trkpt lat="40.93144535955865" lon="14.899901385043517"><ele>614.5</ele><time>2026-05-03T12:00:04.999Z</time></trkpt><trkpt lat="40.93138975047991" lon="14.900215475962835"><ele>613.0</ele><time>2026-05-03T12:00:05.999Z</time></trkpt><trkpt lat="40.931345788907386" lon="14.900531262994287"><ele>613.0</ele><time>2026-05-03T12:00:06.999Z</time></trkpt><trkpt lat="40.93130631191791" lon="14.900859223764565"><ele>613.0</ele><time>2026-05-03T12:00:07.999Z</time></trkpt><trkpt lat="40.93127592780103" lon="14.901178347907292"><ele>612.5</ele><time>2026-05-03T12:00:08.999Z</time></trkpt><trkpt lat="40.931252121102254" lon="14.901493698883815"><ele>612.0</ele><time>2026-05-03T12:00:09.999Z</time></trkpt><trkpt lat="40.93123898212831" lon="14.901812436810097"><ele>612.0</ele><time>2026-05-03T12:00:10.999Z</time></trkpt><trkpt lat="40.93123186897608" lon="14.90211937940184"><ele>612.0</ele><time>2026-05-03T12:00:11.999Z</time></trkpt><trkpt lat="40.931229932306685" lon="14.902421652567426"><ele>612.3333333333334</ele><time>2026-05-03T12:00:12.999Z</time></trkpt><trkpt lat="40.9312434835217" lon="14.902714227476931"><ele>612.6666666666667</ele><time>2026-05-03T12:00:13.999Z</time></trkpt><trkpt lat="40.931258356592814" lon="14.90300144758284"><ele>613.0</ele><time>2026-05-03T12:00:14.999Z</time></trkpt><trkpt lat="40.93127223238402" lon="14.90329415901712"><ele>613.3333333333334</ele><time>2026-05-03T12:00:15.999Z</time></trkpt><trkpt lat="40.93129355130798" lon="14.903584444152859"><ele>613.6666666666666</ele><time>2026-05-03T12:00:16.999Z</time></trkpt><trkpt lat="40.93131079341688" lon="14.90388591426581"><ele>614.0</ele><time>2026-05-03T12:00:17.999Z</time></trkpt><trkpt lat="40.93133578591923" lon="14.90418229953241"><ele>616.0</ele><time>2026-05-03T12:00:18.999Z</time></trkpt><trkpt lat="40.931347024418685" lon="14.904486570405313"><ele>618.0</ele><time>2026-05-03T12:00:19.999Z</time></trkpt><trkpt lat="40.93137834223313" lon="14.904793590510236"><ele>620.5</ele><time>2026-05-03T12:00:20.999Z</time></trkpt><trkpt lat="40.93137976426815" lon="14.905104344842325"><ele>623.0</ele><time>2026-05-03T12:00:21.999Z</time></trkpt><trkpt lat="40.93139063798275" lon="14.90540862078431"><ele>623.0</ele><time>2026-05-03T12:00:22.999Z</time></trkpt><trkpt lat="40.93140899738974" lon="14.905719106335868"><ele>623.0</ele><time>2026-05-03T12:00:23.999Z</time></trkpt><trkpt lat="40.93141203616117" lon="14.906053073484134"><ele>625.0</ele><time>2026-05-03T12:00:24.999Z</time></trkpt><trkpt lat="40.93142090463208" lon="14.906352947859649"><ele>627.0</ele><time>2026-05-03T12:00:25.999Z</time></trkpt><trkpt lat="40.93144056426833" lon="14.906671189408875"><ele>627.5</ele><time>2026-05-03T12:00:26.999Z</time></trkpt><trkpt lat="40.93146170496504" lon="14.906988407129866"><ele>628.0</ele><time>2026-05-03T12:00:27.999Z</time></trkpt><trkpt lat="40.931485864635924" lon="14.907308690692247"><ele>628.5</ele><time>2026-05-03T12:00:28.999Z</time></trkpt><trkpt lat="40.93150329416525" lon="14.90762525252039"><ele>629.0</ele><time>2026-05-03T12:00:29.999Z</time></trkpt><trkpt lat="40.931514350495604" lon="14.907937276892557"><ele>629.0</ele><time>2026-05-03T12:00:30.999Z</time></trkpt><trkpt lat="40.93152897472343" lon="14.908215426787317"><ele>629.0</ele><time>2026-05-03T12:00:31.999Z</time></trkpt><trkpt lat="40.93152496382522" lon="14.90848269768389"><ele>629.0</ele><time>2026-05-03T12:00:32.999Z</time></trkpt><trkpt lat="40.93154511955427" lon="14.908751776929545"><ele>630.3333333333333</ele><time>2026-05-03T12:00:33.999Z</time></trkpt><trkpt lat="40.931583775980556" lon="14.909015968749886"><ele>631.6666666666666</ele><time>2026-05-03T12:00:34.999Z</time></trkpt><trkpt lat="40.93166130235818" lon="14.909276281452469"><ele>633.0</ele><time>2026-05-03T12:00:35.999Z</time></trkpt><trkpt lat="40.931759698637" lon="14.909525300987434"><ele>631.3333333333334</ele><time>2026-05-03T12:00:36.999Z</time></trkpt><trkpt lat="40.931874014335314" lon="14.909754350495696"><ele>629.6666666666667</ele><time>2026-05-03T12:00:37.999Z</time></trkpt><trkpt lat="40.93202993638705" lon="14.909980077516558"><ele>628.0</ele><time>2026-05-03T12:00:38.999Z</time></trkpt><trkpt lat="40.93221024081743" lon="14.910192196173709"><ele>628.0</ele><time>2026-05-03T12:00:39.999Z</time></trkpt><trkpt lat="40.93239989837695" lon="14.910393192248602"><ele>628.0</ele><time>2026-05-03T12:00:40.999Z</time></trkpt><trkpt lat="40.93258867108815" lon="14.910595301568023"><ele>629.5</ele><time>2026-05-03T12:00:41.999Z</time></trkpt><trkpt lat="40.93278237575833" lon="14.910810115699109"><ele>631.0</ele><time>2026-05-03T12:00:42.999Z</time></trkpt><trkpt lat="40.93296726534432" lon="14.911034746658524"><ele>631.0</ele><time>2026-05-03T12:00:43.999Z</time></trkpt><trkpt lat="40.9331673083116" lon="14.91124312658826"><ele>631.0</ele><time>2026-05-03T12:00:44.999Z</time></trkpt><trkpt lat="40.93336783148078" lon="14.911462131739901"><ele>631.5</ele><time>2026-05-03T12:00:45.999Z</time></trkpt><trkpt lat="40.93357471864955" lon="14.911686368556499"><ele>632.0</ele><time>2026-05-03T12:00:46.999Z</time></trkpt><trkpt lat="40.93378058165656" lon="14.911915126370165"><ele>632.0</ele><time>2026-05-03T12:00:47.999Z</time></trkpt><trkpt lat="40.93398727124283" lon="14.912147685920756"><ele>632.0</ele><time>2026-05-03T12:00:48.999Z</time></trkpt><trkpt lat="40.934188846161526" lon="14.912368162286343"><ele>634.5</ele><time>2026-05-03T12:00:49.999Z</time></trkpt><trkpt lat="40.934395320187654" lon="14.912597539876543"><ele>637.0</ele><time>2026-05-03T12:00:50.999Z</time></trkpt><trkpt lat="40.93460439104388" lon="14.912821617796673"><ele>637.0</ele><time>2026-05-03T12:00:51.999Z</time></trkpt><trkpt lat="40.934814272107126" lon="14.91305814109627"><ele>637.0</ele><time>2026-05-03T12:00:52.999Z</time></trkpt><trkpt lat="40.935018787556146" lon="14.913292261979601"><ele>640.0</ele><time>2026-05-03T12:00:53.999Z</time></trkpt><trkpt lat="40.935221245016706" lon="14.913537539993138"><ele>643.0</ele><time>2026-05-03T12:00:54.999Z</time></trkpt><trkpt lat="40.935428085060906" lon="14.913754399242556"><ele>643.0</ele><time>2026-05-03T12:00:55.999Z</time></trkpt><trkpt lat="40.93563229725827" lon="14.913976226958404"><ele>643.0</ele><time>2026-05-03T12:00:56.999Z</time></trkpt><trkpt lat="40.93583137351681" lon="14.914189118577049"><ele>645.5</ele><time>2026-05-03T12:00:57.999Z</time></trkpt><trkpt lat="40.93601111752013" lon="14.914402574866497"><ele>648.0</ele><time>2026-05-03T12:00:58.999Z</time></trkpt><trkpt lat="40.93618919290276" lon="14.914600891708742"><ele>648.0</ele><time>2026-05-03T12:00:59.999Z</time></trkpt><trkpt lat="40.93637056515452" lon="14.914794139909176"><ele>648.0</ele><time>2026-05-03T12:01:00.999Z</time></trkpt><trkpt lat="40.93654437419659" lon="14.914985538669443"><ele>648.0</ele><time>2026-05-03T12:01:01.999Z</time></trkpt><trkpt lat="40.93671905224722" lon="14.915179783595317"><ele>648.0</ele><time>2026-05-03T12:01:02.999Z</time></trkpt><trkpt lat="40.93688789767845" lon="14.915384427363056"><ele>648.0</ele><time>2026-05-03T12:01:04Z</time></trkpt><trkpt lat="40.93705296346108" lon="14.915597101984213"><ele>648.0</ele><time>2026-05-03T12:01:05Z</time></trkpt><trkpt lat="40.93720519168998" lon="14.915823113222004"><ele>647.0</ele><time>2026-05-03T12:01:06Z</time></trkpt><trkpt lat="40.93735282044242" lon="14.916060986939197"><ele>646.0</ele><time>2026-05-03T12:01:07Z</time></trkpt><trkpt lat="40.937447861490575" lon="14.916350163743884"><ele>642.0</ele><time>2026-05-03T12:01:08Z</time></trkpt><trkpt lat="40.937562946573664" lon="14.916560993406856"><ele>638.0</ele><time>2026-05-03T12:01:09Z</time></trkpt><trkpt lat="40.93761029470301" lon="14.916888717049938"><ele>634.0</ele><time>2026-05-03T12:01:10Z</time></trkpt><trkpt lat="40.937629529866314" lon="14.917194466008503"><ele>633.5</ele><time>2026-05-03T12:01:11Z</time></trkpt><trkpt lat="40.93764545790073" lon="14.917535437555417"><ele>633.0</ele><time>2026-05-03T12:01:12Z</time></trkpt><trkpt lat="40.937653075297106" lon="14.917878787387224"><ele>633.0</ele><time>2026-05-03T12:01:13Z</time></trkpt><trkpt lat="40.93767203299334" lon="14.918230449844607"><ele>633.0</ele><time>2026-05-03T12:01:14Z</time></trkpt><trkpt lat="40.937690549109284" lon="14.918585170800398"><ele>636.0</ele><time>2026-05-03T12:01:15Z</time></trkpt><trkpt lat="40.93771268122618" lon="14.918938811708978"><ele>639.0</ele><time>2026-05-03T12:01:16Z</time></trkpt><trkpt lat="40.937742024930216" lon="14.919278311104335"><ele>642.0</ele><time>2026-05-03T12:01:17Z</time></trkpt><trkpt lat="40.93778210686609" lon="14.919619002535136"><ele>645.0</ele><time>2026-05-03T12:01:18Z</time></trkpt><trkpt lat="40.937855769506676" lon="14.919956096133898"><ele>648.0</ele><time>2026-05-03T12:01:19Z</time></trkpt><trkpt lat="40.937956424694036" lon="14.920280098719793"><ele>651.0</ele><time>2026-05-03T12:01:20Z</time></trkpt><trkpt lat="40.93807926422515" lon="14.920575402790584"><ele>651.0</ele><time>2026-05-03T12:01:21Z</time></trkpt><trkpt lat="40.93823176890272" lon="14.920859535054321"><ele>651.0</ele><time>2026-05-03T12:01:22Z</time></trkpt><trkpt lat="40.93840154315067" lon="14.9211284394427"><ele>651.5</ele><time>2026-05-03T12:01:23Z</time></trkpt><trkpt lat="40.93857317824265" lon="14.921401801501656"><ele>652.0</ele><time>2026-05-03T12:01:24Z</time></trkpt><trkpt lat="40.93873038075466" lon="14.92167409205134"><ele>657.5</ele><time>2026-05-03T12:01:25Z</time></trkpt><trkpt lat="40.93890447423798" lon="14.921943418686217"><ele>663.0</ele><time>2026-05-03T12:01:26Z</time></trkpt><trkpt lat="40.93908376422927" lon="14.922224722516413"><ele>659.0</ele><time>2026-05-03T12:01:27Z</time></trkpt><trkpt lat="40.93926095128379" lon="14.922502569259231"><ele>655.0</ele><time>2026-05-03T12:01:28Z</time></trkpt><trkpt lat="40.93943285367582" lon="14.922776678717037"><ele>655.0</ele><time>2026-05-03T12:01:29Z</time></trkpt><trkpt lat="40.93959790889118" lon="14.923044479122112"><ele>655.0</ele><time>2026-05-03T12:01:30Z</time></trkpt><trkpt lat="40.939747808857256" lon="14.923292678698092"><ele>657.5</ele><time>2026-05-03T12:01:31Z</time></trkpt><trkpt lat="40.939892521515844" lon="14.92352113697281"><ele>660.0</ele><time>2026-05-03T12:01:32Z</time></trkpt><trkpt lat="40.94005348380474" lon="14.923759825045977"><ele>660.0</ele><time>2026-05-03T12:01:33Z</time></trkpt><trkpt lat="40.94020855104316" lon="14.924000816815996"><ele>660.0</ele><time>2026-05-03T12:01:34Z</time></trkpt><trkpt lat="40.94037660605399" lon="14.924248301262201"><ele>664.5</ele><time>2026-05-03T12:01:35Z</time></trkpt><trkpt lat="40.94053321649157" lon="14.924492606526538"><ele>669.0</ele><time>2026-05-03T12:01:36Z</time></trkpt><trkpt lat="40.94069342925742" lon="14.924747930564"><ele>669.0</ele><time>2026-05-03T12:01:37Z</time></trkpt><trkpt lat="40.940851052149526" lon="14.924999925918572"><ele>669.0</ele><time>2026-05-03T12:01:38Z</time></trkpt><trkpt lat="40.941010346330444" lon="14.925254660572104"><ele>664.0</ele><time>2026-05-03T12:01:39Z</time></trkpt><trkpt lat="40.94117832725112" lon="14.925501022961512"><ele>659.0</ele><time>2026-05-03T12:01:40Z</time></trkpt><trkpt lat="40.94133841429796" lon="14.925743549831056"><ele>665.0</ele><time>2026-05-03T12:01:41Z</time></trkpt><trkpt lat="40.94149577827036" lon="14.926000164249547"><ele>671.0</ele><time>2026-05-03T12:01:42Z</time></trkpt><trkpt lat="40.941618257043785" lon="14.9262730781579"><ele>661.5</ele><time>2026-05-03T12:01:43Z</time></trkpt><trkpt lat="40.94171802405412" lon="14.926582046880625"><ele>652.0</ele><time>2026-05-03T12:01:44Z</time></trkpt><trkpt lat="40.941783243355005" lon="14.926915209810623"><ele>652.0</ele><time>2026-05-03T12:01:45Z</time></trkpt><trkpt lat="40.9418481586029" lon="14.927259475469324"><ele>652.0</ele><time>2026-05-03T12:01:46Z</time></trkpt><trkpt lat="40.94193396235994" lon="14.927782694230038"><ele>654.0</ele><time>2026-05-03T12:01:47Z</time></trkpt><trkpt lat="40.94198271637439" lon="14.927996729476405"><ele>656.0</ele><time>2026-05-03T12:01:48Z</time></trkpt><trkpt lat="40.94206480723062" lon="14.9283313046285"><ele>658.0</ele><time>2026-05-03T12:01:49Z</time></trkpt><trkpt lat="40.94214503242909" lon="14.9286754051427"><ele>660.5</ele><time>2026-05-03T12:01:50Z</time></trkpt><trkpt lat="40.942221075693745" lon="14.929019212256605"><ele>663.0</ele><time>2026-05-03T12:01:51Z</time></trkpt><trkpt lat="40.94230108817314" lon="14.929348472815446"><ele>664.0</ele><time>2026-05-03T12:01:52Z</time></trkpt><trkpt lat="40.94237650326613" lon="14.929677960937365"><ele>665.0</ele><time>2026-05-03T12:01:53Z</time></trkpt><trkpt lat="40.942447974474305" lon="14.92999415790207"><ele>670.5</ele><time>2026-05-03T12:01:54Z</time></trkpt><trkpt lat="40.94252210317568" lon="14.930307396460933"><ele>676.0</ele><time>2026-05-03T12:01:55Z</time></trkpt><trkpt lat="40.94258777834342" lon="14.9306132323336"><ele>676.0</ele><time>2026-05-03T12:01:56Z</time></trkpt><trkpt lat="40.942655455500336" lon="14.93091721681091"><ele>676.0</ele><time>2026-05-03T12:01:57Z</time></trkpt><trkpt lat="40.94272793990249" lon="14.931227911989474"><ele>676.0</ele><time>2026-05-03T12:01:58Z</time></trkpt><trkpt lat="40.94279816039479" lon="14.931540100975788"><ele>676.0</ele><time>2026-05-03T12:01:59Z</time></trkpt><trkpt lat="40.9428580745411" lon="14.931858977748313"><ele>681.0</ele><time>2026-05-03T12:02:00Z</time></trkpt><trkpt lat="40.94289593965918" lon="14.932178434051444"><ele>686.0</ele><time>2026-05-03T12:02:01Z</time></trkpt><trkpt lat="40.942896513301974" lon="14.932507001219887"><ele>684.5</ele><time>2026-05-03T12:02:01.999Z</time></trkpt><trkpt lat="40.94287330760532" lon="14.932831489145642"><ele>683.0</ele><time>2026-05-03T12:02:02.999Z</time></trkpt><trkpt lat="40.94283311378799" lon="14.933149345385203"><ele>679.0</ele><time>2026-05-03T12:02:03.999Z</time></trkpt><trkpt lat="40.94280832990412" lon="14.933454289503889"><ele>675.0</ele><time>2026-05-03T12:02:04.999Z</time></trkpt><trkpt lat="40.942791300371" lon="14.93376564609469"><ele>675.0</ele><time>2026-05-03T12:02:05.999Z</time></trkpt><trkpt lat="40.94276026038397" lon="14.934070190447558"><ele>675.0</ele><time>2026-05-03T12:02:06.999Z</time></trkpt><trkpt lat="40.94272063506417" lon="14.934387563214585"><ele>670.5</ele><time>2026-05-03T12:02:07.999Z</time></trkpt><trkpt lat="40.94267192846989" lon="14.934710884172556"><ele>666.0</ele><time>2026-05-03T12:02:08.999Z</time></trkpt><trkpt lat="40.94261038576116" lon="14.9350323128685"><ele>660.0</ele><time>2026-05-03T12:02:09.999Z</time></trkpt><trkpt lat="40.942554265536245" lon="14.935367090846155"><ele>654.0</ele><time>2026-05-03T12:02:10.999Z</time></trkpt><trkpt lat="40.94248976900467" lon="14.935688002072816"><ele>666.5</ele><time>2026-05-03T12:02:11.999Z</time></trkpt><trkpt lat="40.94244997333029" lon="14.936002413843113"><ele>679.0</ele><time>2026-05-03T12:02:12.999Z</time></trkpt><trkpt lat="40.94244724782232" lon="14.936342231870382"><ele>679.0</ele><time>2026-05-03T12:02:13.999Z</time></trkpt><trkpt lat="40.9424596707975" lon="14.936682992829603"><ele>679.0</ele><time>2026-05-03T12:02:14.999Z</time></trkpt><trkpt lat="40.942512787587106" lon="14.937008389370853"><ele>673.0</ele><time>2026-05-03T12:02:15.999Z</time></trkpt><trkpt lat="40.94258482733438" lon="14.937335304496248"><ele>667.0</ele><time>2026-05-03T12:02:16.999Z</time></trkpt><trkpt lat="40.94267343151987" lon="14.937651580906003"><ele>667.0</ele><time>2026-05-03T12:02:17.999Z</time></trkpt><trkpt lat="40.94279824262954" lon="14.937963123586252"><ele>667.0</ele><time>2026-05-03T12:02:18.999Z</time></trkpt><trkpt lat="40.94292229786852" lon="14.938280880760146"><ele>671.5</ele><time>2026-05-03T12:02:19.999Z</time></trkpt><trkpt lat="40.943030489152406" lon="14.938589442403302"><ele>676.0</ele><time>2026-05-03T12:02:20.999Z</time></trkpt><trkpt lat="40.94314262925687" lon="14.938905478308746"><ele>678.5</ele><time>2026-05-03T12:02:21.999Z</time></trkpt><trkpt lat="40.943249362157744" lon="14.939225869213812"><ele>681.0</ele><time>2026-05-03T12:02:22.999Z</time></trkpt><trkpt lat="40.94334201315885" lon="14.939540931534381"><ele>678.0</ele><time>2026-05-03T12:02:23.999Z</time></trkpt><trkpt lat="40.943416646138395" lon="14.939838023261157"><ele>675.0</ele><time>2026-05-03T12:02:24.999Z</time></trkpt><trkpt lat="40.94349217096117" lon="14.94013591233067"><ele>675.0</ele><time>2026-05-03T12:02:25.999Z</time></trkpt><trkpt lat="40.94356905910622" lon="14.940436156310827"><ele>675.0</ele><time>2026-05-03T12:02:26.999Z</time></trkpt><trkpt lat="40.94364538335739" lon="14.940726779599963"><ele>677.0</ele><time>2026-05-03T12:02:27.999Z</time></trkpt><trkpt lat="40.94369990497259" lon="14.94102430417738"><ele>679.0</ele><time>2026-05-03T12:02:28.999Z</time></trkpt><trkpt lat="40.94374200848377" lon="14.941301936840842"><ele>681.0</ele><time>2026-05-03T12:02:29.999Z</time></trkpt><trkpt lat="40.94373405779609" lon="14.941570580872805"><ele>679.0</ele><time>2026-05-03T12:02:30.999Z</time></trkpt><trkpt lat="40.94369800834905" lon="14.941819514563997"><ele>677.0</ele><time>2026-05-03T12:02:31.999Z</time></trkpt><trkpt lat="40.94357892922203" lon="14.942063331289942"><ele>675.0</ele><time>2026-05-03T12:02:32.999Z</time></trkpt><trkpt lat="40.94340646114941" lon="14.942292278217437"><ele>678.3333333333334</ele><time>2026-05-03T12:02:33.999Z</time></trkpt><trkpt lat="40.94324267204884" lon="14.942518635916764"><ele>681.6666666666667</ele><time>2026-05-03T12:02:34.999Z</time></trkpt><trkpt lat="40.943122520139426" lon="14.942750718243675"><ele>685.0</ele><time>2026-05-03T12:02:35.999Z</time></trkpt><trkpt lat="40.943050432286064" lon="14.943012248878032"><ele>685.0</ele><time>2026-05-03T12:02:36.999Z</time></trkpt><trkpt lat="40.94303054254134" lon="14.943296216897034"><ele>685.0</ele><time>2026-05-03T12:02:37.999Z</time></trkpt><trkpt lat="40.94307050036359" lon="14.943584224689854"><ele>685.0</ele><time>2026-05-03T12:02:38.999Z</time></trkpt><trkpt lat="40.94315185399699" lon="14.94387620054014"><ele>688.0</ele><time>2026-05-03T12:02:39.999Z</time></trkpt><trkpt lat="40.94324444658568" lon="14.944169748320107"><ele>691.0</ele><time>2026-05-03T12:02:40.999Z</time></trkpt><trkpt lat="40.943308158605454" lon="14.944458135541602"><ele>691.0</ele><time>2026-05-03T12:02:41.999Z</time></trkpt><trkpt lat="40.9433197261974" lon="14.944768348590493"><ele>691.0</ele><time>2026-05-03T12:02:42.999Z</time></trkpt><trkpt lat="40.94325970982283" lon="14.945076890069155"><ele>685.5</ele><time>2026-05-03T12:02:43.999Z</time></trkpt><trkpt lat="40.943155593919194" lon="14.945365309325798"><ele>680.0</ele><time>2026-05-03T12:02:44.999Z</time></trkpt><trkpt lat="40.94302934266682" lon="14.945659049525508"><ele>674.5</ele><time>2026-05-03T12:02:45.999Z</time></trkpt><trkpt lat="40.94290174754844" lon="14.945973779459084"><ele>669.0</ele><time>2026-05-03T12:02:46.999Z</time></trkpt><trkpt lat="40.94278846208654" lon="14.946284689646248"><ele>669.0</ele><time>2026-05-03T12:02:47.999Z</time></trkpt><trkpt lat="40.94267985127398" lon="14.946597366794924"><ele>669.0</ele><time>2026-05-03T12:02:48.999Z</time></trkpt><trkpt lat="40.94256461707904" lon="14.946917048759344"><ele>679.5</ele><time>2026-05-03T12:02:49.999Z</time></trkpt><trkpt lat="40.94245014916542" lon="14.94723048781094"><ele>690.0</ele><time>2026-05-03T12:02:50.999Z</time></trkpt><trkpt lat="40.9423363576147" lon="14.9475268394835"><ele>689.6666666666666</ele><time>2026-05-03T12:02:51.999Z</time></trkpt><trkpt lat="40.94224022870182" lon="14.947793946315361"><ele>689.3333333333333</ele><time>2026-05-03T12:02:52.999Z</time></trkpt><trkpt lat="40.942175073015825" lon="14.948032267915389"><ele>689.0</ele><time>2026-05-03T12:02:53.999Z</time></trkpt><trkpt lat="40.94214390394759" lon="14.948263354316582"><ele>693.3333333333333</ele><time>2026-05-03T12:02:54.999Z</time></trkpt><trkpt lat="40.94218592638563" lon="14.948509687799893"><ele>697.6666666666666</ele><time>2026-05-03T12:02:55.999Z</time></trkpt><trkpt lat="40.942265050413226" lon="14.948770559915287"><ele>702.0</ele><time>2026-05-03T12:02:56.999Z</time></trkpt><trkpt lat="40.94238559781298" lon="14.949017128945334"><ele>699.0</ele><time>2026-05-03T12:02:57.999Z</time></trkpt><trkpt lat="40.94254657147374" lon="14.949254648309411"><ele>696.0</ele><time>2026-05-03T12:02:58.999Z</time></trkpt><trkpt lat="40.94270945033809" lon="14.949504616485957"><ele>696.0</ele><time>2026-05-03T12:02:59.999Z</time></trkpt><trkpt lat="40.94288311429342" lon="14.949779267455533"><ele>696.0</ele><time>2026-05-03T12:03:00.999Z</time></trkpt><trkpt lat="40.94303788241221" lon="14.950053404107368"><ele>701.0</ele><time>2026-05-03T12:03:01.999Z</time></trkpt><trkpt lat="40.94321272992018" lon="14.950351491064424"><ele>706.0</ele><time>2026-05-03T12:03:02.999Z</time></trkpt><trkpt lat="40.94337930839027" lon="14.950631915280168"><ele>704.5</ele><time>2026-05-03T12:03:03.999Z</time></trkpt><trkpt lat="40.94353681545101" lon="14.95091772978058"><ele>703.0</ele><time>2026-05-03T12:03:04.999Z</time></trkpt><trkpt lat="40.9436890274274" lon="14.951213478320948"><ele>703.0</ele><time>2026-05-03T12:03:05.999Z</time></trkpt><trkpt lat="40.94383206158731" lon="14.951520518217903"><ele>703.0</ele><time>2026-05-03T12:03:06.999Z</time></trkpt><trkpt lat="40.943958182238084" lon="14.951840158845794"><ele>707.5</ele><time>2026-05-03T12:03:07.999Z</time></trkpt><trkpt lat="40.94407541493413" lon="14.95216919738427"><ele>712.0</ele><time>2026-05-03T12:03:08.999Z</time></trkpt><trkpt lat="40.944165411262055" lon="14.952501711299131"><ele>701.5</ele><time>2026-05-03T12:03:10Z</time></trkpt><trkpt lat="40.944238659671214" lon="14.952832386218855"><ele>691.0</ele><time>2026-05-03T12:03:11Z</time></trkpt><trkpt lat="40.94427244288744" lon="14.95317322152244"><ele>693.5</ele><time>2026-05-03T12:03:12Z</time></trkpt><trkpt lat="40.944357313217964" lon="14.953475103392785"><ele>696.0</ele><time>2026-05-03T12:03:13Z</time></trkpt><trkpt lat="40.94426054023462" lon="14.953858948360601"><ele>698.5</ele><time>2026-05-03T12:03:14Z</time></trkpt><trkpt lat="40.944221230713275" lon="14.954216542928235"><ele>701.0</ele><time>2026-05-03T12:03:15Z</time></trkpt><trkpt lat="40.94416826905138" lon="14.954582145807882"><ele>712.0</ele><time>2026-05-03T12:03:16Z</time></trkpt><trkpt lat="40.944132673005136" lon="14.954949611603558"><ele>723.0</ele><time>2026-05-03T12:03:17Z</time></trkpt><trkpt lat="40.94410212759303" lon="14.955315691080262"><ele>723.0</ele><time>2026-05-03T12:03:18Z</time></trkpt><trkpt lat="40.94406539126356" lon="14.955682404171165"><ele>723.0</ele><time>2026-05-03T12:03:19Z</time></trkpt><trkpt lat="40.94403586809403" lon="14.95603499381289"><ele>723.0</ele><time>2026-05-03T12:03:20Z</time></trkpt><trkpt lat="40.94401164208203" lon="14.956380928070045"><ele>723.0</ele><time>2026-05-03T12:03:21Z</time></trkpt><trkpt lat="40.943984958713685" lon="14.956724634635378"><ele>722.5</ele><time>2026-05-03T12:03:22Z</time></trkpt><trkpt lat="40.94393380972527" lon="14.957076611499522"><ele>722.0</ele><time>2026-05-03T12:03:23Z</time></trkpt><trkpt lat="40.943949425850164" lon="14.957457927423734"><ele>727.0</ele><time>2026-05-03T12:03:24Z</time></trkpt><trkpt lat="40.9439711226746" lon="14.957826754188341"><ele>732.0</ele><time>2026-05-03T12:03:25Z</time></trkpt><trkpt lat="40.944013404968" lon="14.958190652829007"><ele>734.5</ele><time>2026-05-03T12:03:26Z</time></trkpt><trkpt lat="40.944063847578576" lon="14.958553168209606"><ele>737.0</ele><time>2026-05-03T12:03:27Z</time></trkpt><trkpt lat="40.94410346543418" lon="14.958891268704276"><ele>737.0</ele><time>2026-05-03T12:03:28Z</time></trkpt><trkpt lat="40.94412970726788" lon="14.959199965985695"><ele>737.0</ele><time>2026-05-03T12:03:29Z</time></trkpt><trkpt lat="40.94412939537696" lon="14.959493321657014"><ele>735.5</ele><time>2026-05-03T12:03:30Z</time></trkpt><trkpt lat="40.944074402553156" lon="14.959784132620301"><ele>734.0</ele><time>2026-05-03T12:03:31Z</time></trkpt><trkpt lat="40.943973131811724" lon="14.960065657373221"><ele>729.5</ele><time>2026-05-03T12:03:32Z</time></trkpt><trkpt lat="40.94382888555504" lon="14.96031605858855"><ele>725.0</ele><time>2026-05-03T12:03:33Z</time></trkpt><trkpt lat="40.94364703796362" lon="14.960529523409525"><ele>725.0</ele><time>2026-05-03T12:03:34Z</time></trkpt><trkpt lat="40.9434363687687" lon="14.960722046595514"><ele>725.0</ele><time>2026-05-03T12:03:35Z</time></trkpt><trkpt lat="40.943229013880995" lon="14.960898938409592"><ele>727.3333333333333</ele><time>2026-05-03T12:03:36Z</time></trkpt><trkpt lat="40.94304740341081" lon="14.961077454462265"><ele>729.6666666666666</ele><time>2026-05-03T12:03:37Z</time></trkpt><trkpt lat="40.94289991653576" lon="14.96125560982747"><ele>732.0</ele><time>2026-05-03T12:03:38Z</time></trkpt><trkpt lat="40.942775924023174" lon="14.961466547680365"><ele>733.6666666666666</ele><time>2026-05-03T12:03:39Z</time></trkpt><trkpt lat="40.942673147484136" lon="14.961730719254023"><ele>735.3333333333333</ele><time>2026-05-03T12:03:40Z</time></trkpt><trkpt lat="40.942620277327975" lon="14.962016018226638"><ele>737.0</ele><time>2026-05-03T12:03:41Z</time></trkpt><trkpt lat="40.942587789745474" lon="14.962319803701657"><ele>738.0</ele><time>2026-05-03T12:03:42Z</time></trkpt><trkpt lat="40.942567017774586" lon="14.962631895894505"><ele>739.0</ele><time>2026-05-03T12:03:43Z</time></trkpt><trkpt lat="40.94253505413301" lon="14.96295117082746"><ele>745.5</ele><time>2026-05-03T12:03:44.021Z</time></trkpt><trkpt lat="40.942507676951436" lon="14.963257908247453"><ele>752.0</ele><time>2026-05-03T12:03:45.021Z</time></trkpt><trkpt lat="40.94247137858038" lon="14.963569541623158"><ele>752.0</ele><time>2026-05-03T12:03:46.02Z</time></trkpt><trkpt lat="40.942433676436565" lon="14.96387421940598"><ele>752.0</ele><time>2026-05-03T12:03:47Z</time></trkpt><trkpt lat="40.942628737088114" lon="14.964447983574718"><ele>750.0</ele><time>2026-05-03T12:03:48Z</time></trkpt><trkpt lat="40.94268406370097" lon="14.96481208231753"><ele>748.0</ele><time>2026-05-03T12:03:49Z</time></trkpt><trkpt lat="40.94274196415811" lon="14.965156700915143"><ele>748.0</ele><time>2026-05-03T12:03:50Z</time></trkpt><trkpt lat="40.94279821427133" lon="14.965502926370162"><ele>748.0</ele><time>2026-05-03T12:03:51Z</time></trkpt><trkpt lat="40.942848970592074" lon="14.965845967777073"><ele>748.0</ele><time>2026-05-03T12:03:52Z</time></trkpt><trkpt lat="40.94290096265102" lon="14.966191721112237"><ele>748.0</ele><time>2026-05-03T12:03:53Z</time></trkpt><trkpt lat="40.94295254822359" lon="14.966532258697033"><ele>748.3333333333334</ele><time>2026-05-03T12:03:54Z</time></trkpt><trkpt lat="40.942991412623925" lon="14.966775036772606"><ele>748.6666666666666</ele><time>2026-05-03T12:03:55Z</time></trkpt><trkpt lat="40.94302872123257" lon="14.967052076852148"><ele>749.0</ele><time>2026-05-03T12:03:56Z</time></trkpt><trkpt lat="40.94305535565259" lon="14.96733042965422"><ele>747.0</ele><time>2026-05-03T12:03:57Z</time></trkpt><trkpt lat="40.9430464229839" lon="14.967616580975854"><ele>745.0</ele><time>2026-05-03T12:03:58Z</time></trkpt><trkpt lat="40.943003702654835" lon="14.967901674810932"><ele>743.0</ele><time>2026-05-03T12:03:59Z</time></trkpt><trkpt lat="40.942941524073255" lon="14.968173015690242"><ele>740.6666666666666</ele><time>2026-05-03T12:04:00Z</time></trkpt><trkpt lat="40.942840384565216" lon="14.968414899062896"><ele>738.3333333333334</ele><time>2026-05-03T12:04:01Z</time></trkpt><trkpt lat="40.9427124114901" lon="14.968634956840589"><ele>736.0</ele><time>2026-05-03T12:04:02Z</time></trkpt><trkpt lat="40.94255602595759" lon="14.968824961308028"><ele>737.6666666666667</ele><time>2026-05-03T12:04:03Z</time></trkpt><trkpt lat="40.94241344198881" lon="14.969042034912002"><ele>739.3333333333334</ele><time>2026-05-03T12:04:04Z</time></trkpt><trkpt lat="40.942250196644395" lon="14.969240520318639"><ele>741.0</ele><time>2026-05-03T12:04:05Z</time></trkpt><trkpt lat="40.942085226265405" lon="14.96944160989241"><ele>741.0</ele><time>2026-05-03T12:04:06Z</time></trkpt><trkpt lat="40.94192993017291" lon="14.969626895621545"><ele>741.0</ele><time>2026-05-03T12:04:07Z</time></trkpt><trkpt lat="40.94176543001717" lon="14.969816727910658"><ele>741.0</ele><time>2026-05-03T12:04:08Z</time></trkpt><trkpt lat="40.94160598043276" lon="14.970013560680266"><ele>744.3333333333334</ele><time>2026-05-03T12:04:09Z</time></trkpt><trkpt lat="40.94144235353364" lon="14.970207404449752"><ele>747.6666666666667</ele><time>2026-05-03T12:04:10Z</time></trkpt><trkpt lat="40.94127984343598" lon="14.970393714629191"><ele>751.0</ele><time>2026-05-03T12:04:11Z</time></trkpt><trkpt lat="40.941117359422634" lon="14.9705827302608"><ele>751.0</ele><time>2026-05-03T12:04:12Z</time></trkpt><trkpt lat="40.940959097149516" lon="14.970772187702531"><ele>751.0</ele><time>2026-05-03T12:04:13Z</time></trkpt><trkpt lat="40.940799325906234" lon="14.970962036032953"><ele>751.0</ele><time>2026-05-03T12:04:14Z</time></trkpt><trkpt lat="40.94064050103119" lon="14.971152627426175"><ele>750.6666666666667</ele><time>2026-05-03T12:04:15Z</time></trkpt><trkpt lat="40.940480562355695" lon="14.97134493453398"><ele>750.3333333333334</ele><time>2026-05-03T12:04:16Z</time></trkpt><trkpt lat="40.94033203876342" lon="14.971552346346042"><ele>750.0</ele><time>2026-05-03T12:04:17Z</time></trkpt><trkpt lat="40.94020074199904" lon="14.97177919436436"><ele>750.0</ele><time>2026-05-03T12:04:18Z</time></trkpt><trkpt lat="40.94009803330006" lon="14.972033596418322"><ele>750.0</ele><time>2026-05-03T12:04:19Z</time></trkpt><trkpt lat="40.940026298041374" lon="14.972309057835432"><ele>750.0</ele><time>2026-05-03T12:04:20Z</time></trkpt><trkpt lat="40.939976019675456" lon="14.972584054954405"><ele>752.6666666666666</ele><time>2026-05-03T12:04:20.999Z</time></trkpt><trkpt lat="40.939944481905684" lon="14.972858449506855"><ele>755.3333333333333</ele><time>2026-05-03T12:04:21.999Z</time></trkpt><trkpt lat="40.939911546559834" lon="14.97315606187459"><ele>758.0</ele><time>2026-05-03T12:04:22.999Z</time></trkpt><trkpt lat="40.93987651714813" lon="14.973436314208612"><ele>758.0</ele><time>2026-05-03T12:04:23.999Z</time></trkpt><trkpt lat="40.93984392193127" lon="14.973697963649856"><ele>758.0</ele><time>2026-05-03T12:04:24.999Z</time></trkpt><trkpt lat="40.93981256038587" lon="14.973943131976668"><ele>758.0</ele><time>2026-05-03T12:04:25.999Z</time></trkpt><trkpt lat="40.939757848864616" lon="14.974177253056387"><ele>757.0</ele><time>2026-05-03T12:04:26.999Z</time></trkpt><trkpt lat="40.939667220502336" lon="14.974395869164283"><ele>756.0</ele><time>2026-05-03T12:04:27.999Z</time></trkpt><trkpt lat="40.939558641501684" lon="14.974575816657637"><ele>755.0</ele><time>2026-05-03T12:04:28.999Z</time></trkpt><trkpt lat="40.93943986331607" lon="14.974724134346856"><ele>755.0</ele><time>2026-05-03T12:04:29.999Z</time></trkpt><trkpt lat="40.939291504130296" lon="14.974848474931733"><ele>755.0</ele><time>2026-05-03T12:04:30.999Z</time></trkpt><trkpt lat="40.93912670520198" lon="14.974940782956606"><ele>755.0</ele><time>2026-05-03T12:04:31.999Z</time></trkpt><trkpt lat="40.93895098095127" lon="14.975015700089958"><ele>753.6666666666666</ele><time>2026-05-03T12:04:32.999Z</time></trkpt><trkpt lat="40.938773823518254" lon="14.975118305790689"><ele>752.3333333333334</ele><time>2026-05-03T12:04:33.999Z</time></trkpt><trkpt lat="40.93857856020331" lon="14.975234298053346"><ele>751.0</ele><time>2026-05-03T12:04:34.999Z</time></trkpt><trkpt lat="40.938377484063835" lon="14.97540706272535"><ele>751.0</ele><time>2026-05-03T12:04:35.999Z</time></trkpt><trkpt lat="40.938152372684456" lon="14.975627507255778"><ele>751.0</ele><time>2026-05-03T12:04:36.999Z</time></trkpt><trkpt lat="40.937910204830466" lon="14.975894720239669"><ele>749.0</ele><time>2026-05-03T12:04:37.999Z</time></trkpt><trkpt lat="40.937659542974956" lon="14.976135083768696"><ele>747.0</ele><time>2026-05-03T12:04:38.999Z</time></trkpt><trkpt lat="40.937413212965744" lon="14.97637914698973"><ele>747.0</ele><time>2026-05-03T12:04:39.999Z</time></trkpt><trkpt lat="40.93721154696259" lon="14.976594397222483"><ele>747.0</ele><time>2026-05-03T12:04:40.999Z</time></trkpt><trkpt lat="40.936996143433184" lon="14.976782542030923"><ele>744.6666666666666</ele><time>2026-05-03T12:04:41.999Z</time></trkpt><trkpt lat="40.93680871844652" lon="14.976914867589418"><ele>742.3333333333333</ele><time>2026-05-03T12:04:42.999Z</time></trkpt><trkpt lat="40.93662295840136" lon="14.976999694294097"><ele>740.0</ele><time>2026-05-03T12:04:43.999Z</time></trkpt><trkpt lat="40.93640617430265" lon="14.97703778564558"><ele>740.0</ele><time>2026-05-03T12:04:44.999Z</time></trkpt><trkpt lat="40.936156654247945" lon="14.977031496904859"><ele>740.0</ele><time>2026-05-03T12:04:45.999Z</time></trkpt><trkpt lat="40.935879926139485" lon="14.977042393336529"><ele>737.0</ele><time>2026-05-03T12:04:46.999Z</time></trkpt><trkpt lat="40.935641974716845" lon="14.977106613850083"><ele>734.0</ele><time>2026-05-03T12:04:47.999Z</time></trkpt><trkpt lat="40.93542766215102" lon="14.977216848121854"><ele>734.0</ele><time>2026-05-03T12:04:48.999Z</time></trkpt><trkpt lat="40.93522038743674" lon="14.97735569148792"><ele>734.0</ele><time>2026-05-03T12:04:49.999Z</time></trkpt><trkpt lat="40.9350204162859" lon="14.97755591086725"><ele>736.0</ele><time>2026-05-03T12:04:50.999Z</time></trkpt><trkpt lat="40.93484647368994" lon="14.977796742071742"><ele>738.0</ele><time>2026-05-03T12:04:51.999Z</time></trkpt><trkpt lat="40.934710760953074" lon="14.97807001533801"><ele>738.0</ele><time>2026-05-03T12:04:52.999Z</time></trkpt><trkpt lat="40.934603364456116" lon="14.978363153228596"><ele>738.0</ele><time>2026-05-03T12:04:53.999Z</time></trkpt><trkpt lat="40.93453206143769" lon="14.978640831611246"><ele>738.0</ele><time>2026-05-03T12:04:54.999Z</time></trkpt><trkpt lat="40.93447207780531" lon="14.978897393147756"><ele>738.0</ele><time>2026-05-03T12:04:55.999Z</time></trkpt><trkpt lat="40.93440505091876" lon="14.979132261593527"><ele>738.0</ele><time>2026-05-03T12:04:56.999Z</time></trkpt><trkpt lat="40.934311637897274" lon="14.979344750424135"><ele>740.0</ele><time>2026-05-03T12:04:57.999Z</time></trkpt><trkpt lat="40.93417807785467" lon="14.979537380247047"><ele>742.0</ele><time>2026-05-03T12:04:58.999Z</time></trkpt><trkpt lat="40.933999530137605" lon="14.979670727534156"><ele>744.0</ele><time>2026-05-03T12:04:59.999Z</time></trkpt><trkpt lat="40.933800976841766" lon="14.979772174445674"><ele>744.0</ele><time>2026-05-03T12:05:00.999Z</time></trkpt><trkpt lat="40.93358842721387" lon="14.979854757519513"><ele>744.0</ele><time>2026-05-03T12:05:01.999Z</time></trkpt><trkpt lat="40.93336846763095" lon="14.979928228231596"><ele>744.0</ele><time>2026-05-03T12:05:02.999Z</time></trkpt><trkpt lat="40.933153908476925" lon="14.980002269832033"><ele>744.3333333333334</ele><time>2026-05-03T12:05:03.999Z</time></trkpt><trkpt lat="40.93295923125472" lon="14.980135764375426"><ele>744.6666666666667</ele><time>2026-05-03T12:05:04.999Z</time></trkpt><trkpt lat="40.93280056445985" lon="14.980332650734786"><ele>745.0</ele><time>2026-05-03T12:05:05.999Z</time></trkpt><trkpt lat="40.93266527507006" lon="14.980569291589784"><ele>742.5</ele><time>2026-05-03T12:05:06.999Z</time></trkpt><trkpt lat="40.932569148703266" lon="14.98085571160289"><ele>740.0</ele><time>2026-05-03T12:05:07.999Z</time></trkpt><trkpt lat="40.9324744128584" lon="14.981171337021154"><ele>747.5</ele><time>2026-05-03T12:05:08.999Z</time></trkpt><trkpt lat="40.93238001373876" lon="14.981479550923948"><ele>755.0</ele><time>2026-05-03T12:05:09.999Z</time></trkpt><trkpt lat="40.93229321660704" lon="14.981765987798424"><ele>755.0</ele><time>2026-05-03T12:05:10.999Z</time></trkpt><trkpt lat="40.93222119464224" lon="14.9820291667587"><ele>755.0</ele><time>2026-05-03T12:05:11.999Z</time></trkpt><trkpt lat="40.93215819127641" lon="14.982263637981534"><ele>755.0</ele><time>2026-05-03T12:05:12.999Z</time></trkpt><trkpt lat="40.93219309949067" lon="14.982526068696217"><ele>754.75</ele><time>2026-05-03T12:05:13.999Z</time></trkpt><trkpt lat="40.93221874007906" lon="14.982701988038968"><ele>754.5</ele><time>2026-05-03T12:05:14.999Z</time></trkpt><trkpt lat="40.932255310006425" lon="14.98289804715706"><ele>754.25</ele><time>2026-05-03T12:05:16Z</time></trkpt><trkpt lat="40.93231125841678" lon="14.983078668136704"><ele>754.0</ele><time>2026-05-03T12:05:17Z</time></trkpt><trkpt lat="40.93234638095558" lon="14.983278033838605"><ele>751.6666666666667</ele><time>2026-05-03T12:05:18Z</time></trkpt><trkpt lat="40.93237197184095" lon="14.983480758346394"><ele>749.3333333333334</ele><time>2026-05-03T12:05:19Z</time></trkpt><trkpt lat="40.93238095831365" lon="14.983698844816082"><ele>747.0</ele><time>2026-05-03T12:05:20Z</time></trkpt><trkpt lat="40.9322847315857" lon="14.983938768819808"><ele>747.0</ele><time>2026-05-03T12:05:21Z</time></trkpt><trkpt lat="40.93222740019974" lon="14.984179092581298"><ele>747.0</ele><time>2026-05-03T12:05:22Z</time></trkpt><trkpt lat="40.93217595475955" lon="14.984391537255105"><ele>747.0</ele><time>2026-05-03T12:05:23Z</time></trkpt><trkpt lat="40.93212999258125" lon="14.984597650023566"><ele>744.0</ele><time>2026-05-03T12:05:24Z</time></trkpt><trkpt lat="40.932085601171146" lon="14.984793470240769"><ele>741.0</ele><time>2026-05-03T12:05:25Z</time></trkpt><trkpt lat="40.93204823030691" lon="14.984986954539119"><ele>738.0</ele><time>2026-05-03T12:05:26Z</time></trkpt><trkpt lat="40.93199924743483" lon="14.985177251047952"><ele>738.6666666666666</ele><time>2026-05-03T12:05:27Z</time></trkpt><trkpt lat="40.93191274094861" lon="14.985350432084253"><ele>739.3333333333333</ele><time>2026-05-03T12:05:28Z</time></trkpt><trkpt lat="40.93179916147848" lon="14.985467555270898"><ele>740.0</ele><time>2026-05-03T12:05:29Z</time></trkpt><trkpt lat="40.93165883576338" lon="14.985554880978844"><ele>740.0</ele><time>2026-05-03T12:05:30Z</time></trkpt><trkpt lat="40.93150635287558" lon="14.985628236938009"><ele>740.0</ele><time>2026-05-03T12:05:31Z</time></trkpt><trkpt lat="40.931337660010485" lon="14.985694363944889"><ele>740.0</ele><time>2026-05-03T12:05:32Z</time></trkpt><trkpt lat="40.93119955270828" lon="14.985761070613822"><ele>740.5</ele><time>2026-05-03T12:05:33Z</time></trkpt><trkpt lat="40.93108499434734" lon="14.985873269758768"><ele>741.0</ele><time>2026-05-03T12:05:34Z</time></trkpt><trkpt lat="40.930973074797194" lon="14.985999762975629"><ele>741.5</ele><time>2026-05-03T12:05:35Z</time></trkpt><trkpt lat="40.93089640529443" lon="14.986171036211292"><ele>742.0</ele><time>2026-05-03T12:05:36Z</time></trkpt><trkpt lat="40.93082766050413" lon="14.986367902217252"><ele>742.0</ele><time>2026-05-03T12:05:37Z</time></trkpt><trkpt lat="40.93075878860982" lon="14.986580316141414"><ele>742.0</ele><time>2026-05-03T12:05:38Z</time></trkpt><trkpt lat="40.93073187185021" lon="14.986786481603188"><ele>742.0</ele><time>2026-05-03T12:05:39Z</time></trkpt><trkpt lat="40.93072912779607" lon="14.987013831090886"><ele>741.0</ele><time>2026-05-03T12:05:40Z</time></trkpt><trkpt lat="40.93077422538272" lon="14.987252406951791"><ele>740.0</ele><time>2026-05-03T12:05:41Z</time></trkpt><trkpt lat="40.930818534881716" lon="14.987501450847306"><ele>739.0</ele><time>2026-05-03T12:05:42Z</time></trkpt><trkpt lat="40.93085016802685" lon="14.987747385872009"><ele>730.0</ele><time>2026-05-03T12:05:43Z</time></trkpt><trkpt lat="40.930898293351994" lon="14.987989321833934"><ele>721.0</ele><time>2026-05-03T12:05:44Z</time></trkpt><trkpt lat="40.930928060148865" lon="14.988243713648204"><ele>712.0</ele><time>2026-05-03T12:05:45Z</time></trkpt><trkpt lat="40.93094947241797" lon="14.988504778867938"><ele>712.0</ele><time>2026-05-03T12:05:46Z</time></trkpt><trkpt lat="40.93095720987137" lon="14.98876452164904"><ele>712.0</ele><time>2026-05-03T12:05:47Z</time></trkpt><trkpt lat="40.930960491651625" lon="14.989031715614063"><ele>712.0</ele><time>2026-05-03T12:05:48Z</time></trkpt><trkpt lat="40.93095033381342" lon="14.989287369666423"><ele>712.0</ele><time>2026-05-03T12:05:49Z</time></trkpt><trkpt lat="40.9309424560391" lon="14.989549196590938"><ele>712.0</ele><time>2026-05-03T12:05:50Z</time></trkpt><trkpt lat="40.93093250210719" lon="14.989802968768773"><ele>712.0</ele><time>2026-05-03T12:05:51Z</time></trkpt><trkpt lat="40.93093631389352" lon="14.990034474793116"><ele>712.0</ele><time>2026-05-03T12:05:52Z</time></trkpt><trkpt lat="40.93093810293768" lon="14.99024944567932"><ele>712.0</ele><time>2026-05-03T12:05:53Z</time></trkpt><trkpt lat="40.93091603434135" lon="14.99044486982296"><ele>712.0</ele><time>2026-05-03T12:05:54Z</time></trkpt><trkpt lat="40.93085960763547" lon="14.990633188273208"><ele>711.6666666666667</ele><time>2026-05-03T12:05:55Z</time></trkpt><trkpt lat="40.93076412217673" lon="14.99082115415753"><ele>711.3333333333334</ele><time>2026-05-03T12:05:56Z</time></trkpt><trkpt lat="40.93065565325699" lon="14.991005691712656"><ele>711.0</ele><time>2026-05-03T12:05:57Z</time></trkpt><trkpt lat="40.93051778214528" lon="14.991188135949784"><ele>711.0</ele><time>2026-05-03T12:05:58Z</time></trkpt><trkpt lat="40.93031644100765" lon="14.99137890544728"><ele>711.0</ele><time>2026-05-03T12:05:59Z</time></trkpt><trkpt lat="40.93009902156978" lon="14.99147782584261"><ele>709.3333333333334</ele><time>2026-05-03T12:06:00Z</time></trkpt><trkpt lat="40.92991402366233" lon="14.991528463781513"><ele>707.6666666666667</ele><time>2026-05-03T12:06:01Z</time></trkpt><trkpt lat="40.929744168832435" lon="14.991642820941305"><ele>706.0</ele><time>2026-05-03T12:06:02Z</time></trkpt><trkpt lat="40.92959074572922" lon="14.99176782489883"><ele>706.0</ele><time>2026-05-03T12:06:03Z</time></trkpt><trkpt lat="40.929433574473315" lon="14.991882366351454"><ele>706.0</ele><time>2026-05-03T12:06:04Z</time></trkpt><trkpt lat="40.929289739112335" lon="14.992005318197606"><ele>706.0</ele><time>2026-05-03T12:06:05Z</time></trkpt><trkpt lat="40.929175468945594" lon="14.992158235531615"><ele>708.0</ele><time>2026-05-03T12:06:06Z</time></trkpt><trkpt lat="40.92909700830899" lon="14.992342165245274"><ele>710.0</ele><time>2026-05-03T12:06:07Z</time></trkpt><trkpt lat="40.92907971077611" lon="14.992552143743936"><ele>712.0</ele><time>2026-05-03T12:06:08Z</time></trkpt><trkpt lat="40.929109657369324" lon="14.992776641434036"><ele>712.0</ele><time>2026-05-03T12:06:09Z</time></trkpt><trkpt lat="40.92916759700315" lon="14.993016767603791"><ele>712.0</ele><time>2026-05-03T12:06:10Z</time></trkpt><trkpt lat="40.92923883808504" lon="14.993249822528195"><ele>712.0</ele><time>2026-05-03T12:06:11Z</time></trkpt><trkpt lat="40.92929601374567" lon="14.993460692289023"><ele>711.25</ele><time>2026-05-03T12:06:12Z</time></trkpt><trkpt lat="40.92933859916716" lon="14.99365088990236"><ele>710.5</ele><time>2026-05-03T12:06:13Z</time></trkpt><trkpt lat="40.929393994469685" lon="14.993805381759653"><ele>709.75</ele><time>2026-05-03T12:06:14Z</time></trkpt><trkpt lat="40.92950443308295" lon="14.993915928419165"><ele>709.0</ele><time>2026-05-03T12:06:15Z</time></trkpt><trkpt lat="40.929660057621525" lon="14.993972493208869"><ele>709.0</ele><time>2026-05-03T12:06:16Z</time></trkpt><trkpt lat="40.929843426182046" lon="14.993996472558566"><ele>709.0</ele><time>2026-05-03T12:06:17Z</time></trkpt><trkpt lat="40.93004184061852" lon="14.99402626187614"><ele>709.0</ele><time>2026-05-03T12:06:18Z</time></trkpt><trkpt lat="40.93024520843116" lon="14.994065073205206"><ele>709.0</ele><time>2026-05-03T12:06:19Z</time></trkpt><trkpt lat="40.9304078013547" lon="14.994117221391507"><ele>709.0</ele><time>2026-05-03T12:06:20Z</time></trkpt><trkpt lat="40.93055750086189" lon="14.994202545155863"><ele>709.0</ele><time>2026-05-03T12:06:21Z</time></trkpt><trkpt lat="40.930711764116026" lon="14.994339662528311"><ele>709.0</ele><time>2026-05-03T12:06:22Z</time></trkpt><trkpt lat="40.930855843314234" lon="14.99449726389363"><ele>709.0</ele><time>2026-05-03T12:06:23Z</time></trkpt><trkpt lat="40.930998763830566" lon="14.994669927768841"><ele>709.0</ele><time>2026-05-03T12:06:24Z</time></trkpt><trkpt lat="40.931136255357856" lon="14.994871506123381"><ele>705.6666666666667</ele><time>2026-05-03T12:06:25Z</time></trkpt><trkpt lat="40.9312668011389" lon="14.995077875764734"><ele>702.3333333333334</ele><time>2026-05-03T12:06:26Z</time></trkpt><trkpt lat="40.931415955774504" lon="14.99529110021075"><ele>699.0</ele><time>2026-05-03T12:06:27Z</time></trkpt><trkpt lat="40.9315546806923" lon="14.995484359244067"><ele>699.0</ele><time>2026-05-03T12:06:28Z</time></trkpt><trkpt lat="40.93167195476899" lon="14.995659142879413"><ele>699.0</ele><time>2026-05-03T12:06:29Z</time></trkpt><trkpt lat="40.9317758928241" lon="14.995828484746106"><ele>699.0</ele><time>2026-05-03T12:06:30Z</time></trkpt><trkpt lat="40.93184418757912" lon="14.996021965878091"><ele>691.0</ele><time>2026-05-03T12:06:31Z</time></trkpt><trkpt lat="40.93186702887983" lon="14.996245372311934"><ele>683.0</ele><time>2026-05-03T12:06:32Z</time></trkpt><trkpt lat="40.93184058203764" lon="14.996477074847958"><ele>675.0</ele><time>2026-05-03T12:06:33Z</time></trkpt><trkpt lat="40.931775551074246" lon="14.996718337760703"><ele>676.6666666666666</ele><time>2026-05-03T12:06:34Z</time></trkpt><trkpt lat="40.931712302115294" lon="14.996955700416509"><ele>678.3333333333333</ele><time>2026-05-03T12:06:35Z</time></trkpt><trkpt lat="40.93164649962367" lon="14.997188438389845"><ele>680.0</ele><time>2026-05-03T12:06:36Z</time></trkpt><trkpt lat="40.93159770137487" lon="14.997403935735225"><ele>680.6666666666666</ele><time>2026-05-03T12:06:37Z</time></trkpt><trkpt lat="40.93162098317716" lon="14.997624753821295"><ele>681.3333333333334</ele><time>2026-05-03T12:06:38Z</time></trkpt><trkpt lat="40.93167188759961" lon="14.997820687418447"><ele>682.0</ele><time>2026-05-03T12:06:39Z</time></trkpt><trkpt lat="40.931790488485376" lon="14.99800247708166"><ele>681.0</ele><time>2026-05-03T12:06:40Z</time></trkpt><trkpt lat="40.93194421536744" lon="14.998165612087652"><ele>680.0</ele><time>2026-05-03T12:06:40.999Z</time></trkpt><trkpt lat="40.93212584141539" lon="14.998329952534188"><ele>679.0</ele><time>2026-05-03T12:06:41.999Z</time></trkpt><trkpt lat="40.93230072994785" lon="14.99850917651659"><ele>679.0</ele><time>2026-05-03T12:06:42.999Z</time></trkpt><trkpt lat="40.9324579097949" lon="14.998698045435894"><ele>679.0</ele><time>2026-05-03T12:06:43.999Z</time></trkpt><trkpt lat="40.932605739282785" lon="14.998883840284895"><ele>679.0</ele><time>2026-05-03T12:06:44.999Z</time></trkpt><trkpt lat="40.9327383895139" lon="14.9990606022916"><ele>674.0</ele><time>2026-05-03T12:06:45.999Z</time></trkpt><trkpt lat="40.93285813641297" lon="14.999245597745327"><ele>669.0</ele><time>2026-05-03T12:06:46.999Z</time></trkpt><trkpt lat="40.932966036875946" lon="14.99943821151688"><ele>664.0</ele><time>2026-05-03T12:06:47.999Z</time></trkpt><trkpt lat="40.93305146343136" lon="14.999638172758377"><ele>664.0</ele><time>2026-05-03T12:06:48.999Z</time></trkpt><trkpt lat="40.933104206041214" lon="14.99984265809161"><ele>664.0</ele><time>2026-05-03T12:06:49.999Z</time></trkpt><trkpt lat="40.93309894298068" lon="15.000053209985209"><ele>664.0</ele><time>2026-05-03T12:06:50.999Z</time></trkpt><trkpt lat="40.933065749324925" lon="15.000235416132991"><ele>664.0</ele><time>2026-05-03T12:06:51.999Z</time></trkpt><trkpt lat="40.932998344885306" lon="15.000366571913695"><ele>664.0</ele><time>2026-05-03T12:06:52.999Z</time></trkpt><trkpt lat="40.93287114158154" lon="15.000466982151849"><ele>664.0</ele><time>2026-05-03T12:06:53.999Z</time></trkpt><trkpt lat="40.93270405521099" lon="15.000545393200909"><ele>664.0</ele><time>2026-05-03T12:06:54.999Z</time></trkpt><trkpt lat="40.93251347559992" lon="15.0006074987343"><ele>664.3333333333334</ele><time>2026-05-03T12:06:55.999Z</time></trkpt><trkpt lat="40.93234739583995" lon="15.000685294525923"><ele>664.6666666666666</ele><time>2026-05-03T12:06:56.999Z</time></trkpt><trkpt lat="40.932186884584475" lon="15.00074762464353"><ele>665.0</ele><time>2026-05-03T12:06:57.999Z</time></trkpt><trkpt lat="40.93205079588377" lon="15.000865106947868"><ele>665.0</ele><time>2026-05-03T12:06:58.999Z</time></trkpt><trkpt lat="40.931929798778675" lon="15.00106057414265"><ele>665.0</ele><time>2026-05-03T12:06:59.999Z</time></trkpt><trkpt lat="40.931829603560836" lon="15.001339351170044"><ele>665.0</ele><time>2026-05-03T12:07:00.999Z</time></trkpt><trkpt lat="40.931748657758185" lon="15.00153658551842"><ele>663.6666666666666</ele><time>2026-05-03T12:07:01.999Z</time></trkpt><trkpt lat="40.93168507047737" lon="15.001758922175151"><ele>662.3333333333334</ele><time>2026-05-03T12:07:02.999Z</time></trkpt><trkpt lat="40.93163312607987" lon="15.001960378938177"><ele>661.0</ele><time>2026-05-03T12:07:03.999Z</time></trkpt><trkpt lat="40.9315758950749" lon="15.002128492228241"><ele>661.0</ele><time>2026-05-03T12:07:04.999Z</time></trkpt><trkpt lat="40.93147048010232" lon="15.002241312743136"><ele>661.0</ele><time>2026-05-03T12:07:05.999Z</time></trkpt><trkpt lat="40.93133705177818" lon="15.002347745014479"><ele>661.0</ele><time>2026-05-03T12:07:06.999Z</time></trkpt><trkpt lat="40.93117847635307" lon="15.002440442417477"><ele>661.0</ele><time>2026-05-03T12:07:07.999Z</time></trkpt><trkpt lat="40.93105439026884" lon="15.002457974358647"><ele>661.0</ele><time>2026-05-03T12:07:08.999Z</time></trkpt><trkpt lat="40.930951289850256" lon="15.00239654606163"><ele>661.0</ele><time>2026-05-03T12:07:09.999Z</time></trkpt><trkpt lat="40.93085640821073" lon="15.002293086630477"><ele>661.0</ele><time>2026-05-03T12:07:10.999Z</time></trkpt><trkpt lat="40.93071144454862" lon="15.002162519398041"><ele>662.6666666666667</ele><time>2026-05-03T12:07:11.999Z</time></trkpt><trkpt lat="40.930569560479064" lon="15.002054179693351"><ele>664.3333333333334</ele><time>2026-05-03T12:07:12.999Z</time></trkpt><trkpt lat="40.93043653844407" lon="15.00199247346985"><ele>666.0</ele><time>2026-05-03T12:07:13.999Z</time></trkpt><trkpt lat="40.930283377103784" lon="15.002032440503076"><ele>666.0</ele><time>2026-05-03T12:07:14.999Z</time></trkpt><trkpt lat="40.930124142721596" lon="15.002114532254993"><ele>666.0</ele><time>2026-05-03T12:07:15.999Z</time></trkpt><trkpt lat="40.929975325252805" lon="15.002239738308761"><ele>666.0</ele><time>2026-05-03T12:07:16.999Z</time></trkpt><trkpt lat="40.92984027339243" lon="15.002345249360058"><ele>665.0</ele><time>2026-05-03T12:07:17.999Z</time></trkpt><trkpt lat="40.92971870022921" lon="15.002423802266916"><ele>664.0</ele><time>2026-05-03T12:07:18.999Z</time></trkpt><trkpt lat="40.92959883587073" lon="15.002446735999753"><ele>663.0</ele><time>2026-05-03T12:07:19.999Z</time></trkpt><trkpt lat="40.92948181348809" lon="15.002379339079155"><ele>662.0</ele><time>2026-05-03T12:07:20.999Z</time></trkpt><trkpt lat="40.929314622523414" lon="15.002296000197534"><ele>662.0</ele><time>2026-05-03T12:07:22.001Z</time></trkpt><trkpt lat="40.92914472172779" lon="15.002291089498495"><ele>662.0</ele><time>2026-05-03T12:07:23.001Z</time></trkpt><trkpt lat="40.928990467783755" lon="15.002340263163468"><ele>662.0</ele><time>2026-05-03T12:07:24.001Z</time></trkpt><trkpt lat="40.9288392531491" lon="15.002366220981914"><ele>662.0</ele><time>2026-05-03T12:07:25.001Z</time></trkpt><trkpt lat="40.9287050411896" lon="15.002341648939403"><ele>662.0</ele><time>2026-05-03T12:07:26.001Z</time></trkpt><trkpt lat="40.92853029234462" lon="15.00229338473412"><ele>662.0</ele><time>2026-05-03T12:07:27.001Z</time></trkpt><trkpt lat="40.928348607129706" lon="15.002232927870192"><ele>657.0</ele><time>2026-05-03T12:07:28.001Z</time></trkpt><trkpt lat="40.92816283544815" lon="15.002166810852001"><ele>652.0</ele><time>2026-05-03T12:07:29.001Z</time></trkpt><trkpt lat="40.92798231470268" lon="15.00210454951932"><ele>647.0</ele><time>2026-05-03T12:07:30.001Z</time></trkpt><trkpt lat="40.92781610471115" lon="15.00204612167628"><ele>647.0</ele><time>2026-05-03T12:07:31.001Z</time></trkpt><trkpt lat="40.927656494047646" lon="15.001977206134086"><ele>647.0</ele><time>2026-05-03T12:07:32.001Z</time></trkpt><trkpt lat="40.927513493665444" lon="15.0018918994508"><ele>647.0</ele><time>2026-05-03T12:07:33.001Z</time></trkpt><trkpt lat="40.92737024498144" lon="15.00182976318624"><ele>643.0</ele><time>2026-05-03T12:07:34.001Z</time></trkpt><trkpt lat="40.92724751092167" lon="15.001778244894114"><ele>639.0</ele><time>2026-05-03T12:07:35.001Z</time></trkpt><trkpt lat="40.92712193473749" lon="15.001787466603734"><ele>635.0</ele><time>2026-05-03T12:07:36.001Z</time></trkpt><trkpt lat="40.92699251370389" lon="15.001887063799213"><ele>631.0</ele><time>2026-05-03T12:07:37.001Z</time></trkpt><trkpt lat="40.926893663329025" lon="15.0020242905667"><ele>631.0</ele><time>2026-05-03T12:07:38.001Z</time></trkpt><trkpt lat="40.92683319710441" lon="15.002206493973668"><ele>631.0</ele><time>2026-05-03T12:07:39Z</time></trkpt><trkpt lat="40.92681210562482" lon="15.002424373751008"><ele>631.0</ele><time>2026-05-03T12:07:40Z</time></trkpt><trkpt lat="40.926820456398524" lon="15.00266413497052"><ele>627.6666666666667</ele><time>2026-05-03T12:07:41Z</time></trkpt><trkpt lat="40.926843910161026" lon="15.002894375456343"><ele>624.3333333333334</ele><time>2026-05-03T12:07:42Z</time></trkpt><trkpt lat="40.92690340602373" lon="15.00312139552357"><ele>621.0</ele><time>2026-05-03T12:07:43Z</time></trkpt><trkpt lat="40.92698008596694" lon="15.00332833730906"><ele>621.0</ele><time>2026-05-03T12:07:44Z</time></trkpt><trkpt lat="40.927112836622506" lon="15.003481962964674"><ele>621.0</ele><time>2026-05-03T12:07:45Z</time></trkpt><trkpt lat="40.9272887022193" lon="15.003587834197724"><ele>621.0</ele><time>2026-05-03T12:07:46Z</time></trkpt><trkpt lat="40.927494369937605" lon="15.003645580209042"><ele>620.0</ele><time>2026-05-03T12:07:47Z</time></trkpt><trkpt lat="40.92770627090996" lon="15.003688474324706"><ele>619.0</ele><time>2026-05-03T12:07:48Z</time></trkpt><trkpt lat="40.92789085415943" lon="15.003775426676034"><ele>618.0</ele><time>2026-05-03T12:07:49Z</time></trkpt><trkpt lat="40.92806517968262" lon="15.003910875269844"><ele>618.0</ele><time>2026-05-03T12:07:50Z</time></trkpt><trkpt lat="40.928253304138835" lon="15.00406250444436"><ele>618.0</ele><time>2026-05-03T12:07:51Z</time></trkpt><trkpt lat="40.92844824899848" lon="15.004224425271847"><ele>616.6666666666666</ele><time>2026-05-03T12:07:52Z</time></trkpt><trkpt lat="40.928622911974145" lon="15.004383577564647"><ele>615.3333333333333</ele><time>2026-05-03T12:07:53Z</time></trkpt><trkpt lat="40.928806398501834" lon="15.004569932976864"><ele>614.0</ele><time>2026-05-03T12:07:54Z</time></trkpt><trkpt lat="40.9290011086103" lon="15.00473853962588"><ele>614.0</ele><time>2026-05-03T12:07:55Z</time></trkpt><trkpt lat="40.92918832436428" lon="15.004917686200965"><ele>614.0</ele><time>2026-05-03T12:07:56Z</time></trkpt><trkpt lat="40.92937652502332" lon="15.00507972873857"><ele>613.0</ele><time>2026-05-03T12:07:57Z</time></trkpt><trkpt lat="40.92956595528771" lon="15.005246698255725"><ele>612.0</ele><time>2026-05-03T12:07:58Z</time></trkpt><trkpt lat="40.92975860015672" lon="15.005410468294716"><ele>612.0</ele><time>2026-05-03T12:07:59Z</time></trkpt><trkpt lat="40.92996185209659" lon="15.005559947222759"><ele>612.0</ele><time>2026-05-03T12:08:00Z</time></trkpt><trkpt lat="40.930160813579754" lon="15.005700651560076"><ele>611.3333333333334</ele><time>2026-05-03T12:08:01Z</time></trkpt><trkpt lat="40.9303490183844" lon="15.005847685593537"><ele>610.6666666666667</ele><time>2026-05-03T12:08:02Z</time></trkpt><trkpt lat="40.93051187461834" lon="15.006038085631253"><ele>610.0</ele><time>2026-05-03T12:08:03Z</time></trkpt><trkpt lat="40.93067847046694" lon="15.006191930541245"><ele>610.0</ele><time>2026-05-03T12:08:04Z</time></trkpt><trkpt lat="40.93082251403651" lon="15.006366209643566"><ele>610.0</ele><time>2026-05-03T12:08:05Z</time></trkpt><trkpt lat="40.93096115558375" lon="15.006546741637376"><ele>610.0</ele><time>2026-05-03T12:08:06Z</time></trkpt><trkpt lat="40.93108610447577" lon="15.006734831341323"><ele>607.0</ele><time>2026-05-03T12:08:07Z</time></trkpt><trkpt lat="40.93119733887346" lon="15.006919594891365"><ele>604.0</ele><time>2026-05-03T12:08:08Z</time></trkpt><trkpt lat="40.93129442161267" lon="15.007110736910878"><ele>601.0</ele><time>2026-05-03T12:08:09Z</time></trkpt><trkpt lat="40.93137708556096" lon="15.007302205926866"><ele>601.0</ele><time>2026-05-03T12:08:10Z</time></trkpt><trkpt lat="40.93144015581514" lon="15.007485341544083"><ele>601.0</ele><time>2026-05-03T12:08:11Z</time></trkpt><trkpt lat="40.9314840608696" lon="15.007653674157211"><ele>601.0</ele><time>2026-05-03T12:08:12Z</time></trkpt><trkpt lat="40.93148622646081" lon="15.007825227628238"><ele>601.0</ele><time>2026-05-03T12:08:13Z</time></trkpt><trkpt lat="40.931465512581596" lon="15.008007046926783"><ele>601.6666666666667</ele><time>2026-05-03T12:08:14Z</time></trkpt><trkpt lat="40.93138174042517" lon="15.008217526943097"><ele>602.3333333333334</ele><time>2026-05-03T12:08:15Z</time></trkpt><trkpt lat="40.93130385010096" lon="15.008408074401597"><ele>603.0</ele><time>2026-05-03T12:08:16Z</time></trkpt><trkpt lat="40.931239274711366" lon="15.008619571981363"><ele>603.0</ele><time>2026-05-03T12:08:17Z</time></trkpt><trkpt lat="40.93117927900154" lon="15.00883948286584"><ele>603.0</ele><time>2026-05-03T12:08:18Z</time></trkpt><trkpt lat="40.93112596806952" lon="15.009060162033851"><ele>603.0</ele><time>2026-05-03T12:08:19Z</time></trkpt><trkpt lat="40.931105335917415" lon="15.009297065395677"><ele>600.3333333333334</ele><time>2026-05-03T12:08:20Z</time></trkpt><trkpt lat="40.931114714407606" lon="15.009547047028633"><ele>597.6666666666667</ele><time>2026-05-03T12:08:21Z</time></trkpt><trkpt lat="40.93115160267642" lon="15.009798729766812"><ele>595.0</ele><time>2026-05-03T12:08:22Z</time></trkpt><trkpt lat="40.93122643497787" lon="15.010054111407653"><ele>593.6666666666667</ele><time>2026-05-03T12:08:23Z</time></trkpt><trkpt lat="40.93132318501572" lon="15.01030392135703"><ele>592.3333333333334</ele><time>2026-05-03T12:08:24Z</time></trkpt><trkpt lat="40.93142167439906" lon="15.010545328680337"><ele>591.0</ele><time>2026-05-03T12:08:25Z</time></trkpt><trkpt lat="40.93155062727783" lon="15.010771186165842"><ele>589.6666666666666</ele><time>2026-05-03T12:08:26Z</time></trkpt><trkpt lat="40.93169269777389" lon="15.010973423129675"><ele>588.3333333333333</ele><time>2026-05-03T12:08:27Z</time></trkpt><trkpt lat="40.93183589086525" lon="15.011179535245013"><ele>587.0</ele><time>2026-05-03T12:08:28Z</time></trkpt><trkpt lat="40.931971776624415" lon="15.011378041349545"><ele>587.0</ele><time>2026-05-03T12:08:29Z</time></trkpt><trkpt lat="40.932109299624415" lon="15.011591317791337"><ele>587.0</ele><time>2026-05-03T12:08:30Z</time></trkpt><trkpt lat="40.932232653106674" lon="15.011800238136816"><ele>587.0</ele><time>2026-05-03T12:08:31Z</time></trkpt><trkpt lat="40.93235246710766" lon="15.012000970024042"><ele>588.3333333333333</ele><time>2026-05-03T12:08:32Z</time></trkpt><trkpt lat="40.93247228539839" lon="15.012199672873356"><ele>589.6666666666666</ele><time>2026-05-03T12:08:33Z</time></trkpt><trkpt lat="40.93258036757881" lon="15.012379749111519"><ele>591.0</ele><time>2026-05-03T12:08:34Z</time></trkpt><trkpt lat="40.93268397500187" lon="15.012545924030197"><ele>588.25</ele><time>2026-05-03T12:08:35Z</time></trkpt><trkpt lat="40.932778092376736" lon="15.012704271296794"><ele>585.5</ele><time>2026-05-03T12:08:36Z</time></trkpt><trkpt lat="40.932839991161885" lon="15.012866922637153"><ele>582.75</ele><time>2026-05-03T12:08:37Z</time></trkpt><trkpt lat="40.932853744516215" lon="15.013066989681702"><ele>580.0</ele><time>2026-05-03T12:08:38Z</time></trkpt><trkpt lat="40.932878419566734" lon="15.013282246089041"><ele>581.3333333333334</ele><time>2026-05-03T12:08:39Z</time></trkpt><trkpt lat="40.932878088267145" lon="15.013507516520125"><ele>582.6666666666666</ele><time>2026-05-03T12:08:40Z</time></trkpt><trkpt lat="40.93286186848181" lon="15.013720636670959"><ele>584.0</ele><time>2026-05-03T12:08:41Z</time></trkpt><trkpt lat="40.93282154419619" lon="15.013913508471155"><ele>584.0</ele><time>2026-05-03T12:08:42Z</time></trkpt><trkpt lat="40.9327647063963" lon="15.014111475396339"><ele>584.0</ele><time>2026-05-03T12:08:43Z</time></trkpt><trkpt lat="40.93267287446335" lon="15.014343002498595"><ele>584.0</ele><time>2026-05-03T12:08:44Z</time></trkpt><trkpt lat="40.93259484438878" lon="15.014567129669913"><ele>584.3333333333333</ele><time>2026-05-03T12:08:45Z</time></trkpt><trkpt lat="40.93253124934945" lon="15.014782693624166"><ele>584.6666666666666</ele><time>2026-05-03T12:08:46Z</time></trkpt><trkpt lat="40.932502319908814" lon="15.014998054455697"><ele>585.0</ele><time>2026-05-03T12:08:47Z</time></trkpt><trkpt lat="40.93250090404856" lon="15.015202527087101"><ele>585.0</ele><time>2026-05-03T12:08:48Z</time></trkpt><trkpt lat="40.932555837997505" lon="15.015400993406097"><ele>585.0</ele><time>2026-05-03T12:08:48.999Z</time></trkpt><trkpt lat="40.932625060884085" lon="15.015591967785825"><ele>585.0</ele><time>2026-05-03T12:08:49.999Z</time></trkpt><trkpt lat="40.93269915176011" lon="15.015758786431634"><ele>581.6666666666666</ele><time>2026-05-03T12:08:50.999Z</time></trkpt><trkpt lat="40.93283254109115" lon="15.01585844834934"><ele>578.3333333333333</ele><time>2026-05-03T12:08:51.999Z</time></trkpt><trkpt lat="40.93297474916148" lon="15.01593304464628"><ele>575.0</ele><time>2026-05-03T12:08:52.999Z</time></trkpt><trkpt lat="40.93314929649231" lon="15.015992116835607"><ele>575.0</ele><time>2026-05-03T12:08:53.999Z</time></trkpt><trkpt lat="40.93335188862295" lon="15.016064276022119"><ele>575.0</ele><time>2026-05-03T12:08:54.999Z</time></trkpt><trkpt lat="40.93351330033678" lon="15.016169515364567"><ele>575.0</ele><time>2026-05-03T12:08:55.999Z</time></trkpt><trkpt lat="40.933642173213975" lon="15.016283111188166"><ele>573.6666666666666</ele><time>2026-05-03T12:08:56.999Z</time></trkpt><trkpt lat="40.93373895100498" lon="15.016443932610946"><ele>572.3333333333334</ele><time>2026-05-03T12:08:57.999Z</time></trkpt><trkpt lat="40.9338447966886" lon="15.01663610131182"><ele>571.0</ele><time>2026-05-03T12:08:58.999Z</time></trkpt><trkpt lat="40.93395029942598" lon="15.01680941334449"><ele>571.0</ele><time>2026-05-03T12:08:59.999Z</time></trkpt><trkpt lat="40.934001028044065" lon="15.016976127935266"><ele>571.0</ele><time>2026-05-03T12:09:00.999Z</time></trkpt><trkpt lat="40.93401011552803" lon="15.01712253815913"><ele>571.0</ele><time>2026-05-03T12:09:01.999Z</time></trkpt><trkpt lat="40.93396106074062" lon="15.017247263467867"><ele>571.0</ele><time>2026-05-03T12:09:02.999Z</time></trkpt><trkpt lat="40.9339067415382" lon="15.017466036412854"><ele>571.0</ele><time>2026-05-03T12:09:03.999Z</time></trkpt><trkpt lat="40.933848645191944" lon="15.017666002052467"><ele>571.0</ele><time>2026-05-03T12:09:04.999Z</time></trkpt><trkpt lat="40.93375747800474" lon="15.017802517725057"><ele>571.0</ele><time>2026-05-03T12:09:05.999Z</time></trkpt><trkpt lat="40.933614515818356" lon="15.017992586343837"><ele>571.0</ele><time>2026-05-03T12:09:06.999Z</time></trkpt><trkpt lat="40.933517008021695" lon="15.018211502577286"><ele>571.0</ele><time>2026-05-03T12:09:07.999Z</time></trkpt><trkpt lat="40.93342924730723" lon="15.018444193343104"><ele>571.0</ele><time>2026-05-03T12:09:08.999Z</time></trkpt><trkpt lat="40.933384702678445" lon="15.01871959851664"><ele>573.0</ele><time>2026-05-03T12:09:09.999Z</time></trkpt><trkpt lat="40.933360388312025" lon="15.01903019766678"><ele>575.0</ele><time>2026-05-03T12:09:10.999Z</time></trkpt><trkpt lat="40.933328052431676" lon="15.019380165910144"><ele>575.0</ele><time>2026-05-03T12:09:11.999Z</time></trkpt><trkpt lat="40.93328059718691" lon="15.019770948974443"><ele>575.0</ele><time>2026-05-03T12:09:12.999Z</time></trkpt><trkpt lat="40.93325450011558" lon="15.020129533383898"><ele>573.3333333333333</ele><time>2026-05-03T12:09:13.999Z</time></trkpt><trkpt lat="40.93322664173604" lon="15.020416547990811"><ele>571.6666666666666</ele><time>2026-05-03T12:09:14.999Z</time></trkpt><trkpt lat="40.933164985422145" lon="15.020637549479622"><ele>570.0</ele><time>2026-05-03T12:09:15.999Z</time></trkpt><trkpt lat="40.933087995081706" lon="15.020821746464579"><ele>569.75</ele><time>2026-05-03T12:09:16.999Z</time></trkpt><trkpt lat="40.93298387495409" lon="15.020976294639237"><ele>569.5</ele><time>2026-05-03T12:09:17.999Z</time></trkpt><trkpt lat="40.93287124466842" lon="15.021082829004575"><ele>569.25</ele><time>2026-05-03T12:09:18.999Z</time></trkpt><trkpt lat="40.93275381723144" lon="15.02110727023818"><ele>569.0</ele><time>2026-05-03T12:09:19.999Z</time></trkpt><trkpt lat="40.932573553014485" lon="15.021124801106163"><ele>571.6666666666666</ele><time>2026-05-03T12:09:20.999Z</time></trkpt><trkpt lat="40.93236618299909" lon="15.021149752456443"><ele>574.3333333333334</ele><time>2026-05-03T12:09:21.999Z</time></trkpt><trkpt lat="40.93214456222064" lon="15.021172698129064"><ele>577.0</ele><time>2026-05-03T12:09:22.999Z</time></trkpt><trkpt lat="40.93194154944778" lon="15.021189586109085"><ele>577.0</ele><time>2026-05-03T12:09:23.999Z</time></trkpt><trkpt lat="40.93175298083816" lon="15.021209123512364"><ele>577.0</ele><time>2026-05-03T12:09:24.999Z</time></trkpt><trkpt lat="40.931578823003186" lon="15.021227221950733"><ele>577.0</ele><time>2026-05-03T12:09:25.999Z</time></trkpt><trkpt lat="40.931408654226395" lon="15.021262888043962"><ele>576.0</ele><time>2026-05-03T12:09:26.999Z</time></trkpt><trkpt lat="40.93125071360023" lon="15.02130034855891"><ele>575.0</ele><time>2026-05-03T12:09:28.001Z</time></trkpt><trkpt lat="40.93110771993411" lon="15.021380469463029"><ele>574.0</ele><time>2026-05-03T12:09:29.001Z</time></trkpt><trkpt lat="40.93102188900919" lon="15.02153032338654"><ele>568.6666666666667</ele><time>2026-05-03T12:09:30.001Z</time></trkpt><trkpt lat="40.93095704577658" lon="15.021717244985373"><ele>563.3333333333334</ele><time>2026-05-03T12:09:31.001Z</time></trkpt><trkpt lat="40.930957730118855" lon="15.021926037401487"><ele>558.0</ele><time>2026-05-03T12:09:32.001Z</time></trkpt><trkpt lat="40.93098330900731" lon="15.022124222212527"><ele>558.0</ele><time>2026-05-03T12:09:33.001Z</time></trkpt><trkpt lat="40.93098192969165" lon="15.022277718395474"><ele>558.0</ele><time>2026-05-03T12:09:34.001Z</time></trkpt><trkpt lat="40.93092942751982" lon="15.02243269749574"><ele>558.0</ele><time>2026-05-03T12:09:35.001Z</time></trkpt><trkpt lat="40.93082838818239" lon="15.022580011585305"><ele>558.0</ele><time>2026-05-03T12:09:36.001Z</time></trkpt><trkpt lat="40.930695421720465" lon="15.02270116140422"><ele>558.6666666666666</ele><time>2026-05-03T12:09:37.001Z</time></trkpt><trkpt lat="40.93054698056849" lon="15.022840687435375"><ele>559.3333333333333</ele><time>2026-05-03T12:09:38.001Z</time></trkpt><trkpt lat="40.93037945281605" lon="15.022944685316695"><ele>560.0</ele><time>2026-05-03T12:09:39.001Z</time></trkpt><trkpt lat="40.93021675920539" lon="15.02304663508911"><ele>559.0</ele><time>2026-05-03T12:09:40.001Z</time></trkpt><trkpt lat="40.930057417017494" lon="15.023157763136817"><ele>558.0</ele><time>2026-05-03T12:09:41.001Z</time></trkpt><trkpt lat="40.92991581562084" lon="15.02329485941515"><ele>557.0</ele><time>2026-05-03T12:09:42Z</time></trkpt><trkpt lat="40.92981124607481" lon="15.023462300993717"><ele>557.0</ele><time>2026-05-03T12:09:43Z</time></trkpt><trkpt lat="40.929743576283954" lon="15.023650893362653"><ele>557.0</ele><time>2026-05-03T12:09:44Z</time></trkpt><trkpt lat="40.92968733381277" lon="15.0238784871888"><ele>557.0</ele><time>2026-05-03T12:09:45Z</time></trkpt><trkpt lat="40.929631314175516" lon="15.024115254304277"><ele>555.6666666666666</ele><time>2026-05-03T12:09:46Z</time></trkpt><trkpt lat="40.92957280763032" lon="15.024367440145431"><ele>554.3333333333334</ele><time>2026-05-03T12:09:47Z</time></trkpt><trkpt lat="40.92950870497583" lon="15.024620614393154"><ele>553.0</ele><time>2026-05-03T12:09:48Z</time></trkpt><trkpt lat="40.929441165143956" lon="15.024860639226949"><ele>551.6666666666667</ele><time>2026-05-03T12:09:49Z</time></trkpt><trkpt lat="40.92935311205859" lon="15.025086808074839"><ele>550.3333333333334</ele><time>2026-05-03T12:09:50Z</time></trkpt><trkpt lat="40.92929405517733" lon="15.025310432072764"><ele>549.0</ele><time>2026-05-03T12:09:51Z</time></trkpt><trkpt lat="40.92923796608301" lon="15.025524829496208"><ele>551.3333333333334</ele><time>2026-05-03T12:09:52Z</time></trkpt><trkpt lat="40.92917126765773" lon="15.025717826632404"><ele>553.6666666666667</ele><time>2026-05-03T12:09:53Z</time></trkpt><trkpt lat="40.929091740609834" lon="15.025882499845222"><ele>556.0</ele><time>2026-05-03T12:09:54Z</time></trkpt><trkpt lat="40.92897119893098" lon="15.025992593551226"><ele>556.0</ele><time>2026-05-03T12:09:55Z</time></trkpt><trkpt lat="40.92883433958767" lon="15.026116310586147"><ele>556.0</ele><time>2026-05-03T12:09:56Z</time></trkpt><trkpt lat="40.92866706961364" lon="15.026212326070329"><ele>556.0</ele><time>2026-05-03T12:09:57Z</time></trkpt><trkpt lat="40.928504556958984" lon="15.026325931606168"><ele>559.0</ele><time>2026-05-03T12:09:58Z</time></trkpt><trkpt lat="40.92835410336373" lon="15.026447015607962"><ele>562.0</ele><time>2026-05-03T12:09:59Z</time></trkpt><trkpt lat="40.928198308493066" lon="15.026515798786935"><ele>565.0</ele><time>2026-05-03T12:10:00Z</time></trkpt><trkpt lat="40.92803068687867" lon="15.026556443957112"><ele>565.0</ele><time>2026-05-03T12:10:01Z</time></trkpt><trkpt lat="40.92784184057492" lon="15.026609234224384"><ele>565.0</ele><time>2026-05-03T12:10:02Z</time></trkpt><trkpt lat="40.927666578219224" lon="15.02662557688317"><ele>565.0</ele><time>2026-05-03T12:10:03Z</time></trkpt><trkpt lat="40.92750239489041" lon="15.026683702510901"><ele>561.6666666666667</ele><time>2026-05-03T12:10:04Z</time></trkpt><trkpt lat="40.92734369446508" lon="15.026795812472463"><ele>558.3333333333334</ele><time>2026-05-03T12:10:05Z</time></trkpt><trkpt lat="40.92719793678599" lon="15.026974146325305"><ele>555.0</ele><time>2026-05-03T12:10:06Z</time></trkpt><trkpt lat="40.927055069302845" lon="15.02717653245335"><ele>555.0</ele><time>2026-05-03T12:10:07Z</time></trkpt><trkpt lat="40.92691799798523" lon="15.027406374718934"><ele>555.0</ele><time>2026-05-03T12:10:08Z</time></trkpt><trkpt lat="40.92677391106276" lon="15.027635798891401"><ele>555.0</ele><time>2026-05-03T12:10:09Z</time></trkpt><trkpt lat="40.92664977301541" lon="15.02783207749849"><ele>555.6666666666666</ele><time>2026-05-03T12:10:10Z</time></trkpt><trkpt lat="40.92653316916959" lon="15.028006447992418"><ele>556.3333333333333</ele><time>2026-05-03T12:10:11Z</time></trkpt><trkpt lat="40.926432163090325" lon="15.028136771394227"><ele>557.0</ele><time>2026-05-03T12:10:12Z</time></trkpt><trkpt lat="40.92631646862218" lon="15.02822289400631"><ele>557.0</ele><time>2026-05-03T12:10:13Z</time></trkpt><trkpt lat="40.92617496920312" lon="15.028259531103755"><ele>557.0</ele><time>2026-05-03T12:10:14Z</time></trkpt><trkpt lat="40.92605271127456" lon="15.028250372721075"><ele>557.0</ele><time>2026-05-03T12:10:15Z</time></trkpt><trkpt lat="40.92590536755358" lon="15.02820063391178"><ele>557.0</ele><time>2026-05-03T12:10:16Z</time></trkpt><trkpt lat="40.9257311984414" lon="15.028172456214284"><ele>559.0</ele><time>2026-05-03T12:10:17Z</time></trkpt><trkpt lat="40.92554932959149" lon="15.02812827196376"><ele>561.0</ele><time>2026-05-03T12:10:18Z</time></trkpt><trkpt lat="40.92536848314396" lon="15.028117194114694"><ele>563.0</ele><time>2026-05-03T12:10:19Z</time></trkpt><trkpt lat="40.92518557232408" lon="15.028136609574748"><ele>565.0</ele><time>2026-05-03T12:10:20Z</time></trkpt><trkpt lat="40.92500009934598" lon="15.028197459779438"><ele>567.0</ele><time>2026-05-03T12:10:21Z</time></trkpt><trkpt lat="40.924814131663965" lon="15.028300293895146"><ele>569.0</ele><time>2026-05-03T12:10:22Z</time></trkpt><trkpt lat="40.924628796119855" lon="15.028435554709723"><ele>564.6666666666666</ele><time>2026-05-03T12:10:23Z</time></trkpt><trkpt lat="40.92447415100719" lon="15.028572161624204"><ele>560.3333333333334</ele><time>2026-05-03T12:10:24Z</time></trkpt><trkpt lat="40.92433809947885" lon="15.028694617562545"><ele>556.0</ele><time>2026-05-03T12:10:25Z</time></trkpt><trkpt lat="40.92422246798276" lon="15.028783840395814"><ele>556.0</ele><time>2026-05-03T12:10:26Z</time></trkpt><trkpt lat="40.924105301667325" lon="15.028801298677216"><ele>556.0</ele><time>2026-05-03T12:10:27Z</time></trkpt><trkpt lat="40.924002255539285" lon="15.028766428115233"><ele>556.0</ele><time>2026-05-03T12:10:28Z</time></trkpt><trkpt lat="40.92389888428317" lon="15.028650046088256"><ele>556.0</ele><time>2026-05-03T12:10:29Z</time></trkpt><trkpt lat="40.92375340590766" lon="15.028515983683393"><ele>556.0</ele><time>2026-05-03T12:10:30Z</time></trkpt><trkpt lat="40.92360001644507" lon="15.028368611450313"><ele>556.0</ele><time>2026-05-03T12:10:31Z</time></trkpt><trkpt lat="40.92343111323671" lon="15.028262271530119"><ele>556.0</ele><time>2026-05-03T12:10:32Z</time></trkpt><trkpt lat="40.92327522539205" lon="15.028190397422499"><ele>556.3333333333334</ele><time>2026-05-03T12:10:33Z</time></trkpt><trkpt lat="40.92312329612067" lon="15.02816486569917"><ele>556.6666666666666</ele><time>2026-05-03T12:10:34Z</time></trkpt><trkpt lat="40.92296095145406" lon="15.028202459068657"><ele>557.0</ele><time>2026-05-03T12:10:35Z</time></trkpt><trkpt lat="40.92280645243868" lon="15.028314890721008"><ele>553.6666666666666</ele><time>2026-05-03T12:10:36Z</time></trkpt><trkpt lat="40.92263710602707" lon="15.02842267348491"><ele>550.3333333333334</ele><time>2026-05-03T12:10:37Z</time></trkpt><trkpt lat="40.922455688167304" lon="15.028454394685815"><ele>547.0</ele><time>2026-05-03T12:10:38Z</time></trkpt><trkpt lat="40.92227031863649" lon="15.028463943022603"><ele>547.0</ele><time>2026-05-03T12:10:39Z</time></trkpt><trkpt lat="40.9220547045276" lon="15.028453628546808"><ele>547.0</ele><time>2026-05-03T12:10:40Z</time></trkpt><trkpt lat="40.92182490580208" lon="15.028459139290533"><ele>547.0</ele><time>2026-05-03T12:10:41Z</time></trkpt><trkpt lat="40.92162360146915" lon="15.028452296218697"><ele>547.6666666666667</ele><time>2026-05-03T12:10:41.999Z</time></trkpt><trkpt lat="40.92145370173284" lon="15.028469286669578"><ele>548.3333333333334</ele><time>2026-05-03T12:10:42.999Z</time></trkpt><trkpt lat="40.92129881525269" lon="15.028518319703446"><ele>549.0</ele><time>2026-05-03T12:10:43.999Z</time></trkpt><trkpt lat="40.921157905187286" lon="15.028610534669113"><ele>549.0</ele><time>2026-05-03T12:10:44.999Z</time></trkpt><trkpt lat="40.921033794357854" lon="15.028780290662608"><ele>549.0</ele><time>2026-05-03T12:10:45.999Z</time></trkpt><trkpt lat="40.92094535182064" lon="15.028983446207263"><ele>549.0</ele><time>2026-05-03T12:10:46.999Z</time></trkpt><trkpt lat="40.920855963677226" lon="15.029219462375176"><ele>549.0</ele><time>2026-05-03T12:10:47.999Z</time></trkpt><trkpt lat="40.92076127752145" lon="15.029420724523092"><ele>549.0</ele><time>2026-05-03T12:10:48.999Z</time></trkpt><trkpt lat="40.92070776998066" lon="15.029588056507217"><ele>549.0</ele><time>2026-05-03T12:10:49.999Z</time></trkpt><trkpt lat="40.920694983912114" lon="15.029750459625742"><ele>549.0</ele><time>2026-05-03T12:10:50.999Z</time></trkpt><trkpt lat="40.92073871100276" lon="15.029908265405961"><ele>547.5</ele><time>2026-05-03T12:10:51.999Z</time></trkpt><trkpt lat="40.92078336405695" lon="15.030086110313817"><ele>546.0</ele><time>2026-05-03T12:10:52.999Z</time></trkpt><trkpt lat="40.9207629936264" lon="15.030244108253525"><ele>544.5</ele><time>2026-05-03T12:10:53.999Z</time></trkpt><trkpt lat="40.9206927976253" lon="15.030404520356395"><ele>543.0</ele><time>2026-05-03T12:10:54.999Z</time></trkpt><trkpt lat="40.920584462322054" lon="15.030535299336428"><ele>543.0</ele><time>2026-05-03T12:10:55.999Z</time></trkpt><trkpt lat="40.92043756096941" lon="15.030606334119508"><ele>543.0</ele><time>2026-05-03T12:10:56.999Z</time></trkpt><trkpt lat="40.920267016476245" lon="15.030668887059914"><ele>543.0</ele><time>2026-05-03T12:10:57.999Z</time></trkpt><trkpt lat="40.92005726319338" lon="15.030733022943407"><ele>540.5</ele><time>2026-05-03T12:10:58.999Z</time></trkpt><trkpt lat="40.919829279814785" lon="15.030816843736536"><ele>538.0</ele><time>2026-05-03T12:10:59.999Z</time></trkpt><trkpt lat="40.91958544068977" lon="15.030904839273994"><ele>538.0</ele><time>2026-05-03T12:11:00.999Z</time></trkpt><trkpt lat="40.91937938141447" lon="15.030990140880528"><ele>538.0</ele><time>2026-05-03T12:11:01.999Z</time></trkpt><trkpt lat="40.91920407552077" lon="15.031067140943433"><ele>538.0</ele><time>2026-05-03T12:11:02.999Z</time></trkpt><trkpt lat="40.919063601775555" lon="15.031129456180073"><ele>538.5</ele><time>2026-05-03T12:11:03.999Z</time></trkpt><trkpt lat="40.91895180158135" lon="15.031204722814472"><ele>539.0</ele><time>2026-05-03T12:11:04.999Z</time></trkpt><trkpt lat="40.91886912229998" lon="15.031341137975987"><ele>539.5</ele><time>2026-05-03T12:11:05.999Z</time></trkpt><trkpt lat="40.918822047035206" lon="15.03153195656448"><ele>540.0</ele><time>2026-05-03T12:11:06.999Z</time></trkpt><trkpt lat="40.91880062350671" lon="15.031714044127652"><ele>538.25</ele><time>2026-05-03T12:11:07.999Z</time></trkpt><trkpt lat="40.91875892398213" lon="15.031858478325486"><ele>536.5</ele><time>2026-05-03T12:11:08.999Z</time></trkpt><trkpt lat="40.91865509221411" lon="15.031937323476344"><ele>534.75</ele><time>2026-05-03T12:11:09.999Z</time></trkpt><trkpt lat="40.918531430004776" lon="15.031964304292815"><ele>533.0</ele><time>2026-05-03T12:11:10.999Z</time></trkpt><trkpt lat="40.918392610203405" lon="15.031923513498405"><ele>533.0</ele><time>2026-05-03T12:11:11.999Z</time></trkpt><trkpt lat="40.91822930839716" lon="15.031889868601418"><ele>533.0</ele><time>2026-05-03T12:11:12.999Z</time></trkpt><trkpt lat="40.91804429223462" lon="15.031873417913078"><ele>533.0</ele><time>2026-05-03T12:11:13.999Z</time></trkpt><trkpt lat="40.91784758470298" lon="15.031837773144245"><ele>533.0</ele><time>2026-05-03T12:11:14.999Z</time></trkpt><trkpt lat="40.91763364310025" lon="15.031816892350719"><ele>533.0</ele><time>2026-05-03T12:11:15.999Z</time></trkpt><trkpt lat="40.91742386085483" lon="15.031795016688074"><ele>533.0</ele><time>2026-05-03T12:11:16.999Z</time></trkpt><trkpt lat="40.91722783932948" lon="15.03177855019934"><ele>533.0</ele><time>2026-05-03T12:11:17.999Z</time></trkpt><trkpt lat="40.9170439876385" lon="15.031708967930298"><ele>533.0</ele><time>2026-05-03T12:11:18.999Z</time></trkpt><trkpt lat="40.91686460139549" lon="15.03166551795325"><ele>533.0</ele><time>2026-05-03T12:11:19.999Z</time></trkpt><trkpt lat="40.91669216151582" lon="15.031605019928788"><ele>535.0</ele><time>2026-05-03T12:11:20.999Z</time></trkpt><trkpt lat="40.91652010875879" lon="15.031554492169992"><ele>537.0</ele><time>2026-05-03T12:11:21.999Z</time></trkpt><trkpt lat="40.91636592100372" lon="15.031550669964808"><ele>539.0</ele><time>2026-05-03T12:11:22.999Z</time></trkpt><trkpt lat="40.91620708377398" lon="15.031614104420774"><ele>535.0</ele><time>2026-05-03T12:11:23.999Z</time></trkpt><trkpt lat="40.91606601619539" lon="15.031740455047395"><ele>531.0</ele><time>2026-05-03T12:11:24.999Z</time></trkpt><trkpt lat="40.91595325986413" lon="15.031941354187406"><ele>527.0</ele><time>2026-05-03T12:11:25.999Z</time></trkpt><trkpt lat="40.915877081840456" lon="15.032192454400477"><ele>522.0</ele><time>2026-05-03T12:11:26.999Z</time></trkpt><trkpt lat="40.91581872234426" lon="15.032473152728084"><ele>517.0</ele><time>2026-05-03T12:11:27.999Z</time></trkpt><trkpt lat="40.915762984084374" lon="15.032769965144185"><ele>517.0</ele><time>2026-05-03T12:11:28.999Z</time></trkpt><trkpt lat="40.91574439747485" lon="15.033034142231562"><ele>517.0</ele><time>2026-05-03T12:11:29.999Z</time></trkpt><trkpt lat="40.91574111024996" lon="15.03328452159348"><ele>517.0</ele><time>2026-05-03T12:11:30.999Z</time></trkpt><trkpt lat="40.915770028666365" lon="15.033533724951667"><ele>514.25</ele><time>2026-05-03T12:11:31.999Z</time></trkpt><trkpt lat="40.9157984716162" lon="15.033715007848748"><ele>511.5</ele><time>2026-05-03T12:11:32.999Z</time></trkpt><trkpt lat="40.915804331037684" lon="15.03389890362111"><ele>508.75</ele><time>2026-05-03T12:11:34.001Z</time></trkpt><trkpt lat="40.9157482031881" lon="15.034057879408662"><ele>506.0</ele><time>2026-05-03T12:11:35.001Z</time></trkpt><trkpt lat="40.91566331983084" lon="15.034221514860693"><ele>503.3333333333333</ele><time>2026-05-03T12:11:36.001Z</time></trkpt><trkpt lat="40.91555838534165" lon="15.03437942392711"><ele>500.66666666666663</ele><time>2026-05-03T12:11:37.001Z</time></trkpt><trkpt lat="40.91548392907808" lon="15.034548820780719"><ele>498.0</ele><time>2026-05-03T12:11:38.001Z</time></trkpt><trkpt lat="40.91543715138766" lon="15.034752347445739"><ele>494.33333333333337</ele><time>2026-05-03T12:11:39.001Z</time></trkpt><trkpt lat="40.915430405050984" lon="15.034974463744238"><ele>490.6666666666667</ele><time>2026-05-03T12:11:40.001Z</time></trkpt><trkpt lat="40.91546713599407" lon="15.03521023062897"><ele>487.0</ele><time>2026-05-03T12:11:41.001Z</time></trkpt><trkpt lat="40.91547422329298" lon="15.035408922845727"><ele>487.0</ele><time>2026-05-03T12:11:42Z</time></trkpt><trkpt lat="40.91543344801012" lon="15.035618030185375"><ele>487.0</ele><time>2026-05-03T12:11:43Z</time></trkpt><trkpt lat="40.915356088342385" lon="15.03578900728207"><ele>487.0</ele><time>2026-05-03T12:11:44Z</time></trkpt><trkpt lat="40.915236065670655" lon="15.035945727559444"><ele>484.33333333333337</ele><time>2026-05-03T12:11:45Z</time></trkpt><trkpt lat="40.915078110795065" lon="15.036076809748023"><ele>481.66666666666663</ele><time>2026-05-03T12:11:46Z</time></trkpt><trkpt lat="40.91492779911291" lon="15.036164581288812"><ele>479.0</ele><time>2026-05-03T12:11:47Z</time></trkpt><trkpt lat="40.91477116229499" lon="15.036192637331657"><ele>484.66666666666663</ele><time>2026-05-03T12:11:48Z</time></trkpt><trkpt lat="40.914629642643824" lon="15.036201240419555"><ele>490.33333333333337</ele><time>2026-05-03T12:11:49Z</time></trkpt><trkpt lat="40.914470809613384" lon="15.036202783370845"><ele>496.0</ele><time>2026-05-03T12:11:50Z</time></trkpt><trkpt lat="40.914314671418424" lon="15.03614064666786"><ele>495.33333333333337</ele><time>2026-05-03T12:11:51Z</time></trkpt><trkpt lat="40.91415306602297" lon="15.0360833452052"><ele>494.66666666666663</ele><time>2026-05-03T12:11:52Z</time></trkpt><trkpt lat="40.91401099153696" lon="15.03605843439152"><ele>494.0</ele><time>2026-05-03T12:11:53Z</time></trkpt><trkpt lat="40.91387319543514" lon="15.036084632761044"><ele>494.0</ele><time>2026-05-03T12:11:54Z</time></trkpt><trkpt lat="40.91370152617076" lon="15.036135924067874"><ele>494.0</ele><time>2026-05-03T12:11:55Z</time></trkpt><trkpt lat="40.91356554198985" lon="15.036217429989426"><ele>494.0</ele><time>2026-05-03T12:11:56Z</time></trkpt><trkpt lat="40.91343200346399" lon="15.036300000326335"><ele>491.25</ele><time>2026-05-03T12:11:57Z</time></trkpt><trkpt lat="40.91330445584413" lon="15.03637347147928"><ele>488.5</ele><time>2026-05-03T12:11:58Z</time></trkpt><trkpt lat="40.91316535834909" lon="15.036439137462514"><ele>485.75</ele><time>2026-05-03T12:11:59Z</time></trkpt><trkpt lat="40.91302342718607" lon="15.036501999435863"><ele>483.0</ele><time>2026-05-03T12:12:00Z</time></trkpt><trkpt lat="40.91287252642884" lon="15.036539747762276"><ele>483.0</ele><time>2026-05-03T12:12:01Z</time></trkpt><trkpt lat="40.91269850166665" lon="15.036537121623443"><ele>483.0</ele><time>2026-05-03T12:12:02Z</time></trkpt><trkpt lat="40.91255255535134" lon="15.036475982454183"><ele>483.0</ele><time>2026-05-03T12:12:03Z</time></trkpt><trkpt lat="40.91239407721914" lon="15.036413095374575"><ele>480.33333333333337</ele><time>2026-05-03T12:12:04Z</time></trkpt><trkpt lat="40.912249094269775" lon="15.03633806861278"><ele>477.6666666666667</ele><time>2026-05-03T12:12:05Z</time></trkpt><trkpt lat="40.91210057580998" lon="15.036263456722263"><ele>475.0</ele><time>2026-05-03T12:12:06Z</time></trkpt><trkpt lat="40.911945753329924" lon="15.03619138280957"><ele>475.0</ele><time>2026-05-03T12:12:07Z</time></trkpt><trkpt lat="40.91177809698722" lon="15.036138727300076"><ele>475.0</ele><time>2026-05-03T12:12:08Z</time></trkpt><trkpt lat="40.911620775851326" lon="15.036071548112004"><ele>475.0</ele><time>2026-05-03T12:12:09Z</time></trkpt><trkpt lat="40.911468497809494" lon="15.036044602625855"><ele>474.6666666666667</ele><time>2026-05-03T12:12:10Z</time></trkpt><trkpt lat="40.91131141795175" lon="15.036062256472272"><ele>474.33333333333337</ele><time>2026-05-03T12:12:11Z</time></trkpt><trkpt lat="40.911154668401586" lon="15.03614254509843"><ele>474.0</ele><time>2026-05-03T12:12:12Z</time></trkpt><trkpt lat="40.911035893027176" lon="15.036245513655414"><ele>474.0</ele><time>2026-05-03T12:12:13Z</time></trkpt><trkpt lat="40.910943092676575" lon="15.036382971642121"><ele>474.0</ele><time>2026-05-03T12:12:14Z</time></trkpt><trkpt lat="40.91088391913874" lon="15.036579735375641"><ele>474.0</ele><time>2026-05-03T12:12:15Z</time></trkpt><trkpt lat="40.91084063426673" lon="15.036801151924092"><ele>469.0</ele><time>2026-05-03T12:12:16Z</time></trkpt><trkpt lat="40.91083169441328" lon="15.037048647177714"><ele>464.0</ele><time>2026-05-03T12:12:17Z</time></trkpt><trkpt lat="40.91083693118991" lon="15.037285546553006"><ele>459.0</ele><time>2026-05-03T12:12:18Z</time></trkpt><trkpt lat="40.910869037726904" lon="15.037498683005895"><ele>458.33333333333337</ele><time>2026-05-03T12:12:19Z</time></trkpt><trkpt lat="40.91094309170335" lon="15.037692265246587"><ele>457.6666666666667</ele><time>2026-05-03T12:12:20Z</time></trkpt><trkpt lat="40.91103865136247" lon="15.037852647598312"><ele>457.0</ele><time>2026-05-03T12:12:21Z</time></trkpt><trkpt lat="40.91114627801339" lon="15.037988197731275"><ele>457.0</ele><time>2026-05-03T12:12:22Z</time></trkpt><trkpt lat="40.91124015120537" lon="15.038133643850001"><ele>457.0</ele><time>2026-05-03T12:12:23Z</time></trkpt><trkpt lat="40.91132451076387" lon="15.038319349845736"><ele>457.0</ele><time>2026-05-03T12:12:24Z</time></trkpt><trkpt lat="40.91139688355734" lon="15.038532038317665"><ele>454.0</ele><time>2026-05-03T12:12:25Z</time></trkpt><trkpt lat="40.91146992648863" lon="15.038769450613048"><ele>451.0</ele><time>2026-05-03T12:12:26Z</time></trkpt><trkpt lat="40.91154664315777" lon="15.039020912389931"><ele>448.0</ele><time>2026-05-03T12:12:27Z</time></trkpt><trkpt lat="40.91162257908219" lon="15.039283588700938"><ele>444.6666666666667</ele><time>2026-05-03T12:12:28Z</time></trkpt><trkpt lat="40.911702493376175" lon="15.039558825481672"><ele>441.33333333333337</ele><time>2026-05-03T12:12:29Z</time></trkpt><trkpt lat="40.91178151734539" lon="15.039825603031467"><ele>438.0</ele><time>2026-05-03T12:12:30Z</time></trkpt><trkpt lat="40.91186076277382" lon="15.040078155646578"><ele>437.0</ele><time>2026-05-03T12:12:31Z</time></trkpt><trkpt lat="40.91193173338984" lon="15.04030968864709"><ele>436.0</ele><time>2026-05-03T12:12:32Z</time></trkpt><trkpt lat="40.911993985464136" lon="15.040525455006522"><ele>435.0</ele><time>2026-05-03T12:12:33Z</time></trkpt><trkpt lat="40.912049391319" lon="15.040716755963006"><ele>439.66666666666663</ele><time>2026-05-03T12:12:34Z</time></trkpt><trkpt lat="40.91203662514756" lon="15.040938693438743"><ele>444.3333333333333</ele><time>2026-05-03T12:12:35Z</time></trkpt><trkpt lat="40.91217492124644" lon="15.041072169806041"><ele>449.0</ele><time>2026-05-03T12:12:36Z</time></trkpt><trkpt lat="40.91229197195771" lon="15.041227779311363"><ele>449.0</ele><time>2026-05-03T12:12:36.999Z</time></trkpt><trkpt lat="40.91244693880031" lon="15.041342442690498"><ele>449.0</ele><time>2026-05-03T12:12:37.999Z</time></trkpt><trkpt lat="40.91265897455303" lon="15.04135131243368"><ele>449.0</ele><time>2026-05-03T12:12:38.999Z</time></trkpt><trkpt lat="40.912877623632674" lon="15.041413188016476"><ele>447.5</ele><time>2026-05-03T12:12:39.999Z</time></trkpt><trkpt lat="40.91309203269444" lon="15.041467131163825"><ele>446.0</ele><time>2026-05-03T12:12:40.999Z</time></trkpt><trkpt lat="40.91331954234342" lon="15.041541698051882"><ele>445.3333333333333</ele><time>2026-05-03T12:12:41.999Z</time></trkpt><trkpt lat="40.9135242661787" lon="15.041597498392047"><ele>444.66666666666663</ele><time>2026-05-03T12:12:42.999Z</time></trkpt><trkpt lat="40.91369364804014" lon="15.04164532983572"><ele>444.0</ele><time>2026-05-03T12:12:43.999Z</time></trkpt><trkpt lat="40.91385429246875" lon="15.041693800545714"><ele>448.0</ele><time>2026-05-03T12:12:44.999Z</time></trkpt><trkpt lat="40.913989239835836" lon="15.041795790858867"><ele>452.0</ele><time>2026-05-03T12:12:45.999Z</time></trkpt><trkpt lat="40.914109854029995" lon="15.04193273086994"><ele>456.0</ele><time>2026-05-03T12:12:46.999Z</time></trkpt><trkpt lat="40.914200758325464" lon="15.042127254019098"><ele>454.33333333333337</ele><time>2026-05-03T12:12:47.999Z</time></trkpt><trkpt lat="40.914307040787314" lon="15.042351438911625"><ele>452.6666666666667</ele><time>2026-05-03T12:12:48.999Z</time></trkpt><trkpt lat="40.91442404180846" lon="15.04259589319564"><ele>451.0</ele><time>2026-05-03T12:12:49.999Z</time></trkpt><trkpt lat="40.914565517218435" lon="15.042864647183599"><ele>451.0</ele><time>2026-05-03T12:12:50.999Z</time></trkpt><trkpt lat="40.91471742069705" lon="15.04316291445588"><ele>451.0</ele><time>2026-05-03T12:12:51.999Z</time></trkpt><trkpt lat="40.91485867642076" lon="15.043442151812233"><ele>451.6666666666667</ele><time>2026-05-03T12:12:52.999Z</time></trkpt><trkpt lat="40.914978135550705" lon="15.043686097141462"><ele>452.33333333333337</ele><time>2026-05-03T12:12:53.999Z</time></trkpt><trkpt lat="40.91511447177405" lon="15.043925070341755"><ele>453.0</ele><time>2026-05-03T12:12:54.999Z</time></trkpt><trkpt lat="40.91526704182329" lon="15.044150373791673"><ele>457.66666666666663</ele><time>2026-05-03T12:12:55.999Z</time></trkpt><trkpt lat="40.915423373349235" lon="15.044334843781899"><ele>462.3333333333333</ele><time>2026-05-03T12:12:56.999Z</time></trkpt><trkpt lat="40.91558197857508" lon="15.044498736402803"><ele>467.0</ele><time>2026-05-03T12:12:57.999Z</time></trkpt><trkpt lat="40.91573919630356" lon="15.044629344239631"><ele>466.66666666666663</ele><time>2026-05-03T12:12:58.999Z</time></trkpt><trkpt lat="40.91591587279858" lon="15.04470719397791"><ele>466.33333333333337</ele><time>2026-05-03T12:12:59.999Z</time></trkpt><trkpt lat="40.916111648463485" lon="15.04473778829115"><ele>466.0</ele><time>2026-05-03T12:13:00.999Z</time></trkpt><trkpt lat="40.91634003446011" lon="15.044724888985671"><ele>466.0</ele><time>2026-05-03T12:13:01.999Z</time></trkpt><trkpt lat="40.91656204590825" lon="15.044703628351094"><ele>466.0</ele><time>2026-05-03T12:13:02.999Z</time></trkpt><trkpt lat="40.916759283040456" lon="15.044691681136948"><ele>466.0</ele><time>2026-05-03T12:13:03.999Z</time></trkpt><trkpt lat="40.91694256624275" lon="15.044673055002322"><ele>469.0</ele><time>2026-05-03T12:13:04.999Z</time></trkpt><trkpt lat="40.917165278219265" lon="15.04464790959519"><ele>472.0</ele><time>2026-05-03T12:13:05.999Z</time></trkpt><trkpt lat="40.917395888909674" lon="15.044656736899947"><ele>475.0</ele><time>2026-05-03T12:13:06.999Z</time></trkpt><trkpt lat="40.917623854701404" lon="15.044601032819266"><ele>478.0</ele><time>2026-05-03T12:13:07.999Z</time></trkpt><trkpt lat="40.917847988683796" lon="15.044547712584574"><ele>478.0</ele><time>2026-05-03T12:13:08.999Z</time></trkpt><trkpt lat="40.91804185958901" lon="15.044468443187082"><ele>478.0</ele><time>2026-05-03T12:13:09.999Z</time></trkpt><trkpt lat="40.91820913889248" lon="15.044391851601622"><ele>478.0</ele><time>2026-05-03T12:13:10.999Z</time></trkpt><trkpt lat="40.91836838686323" lon="15.04439065964485"><ele>477.0</ele><time>2026-05-03T12:13:11.999Z</time></trkpt><trkpt lat="40.918521032740536" lon="15.044435830503785"><ele>476.0</ele><time>2026-05-03T12:13:12.999Z</time></trkpt><trkpt lat="40.91869212141531" lon="15.044552541226672"><ele>475.0</ele><time>2026-05-03T12:13:13.999Z</time></trkpt><trkpt lat="40.918843051996" lon="15.044713706090297"><ele>475.0</ele><time>2026-05-03T12:13:14.999Z</time></trkpt><trkpt lat="40.91895497587207" lon="15.044919176745328"><ele>475.0</ele><time>2026-05-03T12:13:15.999Z</time></trkpt><trkpt lat="40.91903178566561" lon="15.045153017074497"><ele>475.0</ele><time>2026-05-03T12:13:16.999Z</time></trkpt><trkpt lat="40.91908727048876" lon="15.045428927353713"><ele>478.0</ele><time>2026-05-03T12:13:17.999Z</time></trkpt><trkpt lat="40.91913749101124" lon="15.045726664955478"><ele>481.0</ele><time>2026-05-03T12:13:18.999Z</time></trkpt><trkpt lat="40.919191077666035" lon="15.04601140393552"><ele>481.33333333333337</ele><time>2026-05-03T12:13:19.999Z</time></trkpt><trkpt lat="40.919227315264195" lon="15.04630444196818"><ele>481.66666666666663</ele><time>2026-05-03T12:13:20.999Z</time></trkpt><trkpt lat="40.91926909314684" lon="15.04657910187024"><ele>482.0</ele><time>2026-05-03T12:13:21.999Z</time></trkpt><trkpt lat="40.91934178230179" lon="15.046859611686124"><ele>484.3333333333333</ele><time>2026-05-03T12:13:22.999Z</time></trkpt><trkpt lat="40.91943891571324" lon="15.047114901719379"><ele>486.66666666666663</ele><time>2026-05-03T12:13:23.999Z</time></trkpt><trkpt lat="40.91958414914465" lon="15.047347946668593"><ele>489.0</ele><time>2026-05-03T12:13:24.999Z</time></trkpt><trkpt lat="40.91974560013342" lon="15.047568152774943"><ele>491.33333333333337</ele><time>2026-05-03T12:13:25.999Z</time></trkpt><trkpt lat="40.9198930872814" lon="15.047769660488724"><ele>493.6666666666667</ele><time>2026-05-03T12:13:26.999Z</time></trkpt><trkpt lat="40.92001960050156" lon="15.04795361192331"><ele>496.0</ele><time>2026-05-03T12:13:27.999Z</time></trkpt><trkpt lat="40.920129468263546" lon="15.048122850148316"><ele>501.33333333333337</ele><time>2026-05-03T12:13:28.999Z</time></trkpt><trkpt lat="40.920233583520755" lon="15.048287505549839"><ele>506.66666666666663</ele><time>2026-05-03T12:13:29.999Z</time></trkpt><trkpt lat="40.920332159384465" lon="15.048456025092586"><ele>512.0</ele><time>2026-05-03T12:13:30.999Z</time></trkpt><trkpt lat="40.92040675524524" lon="15.048647778634914"><ele>514.3333333333333</ele><time>2026-05-03T12:13:31.999Z</time></trkpt><trkpt lat="40.9204409925945" lon="15.048855068530443"><ele>516.6666666666666</ele><time>2026-05-03T12:13:32.999Z</time></trkpt><trkpt lat="40.920427911509876" lon="15.049092868667865"><ele>519.0</ele><time>2026-05-03T12:13:33.999Z</time></trkpt><trkpt lat="40.920404362429245" lon="15.049351601421263"><ele>522.0</ele><time>2026-05-03T12:13:34.999Z</time></trkpt><trkpt lat="40.92042918381335" lon="15.049620582035448"><ele>525.0</ele><time>2026-05-03T12:13:35.999Z</time></trkpt><trkpt lat="40.92044670962916" lon="15.0499242513724"><ele>528.0</ele><time>2026-05-03T12:13:36.999Z</time></trkpt><trkpt lat="40.92015249268305" lon="15.050340637643707"><ele>522.0</ele><time>2026-05-03T12:13:37.999Z</time></trkpt><trkpt lat="40.920071797016035" lon="15.050723094683285"><ele>516.0</ele><time>2026-05-03T12:13:38.999Z</time></trkpt><trkpt lat="40.91998294989928" lon="15.05110648489799"><ele>516.0</ele><time>2026-05-03T12:13:40Z</time></trkpt><trkpt lat="40.91991345958782" lon="15.051440749099664"><ele>516.0</ele><time>2026-05-03T12:13:41Z</time></trkpt><trkpt lat="40.91985280155416" lon="15.051738449815442"><ele>519.0</ele><time>2026-05-03T12:13:42Z</time></trkpt><trkpt lat="40.91980009071595" lon="15.051995786463847"><ele>522.0</ele><time>2026-05-03T12:13:43Z</time></trkpt><trkpt lat="40.919710277574886" lon="15.052182480382536"><ele>525.0</ele><time>2026-05-03T12:13:44Z</time></trkpt><trkpt lat="40.91961144604109" lon="15.052346122276028"><ele>523.3333333333334</ele><time>2026-05-03T12:13:45Z</time></trkpt><trkpt lat="40.919475096763044" lon="15.052496662557155"><ele>521.6666666666667</ele><time>2026-05-03T12:13:46Z</time></trkpt><trkpt lat="40.91929747787835" lon="15.052636641133798"><ele>520.0</ele><time>2026-05-03T12:13:47Z</time></trkpt><trkpt lat="40.919133149873424" lon="15.052798567925521"><ele>520.0</ele><time>2026-05-03T12:13:48Z</time></trkpt><trkpt lat="40.919004046959365" lon="15.05298808415216"><ele>520.0</ele><time>2026-05-03T12:13:49Z</time></trkpt><trkpt lat="40.918905593457616" lon="15.053210208660602"><ele>520.0</ele><time>2026-05-03T12:13:50Z</time></trkpt><trkpt lat="40.918853219890366" lon="15.053487793441652"><ele>525.0</ele><time>2026-05-03T12:13:51Z</time></trkpt><trkpt lat="40.91880590391055" lon="15.053773602273244"><ele>530.0</ele><time>2026-05-03T12:13:52Z</time></trkpt><trkpt lat="40.91873976018716" lon="15.054004182677248"><ele>535.0</ele><time>2026-05-03T12:13:53Z</time></trkpt><trkpt lat="40.918703869227336" lon="15.054205302833441"><ele>536.6666666666667</ele><time>2026-05-03T12:13:54Z</time></trkpt><trkpt lat="40.91871879251124" lon="15.05441978913582"><ele>538.3333333333334</ele><time>2026-05-03T12:13:55Z</time></trkpt><trkpt lat="40.91877809173738" lon="15.054664856256323"><ele>540.0</ele><time>2026-05-03T12:13:56Z</time></trkpt><trkpt lat="40.918863861718144" lon="15.054936749735148"><ele>541.0</ele><time>2026-05-03T12:13:57Z</time></trkpt><trkpt lat="40.91895731475737" lon="15.05523569208419"><ele>542.0</ele><time>2026-05-03T12:13:58Z</time></trkpt><trkpt lat="40.9190446193859" lon="15.055537800588354"><ele>542.0</ele><time>2026-05-03T12:13:59Z</time></trkpt><trkpt lat="40.919121765921275" lon="15.0557821630592"><ele>542.0</ele><time>2026-05-03T12:14:00Z</time></trkpt><trkpt lat="40.919169229394456" lon="15.05607365493569"><ele>542.0</ele><time>2026-05-03T12:14:01Z</time></trkpt><trkpt lat="40.91917484192926" lon="15.056353235162963"><ele>540.6666666666666</ele><time>2026-05-03T12:14:02Z</time></trkpt><trkpt lat="40.919151601706886" lon="15.056631292839745"><ele>539.3333333333334</ele><time>2026-05-03T12:14:03Z</time></trkpt><trkpt lat="40.919113185108216" lon="15.0568946753582"><ele>538.0</ele><time>2026-05-03T12:14:04Z</time></trkpt><trkpt lat="40.9190415847636" lon="15.057133942196877"><ele>538.0</ele><time>2026-05-03T12:14:05Z</time></trkpt><trkpt lat="40.91893327333382" lon="15.057364111458268"><ele>538.0</ele><time>2026-05-03T12:14:06Z</time></trkpt><trkpt lat="40.91879668705494" lon="15.057607735674665"><ele>538.0</ele><time>2026-05-03T12:14:07Z</time></trkpt><trkpt lat="40.91866056194803" lon="15.057854289771191"><ele>544.5</ele><time>2026-05-03T12:14:08Z</time></trkpt><trkpt lat="40.918544023540214" lon="15.058120557795636"><ele>551.0</ele><time>2026-05-03T12:14:09Z</time></trkpt><trkpt lat="40.91844143974026" lon="15.058401402350423"><ele>546.5</ele><time>2026-05-03T12:14:10Z</time></trkpt><trkpt lat="40.918357407097844" lon="15.058710179280256"><ele>542.0</ele><time>2026-05-03T12:14:11Z</time></trkpt><trkpt lat="40.91829080630386" lon="15.059031123756174"><ele>545.5</ele><time>2026-05-03T12:14:12Z</time></trkpt><trkpt lat="40.91822562633319" lon="15.059368107747812"><ele>549.0</ele><time>2026-05-03T12:14:13Z</time></trkpt><trkpt lat="40.91816092395408" lon="15.059668829403979"><ele>549.0</ele><time>2026-05-03T12:14:14Z</time></trkpt><trkpt lat="40.918109567325075" lon="15.059939291379795"><ele>549.0</ele><time>2026-05-03T12:14:15Z</time></trkpt><trkpt lat="40.91808569874701" lon="15.06018775812356"><ele>549.0</ele><time>2026-05-03T12:14:16Z</time></trkpt><trkpt lat="40.91811674346988" lon="15.060434540790103"><ele>551.6666666666666</ele><time>2026-05-03T12:14:17Z</time></trkpt><trkpt lat="40.91821043443281" lon="15.060677633103964"><ele>554.3333333333333</ele><time>2026-05-03T12:14:18Z</time></trkpt><trkpt lat="40.91834327467536" lon="15.06088003679058"><ele>557.0</ele><time>2026-05-03T12:14:19Z</time></trkpt><trkpt lat="40.91850563043221" lon="15.061081934895867"><ele>574.0</ele><time>2026-05-03T12:14:20Z</time></trkpt><trkpt lat="40.91867599186823" lon="15.061267836443482"><ele>591.0</ele><time>2026-05-03T12:14:21Z</time></trkpt><trkpt lat="40.91884613519503" lon="15.06151654736549"><ele>584.0</ele><time>2026-05-03T12:14:22Z</time></trkpt><trkpt lat="40.91901921936158" lon="15.061810258395704"><ele>577.0</ele><time>2026-05-03T12:14:23Z</time></trkpt><trkpt lat="40.91916114797311" lon="15.062091661777815"><ele>579.5</ele><time>2026-05-03T12:14:24Z</time></trkpt><trkpt lat="40.919320540867545" lon="15.062436249191224"><ele>582.0</ele><time>2026-05-03T12:14:25Z</time></trkpt><trkpt lat="40.91948168716109" lon="15.062757989297126"><ele>582.0</ele><time>2026-05-03T12:14:26Z</time></trkpt><trkpt lat="40.919647134620284" lon="15.06311476105559"><ele>582.0</ele><time>2026-05-03T12:14:27Z</time></trkpt><trkpt lat="40.91979800083805" lon="15.063465389847854"><ele>576.5</ele><time>2026-05-03T12:14:28Z</time></trkpt><trkpt lat="40.919939124349796" lon="15.063813795989814"><ele>571.0</ele><time>2026-05-03T12:14:29Z</time></trkpt><trkpt lat="40.92008011353229" lon="15.064139319843758"><ele>585.5</ele><time>2026-05-03T12:14:30Z</time></trkpt><trkpt lat="40.920195796394395" lon="15.06441457733696"><ele>600.0</ele><time>2026-05-03T12:14:31Z</time></trkpt><trkpt lat="40.92033349791531" lon="15.064693515918314"><ele>595.5</ele><time>2026-05-03T12:14:32Z</time></trkpt><trkpt lat="40.92049084690483" lon="15.064956742417209"><ele>591.0</ele><time>2026-05-03T12:14:33Z</time></trkpt><trkpt lat="40.920657098113224" lon="15.065178955501086"><ele>591.0</ele><time>2026-05-03T12:14:34Z</time></trkpt><trkpt lat="40.92082835958523" lon="15.065388968445685"><ele>591.0</ele><time>2026-05-03T12:14:34.999Z</time></trkpt><trkpt lat="40.92103558911251" lon="15.065569957817546"><ele>594.0</ele><time>2026-05-03T12:14:35.999Z</time></trkpt><trkpt lat="40.92124653998814" lon="15.06573677370576"><ele>597.0</ele><time>2026-05-03T12:14:36.999Z</time></trkpt><trkpt lat="40.92146437528814" lon="15.065900129837342"><ele>597.0</ele><time>2026-05-03T12:14:37.999Z</time></trkpt><trkpt lat="40.92165835967605" lon="15.066051005985658"><ele>597.0</ele><time>2026-05-03T12:14:38.999Z</time></trkpt><trkpt lat="40.92180558520301" lon="15.066188725727384"><ele>597.0</ele><time>2026-05-03T12:14:39.999Z</time></trkpt><trkpt lat="40.9219323418379" lon="15.066371079851324"><ele>598.3333333333334</ele><time>2026-05-03T12:14:40.999Z</time></trkpt><trkpt lat="40.92203852005431" lon="15.066624040994473"><ele>599.6666666666667</ele><time>2026-05-03T12:14:41.999Z</time></trkpt><trkpt lat="40.922112961613585" lon="15.066886233886637"><ele>601.0</ele><time>2026-05-03T12:14:42.999Z</time></trkpt><trkpt lat="40.922132581618115" lon="15.067131409601322"><ele>601.0</ele><time>2026-05-03T12:14:43.999Z</time></trkpt><trkpt lat="40.92212375876706" lon="15.06737676308707"><ele>601.0</ele><time>2026-05-03T12:14:44.999Z</time></trkpt><trkpt lat="40.922056382890815" lon="15.067625547900818"><ele>601.0</ele><time>2026-05-03T12:14:45.999Z</time></trkpt><trkpt lat="40.921962063412145" lon="15.06785998296111"><ele>602.6666666666667</ele><time>2026-05-03T12:14:46.999Z</time></trkpt><trkpt lat="40.921828212945684" lon="15.068068596929974"><ele>604.3333333333334</ele><time>2026-05-03T12:14:47.999Z</time></trkpt><trkpt lat="40.92163817869092" lon="15.068251861732676"><ele>606.0</ele><time>2026-05-03T12:14:48.999Z</time></trkpt><trkpt lat="40.92142304545538" lon="15.068441861032754"><ele>606.0</ele><time>2026-05-03T12:14:49.999Z</time></trkpt><trkpt lat="40.9212210922919" lon="15.068649879786912"><ele>606.0</ele><time>2026-05-03T12:14:50.999Z</time></trkpt><trkpt lat="40.921040295449394" lon="15.06884190617923"><ele>604.3333333333334</ele><time>2026-05-03T12:14:51.999Z</time></trkpt><trkpt lat="40.92087828651632" lon="15.068969190720724"><ele>602.6666666666667</ele><time>2026-05-03T12:14:52.999Z</time></trkpt><trkpt lat="40.92066678371662" lon="15.068973432200465"><ele>601.0</ele><time>2026-05-03T12:14:53.999Z</time></trkpt><trkpt lat="40.92050662545762" lon="15.06896127448456"><ele>601.0</ele><time>2026-05-03T12:14:54.999Z</time></trkpt><trkpt lat="40.92031037151825" lon="15.068908712527932"><ele>601.0</ele><time>2026-05-03T12:14:55.999Z</time></trkpt><trkpt lat="40.92015041316294" lon="15.068822092363256"><ele>601.0</ele><time>2026-05-03T12:14:56.999Z</time></trkpt><trkpt lat="40.92000522848606" lon="15.068682007967814"><ele>603.0</ele><time>2026-05-03T12:14:57.999Z</time></trkpt><trkpt lat="40.91989467452994" lon="15.068506497843165"><ele>605.0</ele><time>2026-05-03T12:14:58.999Z</time></trkpt><trkpt lat="40.91981835850131" lon="15.068288292235296"><ele>607.0</ele><time>2026-05-03T12:14:59.999Z</time></trkpt><trkpt lat="40.919767979335624" lon="15.068046587583583"><ele>607.0</ele><time>2026-05-03T12:15:00.999Z</time></trkpt><trkpt lat="40.91974261462959" lon="15.067780560368423"><ele>607.0</ele><time>2026-05-03T12:15:01.999Z</time></trkpt><trkpt lat="40.91971966772461" lon="15.067528925596472"><ele>607.0</ele><time>2026-05-03T12:15:02.999Z</time></trkpt><trkpt lat="40.91966790203945" lon="15.067300898043042"><ele>604.3333333333334</ele><time>2026-05-03T12:15:03.999Z</time></trkpt><trkpt lat="40.91959239358693" lon="15.067110947151434"><ele>601.6666666666666</ele><time>2026-05-03T12:15:04.999Z</time></trkpt><trkpt lat="40.91944504649572" lon="15.066969133847481"><ele>599.0</ele><time>2026-05-03T12:15:05.999Z</time></trkpt><trkpt lat="40.919265099505324" lon="15.066878534017278"><ele>604.6666666666666</ele><time>2026-05-03T12:15:06.999Z</time></trkpt><trkpt lat="40.91905331538029" lon="15.066810210589212"><ele>610.3333333333334</ele><time>2026-05-03T12:15:07.999Z</time></trkpt><trkpt lat="40.91884859575052" lon="15.066744940818493"><ele>616.0</ele><time>2026-05-03T12:15:08.999Z</time></trkpt><trkpt lat="40.9186485450113" lon="15.066696899589447"><ele>616.0</ele><time>2026-05-03T12:15:09.999Z</time></trkpt><trkpt lat="40.91846016500629" lon="15.066729918086628"><ele>616.0</ele><time>2026-05-03T12:15:10.999Z</time></trkpt><trkpt lat="40.918272448510436" lon="15.066831415450975"><ele>616.0</ele><time>2026-05-03T12:15:11.999Z</time></trkpt><trkpt lat="40.9181147383204" lon="15.066998298389251"><ele>618.6666666666667</ele><time>2026-05-03T12:15:12.999Z</time></trkpt><trkpt lat="40.918007698790994" lon="15.067218052089649"><ele>621.3333333333334</ele><time>2026-05-03T12:15:13.999Z</time></trkpt><trkpt lat="40.917949403196396" lon="15.06747991127688"><ele>624.0</ele><time>2026-05-03T12:15:14.999Z</time></trkpt><trkpt lat="40.91793013621369" lon="15.067748773984839"><ele>627.3333333333334</ele><time>2026-05-03T12:15:15.999Z</time></trkpt><trkpt lat="40.91792853569172" lon="15.067977686121658"><ele>630.6666666666667</ele><time>2026-05-03T12:15:16.999Z</time></trkpt><trkpt lat="40.91793411494664" lon="15.068173974784589"><ele>634.0</ele><time>2026-05-03T12:15:17.999Z</time></trkpt><trkpt lat="40.9179354593178" lon="15.068349063383693"><ele>636.0</ele><time>2026-05-03T12:15:18.999Z</time></trkpt><trkpt lat="40.91793777573983" lon="15.068508128328077"><ele>638.0</ele><time>2026-05-03T12:15:19.999Z</time></trkpt><trkpt lat="40.91793296793639" lon="15.068673390125323"><ele>640.0</ele><time>2026-05-03T12:15:20.999Z</time></trkpt><trkpt lat="40.91793009602913" lon="15.06886026794421"><ele>642.0</ele><time>2026-05-03T12:15:21.999Z</time></trkpt><trkpt lat="40.917915200352" lon="15.069049848129891"><ele>643.0</ele><time>2026-05-03T12:15:22.999Z</time></trkpt><trkpt lat="40.91792254611034" lon="15.069257797076247"><ele>644.0</ele><time>2026-05-03T12:15:23.999Z</time></trkpt><trkpt lat="40.917920909472336" lon="15.069472586445508"><ele>645.0</ele><time>2026-05-03T12:15:24.999Z</time></trkpt><trkpt lat="40.91790784777559" lon="15.069694295570956"><ele>645.0</ele><time>2026-05-03T12:15:25.999Z</time></trkpt><trkpt lat="40.91789375229446" lon="15.06991543504133"><ele>645.0</ele><time>2026-05-03T12:15:26.999Z</time></trkpt><trkpt lat="40.91787937981484" lon="15.070140823941532"><ele>645.0</ele><time>2026-05-03T12:15:27.999Z</time></trkpt><trkpt lat="40.91786378803972" lon="15.070375657443325"><ele>645.6666666666666</ele><time>2026-05-03T12:15:28.999Z</time></trkpt><trkpt lat="40.917838826200004" lon="15.0706133038103"><ele>646.3333333333333</ele><time>2026-05-03T12:15:29.999Z</time></trkpt><trkpt lat="40.91780945732603" lon="15.07085590166575"><ele>647.0</ele><time>2026-05-03T12:15:30.999Z</time></trkpt><trkpt lat="40.91777263729785" lon="15.071106923872732"><ele>647.0</ele><time>2026-05-03T12:15:31.999Z</time></trkpt><trkpt lat="40.91773819165048" lon="15.07135813151513"><ele>647.0</ele><time>2026-05-03T12:15:32.999Z</time></trkpt><trkpt lat="40.917704769436575" lon="15.071609917194513"><ele>647.0</ele><time>2026-05-03T12:15:33.999Z</time></trkpt><trkpt lat="40.917674558459815" lon="15.07186859172696"><ele>648.3333333333333</ele><time>2026-05-03T12:15:34.999Z</time></trkpt><trkpt lat="40.917636894680385" lon="15.07213257806118"><ele>649.6666666666666</ele><time>2026-05-03T12:15:35.999Z</time></trkpt><trkpt lat="40.91758892479646" lon="15.072390568934274"><ele>651.0</ele><time>2026-05-03T12:15:36.999Z</time></trkpt><trkpt lat="40.91751520613952" lon="15.072641947589974"><ele>651.0</ele><time>2026-05-03T12:15:37.999Z</time></trkpt><trkpt lat="40.91739750630306" lon="15.072885639697482"><ele>651.0</ele><time>2026-05-03T12:15:38.999Z</time></trkpt><trkpt lat="40.91723994948364" lon="15.073089352136593"><ele>651.0</ele><time>2026-05-03T12:15:39.999Z</time></trkpt><trkpt lat="40.917060910533266" lon="15.073261083887186"><ele>652.6666666666666</ele><time>2026-05-03T12:15:40.999Z</time></trkpt><trkpt lat="40.916884501319736" lon="15.07340354088513"><ele>654.3333333333333</ele><time>2026-05-03T12:15:41.998Z</time></trkpt><trkpt lat="40.916708672921786" lon="15.073504022003018"><ele>656.0</ele><time>2026-05-03T12:15:42.998Z</time></trkpt><trkpt lat="40.91654993272561" lon="15.073606133128818"><ele>656.0</ele><time>2026-05-03T12:15:43.998Z</time></trkpt><trkpt lat="40.91641266496702" lon="15.073717892543415"><ele>656.0</ele><time>2026-05-03T12:15:44.998Z</time></trkpt><trkpt lat="40.91628734451762" lon="15.073872805569257"><ele>656.0</ele><time>2026-05-03T12:15:46Z</time></trkpt><trkpt lat="40.916191142814036" lon="15.074087616418005"><ele>659.6666666666666</ele><time>2026-05-03T12:15:47Z</time></trkpt><trkpt lat="40.91613383217606" lon="15.0743233454952"><ele>663.3333333333334</ele><time>2026-05-03T12:15:48Z</time></trkpt><trkpt lat="40.916135308598996" lon="15.074581110907367"><ele>667.0</ele><time>2026-05-03T12:15:49Z</time></trkpt><trkpt lat="40.91616969770114" lon="15.0748520686528"><ele>669.3333333333334</ele><time>2026-05-03T12:15:50Z</time></trkpt><trkpt lat="40.91620609404712" lon="15.075132198524074"><ele>671.6666666666666</ele><time>2026-05-03T12:15:51Z</time></trkpt><trkpt lat="40.91624357306758" lon="15.075423904250085"><ele>674.0</ele><time>2026-05-03T12:15:52Z</time></trkpt><trkpt lat="40.916313354188866" lon="15.075733829666792"><ele>674.5</ele><time>2026-05-03T12:15:53Z</time></trkpt><trkpt lat="40.916401273659844" lon="15.076033442761831"><ele>675.0</ele><time>2026-05-03T12:15:54Z</time></trkpt><trkpt lat="40.91651410538745" lon="15.076339461262583"><ele>675.5</ele><time>2026-05-03T12:15:55Z</time></trkpt><trkpt lat="40.91662393111162" lon="15.076649066447755"><ele>676.0</ele><time>2026-05-03T12:15:56Z</time></trkpt><trkpt lat="40.916727756294044" lon="15.076956291960428"><ele>682.0</ele><time>2026-05-03T12:15:57Z</time></trkpt><trkpt lat="40.91683216003874" lon="15.077269741804995"><ele>688.0</ele><time>2026-05-03T12:15:58Z</time></trkpt><trkpt lat="40.91693337739904" lon="15.077563474066014"><ele>688.0</ele><time>2026-05-03T12:15:59Z</time></trkpt><trkpt lat="40.9170323608259" lon="15.077850885006525"><ele>688.0</ele><time>2026-05-03T12:16:00Z</time></trkpt><trkpt lat="40.91713042898479" lon="15.07813070456349"><ele>686.5</ele><time>2026-05-03T12:16:01Z</time></trkpt><trkpt lat="40.917222715856425" lon="15.078412504715457"><ele>685.0</ele><time>2026-05-03T12:16:02Z</time></trkpt><trkpt lat="40.917315159703755" lon="15.078692791178078"><ele>685.0</ele><time>2026-05-03T12:16:03Z</time></trkpt><trkpt lat="40.917420331833256" lon="15.078980724984065"><ele>685.0</ele><time>2026-05-03T12:16:04Z</time></trkpt><trkpt lat="40.91752386901816" lon="15.079275094661376"><ele>680.0</ele><time>2026-05-03T12:16:05Z</time></trkpt><trkpt lat="40.91762731631943" lon="15.079573339978781"><ele>675.0</ele><time>2026-05-03T12:16:06Z</time></trkpt><trkpt lat="40.91773400161731" lon="15.079886433985466"><ele>677.5</ele><time>2026-05-03T12:16:07Z</time></trkpt><trkpt lat="40.91783978989729" lon="15.080201550228171"><ele>680.0</ele><time>2026-05-03T12:16:08Z</time></trkpt><trkpt lat="40.91794004859959" lon="15.080500396568508"><ele>680.5</ele><time>2026-05-03T12:16:09Z</time></trkpt><trkpt lat="40.91804708708235" lon="15.080789342459031"><ele>681.0</ele><time>2026-05-03T12:16:10Z</time></trkpt><trkpt lat="40.91817814856349" lon="15.081074941762264"><ele>681.0</ele><time>2026-05-03T12:16:11Z</time></trkpt><trkpt lat="40.91832264621186" lon="15.081347669727993"><ele>681.0</ele><time>2026-05-03T12:16:12Z</time></trkpt><trkpt lat="40.91849281503735" lon="15.081606912097579"><ele>681.5</ele><time>2026-05-03T12:16:13Z</time></trkpt><trkpt lat="40.918678420660825" lon="15.08184891634118"><ele>682.0</ele><time>2026-05-03T12:16:14Z</time></trkpt><trkpt lat="40.918883446912375" lon="15.082076586743387"><ele>682.0</ele><time>2026-05-03T12:16:15Z</time></trkpt><trkpt lat="40.919103240992314" lon="15.082288798318087"><ele>682.0</ele><time>2026-05-03T12:16:16Z</time></trkpt><trkpt lat="40.91930567577069" lon="15.082462215032393"><ele>682.0</ele><time>2026-05-03T12:16:17Z</time></trkpt><trkpt lat="40.91952752898512" lon="15.082628874181934"><ele>682.0</ele><time>2026-05-03T12:16:18Z</time></trkpt><trkpt lat="40.919779068223576" lon="15.082753504693924"><ele>682.0</ele><time>2026-05-03T12:16:19Z</time></trkpt><trkpt lat="40.920050643527695" lon="15.08286463845085"><ele>682.0</ele><time>2026-05-03T12:16:20Z</time></trkpt><trkpt lat="40.92034763853069" lon="15.082982269168378"><ele>675.5</ele><time>2026-05-03T12:16:21Z</time></trkpt><trkpt lat="40.92065197884393" lon="15.083114469894726"><ele>669.0</ele><time>2026-05-03T12:16:22Z</time></trkpt><trkpt lat="40.92095852903625" lon="15.08324437411479"><ele>671.0</ele><time>2026-05-03T12:16:23Z</time></trkpt><trkpt lat="40.92123947083477" lon="15.083386840178411"><ele>673.0</ele><time>2026-05-03T12:16:24Z</time></trkpt><trkpt lat="40.92149553423164" lon="15.083500340113172"><ele>667.0</ele><time>2026-05-03T12:16:25Z</time></trkpt><trkpt lat="40.921741298593005" lon="15.083603652585905"><ele>661.0</ele><time>2026-05-03T12:16:26Z</time></trkpt><trkpt lat="40.92196771517282" lon="15.08373192762999"><ele>661.0</ele><time>2026-05-03T12:16:27Z</time></trkpt><trkpt lat="40.92215875640426" lon="15.083856776583424"><ele>661.0</ele><time>2026-05-03T12:16:28Z</time></trkpt><trkpt lat="40.92234978119248" lon="15.0840163521551"><ele>661.0</ele><time>2026-05-03T12:16:28.999Z</time></trkpt><trkpt lat="40.92254987304131" lon="15.08413174638208"><ele>662.5</ele><time>2026-05-03T12:16:29.999Z</time></trkpt><trkpt lat="40.922741316614456" lon="15.084361747044127"><ele>664.0</ele><time>2026-05-03T12:16:30.999Z</time></trkpt><trkpt lat="40.922945811249086" lon="15.08450642445394"><ele>664.0</ele><time>2026-05-03T12:16:31.999Z</time></trkpt><trkpt lat="40.92313111802959" lon="15.08464890427404"><ele>664.0</ele><time>2026-05-03T12:16:32.999Z</time></trkpt><trkpt lat="40.9233155064721" lon="15.0847895554305"><ele>664.0</ele><time>2026-05-03T12:16:33.999Z</time></trkpt><trkpt lat="40.9234687420465" lon="15.084922578616599"><ele>664.0</ele><time>2026-05-03T12:16:34.999Z</time></trkpt><trkpt lat="40.923602969136326" lon="15.085079434736688"><ele>664.0</ele><time>2026-05-03T12:16:35.999Z</time></trkpt><trkpt lat="40.92370483165569" lon="15.085265926999288"><ele>664.0</ele><time>2026-05-03T12:16:36.999Z</time></trkpt><trkpt lat="40.92378532760151" lon="15.085476350742658"><ele>664.0</ele><time>2026-05-03T12:16:37.999Z</time></trkpt><trkpt lat="40.923846251908905" lon="15.085716060061849"><ele>664.0</ele><time>2026-05-03T12:16:38.999Z</time></trkpt><trkpt lat="40.92387668727914" lon="15.085972751749873"><ele>664.0</ele><time>2026-05-03T12:16:39.999Z</time></trkpt><trkpt lat="40.92391271136031" lon="15.08623492522732"><ele>663.6666666666667</ele><time>2026-05-03T12:16:40.999Z</time></trkpt><trkpt lat="40.9239746355282" lon="15.086502584376221"><ele>663.3333333333334</ele><time>2026-05-03T12:16:41.999Z</time></trkpt><trkpt lat="40.92404719679603" lon="15.086758192633422"><ele>663.0</ele><time>2026-05-03T12:16:42.999Z</time></trkpt><trkpt lat="40.92414126152559" lon="15.087001330504224"><ele>662.3333333333334</ele><time>2026-05-03T12:16:43.999Z</time></trkpt><trkpt lat="40.92423753017169" lon="15.087202978853584"><ele>661.6666666666667</ele><time>2026-05-03T12:16:44.999Z</time></trkpt><trkpt lat="40.924335702813295" lon="15.087368987244945"><ele>661.0</ele><time>2026-05-03T12:16:45.999Z</time></trkpt><trkpt lat="40.924413203651625" lon="15.087498558143132"><ele>661.0</ele><time>2026-05-03T12:16:46.999Z</time></trkpt><trkpt lat="40.92446406211268" lon="15.087632372450592"><ele>661.0</ele><time>2026-05-03T12:16:47.999Z</time></trkpt><trkpt lat="40.924484401372986" lon="15.087766183440248"><ele>661.0</ele><time>2026-05-03T12:16:48.999Z</time></trkpt><trkpt lat="40.924478587900225" lon="15.087909439911456"><ele>661.0</ele><time>2026-05-03T12:16:49.999Z</time></trkpt><trkpt lat="40.92446445200874" lon="15.08803273638305"><ele>661.0</ele><time>2026-05-03T12:16:50.999Z</time></trkpt><trkpt lat="40.924450953985925" lon="15.088140090195246"><ele>661.4</ele><time>2026-05-03T12:16:51.999Z</time></trkpt><trkpt lat="40.92446181086615" lon="15.088265474379273"><ele>661.8</ele><time>2026-05-03T12:16:52.999Z</time></trkpt><trkpt lat="40.92451016210178" lon="15.088386190289649"><ele>662.1999999999999</ele><time>2026-05-03T12:16:53.999Z</time></trkpt><trkpt lat="40.924596055201945" lon="15.088469105349512"><ele>662.5999999999999</ele><time>2026-05-03T12:16:54.999Z</time></trkpt><trkpt lat="40.924700304593486" lon="15.088493628759865"><ele>663.0</ele><time>2026-05-03T12:16:55.999Z</time></trkpt><trkpt lat="40.92482076968948" lon="15.088481315379838"><ele>663.0</ele><time>2026-05-03T12:16:56.999Z</time></trkpt><trkpt lat="40.92496594401793" lon="15.088439861668643"><ele>663.0</ele><time>2026-05-03T12:16:57.999Z</time></trkpt><trkpt lat="40.925101905595966" lon="15.088417395441077"><ele>663.0</ele><time>2026-05-03T12:16:58.999Z</time></trkpt><trkpt lat="40.92524031189939" lon="15.088460066578094"><ele>663.0</ele><time>2026-05-03T12:16:59.999Z</time></trkpt><trkpt lat="40.92535778923585" lon="15.088546948934354"><ele>664.6666666666666</ele><time>2026-05-03T12:17:00.999Z</time></trkpt><trkpt lat="40.92547732977809" lon="15.088675420216445"><ele>666.3333333333333</ele><time>2026-05-03T12:17:01.999Z</time></trkpt><trkpt lat="40.92557838876938" lon="15.088827279246933"><ele>668.0</ele><time>2026-05-03T12:17:02.999Z</time></trkpt><trkpt lat="40.925688917742946" lon="15.088978687864115"><ele>668.5</ele><time>2026-05-03T12:17:03.999Z</time></trkpt><trkpt lat="40.92613290504124" lon="15.088997866275847"><ele>669.0</ele><time>2026-05-03T12:17:04.999Z</time></trkpt><trkpt lat="40.92629881183693" lon="15.089184906052836"><ele>668.0</ele><time>2026-05-03T12:17:05.999Z</time></trkpt><trkpt lat="40.92646197153639" lon="15.089388947406778"><ele>667.0</ele><time>2026-05-03T12:17:06.999Z</time></trkpt><trkpt lat="40.92663528697793" lon="15.08959520311919"><ele>668.0</ele><time>2026-05-03T12:17:07.999Z</time></trkpt><trkpt lat="40.926828129530186" lon="15.089777811341433"><ele>669.0</ele><time>2026-05-03T12:17:08.999Z</time></trkpt><trkpt lat="40.9270271775131" lon="15.089943486127762"><ele>669.0</ele><time>2026-05-03T12:17:09.999Z</time></trkpt><trkpt lat="40.927235799601846" lon="15.090095194446295"><ele>669.0</ele><time>2026-05-03T12:17:10.999Z</time></trkpt><trkpt lat="40.927448248577555" lon="15.090169747872629"><ele>669.0</ele><time>2026-05-03T12:17:11.999Z</time></trkpt><trkpt lat="40.927665214105545" lon="15.09022118036025"><ele>669.0</ele><time>2026-05-03T12:17:12.999Z</time></trkpt><trkpt lat="40.92787041040986" lon="15.09026419533052"><ele>669.0</ele><time>2026-05-03T12:17:13.999Z</time></trkpt><trkpt lat="40.92806101184566" lon="15.090305159613749"><ele>669.0</ele><time>2026-05-03T12:17:14.999Z</time></trkpt><trkpt lat="40.92824874389713" lon="15.090379851181615"><ele>669.0</ele><time>2026-05-03T12:17:15.999Z</time></trkpt><trkpt lat="40.92842048414037" lon="15.090499815532592"><ele>669.0</ele><time>2026-05-03T12:17:16.999Z</time></trkpt><trkpt lat="40.92857920916904" lon="15.090672186713359"><ele>669.0</ele><time>2026-05-03T12:17:17.999Z</time></trkpt><trkpt lat="40.928679427836826" lon="15.0909153372829"><ele>669.0</ele><time>2026-05-03T12:17:18.999Z</time></trkpt><trkpt lat="40.928792143705586" lon="15.091170618561254"><ele>669.0</ele><time>2026-05-03T12:17:19.999Z</time></trkpt><trkpt lat="40.92890900788318" lon="15.091429021465995"><ele>671.0</ele><time>2026-05-03T12:17:20.999Z</time></trkpt><trkpt lat="40.92900054190441" lon="15.091701413974373"><ele>673.0</ele><time>2026-05-03T12:17:21.999Z</time></trkpt><trkpt lat="40.92910265135327" lon="15.091998031006431"><ele>671.5</ele><time>2026-05-03T12:17:22.999Z</time></trkpt><trkpt lat="40.92922611537077" lon="15.092308971304966"><ele>670.0</ele><time>2026-05-03T12:17:23.999Z</time></trkpt><trkpt lat="40.929349154100414" lon="15.092608427269582"><ele>670.0</ele><time>2026-05-03T12:17:24.999Z</time></trkpt><trkpt lat="40.92945772982096" lon="15.092881508539948"><ele>670.0</ele><time>2026-05-03T12:17:25.999Z</time></trkpt><trkpt lat="40.92956367465229" lon="15.09316651607225"><ele>672.0</ele><time>2026-05-03T12:17:26.999Z</time></trkpt><trkpt lat="40.92963137570378" lon="15.093464801888063"><ele>674.0</ele><time>2026-05-03T12:17:27.999Z</time></trkpt><trkpt lat="40.92968201888246" lon="15.093771536837838"><ele>675.5</ele><time>2026-05-03T12:17:28.999Z</time></trkpt><trkpt lat="40.929734927218675" lon="15.094093030447164"><ele>677.0</ele><time>2026-05-03T12:17:29.999Z</time></trkpt><trkpt lat="40.9297903292599" lon="15.0944253015366"><ele>677.0</ele><time>2026-05-03T12:17:30.999Z</time></trkpt><trkpt lat="40.929847193512884" lon="15.094761494640814"><ele>677.0</ele><time>2026-05-03T12:17:31.999Z</time></trkpt><trkpt lat="40.92989979609268" lon="15.095105076143126"><ele>678.0</ele><time>2026-05-03T12:17:32.998Z</time></trkpt><trkpt lat="40.92994700212685" lon="15.095433674586346"><ele>679.0</ele><time>2026-05-03T12:17:33.998Z</time></trkpt><trkpt lat="40.92999742809657" lon="15.095749687230754"><ele>680.0</ele><time>2026-05-03T12:17:34.998Z</time></trkpt><trkpt lat="40.93005813705252" lon="15.096054998852072"><ele>681.0</ele><time>2026-05-03T12:17:35.998Z</time></trkpt><trkpt lat="40.93013393137117" lon="15.096361492809525"><ele>680.0</ele><time>2026-05-03T12:17:36.998Z</time></trkpt><trkpt lat="40.93023407427602" lon="15.09665851540395"><ele>679.0</ele><time>2026-05-03T12:17:37.998Z</time></trkpt><trkpt lat="40.930346182951176" lon="15.096943199977485"><ele>679.0</ele><time>2026-05-03T12:17:38.998Z</time></trkpt><trkpt lat="40.930458444974114" lon="15.097208891595088"><ele>679.0</ele><time>2026-05-03T12:17:39.998Z</time></trkpt><trkpt lat="40.930589179743" lon="15.097472613587053"><ele>680.0</ele><time>2026-05-03T12:17:40.998Z</time></trkpt><trkpt lat="40.93074027517393" lon="15.097725251549651"><ele>681.0</ele><time>2026-05-03T12:17:41.998Z</time></trkpt><trkpt lat="40.93090485658662" lon="15.097964601514391"><ele>681.0</ele><time>2026-05-03T12:17:42.998Z</time></trkpt><trkpt lat="40.93108688425901" lon="15.098190606798164"><ele>681.0</ele><time>2026-05-03T12:17:43.998Z</time></trkpt><trkpt lat="40.931283681201805" lon="15.098397106739803"><ele>683.0</ele><time>2026-05-03T12:17:44.998Z</time></trkpt><trkpt lat="40.931491678254844" lon="15.098589518866829"><ele>685.0</ele><time>2026-05-03T12:17:45.998Z</time></trkpt><trkpt lat="40.93171704070163" lon="15.098761976721981"><ele>686.5</ele><time>2026-05-03T12:17:46.998Z</time></trkpt><trkpt lat="40.93193618385276" lon="15.098934052236661"><ele>688.0</ele><time>2026-05-03T12:17:47.998Z</time></trkpt><trkpt lat="40.93213900707278" lon="15.099083136288412"><ele>688.5</ele><time>2026-05-03T12:17:48.998Z</time></trkpt><trkpt lat="40.93233799118531" lon="15.099251259933078"><ele>689.0</ele><time>2026-05-03T12:17:49.998Z</time></trkpt><trkpt lat="40.93253054685576" lon="15.099447558451677"><ele>688.0</ele><time>2026-05-03T12:17:50.998Z</time></trkpt><trkpt lat="40.93270248324798" lon="15.0996767848413"><ele>687.0</ele><time>2026-05-03T12:17:52Z</time></trkpt><trkpt lat="40.93286460635475" lon="15.099953785947088"><ele>689.5</ele><time>2026-05-03T12:17:53Z</time></trkpt><trkpt lat="40.93300680547852" lon="15.10025129945503"><ele>692.0</ele><time>2026-05-03T12:17:54Z</time></trkpt><trkpt lat="40.93313254004105" lon="15.100562607980159"><ele>693.5</ele><time>2026-05-03T12:17:55Z</time></trkpt><trkpt lat="40.933245078750744" lon="15.10088420396031"><ele>695.0</ele><time>2026-05-03T12:17:56Z</time></trkpt><trkpt lat="40.933349975759995" lon="15.101200377253305"><ele>696.5</ele><time>2026-05-03T12:17:57Z</time></trkpt><trkpt lat="40.933440806895455" lon="15.101535691720088"><ele>698.0</ele><time>2026-05-03T12:17:58Z</time></trkpt><trkpt lat="40.93351805820261" lon="15.101863850405548"><ele>701.0</ele><time>2026-05-03T12:17:59Z</time></trkpt><trkpt lat="40.933582453498964" lon="15.102195591409227"><ele>704.0</ele><time>2026-05-03T12:18:00Z</time></trkpt><trkpt lat="40.93362215229528" lon="15.102538542339548"><ele>705.0</ele><time>2026-05-03T12:18:01Z</time></trkpt><trkpt lat="40.93364606755591" lon="15.10288813848037"><ele>706.0</ele><time>2026-05-03T12:18:02Z</time></trkpt><trkpt lat="40.93365436402452" lon="15.103201599894057"><ele>705.3333333333334</ele><time>2026-05-03T12:18:03Z</time></trkpt><trkpt lat="40.93364988616072" lon="15.103501152323526"><ele>704.6666666666666</ele><time>2026-05-03T12:18:04Z</time></trkpt><trkpt lat="40.93363893314491" lon="15.103790728984686"><ele>704.0</ele><time>2026-05-03T12:18:05Z</time></trkpt><trkpt lat="40.933630438071624" lon="15.104079253306004"><ele>703.6666666666666</ele><time>2026-05-03T12:18:06Z</time></trkpt><trkpt lat="40.93362273504423" lon="15.104365480599427"><ele>703.3333333333334</ele><time>2026-05-03T12:18:07Z</time></trkpt><trkpt lat="40.933615226290215" lon="15.104655589644873"><ele>703.0</ele><time>2026-05-03T12:18:08Z</time></trkpt><trkpt lat="40.93360529603309" lon="15.10494454366063"><ele>703.6666666666667</ele><time>2026-05-03T12:18:09Z</time></trkpt><trkpt lat="40.93359316318706" lon="15.105230223564472"><ele>704.3333333333334</ele><time>2026-05-03T12:18:10Z</time></trkpt><trkpt lat="40.933564088533714" lon="15.105520473674732"><ele>705.0</ele><time>2026-05-03T12:18:11Z</time></trkpt><trkpt lat="40.93351051387756" lon="15.105810461727186"><ele>706.0</ele><time>2026-05-03T12:18:12Z</time></trkpt><trkpt lat="40.93343809335487" lon="15.106117787203859"><ele>707.0</ele><time>2026-05-03T12:18:13Z</time></trkpt><trkpt lat="40.93335464519508" lon="15.106434341412083"><ele>708.5</ele><time>2026-05-03T12:18:14Z</time></trkpt><trkpt lat="40.933273660286766" lon="15.10676732830425"><ele>710.0</ele><time>2026-05-03T12:18:15Z</time></trkpt><trkpt lat="40.93319259691793" lon="15.107103339040949"><ele>710.0</ele><time>2026-05-03T12:18:16Z</time></trkpt><trkpt lat="40.93311000385931" lon="15.107439118751781"><ele>710.0</ele><time>2026-05-03T12:18:17Z</time></trkpt><trkpt lat="40.93303136011628" lon="15.107774483627258"><ele>710.0</ele><time>2026-05-03T12:18:18Z</time></trkpt><trkpt lat="40.932954586042385" lon="15.108120351085365"><ele>710.0</ele><time>2026-05-03T12:18:19Z</time></trkpt><trkpt lat="40.932887827547034" lon="15.108449117079065"><ele>712.0</ele><time>2026-05-03T12:18:20Z</time></trkpt><trkpt lat="40.93281071146411" lon="15.108755548207709"><ele>714.0</ele><time>2026-05-03T12:18:21Z</time></trkpt><trkpt lat="40.93272835309726" lon="15.109050634789666"><ele>714.0</ele><time>2026-05-03T12:18:22Z</time></trkpt><trkpt lat="40.932629712065285" lon="15.109340876725366"><ele>714.0</ele><time>2026-05-03T12:18:23Z</time></trkpt><trkpt lat="40.93251140806914" lon="15.109628905249773"><ele>713.0</ele><time>2026-05-03T12:18:24Z</time></trkpt><trkpt lat="40.932379572466836" lon="15.109918550226025"><ele>712.0</ele><time>2026-05-03T12:18:25Z</time></trkpt><trkpt lat="40.93223369229073" lon="15.110204747012416"><ele>712.0</ele><time>2026-05-03T12:18:26Z</time></trkpt><trkpt lat="40.93208248979052" lon="15.11049821832129"><ele>712.0</ele><time>2026-05-03T12:18:27Z</time></trkpt><trkpt lat="40.931944244331106" lon="15.110793080225193"><ele>711.5</ele><time>2026-05-03T12:18:28Z</time></trkpt><trkpt lat="40.931799296201675" lon="15.111086618625588"><ele>711.0</ele><time>2026-05-03T12:18:29Z</time></trkpt><trkpt lat="40.93164850293825" lon="15.111378042086214"><ele>712.0</ele><time>2026-05-03T12:18:30Z</time></trkpt><trkpt lat="40.93149763453968" lon="15.111667576081004"><ele>713.0</ele><time>2026-05-03T12:18:31Z</time></trkpt><trkpt lat="40.9313459726922" lon="15.111961509799416"><ele>713.0</ele><time>2026-05-03T12:18:32Z</time></trkpt><trkpt lat="40.93119100997511" lon="15.112254506192794"><ele>713.0</ele><time>2026-05-03T12:18:33Z</time></trkpt><trkpt lat="40.931036158531036" lon="15.112543408759871"><ele>713.5</ele><time>2026-05-03T12:18:34Z</time></trkpt><trkpt lat="40.93087825148905" lon="15.112822835080772"><ele>714.0</ele><time>2026-05-03T12:18:35Z</time></trkpt><trkpt lat="40.93072204735617" lon="15.113099798464994"><ele>715.5</ele><time>2026-05-03T12:18:36Z</time></trkpt><trkpt lat="40.93056918065983" lon="15.11337426393929"><ele>717.0</ele><time>2026-05-03T12:18:36.999Z</time></trkpt><trkpt lat="40.93041638073016" lon="15.11364933945191"><ele>717.0</ele><time>2026-05-03T12:18:37.999Z</time></trkpt><trkpt lat="40.93025990809879" lon="15.113930128812356"><ele>717.0</ele><time>2026-05-03T12:18:38.999Z</time></trkpt><trkpt lat="40.930099913254374" lon="15.114209575460153"><ele>718.0</ele><time>2026-05-03T12:18:39.999Z</time></trkpt><trkpt lat="40.92993077328963" lon="15.114478542899128"><ele>719.0</ele><time>2026-05-03T12:18:40.999Z</time></trkpt><trkpt lat="40.9295645774705" lon="15.114362577676587"><ele>719.0</ele><time>2026-05-03T12:18:41.999Z</time></trkpt><trkpt lat="40.92936129346303" lon="15.114575952762099"><ele>719.0</ele><time>2026-05-03T12:18:42.999Z</time></trkpt><trkpt lat="40.929163125769314" lon="15.114795602672874"><ele>717.0</ele><time>2026-05-03T12:18:43.999Z</time></trkpt><trkpt lat="40.929251632024666" lon="15.115562899516005"><ele>716.5</ele><time>2026-05-03T12:18:44.999Z</time></trkpt><trkpt lat="40.92909869164161" lon="15.115838941142208"><ele>716.0</ele><time>2026-05-03T12:18:45.999Z</time></trkpt><trkpt lat="40.92897221728049" lon="15.116134447235059"><ele>716.0</ele><time>2026-05-03T12:18:46.999Z</time></trkpt><trkpt lat="40.92886829291513" lon="15.11643620251859"><ele>716.0</ele><time>2026-05-03T12:18:47.999Z</time></trkpt><trkpt lat="40.928787414875735" lon="15.11674316506715"><ele>716.5</ele><time>2026-05-03T12:18:48.999Z</time></trkpt><trkpt lat="40.92872801178768" lon="15.117064745714535"><ele>717.0</ele><time>2026-05-03T12:18:49.999Z</time></trkpt><trkpt lat="40.92868716192468" lon="15.117395136457251"><ele>717.5</ele><time>2026-05-03T12:18:50.999Z</time></trkpt><trkpt lat="40.928674127215665" lon="15.117740178774948"><ele>718.0</ele><time>2026-05-03T12:18:51.999Z</time></trkpt><trkpt lat="40.92869958003906" lon="15.118091475138586"><ele>717.5</ele><time>2026-05-03T12:18:52.999Z</time></trkpt><trkpt lat="40.92874129127855" lon="15.118445673996101"><ele>717.0</ele><time>2026-05-03T12:18:53.999Z</time></trkpt><trkpt lat="40.92881362426305" lon="15.118796070360531"><ele>718.5</ele><time>2026-05-03T12:18:54.999Z</time></trkpt><trkpt lat="40.92890530310112" lon="15.119145430023277"><ele>720.0</ele><time>2026-05-03T12:18:55.999Z</time></trkpt><trkpt lat="40.92900706504416" lon="15.119490904877429"><ele>720.0</ele><time>2026-05-03T12:18:56.999Z</time></trkpt><trkpt lat="40.929114134567364" lon="15.119826783866056"><ele>720.0</ele><time>2026-05-03T12:18:57.999Z</time></trkpt><trkpt lat="40.929211487444725" lon="15.12015045317086"><ele>721.5</ele><time>2026-05-03T12:18:58.999Z</time></trkpt><trkpt lat="40.92930276842855" lon="15.12045318743896"><ele>723.0</ele><time>2026-05-03T12:18:59.999Z</time></trkpt><trkpt lat="40.929394219238624" lon="15.120756121321158"><ele>723.5</ele><time>2026-05-03T12:19:00.999Z</time></trkpt><trkpt lat="40.929488093639186" lon="15.121063078382667"><ele>724.0</ele><time>2026-05-03T12:19:01.999Z</time></trkpt><trkpt lat="40.92956936349668" lon="15.121373535988786"><ele>723.5</ele><time>2026-05-03T12:19:02.999Z</time></trkpt><trkpt lat="40.92963763638655" lon="15.121699189857326"><ele>723.0</ele><time>2026-05-03T12:19:03.999Z</time></trkpt><trkpt lat="40.92967804152828" lon="15.122037249661274"><ele>723.0</ele><time>2026-05-03T12:19:04.999Z</time></trkpt><trkpt lat="40.92969577326425" lon="15.122376133843225"><ele>723.0</ele><time>2026-05-03T12:19:05.999Z</time></trkpt><trkpt lat="40.92967417045472" lon="15.122707413449684"><ele>723.0</ele><time>2026-05-03T12:19:06.999Z</time></trkpt><trkpt lat="40.92962941732177" lon="15.123027686068257"><ele>723.0</ele><time>2026-05-03T12:19:07.999Z</time></trkpt><trkpt lat="40.92958684493354" lon="15.123338584108085"><ele>723.0</ele><time>2026-05-03T12:19:08.999Z</time></trkpt><trkpt lat="40.929537231685686" lon="15.12361796062892"><ele>723.0</ele><time>2026-05-03T12:19:09.999Z</time></trkpt><trkpt lat="40.92945964040527" lon="15.12389516971591"><ele>723.0</ele><time>2026-05-03T12:19:10.999Z</time></trkpt><trkpt lat="40.92936053834122" lon="15.124173805238678"><ele>724.0</ele><time>2026-05-03T12:19:11.999Z</time></trkpt><trkpt lat="40.92921628452389" lon="15.124447077780493"><ele>725.0</ele><time>2026-05-03T12:19:12.999Z</time></trkpt><trkpt lat="40.92905424968566" lon="15.124716045798271"><ele>724.5</ele><time>2026-05-03T12:19:13.999Z</time></trkpt><trkpt lat="40.9288832124948" lon="15.124988340823005"><ele>724.0</ele><time>2026-05-03T12:19:14.999Z</time></trkpt><trkpt lat="40.928706321271854" lon="15.125260504725379"><ele>724.0</ele><time>2026-05-03T12:19:15.999Z</time></trkpt><trkpt lat="40.928523534355186" lon="15.125537550130089"><ele>724.0</ele><time>2026-05-03T12:19:16.999Z</time></trkpt><trkpt lat="40.92833610898294" lon="15.125818286249107"><ele>726.0</ele><time>2026-05-03T12:19:17.999Z</time></trkpt><trkpt lat="40.92814354804365" lon="15.126085631925807"><ele>728.0</ele><time>2026-05-03T12:19:18.999Z</time></trkpt><trkpt lat="40.92794632864262" lon="15.126334824583243"><ele>729.5</ele><time>2026-05-03T12:19:19.999Z</time></trkpt><trkpt lat="40.92774545311291" lon="15.126573236470595"><ele>731.0</ele><time>2026-05-03T12:19:20.999Z</time></trkpt><trkpt lat="40.927548690970895" lon="15.126810815115652"><ele>731.0</ele><time>2026-05-03T12:19:21.999Z</time></trkpt><trkpt lat="40.927369999105494" lon="15.127055951838228"><ele>731.0</ele><time>2026-05-03T12:19:22.999Z</time></trkpt><trkpt lat="40.927207663326286" lon="15.127315198441169"><ele>734.5</ele><time>2026-05-03T12:19:23.999Z</time></trkpt><trkpt lat="40.92704562871543" lon="15.127584908223062"><ele>738.0</ele><time>2026-05-03T12:19:24.999Z</time></trkpt><trkpt lat="40.92689756109167" lon="15.127863026937467"><ele>738.0</ele><time>2026-05-03T12:19:25.999Z</time></trkpt><trkpt lat="40.92675293377571" lon="15.128146648433818"><ele>738.0</ele><time>2026-05-03T12:19:26.999Z</time></trkpt><trkpt lat="40.92662028140327" lon="15.128437657871922"><ele>736.5</ele><time>2026-05-03T12:19:27.999Z</time></trkpt><trkpt lat="40.92650305044933" lon="15.128728620608394"><ele>735.0</ele><time>2026-05-03T12:19:28.999Z</time></trkpt><trkpt lat="40.926400016987685" lon="15.129015464702535"><ele>737.5</ele><time>2026-05-03T12:19:29.999Z</time></trkpt><trkpt lat="40.92629923040507" lon="15.129298271687151"><ele>740.0</ele><time>2026-05-03T12:19:30.999Z</time></trkpt><trkpt lat="40.92619713975179" lon="15.129568643065301"><ele>740.0</ele><time>2026-05-03T12:19:31.999Z</time></trkpt><trkpt lat="40.92609765747798" lon="15.129828681098111"><ele>740.0</ele><time>2026-05-03T12:19:32.999Z</time></trkpt><trkpt lat="40.92600608902555" lon="15.130074129298968"><ele>740.0</ele><time>2026-05-03T12:19:33.999Z</time></trkpt><trkpt lat="40.92591345124864" lon="15.130317211147249"><ele>739.6666666666666</ele><time>2026-05-03T12:19:34.999Z</time></trkpt><trkpt lat="40.925821877761386" lon="15.13056113507673"><ele>739.3333333333334</ele><time>2026-05-03T12:19:35.999Z</time></trkpt><trkpt lat="40.925730515992264" lon="15.130791650162154"><ele>739.0</ele><time>2026-05-03T12:19:36.999Z</time></trkpt><trkpt lat="40.9256438410135" lon="15.131021234496197"><ele>739.0</ele><time>2026-05-03T12:19:37.999Z</time></trkpt><trkpt lat="40.92556423946444" lon="15.131228458468792"><ele>739.0</ele><time>2026-05-03T12:19:38.999Z</time></trkpt><trkpt lat="40.92548611427973" lon="15.131439877891975"><ele>739.0</ele><time>2026-05-03T12:19:39.999Z</time></trkpt><trkpt lat="40.925404998791606" lon="15.131658578576376"><ele>740.0</ele><time>2026-05-03T12:19:40.999Z</time></trkpt><trkpt lat="40.92532807309173" lon="15.1318625351725"><ele>741.0</ele><time>2026-05-03T12:19:41.999Z</time></trkpt><trkpt lat="40.92525069229295" lon="15.132061541097922"><ele>742.0</ele><time>2026-05-03T12:19:42.999Z</time></trkpt><trkpt lat="40.925171962896684" lon="15.132271624365885"><ele>743.0</ele><time>2026-05-03T12:19:43.999Z</time></trkpt><trkpt lat="40.92509040493721" lon="15.132483840985332"><ele>744.0</ele><time>2026-05-03T12:19:44.998Z</time></trkpt><trkpt lat="40.925004957292714" lon="15.132689892249866"><ele>745.0</ele><time>2026-05-03T12:19:45.998Z</time></trkpt><trkpt lat="40.92491904954461" lon="15.132906524554627"><ele>743.3333333333334</ele><time>2026-05-03T12:19:46.998Z</time></trkpt><trkpt lat="40.92482994767858" lon="15.133117614940602"><ele>741.6666666666666</ele><time>2026-05-03T12:19:47.998Z</time></trkpt><trkpt lat="40.92475008812786" lon="15.133323108541353"><ele>740.0</ele><time>2026-05-03T12:19:48.998Z</time></trkpt><trkpt lat="40.92467717764724" lon="15.133527097284293"><ele>740.0</ele><time>2026-05-03T12:19:49.998Z</time></trkpt><trkpt lat="40.924600698519484" lon="15.133734418929775"><ele>740.0</ele><time>2026-05-03T12:19:50.998Z</time></trkpt><trkpt lat="40.92455398448991" lon="15.133929338021767"><ele>740.0</ele><time>2026-05-03T12:19:51.998Z</time></trkpt><trkpt lat="40.92449736818156" lon="15.134106740025254"><ele>741.0</ele><time>2026-05-03T12:19:52.998Z</time></trkpt><trkpt lat="40.924440336825114" lon="15.134298770662426"><ele>742.0</ele><time>2026-05-03T12:19:53.998Z</time></trkpt><trkpt lat="40.92438283746911" lon="15.134494543062019"><ele>743.0</ele><time>2026-05-03T12:19:54.998Z</time></trkpt><trkpt lat="40.92432967828587" lon="15.134699889894266"><ele>744.0</ele><time>2026-05-03T12:19:55.998Z</time></trkpt><trkpt lat="40.92428151198264" lon="15.134916665972765"><ele>745.0</ele><time>2026-05-03T12:19:56.998Z</time></trkpt><trkpt lat="40.924243374508016" lon="15.13513140499947"><ele>746.0</ele><time>2026-05-03T12:19:58Z</time></trkpt><trkpt lat="40.92421408025693" lon="15.135337454933834"><ele>743.0</ele><time>2026-05-03T12:19:59Z</time></trkpt><trkpt lat="40.92419240982222" lon="15.13556246166793"><ele>740.0</ele><time>2026-05-03T12:20:00Z</time></trkpt><trkpt lat="40.924191428921894" lon="15.135787806728715"><ele>737.0</ele><time>2026-05-03T12:20:01Z</time></trkpt><trkpt lat="40.92421597723646" lon="15.13603808118502"><ele>737.0</ele><time>2026-05-03T12:20:02Z</time></trkpt><trkpt lat="40.92422567415381" lon="15.136359487914797"><ele>737.0</ele><time>2026-05-03T12:20:03Z</time></trkpt><trkpt lat="40.924248733533254" lon="15.13671446686602"><ele>739.0</ele><time>2026-05-03T12:20:04Z</time></trkpt><trkpt lat="40.92425879591408" lon="15.13707605328812"><ele>741.0</ele><time>2026-05-03T12:20:05Z</time></trkpt><trkpt lat="40.92423464493852" lon="15.13739174572859"><ele>738.0</ele><time>2026-05-03T12:20:06Z</time></trkpt><trkpt lat="40.924183793351716" lon="15.137679315708573"><ele>735.0</ele><time>2026-05-03T12:20:07Z</time></trkpt><trkpt lat="40.92409468933988" lon="15.137976013688684"><ele>736.0</ele><time>2026-05-03T12:20:08Z</time></trkpt><trkpt lat="40.92397178592464" lon="15.138251373510489"><ele>737.0</ele><time>2026-05-03T12:20:09Z</time></trkpt><trkpt lat="40.923846719664326" lon="15.138487596345312"><ele>737.0</ele><time>2026-05-03T12:20:10Z</time></trkpt><trkpt lat="40.92371471141892" lon="15.138728281423221"><ele>737.0</ele><time>2026-05-03T12:20:11Z</time></trkpt><trkpt lat="40.92354808037763" lon="15.138934322001152"><ele>736.0</ele><time>2026-05-03T12:20:12Z</time></trkpt><trkpt lat="40.92336762872295" lon="15.139138561480278"><ele>735.0</ele><time>2026-05-03T12:20:13Z</time></trkpt><trkpt lat="40.92319373309124" lon="15.139348757149344"><ele>735.0</ele><time>2026-05-03T12:20:14Z</time></trkpt><trkpt lat="40.92302804489597" lon="15.139547534794328"><ele>735.0</ele><time>2026-05-03T12:20:15Z</time></trkpt><trkpt lat="40.922887023879156" lon="15.13973699185972"><ele>735.0</ele><time>2026-05-03T12:20:16Z</time></trkpt><trkpt lat="40.92274949599945" lon="15.139907371990477"><ele>734.75</ele><time>2026-05-03T12:20:17Z</time></trkpt><trkpt lat="40.922638274123216" lon="15.140067351416635"><ele>734.5</ele><time>2026-05-03T12:20:18Z</time></trkpt><trkpt lat="40.92253908644663" lon="15.14020694610034"><ele>734.25</ele><time>2026-05-03T12:20:19Z</time></trkpt><trkpt lat="40.92245199533837" lon="15.14030540565749"><ele>734.0</ele><time>2026-05-03T12:20:20Z</time></trkpt><trkpt lat="40.922391552196295" lon="15.140390214261826"><ele>731.0</ele><time>2026-05-03T12:20:21Z</time></trkpt><trkpt lat="40.92241422397595" lon="15.14057837477526"><ele>728.0</ele><time>2026-05-03T12:20:22Z</time></trkpt><trkpt lat="40.92240319356278" lon="15.140764237868474"><ele>725.0</ele><time>2026-05-03T12:20:23Z</time></trkpt><trkpt lat="40.92236924087447" lon="15.140981101395866"><ele>724.6666666666666</ele><time>2026-05-03T12:20:24Z</time></trkpt><trkpt lat="40.92231370400984" lon="15.141208992922333"><ele>724.3333333333334</ele><time>2026-05-03T12:20:25Z</time></trkpt><trkpt lat="40.9222486414434" lon="15.1414736892081"><ele>724.0</ele><time>2026-05-03T12:20:26Z</time></trkpt><trkpt lat="40.922195373885046" lon="15.141754168581187"><ele>724.0</ele><time>2026-05-03T12:20:27Z</time></trkpt><trkpt lat="40.92215339115492" lon="15.142029050489048"><ele>724.0</ele><time>2026-05-03T12:20:28Z</time></trkpt><trkpt lat="40.92213575620019" lon="15.14230657360539"><ele>724.0</ele><time>2026-05-03T12:20:29Z</time></trkpt><trkpt lat="40.92214695212976" lon="15.14258777581208"><ele>726.3333333333334</ele><time>2026-05-03T12:20:30Z</time></trkpt><trkpt lat="40.92219451840459" lon="15.142866598026618"><ele>728.6666666666666</ele><time>2026-05-03T12:20:31Z</time></trkpt><trkpt lat="40.92228351057038" lon="15.14313303675262"><ele>731.0</ele><time>2026-05-03T12:20:32Z</time></trkpt><trkpt lat="40.92242562040222" lon="15.143437097096383"><ele>734.0</ele><time>2026-05-03T12:20:33Z</time></trkpt><trkpt lat="40.92255064751884" lon="15.143772886360185"><ele>737.0</ele><time>2026-05-03T12:20:34Z</time></trkpt><trkpt lat="40.92265403221562" lon="15.144047479287025"><ele>744.5</ele><time>2026-05-03T12:20:35Z</time></trkpt><trkpt lat="40.92279004677842" lon="15.14440381087408"><ele>752.0</ele><time>2026-05-03T12:20:36Z</time></trkpt><trkpt lat="40.92292699785904" lon="15.144781249486979"><ele>754.0</ele><time>2026-05-03T12:20:37Z</time></trkpt><trkpt lat="40.92305822812166" lon="15.14518570353334"><ele>756.0</ele><time>2026-05-03T12:20:37.999Z</time></trkpt><trkpt lat="40.92316973399795" lon="15.145599783806956"><ele>757.0</ele><time>2026-05-03T12:20:38.999Z</time></trkpt><trkpt lat="40.92325901393258" lon="15.1460276307881"><ele>758.0</ele><time>2026-05-03T12:20:39.999Z</time></trkpt><trkpt lat="40.923301384603015" lon="15.146486724780434"><ele>758.0</ele><time>2026-05-03T12:20:40.999Z</time></trkpt><trkpt lat="40.92335086313784" lon="15.146949078707818"><ele>758.0</ele><time>2026-05-03T12:20:41.999Z</time></trkpt><trkpt lat="40.923402624882705" lon="15.147411016131622"><ele>764.5</ele><time>2026-05-03T12:20:42.999Z</time></trkpt><trkpt lat="40.923446103497305" lon="15.14781623436597"><ele>771.0</ele><time>2026-05-03T12:20:43.999Z</time></trkpt><trkpt lat="40.92347252475912" lon="15.14819010982645"><ele>770.0</ele><time>2026-05-03T12:20:44.999Z</time></trkpt><trkpt lat="40.923485287961725" lon="15.14853710642355"><ele>769.0</ele><time>2026-05-03T12:20:45.999Z</time></trkpt><trkpt lat="40.92348693037965" lon="15.148886308604592"><ele>763.0</ele><time>2026-05-03T12:20:46.999Z</time></trkpt><trkpt lat="40.92347560108472" lon="15.14925129224024"><ele>757.0</ele><time>2026-05-03T12:20:47.999Z</time></trkpt><trkpt lat="40.923462484436946" lon="15.14961914722351"><ele>758.0</ele><time>2026-05-03T12:20:48.999Z</time></trkpt><trkpt lat="40.92344979376704" lon="15.14997455177455"><ele>759.0</ele><time>2026-05-03T12:20:49.999Z</time></trkpt><trkpt lat="40.92343721653568" lon="15.150324211285195"><ele>759.0</ele><time>2026-05-03T12:20:50.999Z</time></trkpt><trkpt lat="40.92342468101951" lon="15.150671862121554"><ele>759.0</ele><time>2026-05-03T12:20:51.999Z</time></trkpt><trkpt lat="40.923416266625274" lon="15.151007386753813"><ele>758.5</ele><time>2026-05-03T12:20:52.999Z</time></trkpt><trkpt lat="40.9235522196316" lon="15.151350643924086"><ele>758.0</ele><time>2026-05-03T12:20:53.999Z</time></trkpt><trkpt lat="40.92365183357887" lon="15.151665828064518"><ele>758.0</ele><time>2026-05-03T12:20:54.999Z</time></trkpt><trkpt lat="40.9237722460662" lon="15.151974828349395"><ele>758.0</ele><time>2026-05-03T12:20:55.999Z</time></trkpt><trkpt lat="40.92390218627332" lon="15.152277838895563"><ele>760.0</ele><time>2026-05-03T12:20:56.999Z</time></trkpt><trkpt lat="40.92400636524546" lon="15.152602304121341"><ele>762.0</ele><time>2026-05-03T12:20:57.999Z</time></trkpt><trkpt lat="40.924111827782255" lon="15.152922427474865"><ele>764.0</ele><time>2026-05-03T12:20:58.999Z</time></trkpt><trkpt lat="40.92421881656072" lon="15.153248436452474"><ele>766.0</ele><time>2026-05-03T12:20:59.999Z</time></trkpt><trkpt lat="40.924324817554634" lon="15.153575813967073"><ele>767.5</ele><time>2026-05-03T12:21:00.999Z</time></trkpt><trkpt lat="40.924423980682384" lon="15.153908421866312"><ele>769.0</ele><time>2026-05-03T12:21:01.999Z</time></trkpt><trkpt lat="40.92451621771977" lon="15.15424486708114"><ele>771.5</ele><time>2026-05-03T12:21:02.999Z</time></trkpt><trkpt lat="40.92460212731577" lon="15.154590582154334"><ele>774.0</ele><time>2026-05-03T12:21:03.999Z</time></trkpt><trkpt lat="40.92468303206411" lon="15.154936439467278"><ele>774.0</ele><time>2026-05-03T12:21:04.999Z</time></trkpt><trkpt lat="40.92476261344684" lon="15.155274257035535"><ele>774.0</ele><time>2026-05-03T12:21:05.999Z</time></trkpt><trkpt lat="40.92484256168337" lon="15.15559197081229"><ele>773.3333333333333</ele><time>2026-05-03T12:21:06.999Z</time></trkpt><trkpt lat="40.924913696257605" lon="15.155887134043807"><ele>772.6666666666666</ele><time>2026-05-03T12:21:07.999Z</time></trkpt><trkpt lat="40.92497403938992" lon="15.156153765608869"><ele>772.0</ele><time>2026-05-03T12:21:08.999Z</time></trkpt><trkpt lat="40.92505396790901" lon="15.156381184389828"><ele>771.0</ele><time>2026-05-03T12:21:09.999Z</time></trkpt><trkpt lat="40.92516576939622" lon="15.156559112427335"><ele>770.0</ele><time>2026-05-03T12:21:10.999Z</time></trkpt><trkpt lat="40.9253118016156" lon="15.156689061119422"><ele>769.0</ele><time>2026-05-03T12:21:11.999Z</time></trkpt><trkpt lat="40.925486442817366" lon="15.156746600356394"><ele>769.0</ele><time>2026-05-03T12:21:12.999Z</time></trkpt><trkpt lat="40.925681222147325" lon="15.156747433530612"><ele>769.0</ele><time>2026-05-03T12:21:13.999Z</time></trkpt><trkpt lat="40.92588168961256" lon="15.156676331872632"><ele>769.0</ele><time>2026-05-03T12:21:14.999Z</time></trkpt><trkpt lat="40.92609909789504" lon="15.156577400787008"><ele>772.3333333333333</ele><time>2026-05-03T12:21:15.999Z</time></trkpt><trkpt lat="40.92631567115974" lon="15.156492255386256"><ele>775.6666666666667</ele><time>2026-05-03T12:21:16.999Z</time></trkpt><trkpt lat="40.92652175135014" lon="15.156468458824861"><ele>779.0</ele><time>2026-05-03T12:21:17.999Z</time></trkpt><trkpt lat="40.92671576393118" lon="15.156497209818523"><ele>773.0</ele><time>2026-05-03T12:21:18.999Z</time></trkpt><trkpt lat="40.92691216637283" lon="15.15656163420395"><ele>767.0</ele><time>2026-05-03T12:21:19.999Z</time></trkpt><trkpt lat="40.92709987643909" lon="15.156665166062616"><ele>761.0</ele><time>2026-05-03T12:21:20.999Z</time></trkpt><trkpt lat="40.92728648077989" lon="15.156807514209252"><ele>761.0</ele><time>2026-05-03T12:21:21.999Z</time></trkpt><trkpt lat="40.92746780178239" lon="15.156963049679087"><ele>761.0</ele><time>2026-05-03T12:21:22.999Z</time></trkpt><trkpt lat="40.9276336380631" lon="15.157091894798015"><ele>761.0</ele><time>2026-05-03T12:21:23.999Z</time></trkpt><trkpt lat="40.927805140714995" lon="15.157187074300005"><ele>755.3333333333333</ele><time>2026-05-03T12:21:24.999Z</time></trkpt><trkpt lat="40.92797254982649" lon="15.157219496736111"><ele>749.6666666666666</ele><time>2026-05-03T12:21:25.999Z</time></trkpt><trkpt lat="40.92815167496288" lon="15.15721024193702"><ele>744.0</ele><time>2026-05-03T12:21:26.999Z</time></trkpt><trkpt lat="40.92835268443058" lon="15.157189077610006"><ele>742.0</ele><time>2026-05-03T12:21:27.999Z</time></trkpt><trkpt lat="40.92855331277517" lon="15.157223851337262"><ele>740.0</ele><time>2026-05-03T12:21:28.999Z</time></trkpt><trkpt lat="40.92874876288721" lon="15.157312364235894"><ele>738.0</ele><time>2026-05-03T12:21:29.999Z</time></trkpt><trkpt lat="40.928936373055215" lon="15.157447845007216"><ele>738.0</ele><time>2026-05-03T12:21:30.999Z</time></trkpt><trkpt lat="40.92911467593667" lon="15.157625917471194"><ele>738.0</ele><time>2026-05-03T12:21:31.999Z</time></trkpt><trkpt lat="40.92928382238936" lon="15.15783229046133"><ele>735.5</ele><time>2026-05-03T12:21:32.999Z</time></trkpt><trkpt lat="40.929436480719495" lon="15.158059178852566"><ele>733.0</ele><time>2026-05-03T12:21:33.999Z</time></trkpt><trkpt lat="40.929580650324645" lon="15.158291575884604"><ele>733.0</ele><time>2026-05-03T12:21:34.999Z</time></trkpt><trkpt lat="40.9297220670149" lon="15.158516315568393"><ele>733.0</ele><time>2026-05-03T12:21:35.999Z</time></trkpt><trkpt lat="40.9298908845679" lon="15.158704798176327"><ele>733.0</ele><time>2026-05-03T12:21:36.999Z</time></trkpt><trkpt lat="40.93009076678428" lon="15.158873896699403"><ele>734.0</ele><time>2026-05-03T12:21:37.999Z</time></trkpt><trkpt lat="40.93030916170731" lon="15.159019893535557"><ele>735.0</ele><time>2026-05-03T12:21:38.999Z</time></trkpt><trkpt lat="40.93052281737638" lon="15.159161233119027"><ele>735.0</ele><time>2026-05-03T12:21:39.999Z</time></trkpt><trkpt lat="40.93073174296936" lon="15.15930907054357"><ele>735.0</ele><time>2026-05-03T12:21:40.999Z</time></trkpt><trkpt lat="40.93094299912585" lon="15.15945765576653"><ele>735.0</ele><time>2026-05-03T12:21:41.999Z</time></trkpt><trkpt lat="40.93114551806065" lon="15.159606226460273"><ele>735.0</ele><time>2026-05-03T12:21:42.999Z</time></trkpt><trkpt lat="40.931352982421394" lon="15.159754479250063"><ele>734.5</ele><time>2026-05-03T12:21:43.999Z</time></trkpt><trkpt lat="40.93155591310357" lon="15.15989768595177"><ele>734.0</ele><time>2026-05-03T12:21:44.999Z</time></trkpt><trkpt lat="40.9317608407413" lon="15.160042609624606"><ele>734.0</ele><time>2026-05-03T12:21:45.999Z</time></trkpt><trkpt lat="40.931942106075084" lon="15.1601984599422"><ele>734.0</ele><time>2026-05-03T12:21:46.999Z</time></trkpt><trkpt lat="40.93211898530917" lon="15.160381840161467"><ele>734.0</ele><time>2026-05-03T12:21:47.999Z</time></trkpt><trkpt lat="40.93226148837556" lon="15.160591619697264"><ele>734.0</ele><time>2026-05-03T12:21:48.998Z</time></trkpt><trkpt lat="40.93237692550262" lon="15.1608022949817"><ele>734.0</ele><time>2026-05-03T12:21:49.998Z</time></trkpt><trkpt lat="40.93247315090151" lon="15.161024199236719"><ele>734.0</ele><time>2026-05-03T12:21:50.998Z</time></trkpt><trkpt lat="40.93251580320599" lon="15.161262675810205"><ele>734.0</ele><time>2026-05-03T12:21:51.998Z</time></trkpt><trkpt lat="40.93249946159399" lon="15.161482706199308"><ele>734.0</ele><time>2026-05-03T12:21:52.998Z</time></trkpt><trkpt lat="40.932438383881866" lon="15.161718374163392"><ele>734.0</ele><time>2026-05-03T12:21:53.998Z</time></trkpt><trkpt lat="40.932360561487975" lon="15.161953703043567"><ele>732.6666666666666</ele><time>2026-05-03T12:21:54.998Z</time></trkpt><trkpt lat="40.93229583359175" lon="15.16217004049356"><ele>731.3333333333334</ele><time>2026-05-03T12:21:55.998Z</time></trkpt><trkpt lat="40.93223459830301" lon="15.162370228093959"><ele>730.0</ele><time>2026-05-03T12:21:56.998Z</time></trkpt><trkpt lat="40.93217908827703" lon="15.162562904875236"><ele>728.6666666666667</ele><time>2026-05-03T12:21:57.998Z</time></trkpt><trkpt lat="40.93212992532413" lon="15.162750948958628"><ele>727.3333333333334</ele><time>2026-05-03T12:21:58.998Z</time></trkpt><trkpt lat="40.93208217010875" lon="15.16295121743547"><ele>726.0</ele><time>2026-05-03T12:21:59.998Z</time></trkpt><trkpt lat="40.93202837804454" lon="15.163157631404909"><ele>725.3333333333334</ele><time>2026-05-03T12:22:00.998Z</time></trkpt><trkpt lat="40.931965517546004" lon="15.163362428742913"><ele>724.6666666666667</ele><time>2026-05-03T12:22:01.998Z</time></trkpt><trkpt lat="40.93191351250945" lon="15.163572852988619"><ele>724.0</ele><time>2026-05-03T12:22:02.998Z</time></trkpt><trkpt lat="40.93186461968511" lon="15.163788245951244"><ele>724.0</ele><time>2026-05-03T12:22:04Z</time></trkpt><trkpt lat="40.93180418434065" lon="15.16400146291555"><ele>724.0</ele><time>2026-05-03T12:22:05Z</time></trkpt><trkpt lat="40.93175584909027" lon="15.164206129466999"><ele>724.0</ele><time>2026-05-03T12:22:06Z</time></trkpt><trkpt lat="40.9317017887465" lon="15.164411082564026"><ele>723.3333333333334</ele><time>2026-05-03T12:22:07Z</time></trkpt><trkpt lat="40.9316159498433" lon="15.16457838361528"><ele>722.6666666666666</ele><time>2026-05-03T12:22:08Z</time></trkpt><trkpt lat="40.93153308864546" lon="15.16475274336493"><ele>722.0</ele><time>2026-05-03T12:22:09Z</time></trkpt><trkpt lat="40.931434220018254" lon="15.164919954747907"><ele>722.0</ele><time>2026-05-03T12:22:10Z</time></trkpt><trkpt lat="40.931344555416985" lon="15.165080083606204"><ele>722.0</ele><time>2026-05-03T12:22:11Z</time></trkpt><trkpt lat="40.93125299644608" lon="15.165210111815298"><ele>722.0</ele><time>2026-05-03T12:22:12Z</time></trkpt><trkpt lat="40.93117112145152" lon="15.165325361588549"><ele>722.0</ele><time>2026-05-03T12:22:13Z</time></trkpt><trkpt lat="40.93109938253264" lon="15.16543433858701"><ele>722.0</ele><time>2026-05-03T12:22:14Z</time></trkpt><trkpt lat="40.93101252780684" lon="15.16554905731461"><ele>722.0</ele><time>2026-05-03T12:22:15Z</time></trkpt><trkpt lat="40.9309153021909" lon="15.165690562437701"><ele>722.0</ele><time>2026-05-03T12:22:16Z</time></trkpt><trkpt lat="40.930817781808685" lon="15.16584184182034"><ele>722.0</ele><time>2026-05-03T12:22:17Z</time></trkpt><trkpt lat="40.930717368940456" lon="15.165999346535354"><ele>723.0</ele><time>2026-05-03T12:22:18Z</time></trkpt><trkpt lat="40.93061412935895" lon="15.166161264704245"><ele>724.0</ele><time>2026-05-03T12:22:19Z</time></trkpt><trkpt lat="40.93054089017078" lon="15.16631197820591"><ele>725.0</ele><time>2026-05-03T12:22:20Z</time></trkpt><trkpt lat="40.93048609941499" lon="15.166435588347221"><ele>726.0</ele><time>2026-05-03T12:22:21Z</time></trkpt><trkpt lat="40.930478086040715" lon="15.166553711542852"><ele>726.6666666666666</ele><time>2026-05-03T12:22:22Z</time></trkpt><trkpt lat="40.93049433511805" lon="15.166667474176673"><ele>727.3333333333334</ele><time>2026-05-03T12:22:23Z</time></trkpt><trkpt lat="40.930492339659985" lon="15.166782414382482"><ele>728.0</ele><time>2026-05-03T12:22:24Z</time></trkpt><trkpt lat="40.93048125034608" lon="15.166891631691973"><ele>728.6666666666667</ele><time>2026-05-03T12:22:25Z</time></trkpt><trkpt lat="40.9304523859128" lon="15.166997592929697"><ele>729.3333333333334</ele><time>2026-05-03T12:22:26Z</time></trkpt><trkpt lat="40.93041923916805" lon="15.167094936764428"><ele>730.0</ele><time>2026-05-03T12:22:27Z</time></trkpt><trkpt lat="40.93038577288953" lon="15.16717564633301"><ele>730.0</ele><time>2026-05-03T12:22:28Z</time></trkpt><trkpt lat="40.93034764061582" lon="15.167252374478995"><ele>730.0</ele><time>2026-05-03T12:22:29Z</time></trkpt><trkpt lat="40.93030001894569" lon="15.167345569065168"><ele>730.0</ele><time>2026-05-03T12:22:31Z</time></trkpt><trkpt lat="40.93026076917486" lon="15.167460172002212"><ele>730.0</ele><time>2026-05-03T12:22:40Z</time></trkpt><trkpt lat="40.930224291635284" lon="15.167564416393283"><ele>730.0</ele><time>2026-05-03T12:22:41Z</time></trkpt><trkpt lat="40.93016428477476" lon="15.16773470034388"><ele>731.4</ele><time>2026-05-03T12:22:42Z</time></trkpt><trkpt lat="40.93012115860127" lon="15.167880967623894"><ele>732.8</ele><time>2026-05-03T12:22:43Z</time></trkpt><trkpt lat="40.93009176639307" lon="15.168018138175634"><ele>734.2</ele><time>2026-05-03T12:22:44Z</time></trkpt><trkpt lat="40.93008828474148" lon="15.168156543745834"><ele>735.6</ele><time>2026-05-03T12:22:45Z</time></trkpt><trkpt lat="40.93008780529192" lon="15.168291375835729"><ele>737.0</ele><time>2026-05-03T12:22:46Z</time></trkpt><trkpt lat="40.930078962011244" lon="15.168428034969729"><ele>737.8333333333333</ele><time>2026-05-03T12:22:47Z</time></trkpt><trkpt lat="40.93007089486722" lon="15.168553230897288"><ele>738.6666666666666</ele><time>2026-05-03T12:22:48Z</time></trkpt><trkpt lat="40.93006646656234" lon="15.168663551428798"><ele>739.5</ele><time>2026-05-03T12:22:49Z</time></trkpt><trkpt lat="40.930064249573725" lon="15.168783120364811"><ele>740.3333333333334</ele><time>2026-05-03T12:22:50Z</time></trkpt><trkpt lat="40.93005038882405" lon="15.168899256822499"><ele>741.1666666666667</ele><time>2026-05-03T12:22:51Z</time></trkpt><trkpt lat="40.93000385197304" lon="15.169002797923149"><ele>742.0</ele><time>2026-05-03T12:22:51.999Z</time></trkpt><trkpt lat="40.9299569093821" lon="15.169098150949603"><ele>745.3333333333334</ele><time>2026-05-03T12:22:52.999Z</time></trkpt><trkpt lat="40.92989371026672" lon="15.169165585626248"><ele>748.6666666666667</ele><time>2026-05-03T12:22:53.999Z</time></trkpt><trkpt lat="40.92981367764171" lon="15.169202435226374"><ele>752.0</ele><time>2026-05-03T12:22:54.999Z</time></trkpt><trkpt lat="40.92973339562387" lon="15.169211752268643"><ele>755.3333333333334</ele><time>2026-05-03T12:22:55.999Z</time></trkpt><trkpt lat="40.92964438670653" lon="15.169231639156367"><ele>758.6666666666666</ele><time>2026-05-03T12:22:56.999Z</time></trkpt><trkpt lat="40.929594068353616" lon="15.169281927383645"><ele>762.0</ele><time>2026-05-03T12:22:57.999Z</time></trkpt><trkpt lat="40.92959046605409" lon="15.169386248979688"><ele>762.0</ele><time>2026-05-03T12:22:59.999Z</time></trkpt><trkpt lat="40.92976499853998" lon="15.169531090058777"><ele>762.0</ele><time>2026-05-03T12:23:01.999Z</time></trkpt><trkpt lat="40.9298397677993" lon="15.169621434957815"><ele>762.0</ele><time>2026-05-03T12:23:02.999Z</time></trkpt><trkpt lat="40.92988202758418" lon="15.16973881433692"><ele>762.0</ele><time>2026-05-03T12:23:03.999Z</time></trkpt><trkpt lat="40.929897570951695" lon="15.169864821246382"><ele>765.75</ele><time>2026-05-03T12:23:04.999Z</time></trkpt><trkpt lat="40.929904003803635" lon="15.170011426552684"><ele>769.5</ele><time>2026-05-03T12:23:05.999Z</time></trkpt><trkpt lat="40.92991454600122" lon="15.170190479619935"><ele>773.25</ele><time>2026-05-03T12:23:06.999Z</time></trkpt><trkpt lat="40.92995615590832" lon="15.17034680686768"><ele>777.0</ele><time>2026-05-03T12:23:07.999Z</time></trkpt><trkpt lat="40.92999909820093" lon="15.170454821602446"><ele>777.0</ele><time>2026-05-03T12:23:08.999Z</time></trkpt><trkpt lat="40.93001359095637" lon="15.170546603512738"><ele>777.0</ele><time>2026-05-03T12:23:09.999Z</time></trkpt><trkpt lat="40.930007667245086" lon="15.170657197705042"><ele>777.0</ele><time>2026-05-03T12:23:10.999Z</time></trkpt><trkpt lat="40.92994841381498" lon="15.170751188064306"><ele>777.0</ele><time>2026-05-03T12:23:11.999Z</time></trkpt><trkpt lat="40.92988438177597" lon="15.17079249248537"><ele>777.0</ele><time>2026-05-03T12:23:12.999Z</time></trkpt><trkpt lat="40.929786837053705" lon="15.170895914080855"><ele>777.0</ele><time>2026-05-03T12:23:13.999Z</time></trkpt><trkpt lat="40.92965097000003" lon="15.170992690327324"><ele>782.0</ele><time>2026-05-03T12:23:14.999Z</time></trkpt><trkpt lat="40.929531285967236" lon="15.171118673205063"><ele>787.0</ele><time>2026-05-03T12:23:15.999Z</time></trkpt><trkpt lat="40.92939969547606" lon="15.171260407543459"><ele>792.0</ele><time>2026-05-03T12:23:16.999Z</time></trkpt><trkpt lat="40.92925336937722" lon="15.171414745628248"><ele>795.2</ele><time>2026-05-03T12:23:17.999Z</time></trkpt><trkpt lat="40.92913272304161" lon="15.171552990401121"><ele>798.4000000000001</ele><time>2026-05-03T12:23:18.999Z</time></trkpt><trkpt lat="40.92905455549208" lon="15.171650029057082"><ele>801.5999999999999</ele><time>2026-05-03T12:23:19.999Z</time></trkpt><trkpt lat="40.92898606483957" lon="15.171730029201319"><ele>804.8</ele><time>2026-05-03T12:23:20.999Z</time></trkpt><trkpt lat="40.928942018262" lon="15.171809152880604"><ele>808.0</ele><time>2026-05-03T12:23:21.999Z</time></trkpt><trkpt lat="40.92888183873571" lon="15.17191613390967"><ele>808.0</ele><time>2026-05-03T12:23:22.999Z</time></trkpt><trkpt lat="40.92880323475175" lon="15.172084496679338"><ele>808.0</ele><time>2026-05-03T12:23:23.999Z</time></trkpt><trkpt lat="40.928743213058134" lon="15.172282557836043"><ele>808.0</ele><time>2026-05-03T12:23:24.999Z</time></trkpt><trkpt lat="40.928693616598736" lon="15.172523543400372"><ele>812.6666666666666</ele><time>2026-05-03T12:23:25.999Z</time></trkpt><trkpt lat="40.928665890483835" lon="15.17279761698041"><ele>817.3333333333333</ele><time>2026-05-03T12:23:26.999Z</time></trkpt><trkpt lat="40.92865180388855" lon="15.173043267274421"><ele>822.0</ele><time>2026-05-03T12:23:27.999Z</time></trkpt><trkpt lat="40.92865624623014" lon="15.17324438733981"><ele>822.6</ele><time>2026-05-03T12:23:28.999Z</time></trkpt><trkpt lat="40.928666296865856" lon="15.17342423752497"><ele>823.2</ele><time>2026-05-03T12:23:29.999Z</time></trkpt><trkpt lat="40.928684372924245" lon="15.17356623592451"><ele>823.8</ele><time>2026-05-03T12:23:30.999Z</time></trkpt><trkpt lat="40.92865283657666" lon="15.173672922074918"><ele>824.4</ele><time>2026-05-03T12:23:32.999Z</time></trkpt><trkpt lat="40.92857655628663" lon="15.173637414709368"><ele>825.0</ele><time>2026-05-03T12:23:33.999Z</time></trkpt><trkpt lat="40.92845808427361" lon="15.173620077912823"><ele>822.75</ele><time>2026-05-03T12:23:34.999Z</time></trkpt><trkpt lat="40.92830300303118" lon="15.173606054471293"><ele>820.5</ele><time>2026-05-03T12:23:35.999Z</time></trkpt><trkpt lat="40.928149148329474" lon="15.17360706056448"><ele>818.25</ele><time>2026-05-03T12:23:36.999Z</time></trkpt><trkpt lat="40.92802049633645" lon="15.17361067152313"><ele>816.0</ele><time>2026-05-03T12:23:37.999Z</time></trkpt><trkpt lat="40.92791864735609" lon="15.173632810009693"><ele>816.0</ele><time>2026-05-03T12:23:38.999Z</time></trkpt><trkpt lat="40.92782915097813" lon="15.173670993212381"><ele>816.0</ele><time>2026-05-03T12:23:39.999Z</time></trkpt><trkpt lat="40.927753965584536" lon="15.173730537840493"><ele>816.0</ele><time>2026-05-03T12:23:40.999Z</time></trkpt><trkpt lat="40.927669549083134" lon="15.173814383306455"><ele>816.0</ele><time>2026-05-03T12:23:41.999Z</time></trkpt><trkpt lat="40.92756706389676" lon="15.173896836918706"><ele>816.0</ele><time>2026-05-03T12:23:42.999Z</time></trkpt><trkpt lat="40.92749135960518" lon="15.173983728355683"><ele>818.75</ele><time>2026-05-03T12:23:43.999Z</time></trkpt><trkpt lat="40.92741847924605" lon="15.17405530420812"><ele>821.5</ele><time>2026-05-03T12:23:44.999Z</time></trkpt><trkpt lat="40.92733339545667" lon="15.174115393698084"><ele>824.25</ele><time>2026-05-03T12:23:45.999Z</time></trkpt><trkpt lat="40.92722992789198" lon="15.174205953352205"><ele>827.0</ele><time>2026-05-03T12:23:46.999Z</time></trkpt><trkpt lat="40.92710808816718" lon="15.17431406408501"><ele>827.0</ele><time>2026-05-03T12:23:47.999Z</time></trkpt><trkpt lat="40.92697978174494" lon="15.17441858458332"><ele>827.0</ele><time>2026-05-03T12:23:48.999Z</time></trkpt><trkpt lat="40.92685067181385" lon="15.174479578563517"><ele>827.0</ele><time>2026-05-03T12:23:49.999Z</time></trkpt><trkpt lat="40.926727529964815" lon="15.174507703100506"><ele>827.0</ele><time>2026-05-03T12:23:50.999Z</time></trkpt><trkpt lat="40.92658646293483" lon="15.17449834883416"><ele>822.75</ele><time>2026-05-03T12:23:51.999Z</time></trkpt><trkpt lat="40.92642280894243" lon="15.174492998005782"><ele>818.5</ele><time>2026-05-03T12:23:52.999Z</time></trkpt><trkpt lat="40.9262830382962" lon="15.17448335041077"><ele>814.25</ele><time>2026-05-03T12:23:53.999Z</time></trkpt><trkpt lat="40.92617051629309" lon="15.174475597182356"><ele>810.0</ele><time>2026-05-03T12:23:54.999Z</time></trkpt><trkpt lat="40.92607375301419" lon="15.174465456622295"><ele>810.0</ele><time>2026-05-03T12:23:55.999Z</time></trkpt><trkpt lat="40.926001878779886" lon="15.174457924373176"><ele>810.0</ele><time>2026-05-03T12:23:56.999Z</time></trkpt><trkpt lat="40.9259192315915" lon="15.17444926314542"><ele>810.0</ele><time>2026-05-03T12:23:59.999Z</time></trkpt><trkpt lat="40.92583759554771" lon="15.174560738278464"><ele>810.0</ele><time>2026-05-03T12:24:00.999Z</time></trkpt><trkpt lat="40.92577518821168" lon="15.174668805675356"><ele>810.0</ele><time>2026-05-03T12:24:01.999Z</time></trkpt><trkpt lat="40.92571711827194" lon="15.17477407407048"><ele>810.6</ele><time>2026-05-03T12:24:02.999Z</time></trkpt><trkpt lat="40.92565270099471" lon="15.174890539341403"><ele>811.2</ele><time>2026-05-03T12:24:03.998Z</time></trkpt><trkpt lat="40.92558432860501" lon="15.175019805564562"><ele>811.8</ele><time>2026-05-03T12:24:04.998Z</time></trkpt><trkpt lat="40.925527334447445" lon="15.175127649150602"><ele>812.4</ele><time>2026-05-03T12:24:05.998Z</time></trkpt><trkpt lat="40.92546737848615" lon="15.175224565838974"><ele>813.0</ele><time>2026-05-03T12:24:06.998Z</time></trkpt><trkpt lat="40.92541772848004" lon="15.175295899263187"><ele>813.0</ele><time>2026-05-03T12:24:07.998Z</time></trkpt><trkpt lat="40.925366341168214" lon="15.175363440502124"><ele>813.0</ele><time>2026-05-03T12:24:08.998Z</time></trkpt><trkpt lat="40.92531703694317" lon="15.175426546843642"><ele>813.0</ele><time>2026-05-03T12:24:10Z</time></trkpt><trkpt lat="40.92532380424207" lon="15.175596145208369"><ele>813.0</ele><time>2026-05-03T12:24:11Z</time></trkpt><trkpt lat="40.92530348614138" lon="15.175730142544007"><ele>813.0</ele><time>2026-05-03T12:24:12Z</time></trkpt><trkpt lat="40.92529847118598" lon="15.175875408920842"><ele>817.5</ele><time>2026-05-03T12:24:13Z</time></trkpt><trkpt lat="40.9252966528091" lon="15.176006090273027"><ele>822.0</ele><time>2026-05-03T12:24:14Z</time></trkpt><trkpt lat="40.925276032234954" lon="15.17621081329753"><ele>826.5</ele><time>2026-05-03T12:24:15Z</time></trkpt><trkpt lat="40.92525408612944" lon="15.176406044928141"><ele>831.0</ele><time>2026-05-03T12:24:16Z</time></trkpt><trkpt lat="40.92523314553778" lon="15.176608820699052"><ele>833.75</ele><time>2026-05-03T12:24:17Z</time></trkpt><trkpt lat="40.925185500231905" lon="15.176796726629643"><ele>836.5</ele><time>2026-05-03T12:24:18Z</time></trkpt><trkpt lat="40.92512882328177" lon="15.17695665718352"><ele>839.25</ele><time>2026-05-03T12:24:19Z</time></trkpt><trkpt lat="40.92507918736022" lon="15.177082658640858"><ele>842.0</ele><time>2026-05-03T12:24:20Z</time></trkpt><trkpt lat="40.92503359090192" lon="15.177197193270047"><ele>844.0</ele><time>2026-05-03T12:24:21Z</time></trkpt><trkpt lat="40.9250166332615" lon="15.177291318405365"><ele>846.0</ele><time>2026-05-03T12:24:22Z</time></trkpt><trkpt lat="40.925286605720075" lon="15.177859358188549"><ele>842.0</ele><time>2026-05-03T12:24:27Z</time></trkpt><trkpt lat="40.92518397576944" lon="15.176890598501824"><ele>842.0</ele><time>2026-05-03T12:24:28Z</time></trkpt><trkpt lat="40.925243655796955" lon="15.176663175750434"><ele>842.0</ele><time>2026-05-03T12:24:29Z</time></trkpt><trkpt lat="40.92529073792677" lon="15.176428796323648"><ele>842.0</ele><time>2026-05-03T12:24:30Z</time></trkpt><trkpt lat="40.925304951811" lon="15.176210986128087"><ele>839.25</ele><time>2026-05-03T12:24:31Z</time></trkpt><trkpt lat="40.925330460962606" lon="15.176016612267928"><ele>836.5</ele><time>2026-05-03T12:24:32Z</time></trkpt><trkpt lat="40.925351280749524" lon="15.175834146425665"><ele>833.75</ele><time>2026-05-03T12:24:33Z</time></trkpt><trkpt lat="40.9253620173928" lon="15.175689880078671"><ele>831.0</ele><time>2026-05-03T12:24:34Z</time></trkpt><trkpt lat="40.92536712126203" lon="15.17556434692326"><ele>827.4</ele><time>2026-05-03T12:24:35Z</time></trkpt><trkpt lat="40.925386540287604" lon="15.175470492481418"><ele>823.8</ele><time>2026-05-03T12:24:37Z</time></trkpt><trkpt lat="40.925250254373076" lon="15.175506263671913"><ele>820.1999999999999</ele><time>2026-05-03T12:24:40Z</time></trkpt><trkpt lat="40.925186552787146" lon="15.175584852669335"><ele>816.5999999999999</ele><time>2026-05-03T12:24:41Z</time></trkpt><trkpt lat="40.925112192522825" lon="15.175680437940152"><ele>813.0</ele><time>2026-05-03T12:24:42Z</time></trkpt><trkpt lat="40.92503610249124" lon="15.175770446399389"><ele>810.5999999999999</ele><time>2026-05-03T12:24:43Z</time></trkpt><trkpt lat="40.924954702027655" lon="15.175858662768055"><ele>808.1999999999999</ele><time>2026-05-03T12:24:44Z</time></trkpt><trkpt lat="40.92488144439394" lon="15.175925170559289"><ele>805.8</ele><time>2026-05-03T12:24:45Z</time></trkpt><trkpt lat="40.92481211800092" lon="15.175975098767903"><ele>803.4</ele><time>2026-05-03T12:24:46Z</time></trkpt><trkpt lat="40.92470868472461" lon="15.176031092617887"><ele>801.0</ele><time>2026-05-03T12:24:47Z</time></trkpt><trkpt lat="40.924599585260424" lon="15.17609097662822"><ele>801.0</ele><time>2026-05-03T12:24:48Z</time></trkpt><trkpt lat="40.92448602238812" lon="15.176176878807563"><ele>801.0</ele><time>2026-05-03T12:24:49Z</time></trkpt><trkpt lat="40.92435833923076" lon="15.176244236461486"><ele>801.0</ele><time>2026-05-03T12:24:50Z</time></trkpt><trkpt lat="40.924248402651195" lon="15.176279608107508"><ele>801.0</ele><time>2026-05-03T12:24:51Z</time></trkpt><trkpt lat="40.924128904148965" lon="15.176334771885573"><ele>800.0</ele><time>2026-05-03T12:24:52Z</time></trkpt><trkpt lat="40.92402550147858" lon="15.176377498942355"><ele>799.0</ele><time>2026-05-03T12:24:53Z</time></trkpt><trkpt lat="40.92391853675614" lon="15.176423341056163"><ele>798.0</ele><time>2026-05-03T12:24:54Z</time></trkpt><trkpt lat="40.92385319910686" lon="15.176453465024686"><ele>797.0</ele><time>2026-05-03T12:24:55Z</time></trkpt><trkpt lat="40.923775866170345" lon="15.17648911953637"><ele>796.0</ele><time>2026-05-03T12:24:56Z</time></trkpt><trkpt lat="40.92369437612262" lon="15.176528765188117"><ele>796.0</ele><time>2026-05-03T12:24:57Z</time></trkpt><trkpt lat="40.923598687099116" lon="15.176579416743483"><ele>796.0</ele><time>2026-05-03T12:24:58Z</time></trkpt><trkpt lat="40.92350768781984" lon="15.176629820101516"><ele>796.0</ele><time>2026-05-03T12:24:58.999Z</time></trkpt><trkpt lat="40.92341613464536" lon="15.176679184829162"><ele>796.0</ele><time>2026-05-03T12:24:59.999Z</time></trkpt><trkpt lat="40.9233198186043" lon="15.17672357378618"><ele>796.0</ele><time>2026-05-03T12:25:00.999Z</time></trkpt><trkpt lat="40.92321317760786" lon="15.176771776042218"><ele>794.8</ele><time>2026-05-03T12:25:01.999Z</time></trkpt><trkpt lat="40.92310370318274" lon="15.176818542489645"><ele>793.5999999999999</ele><time>2026-05-03T12:25:02.999Z</time></trkpt><trkpt lat="40.92299922609673" lon="15.176865911681489"><ele>792.4</ele><time>2026-05-03T12:25:03.999Z</time></trkpt><trkpt lat="40.922907963896016" lon="15.176912708111884"><ele>791.2</ele><time>2026-05-03T12:25:04.999Z</time></trkpt><trkpt lat="40.92282455131744" lon="15.176972764528424"><ele>790.0</ele><time>2026-05-03T12:25:05.999Z</time></trkpt><trkpt lat="40.9227503490677" lon="15.17704080966772"><ele>790.0</ele><time>2026-05-03T12:25:06.999Z</time></trkpt><trkpt lat="40.922694705091196" lon="15.177163903171014"><ele>790.0</ele><time>2026-05-03T12:25:07.999Z</time></trkpt><trkpt lat="40.92263977212217" lon="15.17731060948748"><ele>790.0</ele><time>2026-05-03T12:25:08.999Z</time></trkpt><trkpt lat="40.92258682467122" lon="15.177463401649742"><ele>790.0</ele><time>2026-05-03T12:25:09.999Z</time></trkpt><trkpt lat="40.922535397421385" lon="15.17763132622897"><ele>789.75</ele><time>2026-05-03T12:25:10.999Z</time></trkpt><trkpt lat="40.9224866035395" lon="15.177791555670021"><ele>789.5</ele><time>2026-05-03T12:25:11.999Z</time></trkpt><trkpt lat="40.92243665992131" lon="15.177934908875994"><ele>789.25</ele><time>2026-05-03T12:25:12.999Z</time></trkpt><trkpt lat="40.922376772309484" lon="15.178071593184182"><ele>789.0</ele><time>2026-05-03T12:25:13.999Z</time></trkpt><trkpt lat="40.92230793781436" lon="15.1781941022792"><ele>789.0</ele><time>2026-05-03T12:25:14.999Z</time></trkpt><trkpt lat="40.92221896541423" lon="15.178287151343268"><ele>789.0</ele><time>2026-05-03T12:25:15.999Z</time></trkpt><trkpt lat="40.922142939898535" lon="15.178393346043253"><ele>789.0</ele><time>2026-05-03T12:25:16.999Z</time></trkpt><trkpt lat="40.92207922648885" lon="15.178454494594636"><ele>789.0</ele><time>2026-05-03T12:25:17.999Z</time></trkpt><trkpt lat="40.922010254416705" lon="15.178468230776186"><ele>789.0</ele><time>2026-05-03T12:25:18.999Z</time></trkpt><trkpt lat="40.92195024945173" lon="15.178437816817413"><ele>789.0</ele><time>2026-05-03T12:25:19.999Z</time></trkpt><trkpt lat="40.92188300829514" lon="15.17839761276543"><ele>789.0</ele><time>2026-05-03T12:25:20.999Z</time></trkpt><trkpt lat="40.92181933517494" lon="15.17838919223584"><ele>789.0</ele><time>2026-05-03T12:25:22.999Z</time></trkpt><trkpt lat="40.92179255907416" lon="15.17852462345054"><ele>789.0</ele><time>2026-05-03T12:25:26.999Z</time></trkpt><trkpt lat="40.92181638046534" lon="15.178638723572591"><ele>789.0</ele><time>2026-05-03T12:25:27.999Z</time></trkpt><trkpt lat="40.921842106974864" lon="15.17880109963226"><ele>789.0</ele><time>2026-05-03T12:25:29.999Z</time></trkpt><trkpt lat="40.92184722360609" lon="15.178889696356"><ele>789.0</ele><time>2026-05-03T12:25:30.999Z</time></trkpt><trkpt lat="40.9218545523314" lon="15.178991666099689"><ele>789.0</ele><time>2026-05-03T12:25:31.999Z</time></trkpt><trkpt lat="40.92180567044207" lon="15.179061249179432"><ele>789.0</ele><time>2026-05-03T12:25:32.999Z</time></trkpt><trkpt lat="40.92175419267196" lon="15.17916193035054"><ele>789.0</ele><time>2026-05-03T12:25:33.999Z</time></trkpt><trkpt lat="40.921679803440774" lon="15.179278849612224"><ele>789.0</ele><time>2026-05-03T12:25:34.999Z</time></trkpt><trkpt lat="40.92158429695475" lon="15.179426584460801"><ele>786.2</ele><time>2026-05-03T12:25:35.999Z</time></trkpt><trkpt lat="40.92151734360722" lon="15.179549317823154"><ele>783.4000000000001</ele><time>2026-05-03T12:25:36.999Z</time></trkpt><trkpt lat="40.92146989595406" lon="15.179679408798092"><ele>780.6</ele><time>2026-05-03T12:25:37.999Z</time></trkpt><trkpt lat="40.921411005921655" lon="15.179795302134147"><ele>777.8</ele><time>2026-05-03T12:25:38.999Z</time></trkpt><trkpt lat="40.92136130857551" lon="15.17991852183602"><ele>775.0</ele><time>2026-05-03T12:25:39.999Z</time></trkpt><trkpt lat="40.921314122526006" lon="15.180032318788074"><ele>774.9999999999999</ele><time>2026-05-03T12:25:40.999Z</time></trkpt><trkpt lat="40.921256352135075" lon="15.180116988898053"><ele>775.0</ele><time>2026-05-03T12:25:42.999Z</time></trkpt><trkpt lat="40.92116679999981" lon="15.180022692225998"><ele>775.0</ele><time>2026-05-03T12:25:43.999Z</time></trkpt><trkpt lat="40.92109282041675" lon="15.180069485038151"><ele>775.0</ele><time>2026-05-03T12:25:44.999Z</time></trkpt><trkpt lat="40.92102017391706" lon="15.180087265894175"><ele>774.9999999999999</ele><time>2026-05-03T12:25:45.999Z</time></trkpt><trkpt lat="40.92095401486387" lon="15.180170520466126"><ele>775.0</ele><time>2026-05-03T12:25:46.999Z</time></trkpt><trkpt lat="40.92086618112569" lon="15.180288403545815"><ele>774.25</ele><time>2026-05-03T12:25:47.999Z</time></trkpt><trkpt lat="40.92077870576341" lon="15.180430375672183"><ele>773.5</ele><time>2026-05-03T12:25:48.999Z</time></trkpt><trkpt lat="40.92069021555361" lon="15.180571171219716"><ele>772.75</ele><time>2026-05-03T12:25:49.999Z</time></trkpt><trkpt lat="40.92059670745734" lon="15.180714905208243"><ele>772.0</ele><time>2026-05-03T12:25:50.999Z</time></trkpt><trkpt lat="40.92051929446315" lon="15.18084551780282"><ele>772.0</ele><time>2026-05-03T12:25:51.999Z</time></trkpt><trkpt lat="40.9204457115717" lon="15.18096870694351"><ele>772.0</ele><time>2026-05-03T12:25:52.999Z</time></trkpt><trkpt lat="40.9203784445828" lon="15.181081894158083"><ele>772.0</ele><time>2026-05-03T12:25:53.999Z</time></trkpt><trkpt lat="40.92031096067048" lon="15.18120727446588"><ele>772.0</ele><time>2026-05-03T12:25:54.999Z</time></trkpt><trkpt lat="40.920264372247544" lon="15.181354096592372"><ele>772.0</ele><time>2026-05-03T12:25:55.999Z</time></trkpt><trkpt lat="40.920242354303454" lon="15.181483726466785"><ele>772.0</ele><time>2026-05-03T12:25:56.999Z</time></trkpt><trkpt lat="40.920245475949" lon="15.181597268563399"><ele>772.0</ele><time>2026-05-03T12:25:57.999Z</time></trkpt><trkpt lat="40.9202687939282" lon="15.181720038318517"><ele>772.0</ele><time>2026-05-03T12:25:58.999Z</time></trkpt><trkpt lat="40.92027102012716" lon="15.181873144586126"><ele>772.0</ele><time>2026-05-03T12:25:59.999Z</time></trkpt><trkpt lat="40.92027078337718" lon="15.18204105382823"><ele>773.75</ele><time>2026-05-03T12:26:00.999Z</time></trkpt><trkpt lat="40.92026819878211" lon="15.182215929250173"><ele>775.5</ele><time>2026-05-03T12:26:01.999Z</time></trkpt><trkpt lat="40.920259801606434" lon="15.18239388625457"><ele>777.25</ele><time>2026-05-03T12:26:02.999Z</time></trkpt><trkpt lat="40.920241105491115" lon="15.182570783913958"><ele>779.0</ele><time>2026-05-03T12:26:03.999Z</time></trkpt><trkpt lat="40.92023394315009" lon="15.182733572852072"><ele>779.0</ele><time>2026-05-03T12:26:04.999Z</time></trkpt><trkpt lat="40.92025077239773" lon="15.182877946080852"><ele>779.0</ele><time>2026-05-03T12:26:05.999Z</time></trkpt><trkpt lat="40.92026617273994" lon="15.183045999970322"><ele>779.0</ele><time>2026-05-03T12:26:06.999Z</time></trkpt><trkpt lat="40.92026429933151" lon="15.18321612264549"><ele>779.0</ele><time>2026-05-03T12:26:07.999Z</time></trkpt><trkpt lat="40.920250179022325" lon="15.183365902631017"><ele>777.0</ele><time>2026-05-03T12:26:08.999Z</time></trkpt><trkpt lat="40.92021576773459" lon="15.183508897618788"><ele>775.0</ele><time>2026-05-03T12:26:09.999Z</time></trkpt><trkpt lat="40.92017955120615" lon="15.183673958604802"><ele>773.0</ele><time>2026-05-03T12:26:10.999Z</time></trkpt><trkpt lat="40.92017430440862" lon="15.183821297968915"><ele>771.0</ele><time>2026-05-03T12:26:11.998Z</time></trkpt><trkpt lat="40.920171374203356" lon="15.183979269411756"><ele>769.25</ele><time>2026-05-03T12:26:12.998Z</time></trkpt><trkpt lat="40.92017937631745" lon="15.1841515834123"><ele>767.5</ele><time>2026-05-03T12:26:13.998Z</time></trkpt><trkpt lat="40.92017157075915" lon="15.184294084586812"><ele>765.75</ele><time>2026-05-03T12:26:14.998Z</time></trkpt><trkpt lat="40.92016525811343" lon="15.184525452680573"><ele>764.0</ele><time>2026-05-03T12:26:16Z</time></trkpt><trkpt lat="40.92014984313746" lon="15.184705265454776"><ele>763.6</ele><time>2026-05-03T12:26:17Z</time></trkpt><trkpt lat="40.9201493706065" lon="15.184872313645911"><ele>763.2</ele><time>2026-05-03T12:26:18Z</time></trkpt><trkpt lat="40.9201393404058" lon="15.184985743845694"><ele>762.8000000000001</ele><time>2026-05-03T12:26:19Z</time></trkpt><trkpt lat="40.9201188955325" lon="15.185066533775284"><ele>762.4000000000001</ele><time>2026-05-03T12:26:20Z</time></trkpt><trkpt lat="40.920061250844824" lon="15.185143510873587"><ele>762.0</ele><time>2026-05-03T12:26:21Z</time></trkpt><trkpt lat="40.919996983171146" lon="15.185279236590532"><ele>762.0</ele><time>2026-05-03T12:26:22Z</time></trkpt><trkpt lat="40.919958754865945" lon="15.185371032101433"><ele>762.0</ele><time>2026-05-03T12:26:23Z</time></trkpt><trkpt lat="40.91991200267402" lon="15.185492308203607"><ele>762.0</ele><time>2026-05-03T12:26:25Z</time></trkpt><trkpt lat="40.9200536854207" lon="15.185606122578088"><ele>762.0</ele><time>2026-05-03T12:26:27Z</time></trkpt><trkpt lat="40.92014192153622" lon="15.185633682301747"><ele>762.0</ele><time>2026-05-03T12:26:28Z</time></trkpt><trkpt lat="40.92026651861433" lon="15.185685659081948"><ele>763.25</ele><time>2026-05-03T12:26:29Z</time></trkpt><trkpt lat="40.920387706957825" lon="15.185729015637396"><ele>764.5</ele><time>2026-05-03T12:26:30Z</time></trkpt><trkpt lat="40.920516514439186" lon="15.185756743091488"><ele>765.75</ele><time>2026-05-03T12:26:31Z</time></trkpt><trkpt lat="40.92064833336809" lon="15.185772979024373"><ele>767.0</ele><time>2026-05-03T12:26:32Z</time></trkpt><trkpt lat="40.92080010603746" lon="15.18576506258303"><ele>773.0</ele><time>2026-05-03T12:26:33Z</time></trkpt><trkpt lat="40.9209733720442" lon="15.185729424038975"><ele>779.0</ele><time>2026-05-03T12:26:34Z</time></trkpt><trkpt lat="40.921112791791444" lon="15.185696911701855"><ele>785.0</ele><time>2026-05-03T12:26:35Z</time></trkpt><trkpt lat="40.92121626089768" lon="15.185678155776177"><ele>791.0</ele><time>2026-05-03T12:26:36Z</time></trkpt><trkpt lat="40.92126240898846" lon="15.185826790441359"><ele>791.0</ele><time>2026-05-03T12:26:41Z</time></trkpt><trkpt lat="40.92124726258469" lon="15.185936219077613"><ele>791.0</ele><time>2026-05-03T12:26:42Z</time></trkpt><trkpt lat="40.921216149363715" lon="15.18607758367774"><ele>791.0</ele><time>2026-05-03T12:26:43Z</time></trkpt><trkpt lat="40.921166622432345" lon="15.186218457139258"><ele>791.0</ele><time>2026-05-03T12:26:44Z</time></trkpt><trkpt lat="40.92111866718162" lon="15.186360080131333"><ele>791.0</ele><time>2026-05-03T12:26:45Z</time></trkpt><trkpt lat="40.92108063216588" lon="15.18652213311367"><ele>788.75</ele><time>2026-05-03T12:26:46Z</time></trkpt><trkpt lat="40.92102280448645" lon="15.186666652928562"><ele>786.5</ele><time>2026-05-03T12:26:47Z</time></trkpt><trkpt lat="40.920980433892005" lon="15.186798909038794"><ele>784.25</ele><time>2026-05-03T12:26:48Z</time></trkpt><trkpt lat="40.92094369177005" lon="15.186933398548344"><ele>782.0</ele><time>2026-05-03T12:26:49Z</time></trkpt><trkpt lat="40.92091349251321" lon="15.187072822755722"><ele>782.0</ele><time>2026-05-03T12:26:50Z</time></trkpt><trkpt lat="40.92092136293434" lon="15.187219344421486"><ele>782.0</ele><time>2026-05-03T12:26:51Z</time></trkpt><trkpt lat="40.9209429871472" lon="15.187359247039012"><ele>782.0</ele><time>2026-05-03T12:26:52Z</time></trkpt><trkpt lat="40.92095457040328" lon="15.187499955462963"><ele>782.0</ele><time>2026-05-03T12:26:53Z</time></trkpt><trkpt lat="40.920967016102715" lon="15.187657917019171"><ele>782.0</ele><time>2026-05-03T12:26:54Z</time></trkpt><trkpt lat="40.920984356852415" lon="15.187818354259253"><ele>781.0</ele><time>2026-05-03T12:26:55Z</time></trkpt><trkpt lat="40.92100147325914" lon="15.18798588133391"><ele>780.0</ele><time>2026-05-03T12:26:56Z</time></trkpt><trkpt lat="40.9210163478209" lon="15.188165223235734"><ele>779.0</ele><time>2026-05-03T12:26:57Z</time></trkpt><trkpt lat="40.92102978661881" lon="15.188356833668228"><ele>778.0</ele><time>2026-05-03T12:26:58Z</time></trkpt><trkpt lat="40.9210457325076" lon="15.18855954652337"><ele>776.3333333333333</ele><time>2026-05-03T12:26:59Z</time></trkpt><trkpt lat="40.92106747493567" lon="15.188762273713571"><ele>774.6666666666667</ele><time>2026-05-03T12:27:00Z</time></trkpt><trkpt lat="40.9210872344159" lon="15.188963637614851"><ele>773.0</ele><time>2026-05-03T12:27:01Z</time></trkpt><trkpt lat="40.92110502177442" lon="15.189158668183573"><ele>773.0</ele><time>2026-05-03T12:27:02Z</time></trkpt><trkpt lat="40.921104596525815" lon="15.18936957271428"><ele>773.0</ele><time>2026-05-03T12:27:03Z</time></trkpt><trkpt lat="40.92104759488451" lon="15.189564865749121"><ele>773.0</ele><time>2026-05-03T12:27:04Z</time></trkpt><trkpt lat="40.92097313229815" lon="15.189736280475099"><ele>766.6666666666667</ele><time>2026-05-03T12:27:05Z</time></trkpt><trkpt lat="40.92087586362568" lon="15.189883177630874"><ele>760.3333333333334</ele><time>2026-05-03T12:27:06Z</time></trkpt><trkpt lat="40.92074364690345" lon="15.190002269574924"><ele>754.0</ele><time>2026-05-03T12:27:07Z</time></trkpt><trkpt lat="40.920597782576465" lon="15.190093751411732"><ele>754.0</ele><time>2026-05-03T12:27:08Z</time></trkpt><trkpt lat="40.920438086422664" lon="15.190136812004218"><ele>754.0</ele><time>2026-05-03T12:27:08.999Z</time></trkpt><trkpt lat="40.920257924900945" lon="15.190173615656345"><ele>754.0</ele><time>2026-05-03T12:27:09.999Z</time></trkpt><trkpt lat="40.920088649023" lon="15.190208388935238"><ele>748.6666666666667</ele><time>2026-05-03T12:27:10.999Z</time></trkpt><trkpt lat="40.91991907467012" lon="15.190263142025666"><ele>743.3333333333334</ele><time>2026-05-03T12:27:11.999Z</time></trkpt><trkpt lat="40.91974829129313" lon="15.190319494725015"><ele>738.0</ele><time>2026-05-03T12:27:12.999Z</time></trkpt><trkpt lat="40.9195976105555" lon="15.190412557791925"><ele>738.0</ele><time>2026-05-03T12:27:13.999Z</time></trkpt><trkpt lat="40.91947408849177" lon="15.190545992791046"><ele>738.0</ele><time>2026-05-03T12:27:14.999Z</time></trkpt><trkpt lat="40.91936015238544" lon="15.190726013849524"><ele>738.0</ele><time>2026-05-03T12:27:15.999Z</time></trkpt><trkpt lat="40.91926495214458" lon="15.190941412436405"><ele>738.6666666666666</ele><time>2026-05-03T12:27:16.999Z</time></trkpt><trkpt lat="40.91919112765405" lon="15.191182770345554"><ele>739.3333333333333</ele><time>2026-05-03T12:27:17.999Z</time></trkpt><trkpt lat="40.91913196382518" lon="15.191442060908988"><ele>740.0</ele><time>2026-05-03T12:27:18.999Z</time></trkpt><trkpt lat="40.91905610639102" lon="15.191701029944598"><ele>740.0</ele><time>2026-05-03T12:27:19.999Z</time></trkpt><trkpt lat="40.91898759128739" lon="15.191956845041958"><ele>740.0</ele><time>2026-05-03T12:27:20.999Z</time></trkpt><trkpt lat="40.91890260508802" lon="15.192208127073114"><ele>740.0</ele><time>2026-05-03T12:27:21.999Z</time></trkpt><trkpt lat="40.91882809740568" lon="15.192475912828423"><ele>740.0</ele><time>2026-05-03T12:27:22.999Z</time></trkpt><trkpt lat="40.91875113810394" lon="15.192738374035747"><ele>740.0</ele><time>2026-05-03T12:27:23.999Z</time></trkpt><trkpt lat="40.91867099158893" lon="15.192972601039227"><ele>740.0</ele><time>2026-05-03T12:27:24.999Z</time></trkpt><trkpt lat="40.91856961460709" lon="15.193175658316301"><ele>741.3333333333333</ele><time>2026-05-03T12:27:25.999Z</time></trkpt><trkpt lat="40.918443453276396" lon="15.193332037495301"><ele>742.6666666666666</ele><time>2026-05-03T12:27:26.999Z</time></trkpt><trkpt lat="40.91828632432979" lon="15.193455165707602"><ele>744.0</ele><time>2026-05-03T12:27:27.999Z</time></trkpt><trkpt lat="40.91811595517611" lon="15.193569168971058"><ele>738.6666666666666</ele><time>2026-05-03T12:27:28.999Z</time></trkpt><trkpt lat="40.91791835228415" lon="15.193704568482369"><ele>733.3333333333333</ele><time>2026-05-03T12:27:29.999Z</time></trkpt><trkpt lat="40.917772265624514" lon="15.193799472867386"><ele>728.0</ele><time>2026-05-03T12:27:30.999Z</time></trkpt><trkpt lat="40.917595953318305" lon="15.193880164405961"><ele>723.0</ele><time>2026-05-03T12:27:31.999Z</time></trkpt><trkpt lat="40.91739992330242" lon="15.193934773978457"><ele>718.0</ele><time>2026-05-03T12:27:32.999Z</time></trkpt><trkpt lat="40.91720138553113" lon="15.193972655779772"><ele>713.0</ele><time>2026-05-03T12:27:33.999Z</time></trkpt><trkpt lat="40.917023224812176" lon="15.194006218038457"><ele>713.0</ele><time>2026-05-03T12:27:34.999Z</time></trkpt><trkpt lat="40.916843311473826" lon="15.194061187356136"><ele>713.0</ele><time>2026-05-03T12:27:35.999Z</time></trkpt><trkpt lat="40.91665769164742" lon="15.194073509031114"><ele>713.0</ele><time>2026-05-03T12:27:36.999Z</time></trkpt><trkpt lat="40.91648082681748" lon="15.194105679685675"><ele>709.6666666666666</ele><time>2026-05-03T12:27:37.999Z</time></trkpt><trkpt lat="40.91630897098373" lon="15.194136939228711"><ele>706.3333333333334</ele><time>2026-05-03T12:27:38.999Z</time></trkpt><trkpt lat="40.916144525797904" lon="15.194169685206585"><ele>703.0</ele><time>2026-05-03T12:27:39.999Z</time></trkpt><trkpt lat="40.91597741825784" lon="15.194237606163824"><ele>702.3333333333334</ele><time>2026-05-03T12:27:40.999Z</time></trkpt><trkpt lat="40.91580711925579" lon="15.194311510219043"><ele>701.6666666666666</ele><time>2026-05-03T12:27:41.999Z</time></trkpt><trkpt lat="40.915636749149286" lon="15.194416537948536"><ele>701.0</ele><time>2026-05-03T12:27:42.999Z</time></trkpt><trkpt lat="40.91549189015063" lon="15.19454954730389"><ele>701.0</ele><time>2026-05-03T12:27:43.999Z</time></trkpt><trkpt lat="40.915342398753026" lon="15.194657461229188"><ele>701.0</ele><time>2026-05-03T12:27:44.999Z</time></trkpt><trkpt lat="40.91519560297444" lon="15.194729606354663"><ele>701.0</ele><time>2026-05-03T12:27:45.999Z</time></trkpt><trkpt lat="40.91504187929352" lon="15.194753845059907"><ele>697.6666666666666</ele><time>2026-05-03T12:27:46.999Z</time></trkpt><trkpt lat="40.91486465412561" lon="15.194745383201113"><ele>694.3333333333334</ele><time>2026-05-03T12:27:47.999Z</time></trkpt><trkpt lat="40.91467043011209" lon="15.194744037733354"><ele>691.0</ele><time>2026-05-03T12:27:48.999Z</time></trkpt><trkpt lat="40.914516142909434" lon="15.19477601140451"><ele>691.0</ele><time>2026-05-03T12:27:49.999Z</time></trkpt><trkpt lat="40.91436992162315" lon="15.194835979811325"><ele>691.0</ele><time>2026-05-03T12:27:50.999Z</time></trkpt><trkpt lat="40.91422936407685" lon="15.19494589769494"><ele>691.0</ele><time>2026-05-03T12:27:51.999Z</time></trkpt><trkpt lat="40.91407315843827" lon="15.195045524461003"><ele>687.6666666666667</ele><time>2026-05-03T12:27:52.999Z</time></trkpt><trkpt lat="40.91391299266265" lon="15.195158224446454"><ele>684.3333333333334</ele><time>2026-05-03T12:27:53.999Z</time></trkpt><trkpt lat="40.91376272711936" lon="15.195287530883451"><ele>681.0</ele><time>2026-05-03T12:27:54.999Z</time></trkpt><trkpt lat="40.91360387898616" lon="15.195396969329744"><ele>681.0</ele><time>2026-05-03T12:27:55.999Z</time></trkpt><trkpt lat="40.91343971077946" lon="15.195504641381575"><ele>681.0</ele><time>2026-05-03T12:27:56.999Z</time></trkpt><trkpt lat="40.91328460724193" lon="15.195608877610812"><ele>681.0</ele><time>2026-05-03T12:27:57.999Z</time></trkpt><trkpt lat="40.913142027346744" lon="15.19571553142778"><ele>678.0</ele><time>2026-05-03T12:27:58.999Z</time></trkpt><trkpt lat="40.913005972304965" lon="15.19583524711526"><ele>675.0</ele><time>2026-05-03T12:27:59.999Z</time></trkpt><trkpt lat="40.91290776688894" lon="15.19604095467286"><ele>672.0</ele><time>2026-05-03T12:28:00.999Z</time></trkpt><trkpt lat="40.912820906154614" lon="15.19626399749623"><ele>671.0</ele><time>2026-05-03T12:28:01.999Z</time></trkpt><trkpt lat="40.912737715963964" lon="15.196516602433068"><ele>670.0</ele><time>2026-05-03T12:28:02.999Z</time></trkpt><trkpt lat="40.91264904249414" lon="15.196773275963368"><ele>669.0</ele><time>2026-05-03T12:28:03.999Z</time></trkpt><trkpt lat="40.912552254549745" lon="15.197043613076362"><ele>668.0</ele><time>2026-05-03T12:28:04.999Z</time></trkpt><trkpt lat="40.91245446515803" lon="15.197319558350973"><ele>667.0</ele><time>2026-05-03T12:28:05.999Z</time></trkpt><trkpt lat="40.91235233221076" lon="15.197590148660597"><ele>665.5</ele><time>2026-05-03T12:28:06.999Z</time></trkpt><trkpt lat="40.91225768872962" lon="15.197865830524531"><ele>664.0</ele><time>2026-05-03T12:28:07.999Z</time></trkpt><trkpt lat="40.912161991517955" lon="15.198147540002392"><ele>663.0</ele><time>2026-05-03T12:28:08.999Z</time></trkpt><trkpt lat="40.91206367270862" lon="15.19843309944221"><ele>662.0</ele><time>2026-05-03T12:28:09.999Z</time></trkpt><trkpt lat="40.91196278451574" lon="15.198722508975349"><ele>660.0</ele><time>2026-05-03T12:28:10.999Z</time></trkpt><trkpt lat="40.91185975157968" lon="15.1990128291056"><ele>658.0</ele><time>2026-05-03T12:28:11.999Z</time></trkpt><trkpt lat="40.91175760268176" lon="15.19930608424276"><ele>658.5</ele><time>2026-05-03T12:28:12.999Z</time></trkpt><trkpt lat="40.91165706666024" lon="15.199599237371839"><ele>659.0</ele><time>2026-05-03T12:28:13.999Z</time></trkpt><trkpt lat="40.91155653945439" lon="15.199892752616517"><ele>657.5</ele><time>2026-05-03T12:28:14.999Z</time></trkpt><trkpt lat="40.911453766475944" lon="15.200185177188999"><ele>656.0</ele><time>2026-05-03T12:28:15.999Z</time></trkpt><trkpt lat="40.911348942518686" lon="15.200477999012122"><ele>653.5</ele><time>2026-05-03T12:28:16.999Z</time></trkpt><trkpt lat="40.91123639247766" lon="15.200778362473976"><ele>651.0</ele><time>2026-05-03T12:28:17.999Z</time></trkpt><trkpt lat="40.911134103615" lon="15.2010683342137"><ele>651.0</ele><time>2026-05-03T12:28:18.999Z</time></trkpt><trkpt lat="40.91102959356888" lon="15.201358666595057"><ele>651.0</ele><time>2026-05-03T12:28:19.999Z</time></trkpt><trkpt lat="40.9109308441284" lon="15.201654092569493"><ele>650.5</ele><time>2026-05-03T12:28:20.999Z</time></trkpt><trkpt lat="40.91082635503318" lon="15.201943409434872"><ele>650.0</ele><time>2026-05-03T12:28:22Z</time></trkpt><trkpt lat="40.91072220158959" lon="15.202226439176515"><ele>650.5</ele><time>2026-05-03T12:28:23Z</time></trkpt><trkpt lat="40.910619002824944" lon="15.202510233034287"><ele>651.0</ele><time>2026-05-03T12:28:24Z</time></trkpt><trkpt lat="40.91052233301302" lon="15.20279358715457"><ele>651.0</ele><time>2026-05-03T12:28:25Z</time></trkpt><trkpt lat="40.91042421271124" lon="15.20309481465875"><ele>651.0</ele><time>2026-05-03T12:28:26Z</time></trkpt><trkpt lat="40.91033218604671" lon="15.203416368437876"><ele>651.0</ele><time>2026-05-03T12:28:27Z</time></trkpt><trkpt lat="40.91028421315716" lon="15.203739563359505"><ele>651.0</ele><time>2026-05-03T12:28:28Z</time></trkpt><trkpt lat="40.910237581488346" lon="15.20404065148218"><ele>650.0</ele><time>2026-05-03T12:28:29Z</time></trkpt><trkpt lat="40.91019494920159" lon="15.204367157795483"><ele>649.0</ele><time>2026-05-03T12:28:30Z</time></trkpt><trkpt lat="40.91022779071258" lon="15.204498075936282"><ele>648.0</ele><time>2026-05-03T12:28:31Z</time></trkpt><trkpt lat="40.91019760938875" lon="15.20478589877425"><ele>647.6666666666666</ele><time>2026-05-03T12:28:32Z</time></trkpt><trkpt lat="40.91016814223436" lon="15.20506694629007"><ele>647.3333333333333</ele><time>2026-05-03T12:28:33Z</time></trkpt><trkpt lat="40.91012507129445" lon="15.205353859291163"><ele>647.0</ele><time>2026-05-03T12:28:34Z</time></trkpt><trkpt lat="40.91004160633604" lon="15.205627713544109"><ele>649.5</ele><time>2026-05-03T12:28:35Z</time></trkpt><trkpt lat="40.90996632615016" lon="15.205906937675035"><ele>652.0</ele><time>2026-05-03T12:28:36Z</time></trkpt><trkpt lat="40.90988869209336" lon="15.20618754040016"><ele>652.0</ele><time>2026-05-03T12:28:37Z</time></trkpt><trkpt lat="40.90980572118326" lon="15.20646995424496"><ele>652.0</ele><time>2026-05-03T12:28:38Z</time></trkpt><trkpt lat="40.909736416594825" lon="15.206760079000887"><ele>650.0</ele><time>2026-05-03T12:28:39Z</time></trkpt><trkpt lat="40.909647618662305" lon="15.207045795878287"><ele>648.0</ele><time>2026-05-03T12:28:40Z</time></trkpt><trkpt lat="40.909558995576326" lon="15.207327985923625"><ele>647.5</ele><time>2026-05-03T12:28:41Z</time></trkpt><trkpt lat="40.909460191511265" lon="15.207614576401694"><ele>647.0</ele><time>2026-05-03T12:28:42Z</time></trkpt><trkpt lat="40.909387527115406" lon="15.207898370103978"><ele>645.5</ele><time>2026-05-03T12:28:43Z</time></trkpt><trkpt lat="40.90929762692184" lon="15.20817747508172"><ele>644.0</ele><time>2026-05-03T12:28:44Z</time></trkpt><trkpt lat="40.90918023991247" lon="15.208433024683654"><ele>644.0</ele><time>2026-05-03T12:28:45Z</time></trkpt><trkpt lat="40.90906884812474" lon="15.208692885341616"><ele>644.0</ele><time>2026-05-03T12:28:46Z</time></trkpt><trkpt lat="40.90895056660292" lon="15.208959832841993"><ele>642.0</ele><time>2026-05-03T12:28:47Z</time></trkpt><trkpt lat="40.908840595496" lon="15.209233129550254"><ele>640.0</ele><time>2026-05-03T12:28:48Z</time></trkpt><trkpt lat="40.90872233529855" lon="15.20950574626864"><ele>640.0</ele><time>2026-05-03T12:28:49Z</time></trkpt><trkpt lat="40.908599856026754" lon="15.209780682530573"><ele>640.0</ele><time>2026-05-03T12:28:50Z</time></trkpt><trkpt lat="40.908474039146355" lon="15.210061474847238"><ele>638.5</ele><time>2026-05-03T12:28:51Z</time></trkpt><trkpt lat="40.9083516604155" lon="15.210344977461665"><ele>637.0</ele><time>2026-05-03T12:28:52Z</time></trkpt><trkpt lat="40.90821980446434" lon="15.210624246426528"><ele>635.5</ele><time>2026-05-03T12:28:53Z</time></trkpt><trkpt lat="40.90809974011318" lon="15.210900915866828"><ele>634.0</ele><time>2026-05-03T12:28:54Z</time></trkpt><trkpt lat="40.90797515950463" lon="15.211176324634778"><ele>634.0</ele><time>2026-05-03T12:28:55Z</time></trkpt><trkpt lat="40.907850908176044" lon="15.211453940237499"><ele>634.0</ele><time>2026-05-03T12:28:56Z</time></trkpt><trkpt lat="40.90772605150899" lon="15.211730023063653"><ele>632.5</ele><time>2026-05-03T12:28:57Z</time></trkpt><trkpt lat="40.9075915596217" lon="15.211995242667605"><ele>631.0</ele><time>2026-05-03T12:28:58Z</time></trkpt><trkpt lat="40.90746704340385" lon="15.212268721578027"><ele>629.0</ele><time>2026-05-03T12:28:59Z</time></trkpt><trkpt lat="40.90734228423223" lon="15.212542734096775"><ele>627.0</ele><time>2026-05-03T12:29:00Z</time></trkpt><trkpt lat="40.90722988381675" lon="15.212830352147673"><ele>627.0</ele><time>2026-05-03T12:29:01Z</time></trkpt><trkpt lat="40.90710849231964" lon="15.21310780520378"><ele>627.0</ele><time>2026-05-03T12:29:02Z</time></trkpt><trkpt lat="40.90698640522799" lon="15.213383912042836"><ele>625.5</ele><time>2026-05-03T12:29:03Z</time></trkpt><trkpt lat="40.90686098044423" lon="15.213664209919035"><ele>624.0</ele><time>2026-05-03T12:29:04Z</time></trkpt><trkpt lat="40.90673195159066" lon="15.213943095490647"><ele>622.0</ele><time>2026-05-03T12:29:05Z</time></trkpt><trkpt lat="40.90660362607244" lon="15.214222657865237"><ele>620.0</ele><time>2026-05-03T12:29:06Z</time></trkpt><trkpt lat="40.906477244353425" lon="15.214509707112647"><ele>620.0</ele><time>2026-05-03T12:29:07Z</time></trkpt><trkpt lat="40.90635303900453" lon="15.214793267219594"><ele>620.0</ele><time>2026-05-03T12:29:08Z</time></trkpt><trkpt lat="40.90622482932209" lon="15.215078391107719"><ele>618.5</ele><time>2026-05-03T12:29:09Z</time></trkpt><trkpt lat="40.90609334268498" lon="15.215366820618526"><ele>617.0</ele><time>2026-05-03T12:29:10Z</time></trkpt><trkpt lat="40.90596162094058" lon="15.215648422502113"><ele>615.0</ele><time>2026-05-03T12:29:11Z</time></trkpt><trkpt lat="40.90583433083382" lon="15.21593418898227"><ele>613.0</ele><time>2026-05-03T12:29:12Z</time></trkpt><trkpt lat="40.90571594096003" lon="15.216216112714005"><ele>610.5</ele><time>2026-05-03T12:29:13Z</time></trkpt><trkpt lat="40.90558434039439" lon="15.216503515271693"><ele>608.0</ele><time>2026-05-03T12:29:14Z</time></trkpt><trkpt lat="40.90545455796307" lon="15.216791323068277"><ele>608.0</ele><time>2026-05-03T12:29:15Z</time></trkpt><trkpt lat="40.90532615039029" lon="15.217087272831737"><ele>608.0</ele><time>2026-05-03T12:29:16Z</time></trkpt><trkpt lat="40.90520506200913" lon="15.217379690411814"><ele>605.5</ele><time>2026-05-03T12:29:17Z</time></trkpt><trkpt lat="40.90507034021068" lon="15.21767265274257"><ele>603.0</ele><time>2026-05-03T12:29:18Z</time></trkpt><trkpt lat="40.904937555529735" lon="15.21796675008407"><ele>600.5</ele><time>2026-05-03T12:29:18.999Z</time></trkpt><trkpt lat="40.90480454428368" lon="15.218265205796866"><ele>598.0</ele><time>2026-05-03T12:29:19.999Z</time></trkpt><trkpt lat="40.904670711635745" lon="15.218561611772609"><ele>598.0</ele><time>2026-05-03T12:29:20.999Z</time></trkpt><trkpt lat="40.904536269726314" lon="15.21886007657813"><ele>598.0</ele><time>2026-05-03T12:29:21.999Z</time></trkpt><trkpt lat="40.90440558850697" lon="15.219158341341554"><ele>596.5</ele><time>2026-05-03T12:29:22.999Z</time></trkpt><trkpt lat="40.904272687050934" lon="15.219458515858552"><ele>595.0</ele><time>2026-05-03T12:29:23.999Z</time></trkpt><trkpt lat="40.904136502197595" lon="15.219756627253073"><ele>591.0</ele><time>2026-05-03T12:29:24.999Z</time></trkpt><trkpt lat="40.90399798524561" lon="15.220049019097795"><ele>587.0</ele><time>2026-05-03T12:29:25.999Z</time></trkpt><trkpt lat="40.90386373017664" lon="15.220346780549715"><ele>587.0</ele><time>2026-05-03T12:29:26.999Z</time></trkpt><trkpt lat="40.90372607237593" lon="15.22064603676218"><ele>587.0</ele><time>2026-05-03T12:29:27.999Z</time></trkpt><trkpt lat="40.903586860978955" lon="15.220943051021175"><ele>584.0</ele><time>2026-05-03T12:29:28.999Z</time></trkpt><trkpt lat="40.90344684905732" lon="15.221237679256793"><ele>581.0</ele><time>2026-05-03T12:29:29.999Z</time></trkpt><trkpt lat="40.903309234967566" lon="15.221538666908385"><ele>579.5</ele><time>2026-05-03T12:29:30.999Z</time></trkpt><trkpt lat="40.903178844671245" lon="15.221843632961756"><ele>578.0</ele><time>2026-05-03T12:29:31.999Z</time></trkpt><trkpt lat="40.90303394085184" lon="15.222147900922222"><ele>574.0</ele><time>2026-05-03T12:29:32.999Z</time></trkpt><trkpt lat="40.90289474364643" lon="15.222450018311218"><ele>570.0</ele><time>2026-05-03T12:29:33.999Z</time></trkpt><trkpt lat="40.902762682994755" lon="15.222746187581324"><ele>570.0</ele><time>2026-05-03T12:29:34.999Z</time></trkpt><trkpt lat="40.90262898704615" lon="15.223043664392494"><ele>570.0</ele><time>2026-05-03T12:29:35.999Z</time></trkpt><trkpt lat="40.90249318918279" lon="15.223340251712665"><ele>567.5</ele><time>2026-05-03T12:29:36.999Z</time></trkpt><trkpt lat="40.90235761979936" lon="15.223629913432331"><ele>565.0</ele><time>2026-05-03T12:29:37.999Z</time></trkpt><trkpt lat="40.902221098156865" lon="15.223919597191466"><ele>562.0</ele><time>2026-05-03T12:29:38.999Z</time></trkpt><trkpt lat="40.90208975326927" lon="15.224207736664937"><ele>559.0</ele><time>2026-05-03T12:29:39.999Z</time></trkpt><trkpt lat="40.9019519624148" lon="15.224496137204694"><ele>559.0</ele><time>2026-05-03T12:29:40.999Z</time></trkpt><trkpt lat="40.901820624323335" lon="15.22478397384724"><ele>559.0</ele><time>2026-05-03T12:29:41.999Z</time></trkpt><trkpt lat="40.901691061190064" lon="15.225080749638506"><ele>555.5</ele><time>2026-05-03T12:29:42.999Z</time></trkpt><trkpt lat="40.90155894005505" lon="15.225375153065174"><ele>552.0</ele><time>2026-05-03T12:29:43.999Z</time></trkpt><trkpt lat="40.90142472912782" lon="15.225670697933381"><ele>549.0</ele><time>2026-05-03T12:29:44.999Z</time></trkpt><trkpt lat="40.90128875183911" lon="15.225963372240114"><ele>546.0</ele><time>2026-05-03T12:29:45.999Z</time></trkpt><trkpt lat="40.901152812531336" lon="15.226253738768726"><ele>542.0</ele><time>2026-05-03T12:29:46.999Z</time></trkpt><trkpt lat="40.901021595896225" lon="15.226548131962542"><ele>538.0</ele><time>2026-05-03T12:29:47.999Z</time></trkpt><trkpt lat="40.900889565079765" lon="15.226840023887714"><ele>538.0</ele><time>2026-05-03T12:29:48.999Z</time></trkpt><trkpt lat="40.90075872405056" lon="15.227133759411599"><ele>538.0</ele><time>2026-05-03T12:29:49.999Z</time></trkpt><trkpt lat="40.90062561822514" lon="15.227423385827239"><ele>533.5</ele><time>2026-05-03T12:29:50.999Z</time></trkpt><trkpt lat="40.90049714227672" lon="15.227697848505427"><ele>529.0</ele><time>2026-05-03T12:29:51.999Z</time></trkpt><trkpt lat="40.90037494479888" lon="15.227965681430712"><ele>528.3333333333334</ele><time>2026-05-03T12:29:52.999Z</time></trkpt><trkpt lat="40.900256812425674" lon="15.228222119754507"><ele>527.6666666666666</ele><time>2026-05-03T12:29:53.999Z</time></trkpt><trkpt lat="40.900144496895436" lon="15.2284752149657"><ele>527.0</ele><time>2026-05-03T12:29:54.999Z</time></trkpt><trkpt lat="40.90002907305299" lon="15.228719057751384"><ele>527.0</ele><time>2026-05-03T12:29:55.999Z</time></trkpt><trkpt lat="40.89991138976232" lon="15.228944952402346"><ele>527.0</ele><time>2026-05-03T12:29:56.999Z</time></trkpt><trkpt lat="40.89980774527004" lon="15.229173331194197"><ele>527.0</ele><time>2026-05-03T12:29:57.999Z</time></trkpt><trkpt lat="40.8996865199085" lon="15.229375801940831"><ele>523.3333333333333</ele><time>2026-05-03T12:29:58.999Z</time></trkpt><trkpt lat="40.89953768147656" lon="15.229563564817916"><ele>519.6666666666666</ele><time>2026-05-03T12:29:59.999Z</time></trkpt><trkpt lat="40.89935286563197" lon="15.22973150769885"><ele>516.0</ele><time>2026-05-03T12:30:00.999Z</time></trkpt><trkpt lat="40.89916248496902" lon="15.229904145740921"><ele>511.0</ele><time>2026-05-03T12:30:01.999Z</time></trkpt><trkpt lat="40.898963152203024" lon="15.230088050785008"><ele>506.0</ele><time>2026-05-03T12:30:02.999Z</time></trkpt><trkpt lat="40.89876701033385" lon="15.23028250001929"><ele>506.0</ele><time>2026-05-03T12:30:03.999Z</time></trkpt><trkpt lat="40.898553888950055" lon="15.230458005131673"><ele>506.0</ele><time>2026-05-03T12:30:04.999Z</time></trkpt><trkpt lat="40.898355151295995" lon="15.230651008102846"><ele>500.5</ele><time>2026-05-03T12:30:05.999Z</time></trkpt><trkpt lat="40.89815302870809" lon="15.230848329208959"><ele>495.0</ele><time>2026-05-03T12:30:06.999Z</time></trkpt><trkpt lat="40.89796009812239" lon="15.23106360066364"><ele>495.0</ele><time>2026-05-03T12:30:07.999Z</time></trkpt><trkpt lat="40.897752487248404" lon="15.231264318814935"><ele>495.0</ele><time>2026-05-03T12:30:08.999Z</time></trkpt><trkpt lat="40.89754335812344" lon="15.231467331558536"><ele>491.5</ele><time>2026-05-03T12:30:09.999Z</time></trkpt><trkpt lat="40.8973274504221" lon="15.231647224163757"><ele>488.0</ele><time>2026-05-03T12:30:10.999Z</time></trkpt><trkpt lat="40.897120077584326" lon="15.231845019421748"><ele>488.0</ele><time>2026-05-03T12:30:11.999Z</time></trkpt><trkpt lat="40.896910675190604" lon="15.232044750499234"><ele>488.0</ele><time>2026-05-03T12:30:12.999Z</time></trkpt><trkpt lat="40.8967125410282" lon="15.232258323962204"><ele>485.5</ele><time>2026-05-03T12:30:13.999Z</time></trkpt><trkpt lat="40.89650097878202" lon="15.232453266977464"><ele>483.0</ele><time>2026-05-03T12:30:14.999Z</time></trkpt><trkpt lat="40.89629882940393" lon="15.232655821196865"><ele>483.0</ele><time>2026-05-03T12:30:15.999Z</time></trkpt><trkpt lat="40.896092423018516" lon="15.232830850488991"><ele>483.0</ele><time>2026-05-03T12:30:16.999Z</time></trkpt><trkpt lat="40.895895679732575" lon="15.233019980831896"><ele>480.5</ele><time>2026-05-03T12:30:17.999Z</time></trkpt><trkpt lat="40.895696598571895" lon="15.233212517668443"><ele>478.0</ele><time>2026-05-03T12:30:18.999Z</time></trkpt><trkpt lat="40.89550912828745" lon="15.233419824247767"><ele>478.0</ele><time>2026-05-03T12:30:19.999Z</time></trkpt><trkpt lat="40.89530623577303" lon="15.233603255099977"><ele>478.0</ele><time>2026-05-03T12:30:20.999Z</time></trkpt><trkpt lat="40.89509522042573" lon="15.233793470986665"><ele>477.5</ele><time>2026-05-03T12:30:21.999Z</time></trkpt><trkpt lat="40.894892918750365" lon="15.233985141573134"><ele>477.0</ele><time>2026-05-03T12:30:22.999Z</time></trkpt><trkpt lat="40.894692550814355" lon="15.23418141159333"><ele>477.0</ele><time>2026-05-03T12:30:23.999Z</time></trkpt><trkpt lat="40.89450066278244" lon="15.234354194374173"><ele>477.0</ele><time>2026-05-03T12:30:24.999Z</time></trkpt><trkpt lat="40.89432178639057" lon="15.23453036769703"><ele>475.66666666666663</ele><time>2026-05-03T12:30:25.999Z</time></trkpt><trkpt lat="40.894159352239505" lon="15.234721123654595"><ele>474.3333333333333</ele><time>2026-05-03T12:30:26.999Z</time></trkpt><trkpt lat="40.89402096943149" lon="15.234948871133026"><ele>473.0</ele><time>2026-05-03T12:30:28Z</time></trkpt><trkpt lat="40.893896591601674" lon="15.235200634511575"><ele>472.0</ele><time>2026-05-03T12:30:29Z</time></trkpt><trkpt lat="40.893781863751634" lon="15.23547960622761"><ele>471.0</ele><time>2026-05-03T12:30:30Z</time></trkpt><trkpt lat="40.8936872993954" lon="15.235802623954802"><ele>470.0</ele><time>2026-05-03T12:30:31Z</time></trkpt><trkpt lat="40.89359529944008" lon="15.23609188509931"><ele>469.0</ele><time>2026-05-03T12:30:32Z</time></trkpt><trkpt lat="40.89350593598946" lon="15.236353253788986"><ele>468.0</ele><time>2026-05-03T12:30:33Z</time></trkpt><trkpt lat="40.89340665085527" lon="15.23659366590292"><ele>467.0</ele><time>2026-05-03T12:30:34Z</time></trkpt><trkpt lat="40.893260948894635" lon="15.236796281180178"><ele>466.0</ele><time>2026-05-03T12:30:35Z</time></trkpt><trkpt lat="40.8931002600417" lon="15.237030222902876"><ele>466.0</ele><time>2026-05-03T12:30:36Z</time></trkpt><trkpt lat="40.892932592799845" lon="15.237273557585356"><ele>466.0</ele><time>2026-05-03T12:30:37Z</time></trkpt><trkpt lat="40.8927533669761" lon="15.237503592159285"><ele>465.33333333333337</ele><time>2026-05-03T12:30:38Z</time></trkpt><trkpt lat="40.89260350507385" lon="15.237715758230529"><ele>464.66666666666663</ele><time>2026-05-03T12:30:39Z</time></trkpt><trkpt lat="40.89248199599902" lon="15.237936390059101"><ele>464.0</ele><time>2026-05-03T12:30:40Z</time></trkpt><trkpt lat="40.892393588946284" lon="15.238176709344353"><ele>465.3333333333333</ele><time>2026-05-03T12:30:41Z</time></trkpt><trkpt lat="40.892348984406475" lon="15.238449831095359"><ele>466.66666666666663</ele><time>2026-05-03T12:30:42Z</time></trkpt><trkpt lat="40.892338349730316" lon="15.238758189648173"><ele>468.0</ele><time>2026-05-03T12:30:43Z</time></trkpt><trkpt lat="40.892339749386124" lon="15.239089662287787"><ele>468.5</ele><time>2026-05-03T12:30:44Z</time></trkpt><trkpt lat="40.892348056945565" lon="15.239423160502845"><ele>469.0</ele><time>2026-05-03T12:30:45Z</time></trkpt><trkpt lat="40.89234993052521" lon="15.239739987846372"><ele>469.33333333333337</ele><time>2026-05-03T12:30:46Z</time></trkpt><trkpt lat="40.89235030349383" lon="15.240026312637493"><ele>469.66666666666663</ele><time>2026-05-03T12:30:47Z</time></trkpt><trkpt lat="40.89235289732525" lon="15.240299926375712"><ele>470.0</ele><time>2026-05-03T12:30:48Z</time></trkpt><trkpt lat="40.892353280043416" lon="15.240553343452568"><ele>469.66666666666663</ele><time>2026-05-03T12:30:49Z</time></trkpt><trkpt lat="40.89235587532551" lon="15.240796601400898"><ele>469.33333333333337</ele><time>2026-05-03T12:30:50Z</time></trkpt><trkpt lat="40.89236991955097" lon="15.241007277905892"><ele>469.0</ele><time>2026-05-03T12:30:51Z</time></trkpt><trkpt lat="40.89240032490886" lon="15.24119651483762"><ele>469.0</ele><time>2026-05-03T12:30:52Z</time></trkpt><trkpt lat="40.892443024423315" lon="15.241400531822404"><ele>469.0</ele><time>2026-05-03T12:30:53Z</time></trkpt><trkpt lat="40.8925002690934" lon="15.241613285122934"><ele>469.0</ele><time>2026-05-03T12:30:54Z</time></trkpt><trkpt lat="40.8925405231532" lon="15.24183978288329"><ele>469.33333333333337</ele><time>2026-05-03T12:30:55Z</time></trkpt><trkpt lat="40.8926244535512" lon="15.242058914484991"><ele>469.66666666666663</ele><time>2026-05-03T12:30:56Z</time></trkpt><trkpt lat="40.892674770658054" lon="15.242296841828384"><ele>470.0</ele><time>2026-05-03T12:30:57Z</time></trkpt><trkpt lat="40.89270031127926" lon="15.242538290125701"><ele>469.0</ele><time>2026-05-03T12:30:58Z</time></trkpt><trkpt lat="40.89270572621974" lon="15.242778725147758"><ele>468.0</ele><time>2026-05-03T12:30:59Z</time></trkpt><trkpt lat="40.89272469998135" lon="15.243032761460814"><ele>467.0</ele><time>2026-05-03T12:31:00Z</time></trkpt><trkpt lat="40.89277183324019" lon="15.243291594964377"><ele>466.66666666666663</ele><time>2026-05-03T12:31:01Z</time></trkpt><trkpt lat="40.89284650095709" lon="15.243550054292784"><ele>466.33333333333337</ele><time>2026-05-03T12:31:02Z</time></trkpt><trkpt lat="40.89292465872379" lon="15.24381000271605"><ele>466.0</ele><time>2026-05-03T12:31:03Z</time></trkpt><trkpt lat="40.8929847005054" lon="15.244055380978914"><ele>465.6666666666667</ele><time>2026-05-03T12:31:04Z</time></trkpt><trkpt lat="40.89303178691942" lon="15.24429104483873"><ele>465.33333333333337</ele><time>2026-05-03T12:31:05Z</time></trkpt><trkpt lat="40.893055077206995" lon="15.244534395531714"><ele>465.0</ele><time>2026-05-03T12:31:06Z</time></trkpt><trkpt lat="40.89306017894557" lon="15.24479854613968"><ele>465.66666666666663</ele><time>2026-05-03T12:31:07Z</time></trkpt><trkpt lat="40.89305730277144" lon="15.245061082806927"><ele>466.3333333333333</ele><time>2026-05-03T12:31:08Z</time></trkpt><trkpt lat="40.893042662447094" lon="15.245293199547229"><ele>467.0</ele><time>2026-05-03T12:31:09Z</time></trkpt><trkpt lat="40.893033417563345" lon="15.245498304767937"><ele>466.75</ele><time>2026-05-03T12:31:10Z</time></trkpt><trkpt lat="40.89301110800885" lon="15.245683718421903"><ele>466.5</ele><time>2026-05-03T12:31:11Z</time></trkpt><trkpt lat="40.89296236229417" lon="15.24584601071177"><ele>466.25</ele><time>2026-05-03T12:31:12Z</time></trkpt><trkpt lat="40.892884871444465" lon="15.246004492190096"><ele>466.0</ele><time>2026-05-03T12:31:13Z</time></trkpt><trkpt lat="40.89278500543631" lon="15.246167876283213"><ele>466.0</ele><time>2026-05-03T12:31:14Z</time></trkpt><trkpt lat="40.892669291386504" lon="15.246328449543498"><ele>466.0</ele><time>2026-05-03T12:31:15Z</time></trkpt><trkpt lat="40.8925653312706" lon="15.246465151835947"><ele>466.0</ele><time>2026-05-03T12:31:16Z</time></trkpt><trkpt lat="40.8924644032326" lon="15.246590672564484"><ele>464.0</ele><time>2026-05-03T12:31:17Z</time></trkpt><trkpt lat="40.8923285314067" lon="15.246732027691035"><ele>462.0</ele><time>2026-05-03T12:31:18Z</time></trkpt><trkpt lat="40.892249715516435" lon="15.24692403055235"><ele>460.0</ele><time>2026-05-03T12:31:19Z</time></trkpt><trkpt lat="40.89220628341932" lon="15.247160106014583"><ele>461.25</ele><time>2026-05-03T12:31:20Z</time></trkpt><trkpt lat="40.892169597570685" lon="15.247365256345997"><ele>462.5</ele><time>2026-05-03T12:31:21Z</time></trkpt><trkpt lat="40.89214363599383" lon="15.247536839343693"><ele>463.75</ele><time>2026-05-03T12:31:22Z</time></trkpt><trkpt lat="40.8921143123868" lon="15.247672644512177"><ele>465.0</ele><time>2026-05-03T12:31:22.999Z</time></trkpt><trkpt lat="40.89211031329749" lon="15.24777247106511"><ele>465.0</ele><time>2026-05-03T12:31:23.999Z</time></trkpt><trkpt lat="40.89219999539458" lon="15.247857782187387"><ele>465.0</ele><time>2026-05-03T12:31:25.999Z</time></trkpt><trkpt lat="40.8922850533767" lon="15.24783365061264"><ele>465.0</ele><time>2026-05-03T12:31:26.999Z</time></trkpt><trkpt lat="40.89236946519076" lon="15.24781787994204"><ele>465.0</ele><time>2026-05-03T12:31:27.999Z</time></trkpt><trkpt lat="40.89243413102979" lon="15.247860276759504"><ele>465.0</ele><time>2026-05-03T12:31:28.999Z</time></trkpt><trkpt lat="40.89245448995594" lon="15.247999205146378"><ele>465.0</ele><time>2026-05-03T12:31:30.999Z</time></trkpt><trkpt lat="40.89241037058456" lon="15.248114551859583"><ele>465.0</ele><time>2026-05-03T12:31:32.999Z</time></trkpt><trkpt lat="40.892385348408155" lon="15.248208892829966"><ele>465.0</ele><time>2026-05-03T12:31:33.999Z</time></trkpt><trkpt lat="40.892351201197236" lon="15.248319814410927"><ele>465.0</ele><time>2026-05-03T12:31:34.999Z</time></trkpt><trkpt lat="40.8923055910293" lon="15.248446790657685"><ele>465.0</ele><time>2026-05-03T12:31:35.999Z</time></trkpt><trkpt lat="40.89225299393143" lon="15.248585712642944"><ele>466.0</ele><time>2026-05-03T12:31:36.999Z</time></trkpt><trkpt lat="40.892191773870664" lon="15.248755399841425"><ele>467.0</ele><time>2026-05-03T12:31:37.999Z</time></trkpt><trkpt lat="40.89211711287436" lon="15.248951496387884"><ele>468.0</ele><time>2026-05-03T12:31:38.999Z</time></trkpt><trkpt lat="40.89203746933983" lon="15.249151953461944"><ele>468.66666666666663</ele><time>2026-05-03T12:31:39.999Z</time></trkpt><trkpt lat="40.891947815652" lon="15.249368286554908"><ele>469.3333333333333</ele><time>2026-05-03T12:31:40.999Z</time></trkpt><trkpt lat="40.89184791925204" lon="15.24958909403358"><ele>470.0</ele><time>2026-05-03T12:31:41.999Z</time></trkpt><trkpt lat="40.8917280098928" lon="15.24983864875618"><ele>470.0</ele><time>2026-05-03T12:31:42.999Z</time></trkpt><trkpt lat="40.891606116572916" lon="15.250094695112711"><ele>470.0</ele><time>2026-05-03T12:31:43.999Z</time></trkpt><trkpt lat="40.89148257625163" lon="15.250365958472171"><ele>474.5</ele><time>2026-05-03T12:31:44.999Z</time></trkpt><trkpt lat="40.891364292706456" lon="15.250634438458304"><ele>479.0</ele><time>2026-05-03T12:31:45.999Z</time></trkpt><trkpt lat="40.89124603202896" lon="15.250907165861717"><ele>479.0</ele><time>2026-05-03T12:31:46.999Z</time></trkpt><trkpt lat="40.89108235041873" lon="15.251266644100378"><ele>479.0</ele><time>2026-05-03T12:31:47.999Z</time></trkpt><trkpt lat="40.89093033742679" lon="15.251599871913093"><ele>476.5</ele><time>2026-05-03T12:31:48.999Z</time></trkpt><trkpt lat="40.89078007804074" lon="15.251926961583292"><ele>474.0</ele><time>2026-05-03T12:31:49.999Z</time></trkpt><trkpt lat="40.89062065691243" lon="15.252264537771138"><ele>476.5</ele><time>2026-05-03T12:31:50.999Z</time></trkpt><trkpt lat="40.890462196481515" lon="15.252605495100005"><ele>479.0</ele><time>2026-05-03T12:31:51.999Z</time></trkpt><trkpt lat="40.8903058578315" lon="15.252959120334296"><ele>482.0</ele><time>2026-05-03T12:31:52.999Z</time></trkpt><trkpt lat="40.89014516402364" lon="15.253321345980838"><ele>485.0</ele><time>2026-05-03T12:31:53.999Z</time></trkpt><trkpt lat="40.889987742335116" lon="15.253654861931585"><ele>481.0</ele><time>2026-05-03T12:31:54.999Z</time></trkpt><trkpt lat="40.889849301254245" lon="15.25393201025222"><ele>477.0</ele><time>2026-05-03T12:31:55.999Z</time></trkpt><trkpt lat="40.88971997740124" lon="15.254181924294395"><ele>477.0</ele><time>2026-05-03T12:31:56.999Z</time></trkpt><trkpt lat="40.889598957114536" lon="15.25440566192781"><ele>477.0</ele><time>2026-05-03T12:31:57.999Z</time></trkpt><trkpt lat="40.8894840793687" lon="15.254620774302689"><ele>477.0</ele><time>2026-05-03T12:31:58.999Z</time></trkpt><trkpt lat="40.88937484414047" lon="15.254820858058803"><ele>478.33333333333337</ele><time>2026-05-03T12:31:59.999Z</time></trkpt><trkpt lat="40.889271617638954" lon="15.255014774755084"><ele>479.6666666666667</ele><time>2026-05-03T12:32:00.999Z</time></trkpt><trkpt lat="40.88916942455373" lon="15.255202831427113"><ele>481.0</ele><time>2026-05-03T12:32:01.999Z</time></trkpt><trkpt lat="40.889075404723336" lon="15.255377450639863"><ele>479.0</ele><time>2026-05-03T12:32:02.999Z</time></trkpt><trkpt lat="40.888982619755346" lon="15.255556100361785"><ele>477.0</ele><time>2026-05-03T12:32:03.999Z</time></trkpt><trkpt lat="40.88888976984238" lon="15.255736311404457"><ele>475.0</ele><time>2026-05-03T12:32:04.999Z</time></trkpt><trkpt lat="40.88880193425981" lon="15.255921270518977"><ele>475.0</ele><time>2026-05-03T12:32:05.999Z</time></trkpt><trkpt lat="40.88870956868424" lon="15.256102740372977"><ele>475.0</ele><time>2026-05-03T12:32:06.999Z</time></trkpt><trkpt lat="40.888612058752024" lon="15.256293669059769"><ele>475.0</ele><time>2026-05-03T12:32:07.999Z</time></trkpt><trkpt lat="40.888512373162186" lon="15.256485493493457"><ele>471.6666666666667</ele><time>2026-05-03T12:32:08.999Z</time></trkpt><trkpt lat="40.88840941188722" lon="15.256670139048284"><ele>468.33333333333337</ele><time>2026-05-03T12:32:09.999Z</time></trkpt><trkpt lat="40.88830919868204" lon="15.256892852048509"><ele>465.0</ele><time>2026-05-03T12:32:10.999Z</time></trkpt><trkpt lat="40.88819355326037" lon="15.257088043566409"><ele>462.0</ele><time>2026-05-03T12:32:11.999Z</time></trkpt><trkpt lat="40.888076894865975" lon="15.257309330663286"><ele>459.0</ele><time>2026-05-03T12:32:12.999Z</time></trkpt><trkpt lat="40.88794950867489" lon="15.257552855137144"><ele>456.0</ele><time>2026-05-03T12:32:13.999Z</time></trkpt><trkpt lat="40.8878225808272" lon="15.257791033527717"><ele>456.0</ele><time>2026-05-03T12:32:14.999Z</time></trkpt><trkpt lat="40.88769634049307" lon="15.258042029075478"><ele>456.0</ele><time>2026-05-03T12:32:15.999Z</time></trkpt><trkpt lat="40.887569775018264" lon="15.258302860827289"><ele>454.5</ele><time>2026-05-03T12:32:16.999Z</time></trkpt><trkpt lat="40.887462982768476" lon="15.258581915682804"><ele>453.0</ele><time>2026-05-03T12:32:17.999Z</time></trkpt><trkpt lat="40.88737109995522" lon="15.258883423089442"><ele>452.0</ele><time>2026-05-03T12:32:18.999Z</time></trkpt><trkpt lat="40.88729082559815" lon="15.259200050595151"><ele>451.0</ele><time>2026-05-03T12:32:19.999Z</time></trkpt><trkpt lat="40.88722634090463" lon="15.259522566002314"><ele>452.5</ele><time>2026-05-03T12:32:20.999Z</time></trkpt><trkpt lat="40.88717471056533" lon="15.25985408992582"><ele>454.0</ele><time>2026-05-03T12:32:21.999Z</time></trkpt><trkpt lat="40.887143671944756" lon="15.260203299957256"><ele>454.0</ele><time>2026-05-03T12:32:22.999Z</time></trkpt><trkpt lat="40.887113044971564" lon="15.260579248439884"><ele>454.0</ele><time>2026-05-03T12:32:23.999Z</time></trkpt><trkpt lat="40.88707508405121" lon="15.260985665706334"><ele>457.5</ele><time>2026-05-03T12:32:24.999Z</time></trkpt><trkpt lat="40.88703394524254" lon="15.261390576878906"><ele>461.0</ele><time>2026-05-03T12:32:25.999Z</time></trkpt><trkpt lat="40.886990169212844" lon="15.261775417778749"><ele>466.0</ele><time>2026-05-03T12:32:26.999Z</time></trkpt><trkpt lat="40.88695174436536" lon="15.26213502281153"><ele>471.0</ele><time>2026-05-03T12:32:27.999Z</time></trkpt><trkpt lat="40.88689709478827" lon="15.262486152349041"><ele>472.5</ele><time>2026-05-03T12:32:28.999Z</time></trkpt><trkpt lat="40.886798733354105" lon="15.262834287045568"><ele>474.0</ele><time>2026-05-03T12:32:29.999Z</time></trkpt><trkpt lat="40.88673026498356" lon="15.263198222275467"><ele>462.5</ele><time>2026-05-03T12:32:30.999Z</time></trkpt><trkpt lat="40.88664257775938" lon="15.26356320245303"><ele>451.0</ele><time>2026-05-03T12:32:31.998Z</time></trkpt><trkpt lat="40.886558385337025" lon="15.263934291318508"><ele>450.0</ele><time>2026-05-03T12:32:32.998Z</time></trkpt><trkpt lat="40.88647356049368" lon="15.264293090483719"><ele>449.0</ele><time>2026-05-03T12:32:34Z</time></trkpt><trkpt lat="40.88639540489419" lon="15.26464958652814"><ele>448.0</ele><time>2026-05-03T12:32:35Z</time></trkpt><trkpt lat="40.8863173711475" lon="15.265010558206356"><ele>447.0</ele><time>2026-05-03T12:32:36Z</time></trkpt><trkpt lat="40.886238428527335" lon="15.265369842528235"><ele>445.5</ele><time>2026-05-03T12:32:37Z</time></trkpt><trkpt lat="40.88615457042236" lon="15.265737740706701"><ele>444.0</ele><time>2026-05-03T12:32:38Z</time></trkpt><trkpt lat="40.88607273929683" lon="15.266100806703507"><ele>444.0</ele><time>2026-05-03T12:32:39Z</time></trkpt><trkpt lat="40.885991760927396" lon="15.266464467144743"><ele>444.0</ele><time>2026-05-03T12:32:40Z</time></trkpt><trkpt lat="40.88592164815753" lon="15.266833367308852"><ele>443.0</ele><time>2026-05-03T12:32:41Z</time></trkpt><trkpt lat="40.88586954651804" lon="15.267208895368757"><ele>442.0</ele><time>2026-05-03T12:32:42Z</time></trkpt><trkpt lat="40.885838683203325" lon="15.267590874481009"><ele>441.5</ele><time>2026-05-03T12:32:43Z</time></trkpt><trkpt lat="40.885817503515625" lon="15.267987100498832"><ele>441.0</ele><time>2026-05-03T12:32:44Z</time></trkpt><trkpt lat="40.88579154726153" lon="15.268386136221158"><ele>440.5</ele><time>2026-05-03T12:32:45Z</time></trkpt><trkpt lat="40.8857586714075" lon="15.268779041982604"><ele>440.0</ele><time>2026-05-03T12:32:46Z</time></trkpt><trkpt lat="40.885728099611875" lon="15.269175724072394"><ele>439.5</ele><time>2026-05-03T12:32:47Z</time></trkpt><trkpt lat="40.88569574360557" lon="15.269571740914376"><ele>439.0</ele><time>2026-05-03T12:32:48Z</time></trkpt><trkpt lat="40.88566818094837" lon="15.269967467219209"><ele>439.0</ele><time>2026-05-03T12:32:49Z</time></trkpt><trkpt lat="40.88564043915427" lon="15.270357129238787"><ele>439.0</ele><time>2026-05-03T12:32:50Z</time></trkpt><trkpt lat="40.88560895469854" lon="15.270750802381738"><ele>439.5</ele><time>2026-05-03T12:32:51Z</time></trkpt><trkpt lat="40.88557687537173" lon="15.271136954503453"><ele>440.0</ele><time>2026-05-03T12:32:52Z</time></trkpt><trkpt lat="40.88554751655559" lon="15.271522353799993"><ele>440.0</ele><time>2026-05-03T12:32:53Z</time></trkpt><trkpt lat="40.88551972340288" lon="15.271914611974367"><ele>440.0</ele><time>2026-05-03T12:32:54Z</time></trkpt><trkpt lat="40.88548768331043" lon="15.272297735676444"><ele>440.0</ele><time>2026-05-03T12:32:55Z</time></trkpt><trkpt lat="40.88545600809008" lon="15.272687962933546"><ele>440.0</ele><time>2026-05-03T12:32:56Z</time></trkpt><trkpt lat="40.88542679817633" lon="15.273078500838412"><ele>440.0</ele><time>2026-05-03T12:32:57Z</time></trkpt><trkpt lat="40.885402309280884" lon="15.273452573024672"><ele>440.0</ele><time>2026-05-03T12:32:58Z</time></trkpt><trkpt lat="40.88537471966859" lon="15.273843250651343"><ele>440.0</ele><time>2026-05-03T12:32:59Z</time></trkpt><trkpt lat="40.885341077395516" lon="15.274220826054123"><ele>440.0</ele><time>2026-05-03T12:33:00Z</time></trkpt><trkpt lat="40.88528079180461" lon="15.27457951154774"><ele>440.0</ele><time>2026-05-03T12:33:01Z</time></trkpt><trkpt lat="40.88518443215943" lon="15.274917210085716"><ele>440.0</ele><time>2026-05-03T12:33:02Z</time></trkpt><trkpt lat="40.88506564625977" lon="15.27523260746146"><ele>439.0</ele><time>2026-05-03T12:33:03Z</time></trkpt><trkpt lat="40.88492091082912" lon="15.275536165514522"><ele>438.0</ele><time>2026-05-03T12:33:04Z</time></trkpt><trkpt lat="40.884758204174" lon="15.275829896946513"><ele>438.0</ele><time>2026-05-03T12:33:05Z</time></trkpt><trkpt lat="40.88456899704475" lon="15.276099297909196"><ele>438.0</ele><time>2026-05-03T12:33:06Z</time></trkpt><trkpt lat="40.88436812077481" lon="15.276345867714591"><ele>437.5</ele><time>2026-05-03T12:33:07Z</time></trkpt><trkpt lat="40.88413671895962" lon="15.276562490365583"><ele>437.0</ele><time>2026-05-03T12:33:08Z</time></trkpt><trkpt lat="40.883894395207356" lon="15.276764431804379"><ele>437.0</ele><time>2026-05-03T12:33:09Z</time></trkpt><trkpt lat="40.88364354956958" lon="15.276950679521832"><ele>437.0</ele><time>2026-05-03T12:33:10Z</time></trkpt><trkpt lat="40.88340345981384" lon="15.277141241773515"><ele>435.5</ele><time>2026-05-03T12:33:11Z</time></trkpt><trkpt lat="40.88316252717734" lon="15.27734521194743"><ele>434.0</ele><time>2026-05-03T12:33:12Z</time></trkpt><trkpt lat="40.88292546120457" lon="15.277546149377644"><ele>434.0</ele><time>2026-05-03T12:33:13Z</time></trkpt><trkpt lat="40.8827016826226" lon="15.277763708746841"><ele>434.0</ele><time>2026-05-03T12:33:14Z</time></trkpt><trkpt lat="40.88249546021353" lon="15.277987029086605"><ele>434.5</ele><time>2026-05-03T12:33:15Z</time></trkpt><trkpt lat="40.882313239278396" lon="15.278256783535149"><ele>435.0</ele><time>2026-05-03T12:33:16Z</time></trkpt><trkpt lat="40.88215467374059" lon="15.278522485051171"><ele>435.0</ele><time>2026-05-03T12:33:17Z</time></trkpt><trkpt lat="40.88202144552026" lon="15.278825924706142"><ele>435.0</ele><time>2026-05-03T12:33:18Z</time></trkpt><trkpt lat="40.88189057467108" lon="15.279149944820647"><ele>434.5</ele><time>2026-05-03T12:33:19Z</time></trkpt><trkpt lat="40.88178626122509" lon="15.279483550882313"><ele>434.0</ele><time>2026-05-03T12:33:20Z</time></trkpt><trkpt lat="40.88170256300623" lon="15.279819379766582"><ele>441.5</ele><time>2026-05-03T12:33:21Z</time></trkpt><trkpt lat="40.881656773079506" lon="15.280160316514815"><ele>449.0</ele><time>2026-05-03T12:33:22Z</time></trkpt><trkpt lat="40.88165077006814" lon="15.280516337634053"><ele>449.0</ele><time>2026-05-03T12:33:23Z</time></trkpt><trkpt lat="40.881678881498964" lon="15.280896946282857"><ele>449.0</ele><time>2026-05-03T12:33:24Z</time></trkpt><trkpt lat="40.88171394340024" lon="15.281277814652846"><ele>447.0</ele><time>2026-05-03T12:33:24.999Z</time></trkpt><trkpt lat="40.881741350056934" lon="15.281661656731751"><ele>445.0</ele><time>2026-05-03T12:33:25.999Z</time></trkpt><trkpt lat="40.88175951735629" lon="15.282039611968376"><ele>440.5</ele><time>2026-05-03T12:33:26.999Z</time></trkpt><trkpt lat="40.88177607910235" lon="15.282413552579058"><ele>436.0</ele><time>2026-05-03T12:33:27.999Z</time></trkpt><trkpt lat="40.8817950602499" lon="15.282788793059616"><ele>439.0</ele><time>2026-05-03T12:33:28.999Z</time></trkpt><trkpt lat="40.88180991076234" lon="15.283164118033586"><ele>442.0</ele><time>2026-05-03T12:33:29.999Z</time></trkpt><trkpt lat="40.88182504942894" lon="15.283526472963588"><ele>442.0</ele><time>2026-05-03T12:33:30.999Z</time></trkpt><trkpt lat="40.8818232361094" lon="15.283869363248686"><ele>442.0</ele><time>2026-05-03T12:33:31.999Z</time></trkpt><trkpt lat="40.88179446450045" lon="15.284225278385197"><ele>444.0</ele><time>2026-05-03T12:33:32.999Z</time></trkpt><trkpt lat="40.88173648689613" lon="15.284592019382272"><ele>446.0</ele><time>2026-05-03T12:33:33.999Z</time></trkpt><trkpt lat="40.88165626077053" lon="15.284960386579673"><ele>446.0</ele><time>2026-05-03T12:33:34.999Z</time></trkpt><trkpt lat="40.88155806921932" lon="15.285332195981313"><ele>446.0</ele><time>2026-05-03T12:33:35.999Z</time></trkpt><trkpt lat="40.88145016524129" lon="15.285696038690489"><ele>444.5</ele><time>2026-05-03T12:33:36.999Z</time></trkpt><trkpt lat="40.8813389549381" lon="15.286059153248267"><ele>443.0</ele><time>2026-05-03T12:33:37.999Z</time></trkpt><trkpt lat="40.88122215375809" lon="15.28640644711872"><ele>441.0</ele><time>2026-05-03T12:33:38.999Z</time></trkpt><trkpt lat="40.881112892238214" lon="15.286751067195546"><ele>439.0</ele><time>2026-05-03T12:33:39.999Z</time></trkpt><trkpt lat="40.88100843429882" lon="15.287079445767517"><ele>440.0</ele><time>2026-05-03T12:33:40.999Z</time></trkpt><trkpt lat="40.88090410602477" lon="15.28740775961894"><ele>441.0</ele><time>2026-05-03T12:33:41.999Z</time></trkpt><trkpt lat="40.880801654013595" lon="15.287725163319243"><ele>441.0</ele><time>2026-05-03T12:33:42.999Z</time></trkpt><trkpt lat="40.88070346349041" lon="15.288034117992853"><ele>441.0</ele><time>2026-05-03T12:33:43.999Z</time></trkpt><trkpt lat="40.88060740700282" lon="15.288344454217464"><ele>439.5</ele><time>2026-05-03T12:33:44.999Z</time></trkpt><trkpt lat="40.88050773245189" lon="15.2886566016254"><ele>438.0</ele><time>2026-05-03T12:33:45.999Z</time></trkpt><trkpt lat="40.88040811698912" lon="15.288968556577503"><ele>436.5</ele><time>2026-05-03T12:33:46.999Z</time></trkpt><trkpt lat="40.88030489590012" lon="15.28928593990795"><ele>435.0</ele><time>2026-05-03T12:33:47.999Z</time></trkpt><trkpt lat="40.880203585937544" lon="15.289603682557138"><ele>439.0</ele><time>2026-05-03T12:33:48.999Z</time></trkpt><trkpt lat="40.88009818894678" lon="15.289920788688077"><ele>443.0</ele><time>2026-05-03T12:33:49.999Z</time></trkpt><trkpt lat="40.879990313291394" lon="15.290250017603324"><ele>443.0</ele><time>2026-05-03T12:33:50.999Z</time></trkpt><trkpt lat="40.87989672007242" lon="15.29056938870652"><ele>443.0</ele><time>2026-05-03T12:33:51.999Z</time></trkpt><trkpt lat="40.8797988084692" lon="15.290893305515105"><ele>443.0</ele><time>2026-05-03T12:33:52.999Z</time></trkpt><trkpt lat="40.87969620899764" lon="15.291220503037634"><ele>443.0</ele><time>2026-05-03T12:33:53.999Z</time></trkpt><trkpt lat="40.87959058005997" lon="15.291546303445488"><ele>443.0</ele><time>2026-05-03T12:33:54.999Z</time></trkpt><trkpt lat="40.87948586666582" lon="15.291874020605109"><ele>443.0</ele><time>2026-05-03T12:33:55.999Z</time></trkpt><trkpt lat="40.87937698448006" lon="15.292198890576975"><ele>443.0</ele><time>2026-05-03T12:33:56.999Z</time></trkpt><trkpt lat="40.87926751855916" lon="15.292523975342371"><ele>443.0</ele><time>2026-05-03T12:33:57.999Z</time></trkpt><trkpt lat="40.879146960328114" lon="15.292845416843798"><ele>442.5</ele><time>2026-05-03T12:33:58.999Z</time></trkpt><trkpt lat="40.879017190968824" lon="15.293160696352336"><ele>442.0</ele><time>2026-05-03T12:33:59.999Z</time></trkpt><trkpt lat="40.87888918114271" lon="15.293470385791842"><ele>442.0</ele><time>2026-05-03T12:34:00.999Z</time></trkpt><trkpt lat="40.878765617686234" lon="15.293784760450263"><ele>442.0</ele><time>2026-05-03T12:34:01.999Z</time></trkpt><trkpt lat="40.878646661792295" lon="15.29410281264477"><ele>442.5</ele><time>2026-05-03T12:34:02.999Z</time></trkpt><trkpt lat="40.878508427719154" lon="15.29440997587283"><ele>443.0</ele><time>2026-05-03T12:34:03.999Z</time></trkpt><trkpt lat="40.878376022444534" lon="15.294740175291146"><ele>441.0</ele><time>2026-05-03T12:34:04.999Z</time></trkpt><trkpt lat="40.87815855756253" lon="15.29501335558712"><ele>439.0</ele><time>2026-05-03T12:34:05.999Z</time></trkpt><trkpt lat="40.878048768184996" lon="15.295370781035746"><ele>438.0</ele><time>2026-05-03T12:34:06.999Z</time></trkpt><trkpt lat="40.87790095884918" lon="15.295687285267075"><ele>437.0</ele><time>2026-05-03T12:34:07.999Z</time></trkpt><trkpt lat="40.877845453426815" lon="15.296074321544696"><ele>437.0</ele><time>2026-05-03T12:34:08.999Z</time></trkpt><trkpt lat="40.87771096895078" lon="15.296408982336333"><ele>437.0</ele><time>2026-05-03T12:34:09.999Z</time></trkpt><trkpt lat="40.87758050897119" lon="15.296734404087557"><ele>441.5</ele><time>2026-05-03T12:34:10.999Z</time></trkpt><trkpt lat="40.877452348442375" lon="15.29705921834441"><ele>446.0</ele><time>2026-05-03T12:34:11.999Z</time></trkpt><trkpt lat="40.8773228847131" lon="15.297381632854751"><ele>446.0</ele><time>2026-05-03T12:34:12.999Z</time></trkpt><trkpt lat="40.87719335852043" lon="15.297701733697208"><ele>446.0</ele><time>2026-05-03T12:34:13.999Z</time></trkpt><trkpt lat="40.8770668105755" lon="15.298022122044635"><ele>444.5</ele><time>2026-05-03T12:34:14.999Z</time></trkpt><trkpt lat="40.876941456666344" lon="15.298333693908505"><ele>443.0</ele><time>2026-05-03T12:34:15.999Z</time></trkpt><trkpt lat="40.876819317375215" lon="15.298645958693292"><ele>445.0</ele><time>2026-05-03T12:34:16.999Z</time></trkpt><trkpt lat="40.87669703749489" lon="15.2989586101704"><ele>447.0</ele><time>2026-05-03T12:34:17.999Z</time></trkpt><trkpt lat="40.87657910089126" lon="15.299271240652683"><ele>447.0</ele><time>2026-05-03T12:34:18.999Z</time></trkpt><trkpt lat="40.876457811034165" lon="15.299585547164673"><ele>447.0</ele><time>2026-05-03T12:34:19.999Z</time></trkpt><trkpt lat="40.87633724548183" lon="15.29990222015741"><ele>445.5</ele><time>2026-05-03T12:34:20.999Z</time></trkpt><trkpt lat="40.87621620389841" lon="15.300220145699948"><ele>444.0</ele><time>2026-05-03T12:34:21.999Z</time></trkpt><trkpt lat="40.876098811811616" lon="15.3005412327829"><ele>444.0</ele><time>2026-05-03T12:34:22.999Z</time></trkpt><trkpt lat="40.8759777718198" lon="15.300866245745235"><ele>444.0</ele><time>2026-05-03T12:34:23.999Z</time></trkpt><trkpt lat="40.87585190578085" lon="15.301196762689449"><ele>443.5</ele><time>2026-05-03T12:34:24.999Z</time></trkpt><trkpt lat="40.875722517286874" lon="15.301528548449605"><ele>443.0</ele><time>2026-05-03T12:34:25.999Z</time></trkpt><trkpt lat="40.87559489790229" lon="15.30185565175356"><ele>443.0</ele><time>2026-05-03T12:34:26.999Z</time></trkpt><trkpt lat="40.875469878884175" lon="15.302187261948893"><ele>443.0</ele><time>2026-05-03T12:34:27.999Z</time></trkpt><trkpt lat="40.87534694268784" lon="15.302515816314203"><ele>442.0</ele><time>2026-05-03T12:34:28.999Z</time></trkpt><trkpt lat="40.875223816843295" lon="15.30284358405028"><ele>441.0</ele><time>2026-05-03T12:34:29.999Z</time></trkpt><trkpt lat="40.875098409511985" lon="15.303170851309485"><ele>440.5</ele><time>2026-05-03T12:34:30.999Z</time></trkpt><trkpt lat="40.874970341906334" lon="15.303496184531031"><ele>440.0</ele><time>2026-05-03T12:34:31.999Z</time></trkpt><trkpt lat="40.87483835282838" lon="15.303810307832364"><ele>439.5</ele><time>2026-05-03T12:34:32.999Z</time></trkpt><trkpt lat="40.874695390265686" lon="15.304113132358077"><ele>439.0</ele><time>2026-05-03T12:34:33.999Z</time></trkpt><trkpt lat="40.87454799375426" lon="15.304402951981187"><ele>439.0</ele><time>2026-05-03T12:34:34.999Z</time></trkpt><trkpt lat="40.87439181872432" lon="15.304683705260008"><ele>439.0</ele><time>2026-05-03T12:34:35.998Z</time></trkpt><trkpt lat="40.87422295015439" lon="15.304958606547688"><ele>439.0</ele><time>2026-05-03T12:34:36.998Z</time></trkpt><trkpt lat="40.87404208811694" lon="15.30521699867907"><ele>439.0</ele><time>2026-05-03T12:34:37.998Z</time></trkpt><trkpt lat="40.873852086020094" lon="15.305466529688795"><ele>439.5</ele><time>2026-05-03T12:34:38.998Z</time></trkpt><trkpt lat="40.87365111533569" lon="15.305700298474765"><ele>440.0</ele><time>2026-05-03T12:34:40Z</time></trkpt><trkpt lat="40.873442733844676" lon="15.305920218612737"><ele>440.5</ele><time>2026-05-03T12:34:41Z</time></trkpt><trkpt lat="40.87322765261703" lon="15.306123174949384"><ele>441.0</ele><time>2026-05-03T12:34:42Z</time></trkpt><trkpt lat="40.87301239611627" lon="15.306312674084777"><ele>440.5</ele><time>2026-05-03T12:34:43Z</time></trkpt><trkpt lat="40.872790940606976" lon="15.306489583542508"><ele>440.0</ele><time>2026-05-03T12:34:44Z</time></trkpt><trkpt lat="40.872581321197046" lon="15.306654725894916"><ele>441.0</ele><time>2026-05-03T12:34:45Z</time></trkpt><trkpt lat="40.87237586045814" lon="15.306803200028364"><ele>442.0</ele><time>2026-05-03T12:34:46Z</time></trkpt><trkpt lat="40.87218212656514" lon="15.306924874299412"><ele>443.0</ele><time>2026-05-03T12:34:47Z</time></trkpt><trkpt lat="40.871986656050545" lon="15.307028971501325"><ele>443.0</ele><time>2026-05-03T12:34:48Z</time></trkpt><trkpt lat="40.87178597389948" lon="15.307137296775972"><ele>443.0</ele><time>2026-05-03T12:34:49Z</time></trkpt><trkpt lat="40.87157855837246" lon="15.307244746768175"><ele>443.0</ele><time>2026-05-03T12:34:50Z</time></trkpt><trkpt lat="40.87136709634311" lon="15.30734049696055"><ele>443.0</ele><time>2026-05-03T12:34:51Z</time></trkpt><trkpt lat="40.87115589777286" lon="15.307417235420683"><ele>443.0</ele><time>2026-05-03T12:34:52Z</time></trkpt><trkpt lat="40.87094322592821" lon="15.307477589967679"><ele>443.0</ele><time>2026-05-03T12:34:53Z</time></trkpt><trkpt lat="40.87073868169339" lon="15.307528755179185"><ele>443.3333333333333</ele><time>2026-05-03T12:34:54Z</time></trkpt><trkpt lat="40.87052675531976" lon="15.307571745330812"><ele>443.66666666666663</ele><time>2026-05-03T12:34:55Z</time></trkpt><trkpt lat="40.870314890417234" lon="15.307615174322923"><ele>444.0</ele><time>2026-05-03T12:34:56Z</time></trkpt><trkpt lat="40.870107294800896" lon="15.30766664083974"><ele>444.0</ele><time>2026-05-03T12:34:57Z</time></trkpt><trkpt lat="40.86989860247074" lon="15.307728488134083"><ele>444.0</ele><time>2026-05-03T12:34:58Z</time></trkpt><trkpt lat="40.869694741937344" lon="15.307800208837566"><ele>444.0</ele><time>2026-05-03T12:34:59Z</time></trkpt><trkpt lat="40.86948805253484" lon="15.307882755233697"><ele>444.0</ele><time>2026-05-03T12:35:00Z</time></trkpt><trkpt lat="40.869274628800696" lon="15.307971213869486"><ele>444.0</ele><time>2026-05-03T12:35:01Z</time></trkpt><trkpt lat="40.86907230602656" lon="15.308062326892834"><ele>444.0</ele><time>2026-05-03T12:35:02Z</time></trkpt><trkpt lat="40.86887216016572" lon="15.30815485001777"><ele>444.0</ele><time>2026-05-03T12:35:03Z</time></trkpt><trkpt lat="40.86867849996873" lon="15.308242348710806"><ele>444.0</ele><time>2026-05-03T12:35:04Z</time></trkpt><trkpt lat="40.86850815003339" lon="15.308314488361791"><ele>444.0</ele><time>2026-05-03T12:35:05Z</time></trkpt><trkpt lat="40.868374890199135" lon="15.308368130120943"><ele>445.0</ele><time>2026-05-03T12:35:06Z</time></trkpt><trkpt lat="40.86827295190132" lon="15.308409550041265"><ele>446.0</ele><time>2026-05-03T12:35:07Z</time></trkpt><trkpt lat="40.86820728037852" lon="15.308449057630247"><ele>447.0</ele><time>2026-05-03T12:35:08Z</time></trkpt><trkpt lat="40.868210612250245" lon="15.308570394819503"><ele>448.0</ele><time>2026-05-03T12:35:10Z</time></trkpt><trkpt lat="40.868257640990855" lon="15.308663294677267"><ele>449.0</ele><time>2026-05-03T12:35:12Z</time></trkpt><trkpt lat="40.868291778204934" lon="15.308775012642748"><ele>450.0</ele><time>2026-05-03T12:35:14Z</time></trkpt><trkpt lat="40.86834539427868" lon="15.30889809407538"><ele>449.0</ele><time>2026-05-03T12:35:16Z</time></trkpt><trkpt lat="40.868375033734985" lon="15.309005422051362"><ele>448.0</ele><time>2026-05-03T12:35:18Z</time></trkpt><trkpt lat="40.868415732463525" lon="15.309120542854098"><ele>447.0</ele><time>2026-05-03T12:35:20Z</time></trkpt><trkpt lat="40.868445454901234" lon="15.309242795356218"><ele>446.0</ele><time>2026-05-03T12:35:22Z</time></trkpt><trkpt lat="40.868481032932124" lon="15.309372219931806"><ele>445.0</ele><time>2026-05-03T12:35:24Z</time></trkpt><trkpt lat="40.86852734283457" lon="15.309503418097048"><ele>444.50000000000006</ele><time>2026-05-03T12:35:26Z</time></trkpt><trkpt lat="40.86856952718293" lon="15.309638540565803"><ele>444.0</ele><time>2026-05-03T12:35:28Z</time></trkpt><trkpt lat="40.86860287921938" lon="15.309719012747538"><ele>443.5</ele><time>2026-05-03T12:35:29Z</time></trkpt><trkpt lat="40.86864017352824" lon="15.309804541789436"><ele>443.0</ele><time>2026-05-03T12:35:29.999Z</time></trkpt><trkpt lat="40.86867576183147" lon="15.309886187421627"><ele>442.50000000000006</ele><time>2026-05-03T12:35:30.999Z</time></trkpt><trkpt lat="40.86870939169097" lon="15.309971087748973"><ele>442.0</ele><time>2026-05-03T12:35:31.999Z</time></trkpt><trkpt lat="40.86873180676501" lon="15.310051129580463"><ele>441.0</ele><time>2026-05-03T12:35:32.999Z</time></trkpt><trkpt lat="40.86875895344125" lon="15.310133441563442"><ele>441.0</ele><time>2026-05-03T12:35:33.999Z</time></trkpt><trkpt lat="40.86878484891473" lon="15.31020934593661"><ele>441.0</ele><time>2026-05-03T12:35:34.999Z</time></trkpt><trkpt lat="40.86883155016301" lon="15.310339992534777"><ele>441.0</ele><time>2026-05-03T12:35:36.999Z</time></trkpt><trkpt lat="40.86887175024362" lon="15.310433640554635"><ele>441.0</ele><time>2026-05-03T12:35:38.999Z</time></trkpt></trkseg></trk></gpx>